<?xml version="1.0" encoding="UTF-8" standalone="no" ?>
<gpx xmlns="http://www.topografix.com/GPX/1/1" xmlns:xsi="http://www.w3.org/2001/XMLSchema-instance" xsi:schemaLocation="http://www.topografix.com/GPX/1/1 http://www.topografix.com/GPX/1/1/gpx.xsd" version="1.1" creator="VisuGPX - https://www.visugpx.com">
  <metadata>
    <name>69 - Vaulx en Beaujolais - 2022-05-08</name>
  </metadata>
  <trk>
    <name><![CDATA[69 - Vaulx en Beaujolais - 2022-05-08_1]]></name>
    <trkseg>
      <trkpt lat="46.05561" lon="4.59289">
        <ele>291.4</ele>
        <time>2022-05-08T07:05:43Z</time>
      </trkpt>
      <trkpt lat="46.05565" lon="4.59299">
        <ele>292.6</ele>
        <time>2022-05-08T07:05:47Z</time>
      </trkpt>
      <trkpt lat="46.05572" lon="4.5931">
        <ele>292.8</ele>
        <time>2022-05-08T07:05:51Z</time>
      </trkpt>
      <trkpt lat="46.05579" lon="4.5932">
        <ele>293.4</ele>
        <time>2022-05-08T07:05:55Z</time>
      </trkpt>
      <trkpt lat="46.05584" lon="4.59331">
        <ele>294</ele>
        <time>2022-05-08T07:05:59Z</time>
      </trkpt>
      <trkpt lat="46.05589" lon="4.59342">
        <ele>293.8</ele>
        <time>2022-05-08T07:06:03Z</time>
      </trkpt>
      <trkpt lat="46.05595" lon="4.59352">
        <ele>294</ele>
        <time>2022-05-08T07:06:07Z</time>
      </trkpt>
      <trkpt lat="46.05598" lon="4.59363">
        <ele>294.8</ele>
        <time>2022-05-08T07:06:11Z</time>
      </trkpt>
      <trkpt lat="46.05602" lon="4.59376">
        <ele>295.2</ele>
        <time>2022-05-08T07:06:15Z</time>
      </trkpt>
      <trkpt lat="46.05605" lon="4.59389">
        <ele>295.4</ele>
        <time>2022-05-08T07:06:19Z</time>
      </trkpt>
      <trkpt lat="46.0561" lon="4.594">
        <ele>295.4</ele>
        <time>2022-05-08T07:06:23Z</time>
      </trkpt>
      <trkpt lat="46.05616" lon="4.59409">
        <ele>296.2</ele>
        <time>2022-05-08T07:06:27Z</time>
      </trkpt>
      <trkpt lat="46.05622" lon="4.59415">
        <ele>297.2</ele>
        <time>2022-05-08T07:06:31Z</time>
      </trkpt>
      <trkpt lat="46.0563" lon="4.59417">
        <ele>297.4</ele>
        <time>2022-05-08T07:06:35Z</time>
      </trkpt>
      <trkpt lat="46.05636" lon="4.59418">
        <ele>297.6</ele>
        <time>2022-05-08T07:06:39Z</time>
      </trkpt>
      <trkpt lat="46.05641" lon="4.59419">
        <ele>298</ele>
        <time>2022-05-08T07:06:43Z</time>
      </trkpt>
      <trkpt lat="46.05644" lon="4.59411">
        <ele>298</ele>
        <time>2022-05-08T07:06:47Z</time>
      </trkpt>
      <trkpt lat="46.05644" lon="4.59396">
        <ele>298.2</ele>
        <time>2022-05-08T07:06:51Z</time>
      </trkpt>
      <trkpt lat="46.05643" lon="4.59382">
        <ele>298.6</ele>
        <time>2022-05-08T07:06:55Z</time>
      </trkpt>
      <trkpt lat="46.05644" lon="4.5937">
        <ele>300</ele>
        <time>2022-05-08T07:06:59Z</time>
      </trkpt>
      <trkpt lat="46.05643" lon="4.59359">
        <ele>300</ele>
        <time>2022-05-08T07:07:03Z</time>
      </trkpt>
      <trkpt lat="46.05643" lon="4.59348">
        <ele>301</ele>
        <time>2022-05-08T07:07:07Z</time>
      </trkpt>
      <trkpt lat="46.05643" lon="4.59337">
        <ele>301.6</ele>
        <time>2022-05-08T07:07:11Z</time>
      </trkpt>
      <trkpt lat="46.05641" lon="4.59326">
        <ele>302.2</ele>
        <time>2022-05-08T07:07:15Z</time>
      </trkpt>
      <trkpt lat="46.0564" lon="4.59315">
        <ele>302.6</ele>
        <time>2022-05-08T07:07:19Z</time>
      </trkpt>
      <trkpt lat="46.05639" lon="4.59304">
        <ele>303.8</ele>
        <time>2022-05-08T07:07:23Z</time>
      </trkpt>
      <trkpt lat="46.05638" lon="4.59293">
        <ele>304</ele>
        <time>2022-05-08T07:07:27Z</time>
      </trkpt>
      <trkpt lat="46.05637" lon="4.59282">
        <ele>304.6</ele>
        <time>2022-05-08T07:07:31Z</time>
      </trkpt>
      <trkpt lat="46.05634" lon="4.59271">
        <ele>305.4</ele>
        <time>2022-05-08T07:07:35Z</time>
      </trkpt>
      <trkpt lat="46.05631" lon="4.59261">
        <ele>305.2</ele>
        <time>2022-05-08T07:07:39Z</time>
      </trkpt>
      <trkpt lat="46.05628" lon="4.5925">
        <ele>305</ele>
        <time>2022-05-08T07:07:43Z</time>
      </trkpt>
      <trkpt lat="46.05625" lon="4.59239">
        <ele>305.4</ele>
        <time>2022-05-08T07:07:47Z</time>
      </trkpt>
      <trkpt lat="46.05619" lon="4.59227">
        <ele>306.4</ele>
        <time>2022-05-08T07:07:51Z</time>
      </trkpt>
      <trkpt lat="46.05615" lon="4.59215">
        <ele>307</ele>
        <time>2022-05-08T07:07:55Z</time>
      </trkpt>
      <trkpt lat="46.05612" lon="4.59204">
        <ele>307</ele>
        <time>2022-05-08T07:07:59Z</time>
      </trkpt>
      <trkpt lat="46.0561" lon="4.59194">
        <ele>307.8</ele>
        <time>2022-05-08T07:08:03Z</time>
      </trkpt>
      <trkpt lat="46.05612" lon="4.59186">
        <ele>308.8</ele>
        <time>2022-05-08T07:08:07Z</time>
      </trkpt>
      <trkpt lat="46.05617" lon="4.59182">
        <ele>310.2</ele>
        <time>2022-05-08T07:08:11Z</time>
      </trkpt>
      <trkpt lat="46.05624" lon="4.59183">
        <ele>311</ele>
        <time>2022-05-08T07:08:15Z</time>
      </trkpt>
      <trkpt lat="46.0563" lon="4.5919">
        <ele>311.8</ele>
        <time>2022-05-08T07:08:19Z</time>
      </trkpt>
      <trkpt lat="46.05633" lon="4.59199">
        <ele>312.2</ele>
        <time>2022-05-08T07:08:23Z</time>
      </trkpt>
      <trkpt lat="46.05637" lon="4.59208">
        <ele>313</ele>
        <time>2022-05-08T07:08:27Z</time>
      </trkpt>
      <trkpt lat="46.05639" lon="4.59215">
        <ele>312.8</ele>
        <time>2022-05-08T07:08:31Z</time>
      </trkpt>
      <trkpt lat="46.05643" lon="4.59219">
        <ele>312.8</ele>
        <time>2022-05-08T07:08:35Z</time>
      </trkpt>
      <trkpt lat="46.05649" lon="4.59214">
        <ele>313.8</ele>
        <time>2022-05-08T07:08:39Z</time>
      </trkpt>
      <trkpt lat="46.05652" lon="4.59208">
        <ele>314.8</ele>
        <time>2022-05-08T07:08:43Z</time>
      </trkpt>
      <trkpt lat="46.05653" lon="4.59203">
        <ele>315.2</ele>
        <time>2022-05-08T07:08:47Z</time>
      </trkpt>
      <trkpt lat="46.0565" lon="4.59212">
        <ele>314.8</ele>
        <time>2022-05-08T07:08:51Z</time>
      </trkpt>
      <trkpt lat="46.05649" lon="4.5923">
        <ele>313.6</ele>
        <time>2022-05-08T07:08:55Z</time>
      </trkpt>
      <trkpt lat="46.05653" lon="4.59242">
        <ele>315</ele>
        <time>2022-05-08T07:08:59Z</time>
      </trkpt>
      <trkpt lat="46.05657" lon="4.59251">
        <ele>315.4</ele>
        <time>2022-05-08T07:09:03Z</time>
      </trkpt>
      <trkpt lat="46.05661" lon="4.5926">
        <ele>315.6</ele>
        <time>2022-05-08T07:09:07Z</time>
      </trkpt>
      <trkpt lat="46.05665" lon="4.59269">
        <ele>316.8</ele>
        <time>2022-05-08T07:09:11Z</time>
      </trkpt>
      <trkpt lat="46.05669" lon="4.59279">
        <ele>316.8</ele>
        <time>2022-05-08T07:09:15Z</time>
      </trkpt>
      <trkpt lat="46.05673" lon="4.59289">
        <ele>317.6</ele>
        <time>2022-05-08T07:09:19Z</time>
      </trkpt>
      <trkpt lat="46.05678" lon="4.59299">
        <ele>318.2</ele>
        <time>2022-05-08T07:09:23Z</time>
      </trkpt>
      <trkpt lat="46.05682" lon="4.59308">
        <ele>319.2</ele>
        <time>2022-05-08T07:09:27Z</time>
      </trkpt>
      <trkpt lat="46.05686" lon="4.59317">
        <ele>319.4</ele>
        <time>2022-05-08T07:09:31Z</time>
      </trkpt>
      <trkpt lat="46.0569" lon="4.59327">
        <ele>320.2</ele>
        <time>2022-05-08T07:09:35Z</time>
      </trkpt>
      <trkpt lat="46.05694" lon="4.59336">
        <ele>320.8</ele>
        <time>2022-05-08T07:09:39Z</time>
      </trkpt>
      <trkpt lat="46.05697" lon="4.59346">
        <ele>321.4</ele>
        <time>2022-05-08T07:09:43Z</time>
      </trkpt>
      <trkpt lat="46.05701" lon="4.59355">
        <ele>321.8</ele>
        <time>2022-05-08T07:09:47Z</time>
      </trkpt>
      <trkpt lat="46.05706" lon="4.59364">
        <ele>322.8</ele>
        <time>2022-05-08T07:09:51Z</time>
      </trkpt>
      <trkpt lat="46.05711" lon="4.59373">
        <ele>323</ele>
        <time>2022-05-08T07:09:55Z</time>
      </trkpt>
      <trkpt lat="46.05716" lon="4.59382">
        <ele>324.4</ele>
        <time>2022-05-08T07:09:59Z</time>
      </trkpt>
      <trkpt lat="46.05722" lon="4.5939">
        <ele>324.8</ele>
        <time>2022-05-08T07:10:03Z</time>
      </trkpt>
      <trkpt lat="46.05728" lon="4.59397">
        <ele>325.2</ele>
        <time>2022-05-08T07:10:07Z</time>
      </trkpt>
      <trkpt lat="46.05734" lon="4.59403">
        <ele>325.4</ele>
        <time>2022-05-08T07:10:11Z</time>
      </trkpt>
      <trkpt lat="46.05741" lon="4.5941">
        <ele>326.6</ele>
        <time>2022-05-08T07:10:15Z</time>
      </trkpt>
      <trkpt lat="46.05747" lon="4.59417">
        <ele>326.4</ele>
        <time>2022-05-08T07:10:19Z</time>
      </trkpt>
      <trkpt lat="46.05754" lon="4.59424">
        <ele>326.6</ele>
        <time>2022-05-08T07:10:23Z</time>
      </trkpt>
      <trkpt lat="46.0576" lon="4.5943">
        <ele>326.8</ele>
        <time>2022-05-08T07:10:27Z</time>
      </trkpt>
      <trkpt lat="46.05766" lon="4.59435">
        <ele>328.2</ele>
        <time>2022-05-08T07:10:31Z</time>
      </trkpt>
      <trkpt lat="46.05772" lon="4.5944">
        <ele>328.8</ele>
        <time>2022-05-08T07:10:35Z</time>
      </trkpt>
      <trkpt lat="46.0578" lon="4.59441">
        <ele>329.8</ele>
        <time>2022-05-08T07:10:39Z</time>
      </trkpt>
      <trkpt lat="46.05788" lon="4.59437">
        <ele>330</ele>
        <time>2022-05-08T07:10:43Z</time>
      </trkpt>
      <trkpt lat="46.05793" lon="4.59431">
        <ele>330.6</ele>
        <time>2022-05-08T07:10:47Z</time>
      </trkpt>
      <trkpt lat="46.05797" lon="4.59421">
        <ele>331.4</ele>
        <time>2022-05-08T07:10:51Z</time>
      </trkpt>
      <trkpt lat="46.05798" lon="4.59412">
        <ele>331.8</ele>
        <time>2022-05-08T07:10:55Z</time>
      </trkpt>
      <trkpt lat="46.05799" lon="4.59403">
        <ele>333.2</ele>
        <time>2022-05-08T07:10:59Z</time>
      </trkpt>
      <trkpt lat="46.05798" lon="4.59392">
        <ele>334.4</ele>
        <time>2022-05-08T07:11:03Z</time>
      </trkpt>
      <trkpt lat="46.05797" lon="4.59382">
        <ele>335.2</ele>
        <time>2022-05-08T07:11:07Z</time>
      </trkpt>
      <trkpt lat="46.05796" lon="4.59372">
        <ele>335.4</ele>
        <time>2022-05-08T07:11:11Z</time>
      </trkpt>
      <trkpt lat="46.05795" lon="4.59361">
        <ele>336.4</ele>
        <time>2022-05-08T07:11:15Z</time>
      </trkpt>
      <trkpt lat="46.05794" lon="4.5935">
        <ele>337.4</ele>
        <time>2022-05-08T07:11:19Z</time>
      </trkpt>
      <trkpt lat="46.05794" lon="4.5934">
        <ele>338.2</ele>
        <time>2022-05-08T07:11:23Z</time>
      </trkpt>
      <trkpt lat="46.05793" lon="4.59329">
        <ele>338</ele>
        <time>2022-05-08T07:11:27Z</time>
      </trkpt>
      <trkpt lat="46.05792" lon="4.59319">
        <ele>339.6</ele>
        <time>2022-05-08T07:11:31Z</time>
      </trkpt>
      <trkpt lat="46.0579" lon="4.59308">
        <ele>340</ele>
        <time>2022-05-08T07:11:35Z</time>
      </trkpt>
      <trkpt lat="46.05789" lon="4.59298">
        <ele>339.6</ele>
        <time>2022-05-08T07:11:39Z</time>
      </trkpt>
      <trkpt lat="46.05787" lon="4.59288">
        <ele>341.4</ele>
        <time>2022-05-08T07:11:43Z</time>
      </trkpt>
      <trkpt lat="46.05786" lon="4.59277">
        <ele>341.6</ele>
        <time>2022-05-08T07:11:47Z</time>
      </trkpt>
      <trkpt lat="46.05784" lon="4.59267">
        <ele>342</ele>
        <time>2022-05-08T07:11:51Z</time>
      </trkpt>
      <trkpt lat="46.05782" lon="4.59256">
        <ele>341.6</ele>
        <time>2022-05-08T07:11:55Z</time>
      </trkpt>
      <trkpt lat="46.05781" lon="4.59244">
        <ele>342.8</ele>
        <time>2022-05-08T07:11:59Z</time>
      </trkpt>
      <trkpt lat="46.05778" lon="4.59232">
        <ele>343.4</ele>
        <time>2022-05-08T07:12:03Z</time>
      </trkpt>
      <trkpt lat="46.05775" lon="4.59221">
        <ele>343.4</ele>
        <time>2022-05-08T07:12:07Z</time>
      </trkpt>
      <trkpt lat="46.05773" lon="4.59209">
        <ele>343.8</ele>
        <time>2022-05-08T07:12:11Z</time>
      </trkpt>
      <trkpt lat="46.0577" lon="4.59197">
        <ele>344.8</ele>
        <time>2022-05-08T07:12:15Z</time>
      </trkpt>
      <trkpt lat="46.05767" lon="4.59185">
        <ele>345.2</ele>
        <time>2022-05-08T07:12:19Z</time>
      </trkpt>
      <trkpt lat="46.05764" lon="4.59173">
        <ele>346.6</ele>
        <time>2022-05-08T07:12:23Z</time>
      </trkpt>
      <trkpt lat="46.05761" lon="4.59161">
        <ele>346</ele>
        <time>2022-05-08T07:12:27Z</time>
      </trkpt>
      <trkpt lat="46.05758" lon="4.59149">
        <ele>346.8</ele>
        <time>2022-05-08T07:12:31Z</time>
      </trkpt>
      <trkpt lat="46.05754" lon="4.59137">
        <ele>346.4</ele>
        <time>2022-05-08T07:12:35Z</time>
      </trkpt>
      <trkpt lat="46.0575" lon="4.59124">
        <ele>347.6</ele>
        <time>2022-05-08T07:12:39Z</time>
      </trkpt>
      <trkpt lat="46.05746" lon="4.5911">
        <ele>348.4</ele>
        <time>2022-05-08T07:12:43Z</time>
      </trkpt>
      <trkpt lat="46.05742" lon="4.59095">
        <ele>348.2</ele>
        <time>2022-05-08T07:12:47Z</time>
      </trkpt>
      <trkpt lat="46.05738" lon="4.5908">
        <ele>348.8</ele>
        <time>2022-05-08T07:12:51Z</time>
      </trkpt>
      <trkpt lat="46.05733" lon="4.59064">
        <ele>349</ele>
        <time>2022-05-08T07:12:55Z</time>
      </trkpt>
      <trkpt lat="46.05729" lon="4.59048">
        <ele>348.4</ele>
        <time>2022-05-08T07:12:59Z</time>
      </trkpt>
      <trkpt lat="46.05725" lon="4.59032">
        <ele>348.8</ele>
        <time>2022-05-08T07:13:03Z</time>
      </trkpt>
      <trkpt lat="46.0572" lon="4.59013">
        <ele>347.2</ele>
        <time>2022-05-08T07:13:07Z</time>
      </trkpt>
      <trkpt lat="46.05717" lon="4.58993">
        <ele>347</ele>
        <time>2022-05-08T07:13:11Z</time>
      </trkpt>
      <trkpt lat="46.05714" lon="4.58968">
        <ele>345.4</ele>
        <time>2022-05-08T07:13:15Z</time>
      </trkpt>
      <trkpt lat="46.05708" lon="4.58943">
        <ele>345.8</ele>
        <time>2022-05-08T07:13:19Z</time>
      </trkpt>
      <trkpt lat="46.05699" lon="4.58925">
        <ele>345</ele>
        <time>2022-05-08T07:13:23Z</time>
      </trkpt>
      <trkpt lat="46.05692" lon="4.58911">
        <ele>347.4</ele>
        <time>2022-05-08T07:13:27Z</time>
      </trkpt>
      <trkpt lat="46.05689" lon="4.58901">
        <ele>347.2</ele>
        <time>2022-05-08T07:13:31Z</time>
      </trkpt>
      <trkpt lat="46.0569" lon="4.5891">
        <ele>345.4</ele>
        <time>2022-05-08T07:13:51Z</time>
      </trkpt>
      <trkpt lat="46.05697" lon="4.58923">
        <ele>344.8</ele>
        <time>2022-05-08T07:13:55Z</time>
      </trkpt>
      <trkpt lat="46.05706" lon="4.58933">
        <ele>345</ele>
        <time>2022-05-08T07:13:59Z</time>
      </trkpt>
      <trkpt lat="46.05718" lon="4.58924">
        <ele>343.2</ele>
        <time>2022-05-08T07:14:03Z</time>
      </trkpt>
      <trkpt lat="46.05733" lon="4.58904">
        <ele>340.6</ele>
        <time>2022-05-08T07:14:07Z</time>
      </trkpt>
      <trkpt lat="46.05749" lon="4.58874">
        <ele>337.4</ele>
        <time>2022-05-08T07:14:11Z</time>
      </trkpt>
      <trkpt lat="46.05766" lon="4.58838">
        <ele>330.8</ele>
        <time>2022-05-08T07:14:15Z</time>
      </trkpt>
      <trkpt lat="46.05785" lon="4.58804">
        <ele>324.8</ele>
        <time>2022-05-08T07:14:19Z</time>
      </trkpt>
      <trkpt lat="46.05809" lon="4.5877">
        <ele>321.2</ele>
        <time>2022-05-08T07:14:23Z</time>
      </trkpt>
      <trkpt lat="46.05838" lon="4.5874">
        <ele>315.2</ele>
        <time>2022-05-08T07:14:27Z</time>
      </trkpt>
      <trkpt lat="46.05872" lon="4.58717">
        <ele>306.6</ele>
        <time>2022-05-08T07:14:31Z</time>
      </trkpt>
      <trkpt lat="46.05901" lon="4.58693">
        <ele>306</ele>
        <time>2022-05-08T07:14:35Z</time>
      </trkpt>
      <trkpt lat="46.05926" lon="4.58656">
        <ele>303</ele>
        <time>2022-05-08T07:14:39Z</time>
      </trkpt>
      <trkpt lat="46.05953" lon="4.58615">
        <ele>298.4</ele>
        <time>2022-05-08T07:14:43Z</time>
      </trkpt>
      <trkpt lat="46.05975" lon="4.58583">
        <ele>296.8</ele>
        <time>2022-05-08T07:14:47Z</time>
      </trkpt>
      <trkpt lat="46.05983" lon="4.58542">
        <ele>293.6</ele>
        <time>2022-05-08T07:14:51Z</time>
      </trkpt>
      <trkpt lat="46.0598" lon="4.585">
        <ele>290</ele>
        <time>2022-05-08T07:14:55Z</time>
      </trkpt>
      <trkpt lat="46.05971" lon="4.58455">
        <ele>287.6</ele>
        <time>2022-05-08T07:14:59Z</time>
      </trkpt>
      <trkpt lat="46.0597" lon="4.58427">
        <ele>286.4</ele>
        <time>2022-05-08T07:15:03Z</time>
      </trkpt>
      <trkpt lat="46.05991" lon="4.58425">
        <ele>281.2</ele>
        <time>2022-05-08T07:15:07Z</time>
      </trkpt>
      <trkpt lat="46.06021" lon="4.58435">
        <ele>275.8</ele>
        <time>2022-05-08T07:15:11Z</time>
      </trkpt>
      <trkpt lat="46.06051" lon="4.58449">
        <ele>271.6</ele>
        <time>2022-05-08T07:15:15Z</time>
      </trkpt>
      <trkpt lat="46.06079" lon="4.58456">
        <ele>267.8</ele>
        <time>2022-05-08T07:15:19Z</time>
      </trkpt>
      <trkpt lat="46.06108" lon="4.58462">
        <ele>262.4</ele>
        <time>2022-05-08T07:15:23Z</time>
      </trkpt>
      <trkpt lat="46.06141" lon="4.58476">
        <ele>257</ele>
        <time>2022-05-08T07:15:27Z</time>
      </trkpt>
      <trkpt lat="46.06179" lon="4.58484">
        <ele>251.4</ele>
        <time>2022-05-08T07:15:31Z</time>
      </trkpt>
      <trkpt lat="46.06209" lon="4.58472">
        <ele>254.8</ele>
        <time>2022-05-08T07:15:35Z</time>
      </trkpt>
      <trkpt lat="46.06219" lon="4.58454">
        <ele>259.2</ele>
        <time>2022-05-08T07:15:39Z</time>
      </trkpt>
      <trkpt lat="46.06222" lon="4.58445">
        <ele>260.6</ele>
        <time>2022-05-08T07:15:43Z</time>
      </trkpt>
      <trkpt lat="46.06225" lon="4.58439">
        <ele>261.6</ele>
        <time>2022-05-08T07:15:47Z</time>
      </trkpt>
      <trkpt lat="46.06229" lon="4.58434">
        <ele>262.8</ele>
        <time>2022-05-08T07:15:51Z</time>
      </trkpt>
      <trkpt lat="46.06233" lon="4.58428">
        <ele>263.4</ele>
        <time>2022-05-08T07:15:55Z</time>
      </trkpt>
      <trkpt lat="46.06236" lon="4.58424">
        <ele>263.8</ele>
        <time>2022-05-08T07:15:59Z</time>
      </trkpt>
      <trkpt lat="46.06241" lon="4.5842">
        <ele>264.6</ele>
        <time>2022-05-08T07:16:03Z</time>
      </trkpt>
      <trkpt lat="46.06245" lon="4.58416">
        <ele>265.4</ele>
        <time>2022-05-08T07:16:07Z</time>
      </trkpt>
      <trkpt lat="46.06248" lon="4.58411">
        <ele>266</ele>
        <time>2022-05-08T07:16:11Z</time>
      </trkpt>
      <trkpt lat="46.06252" lon="4.58407">
        <ele>266.6</ele>
        <time>2022-05-08T07:16:15Z</time>
      </trkpt>
      <trkpt lat="46.06256" lon="4.58403">
        <ele>268.4</ele>
        <time>2022-05-08T07:16:19Z</time>
      </trkpt>
      <trkpt lat="46.06258" lon="4.58398">
        <ele>269.2</ele>
        <time>2022-05-08T07:16:23Z</time>
      </trkpt>
      <trkpt lat="46.06262" lon="4.58396">
        <ele>269.4</ele>
        <time>2022-05-08T07:16:27Z</time>
      </trkpt>
      <trkpt lat="46.06264" lon="4.58393">
        <ele>269.8</ele>
        <time>2022-05-08T07:16:31Z</time>
      </trkpt>
      <trkpt lat="46.06269" lon="4.58387">
        <ele>270</ele>
        <time>2022-05-08T07:16:35Z</time>
      </trkpt>
      <trkpt lat="46.06272" lon="4.58379">
        <ele>270.6</ele>
        <time>2022-05-08T07:16:39Z</time>
      </trkpt>
      <trkpt lat="46.06275" lon="4.58371">
        <ele>270.8</ele>
        <time>2022-05-08T07:16:43Z</time>
      </trkpt>
      <trkpt lat="46.06278" lon="4.58364">
        <ele>270.8</ele>
        <time>2022-05-08T07:16:47Z</time>
      </trkpt>
      <trkpt lat="46.06281" lon="4.58356">
        <ele>272</ele>
        <time>2022-05-08T07:16:51Z</time>
      </trkpt>
      <trkpt lat="46.06283" lon="4.58348">
        <ele>272.6</ele>
        <time>2022-05-08T07:16:55Z</time>
      </trkpt>
      <trkpt lat="46.06286" lon="4.5834">
        <ele>273.2</ele>
        <time>2022-05-08T07:16:59Z</time>
      </trkpt>
      <trkpt lat="46.06288" lon="4.58333">
        <ele>274.2</ele>
        <time>2022-05-08T07:17:03Z</time>
      </trkpt>
      <trkpt lat="46.06291" lon="4.58325">
        <ele>274.4</ele>
        <time>2022-05-08T07:17:07Z</time>
      </trkpt>
      <trkpt lat="46.06293" lon="4.58318">
        <ele>274.8</ele>
        <time>2022-05-08T07:17:11Z</time>
      </trkpt>
      <trkpt lat="46.06295" lon="4.5831">
        <ele>275.8</ele>
        <time>2022-05-08T07:17:15Z</time>
      </trkpt>
      <trkpt lat="46.06298" lon="4.58302">
        <ele>276.2</ele>
        <time>2022-05-08T07:17:19Z</time>
      </trkpt>
      <trkpt lat="46.063" lon="4.58294">
        <ele>277.2</ele>
        <time>2022-05-08T07:17:23Z</time>
      </trkpt>
      <trkpt lat="46.06302" lon="4.58286">
        <ele>277.4</ele>
        <time>2022-05-08T07:17:27Z</time>
      </trkpt>
      <trkpt lat="46.06305" lon="4.58279">
        <ele>278</ele>
        <time>2022-05-08T07:17:31Z</time>
      </trkpt>
      <trkpt lat="46.06307" lon="4.58273">
        <ele>279</ele>
        <time>2022-05-08T07:17:35Z</time>
      </trkpt>
      <trkpt lat="46.06309" lon="4.58265">
        <ele>279.6</ele>
        <time>2022-05-08T07:17:39Z</time>
      </trkpt>
      <trkpt lat="46.06311" lon="4.58258">
        <ele>280.2</ele>
        <time>2022-05-08T07:17:43Z</time>
      </trkpt>
      <trkpt lat="46.06313" lon="4.58249">
        <ele>280.4</ele>
        <time>2022-05-08T07:17:47Z</time>
      </trkpt>
      <trkpt lat="46.06315" lon="4.5824">
        <ele>281</ele>
        <time>2022-05-08T07:17:51Z</time>
      </trkpt>
      <trkpt lat="46.0632" lon="4.58217">
        <ele>283</ele>
        <time>2022-05-08T07:18:27Z</time>
      </trkpt>
      <trkpt lat="46.06324" lon="4.58208">
        <ele>283.4</ele>
        <time>2022-05-08T07:18:31Z</time>
      </trkpt>
      <trkpt lat="46.06328" lon="4.58201">
        <ele>284.2</ele>
        <time>2022-05-08T07:18:35Z</time>
      </trkpt>
      <trkpt lat="46.06331" lon="4.58195">
        <ele>284.8</ele>
        <time>2022-05-08T07:18:39Z</time>
      </trkpt>
      <trkpt lat="46.06336" lon="4.58188">
        <ele>285.4</ele>
        <time>2022-05-08T07:18:43Z</time>
      </trkpt>
      <trkpt lat="46.06339" lon="4.58181">
        <ele>285.8</ele>
        <time>2022-05-08T07:18:47Z</time>
      </trkpt>
      <trkpt lat="46.06342" lon="4.58173">
        <ele>286.2</ele>
        <time>2022-05-08T07:18:51Z</time>
      </trkpt>
      <trkpt lat="46.06344" lon="4.58165">
        <ele>286.4</ele>
        <time>2022-05-08T07:18:55Z</time>
      </trkpt>
      <trkpt lat="46.06347" lon="4.58158">
        <ele>287.4</ele>
        <time>2022-05-08T07:18:59Z</time>
      </trkpt>
      <trkpt lat="46.0635" lon="4.5815">
        <ele>288.4</ele>
        <time>2022-05-08T07:19:03Z</time>
      </trkpt>
      <trkpt lat="46.06353" lon="4.58143">
        <ele>289.2</ele>
        <time>2022-05-08T07:19:07Z</time>
      </trkpt>
      <trkpt lat="46.06354" lon="4.58136">
        <ele>290</ele>
        <time>2022-05-08T07:19:11Z</time>
      </trkpt>
      <trkpt lat="46.06357" lon="4.58128">
        <ele>290.4</ele>
        <time>2022-05-08T07:19:15Z</time>
      </trkpt>
      <trkpt lat="46.06361" lon="4.58124">
        <ele>291</ele>
        <time>2022-05-08T07:19:19Z</time>
      </trkpt>
      <trkpt lat="46.06365" lon="4.58119">
        <ele>292.2</ele>
        <time>2022-05-08T07:19:23Z</time>
      </trkpt>
      <trkpt lat="46.06368" lon="4.58114">
        <ele>292.6</ele>
        <time>2022-05-08T07:19:27Z</time>
      </trkpt>
      <trkpt lat="46.06373" lon="4.5811">
        <ele>293.2</ele>
        <time>2022-05-08T07:19:31Z</time>
      </trkpt>
      <trkpt lat="46.06378" lon="4.58106">
        <ele>293.6</ele>
        <time>2022-05-08T07:19:35Z</time>
      </trkpt>
      <trkpt lat="46.06383" lon="4.581">
        <ele>294</ele>
        <time>2022-05-08T07:19:39Z</time>
      </trkpt>
      <trkpt lat="46.06389" lon="4.58094">
        <ele>294.6</ele>
        <time>2022-05-08T07:19:43Z</time>
      </trkpt>
      <trkpt lat="46.06394" lon="4.58087">
        <ele>294.6</ele>
        <time>2022-05-08T07:19:47Z</time>
      </trkpt>
      <trkpt lat="46.06399" lon="4.5808">
        <ele>296.2</ele>
        <time>2022-05-08T07:19:51Z</time>
      </trkpt>
      <trkpt lat="46.06404" lon="4.58075">
        <ele>295.4</ele>
        <time>2022-05-08T07:19:55Z</time>
      </trkpt>
      <trkpt lat="46.06409" lon="4.58066">
        <ele>295.2</ele>
        <time>2022-05-08T07:19:59Z</time>
      </trkpt>
      <trkpt lat="46.06414" lon="4.58058">
        <ele>294.2</ele>
        <time>2022-05-08T07:20:03Z</time>
      </trkpt>
      <trkpt lat="46.06418" lon="4.5805">
        <ele>296</ele>
        <time>2022-05-08T07:20:07Z</time>
      </trkpt>
      <trkpt lat="46.06423" lon="4.58042">
        <ele>296.4</ele>
        <time>2022-05-08T07:20:11Z</time>
      </trkpt>
      <trkpt lat="46.06428" lon="4.58033">
        <ele>297.8</ele>
        <time>2022-05-08T07:20:15Z</time>
      </trkpt>
      <trkpt lat="46.06434" lon="4.58024">
        <ele>298.8</ele>
        <time>2022-05-08T07:20:19Z</time>
      </trkpt>
      <trkpt lat="46.06439" lon="4.58014">
        <ele>298.8</ele>
        <time>2022-05-08T07:20:23Z</time>
      </trkpt>
      <trkpt lat="46.06444" lon="4.58004">
        <ele>299.2</ele>
        <time>2022-05-08T07:20:27Z</time>
      </trkpt>
      <trkpt lat="46.06449" lon="4.57994">
        <ele>299.2</ele>
        <time>2022-05-08T07:20:31Z</time>
      </trkpt>
      <trkpt lat="46.06455" lon="4.57984">
        <ele>301</ele>
        <time>2022-05-08T07:20:35Z</time>
      </trkpt>
      <trkpt lat="46.0646" lon="4.57975">
        <ele>301.8</ele>
        <time>2022-05-08T07:20:39Z</time>
      </trkpt>
      <trkpt lat="46.06465" lon="4.57965">
        <ele>300.4</ele>
        <time>2022-05-08T07:20:43Z</time>
      </trkpt>
      <trkpt lat="46.06469" lon="4.57955">
        <ele>302.6</ele>
        <time>2022-05-08T07:20:47Z</time>
      </trkpt>
      <trkpt lat="46.06474" lon="4.57945">
        <ele>303.4</ele>
        <time>2022-05-08T07:20:51Z</time>
      </trkpt>
      <trkpt lat="46.06478" lon="4.57934">
        <ele>304.2</ele>
        <time>2022-05-08T07:20:55Z</time>
      </trkpt>
      <trkpt lat="46.06483" lon="4.57924">
        <ele>304.4</ele>
        <time>2022-05-08T07:20:59Z</time>
      </trkpt>
      <trkpt lat="46.06487" lon="4.57913">
        <ele>305.2</ele>
        <time>2022-05-08T07:21:03Z</time>
      </trkpt>
      <trkpt lat="46.06492" lon="4.57901">
        <ele>305.6</ele>
        <time>2022-05-08T07:21:07Z</time>
      </trkpt>
      <trkpt lat="46.06497" lon="4.5789">
        <ele>305.8</ele>
        <time>2022-05-08T07:21:11Z</time>
      </trkpt>
      <trkpt lat="46.06501" lon="4.57879">
        <ele>306.6</ele>
        <time>2022-05-08T07:21:15Z</time>
      </trkpt>
      <trkpt lat="46.06506" lon="4.57869">
        <ele>307</ele>
        <time>2022-05-08T07:21:19Z</time>
      </trkpt>
      <trkpt lat="46.0651" lon="4.57859">
        <ele>307.2</ele>
        <time>2022-05-08T07:21:23Z</time>
      </trkpt>
      <trkpt lat="46.06513" lon="4.57848">
        <ele>307.2</ele>
        <time>2022-05-08T07:21:27Z</time>
      </trkpt>
      <trkpt lat="46.06516" lon="4.57838">
        <ele>308.4</ele>
        <time>2022-05-08T07:21:31Z</time>
      </trkpt>
      <trkpt lat="46.06519" lon="4.57828">
        <ele>309</ele>
        <time>2022-05-08T07:21:35Z</time>
      </trkpt>
      <trkpt lat="46.06521" lon="4.57817">
        <ele>308.2</ele>
        <time>2022-05-08T07:21:39Z</time>
      </trkpt>
      <trkpt lat="46.06523" lon="4.57807">
        <ele>309.2</ele>
        <time>2022-05-08T07:21:43Z</time>
      </trkpt>
      <trkpt lat="46.06523" lon="4.57796">
        <ele>311</ele>
        <time>2022-05-08T07:21:47Z</time>
      </trkpt>
      <trkpt lat="46.06523" lon="4.57786">
        <ele>311.6</ele>
        <time>2022-05-08T07:21:51Z</time>
      </trkpt>
      <trkpt lat="46.06522" lon="4.57775">
        <ele>312</ele>
        <time>2022-05-08T07:21:55Z</time>
      </trkpt>
      <trkpt lat="46.06521" lon="4.57764">
        <ele>312.6</ele>
        <time>2022-05-08T07:21:59Z</time>
      </trkpt>
      <trkpt lat="46.0652" lon="4.57754">
        <ele>313.2</ele>
        <time>2022-05-08T07:22:03Z</time>
      </trkpt>
      <trkpt lat="46.06519" lon="4.57743">
        <ele>313.6</ele>
        <time>2022-05-08T07:22:07Z</time>
      </trkpt>
      <trkpt lat="46.06518" lon="4.57733">
        <ele>314.6</ele>
        <time>2022-05-08T07:22:11Z</time>
      </trkpt>
      <trkpt lat="46.06516" lon="4.57723">
        <ele>315.2</ele>
        <time>2022-05-08T07:22:15Z</time>
      </trkpt>
      <trkpt lat="46.06515" lon="4.57713">
        <ele>315.8</ele>
        <time>2022-05-08T07:22:19Z</time>
      </trkpt>
      <trkpt lat="46.06514" lon="4.57703">
        <ele>316.4</ele>
        <time>2022-05-08T07:22:23Z</time>
      </trkpt>
      <trkpt lat="46.06512" lon="4.57693">
        <ele>317.2</ele>
        <time>2022-05-08T07:22:27Z</time>
      </trkpt>
      <trkpt lat="46.06511" lon="4.57683">
        <ele>317.8</ele>
        <time>2022-05-08T07:22:31Z</time>
      </trkpt>
      <trkpt lat="46.06509" lon="4.57673">
        <ele>318.8</ele>
        <time>2022-05-08T07:22:35Z</time>
      </trkpt>
      <trkpt lat="46.06508" lon="4.57663">
        <ele>319</ele>
        <time>2022-05-08T07:22:39Z</time>
      </trkpt>
      <trkpt lat="46.06506" lon="4.57653">
        <ele>320</ele>
        <time>2022-05-08T07:22:43Z</time>
      </trkpt>
      <trkpt lat="46.06505" lon="4.57644">
        <ele>320.4</ele>
        <time>2022-05-08T07:22:47Z</time>
      </trkpt>
      <trkpt lat="46.06503" lon="4.57635">
        <ele>321.2</ele>
        <time>2022-05-08T07:22:51Z</time>
      </trkpt>
      <trkpt lat="46.06502" lon="4.57626">
        <ele>322</ele>
        <time>2022-05-08T07:22:55Z</time>
      </trkpt>
      <trkpt lat="46.06501" lon="4.57616">
        <ele>323</ele>
        <time>2022-05-08T07:22:59Z</time>
      </trkpt>
      <trkpt lat="46.065" lon="4.57607">
        <ele>323.6</ele>
        <time>2022-05-08T07:23:03Z</time>
      </trkpt>
      <trkpt lat="46.06498" lon="4.57598">
        <ele>324.2</ele>
        <time>2022-05-08T07:23:07Z</time>
      </trkpt>
      <trkpt lat="46.06496" lon="4.57589">
        <ele>325</ele>
        <time>2022-05-08T07:23:11Z</time>
      </trkpt>
      <trkpt lat="46.06494" lon="4.5758">
        <ele>325.6</ele>
        <time>2022-05-08T07:23:15Z</time>
      </trkpt>
      <trkpt lat="46.06491" lon="4.57571">
        <ele>326.4</ele>
        <time>2022-05-08T07:23:19Z</time>
      </trkpt>
      <trkpt lat="46.0649" lon="4.57564">
        <ele>327.6</ele>
        <time>2022-05-08T07:23:23Z</time>
      </trkpt>
      <trkpt lat="46.06486" lon="4.57556">
        <ele>328.4</ele>
        <time>2022-05-08T07:23:27Z</time>
      </trkpt>
      <trkpt lat="46.06482" lon="4.57548">
        <ele>329</ele>
        <time>2022-05-08T07:23:31Z</time>
      </trkpt>
      <trkpt lat="46.06478" lon="4.5754">
        <ele>329.6</ele>
        <time>2022-05-08T07:23:35Z</time>
      </trkpt>
      <trkpt lat="46.06474" lon="4.57533">
        <ele>330.8</ele>
        <time>2022-05-08T07:23:39Z</time>
      </trkpt>
      <trkpt lat="46.06469" lon="4.57527">
        <ele>330.8</ele>
        <time>2022-05-08T07:23:43Z</time>
      </trkpt>
      <trkpt lat="46.06464" lon="4.5752">
        <ele>331</ele>
        <time>2022-05-08T07:23:47Z</time>
      </trkpt>
      <trkpt lat="46.0646" lon="4.57514">
        <ele>332.2</ele>
        <time>2022-05-08T07:23:51Z</time>
      </trkpt>
      <trkpt lat="46.06454" lon="4.57508">
        <ele>333</ele>
        <time>2022-05-08T07:23:55Z</time>
      </trkpt>
      <trkpt lat="46.06448" lon="4.57502">
        <ele>333.6</ele>
        <time>2022-05-08T07:23:59Z</time>
      </trkpt>
      <trkpt lat="46.06442" lon="4.57497">
        <ele>334.2</ele>
        <time>2022-05-08T07:24:03Z</time>
      </trkpt>
      <trkpt lat="46.06436" lon="4.57491">
        <ele>334.8</ele>
        <time>2022-05-08T07:24:07Z</time>
      </trkpt>
      <trkpt lat="46.0643" lon="4.57486">
        <ele>335.4</ele>
        <time>2022-05-08T07:24:11Z</time>
      </trkpt>
      <trkpt lat="46.06422" lon="4.57478">
        <ele>336</ele>
        <time>2022-05-08T07:24:15Z</time>
      </trkpt>
      <trkpt lat="46.06417" lon="4.57472">
        <ele>336.2</ele>
        <time>2022-05-08T07:24:19Z</time>
      </trkpt>
      <trkpt lat="46.06411" lon="4.57465">
        <ele>337.2</ele>
        <time>2022-05-08T07:24:23Z</time>
      </trkpt>
      <trkpt lat="46.06406" lon="4.57458">
        <ele>337.4</ele>
        <time>2022-05-08T07:24:27Z</time>
      </trkpt>
      <trkpt lat="46.064" lon="4.57451">
        <ele>338.8</ele>
        <time>2022-05-08T07:24:31Z</time>
      </trkpt>
      <trkpt lat="46.06395" lon="4.57443">
        <ele>339.2</ele>
        <time>2022-05-08T07:24:35Z</time>
      </trkpt>
      <trkpt lat="46.06382" lon="4.57419">
        <ele>340.8</ele>
        <time>2022-05-08T07:26:03Z</time>
      </trkpt>
      <trkpt lat="46.06378" lon="4.57411">
        <ele>341.8</ele>
        <time>2022-05-08T07:26:07Z</time>
      </trkpt>
      <trkpt lat="46.06373" lon="4.57403">
        <ele>342.2</ele>
        <time>2022-05-08T07:26:11Z</time>
      </trkpt>
      <trkpt lat="46.06369" lon="4.57396">
        <ele>343</ele>
        <time>2022-05-08T07:26:15Z</time>
      </trkpt>
      <trkpt lat="46.06364" lon="4.57387">
        <ele>343.6</ele>
        <time>2022-05-08T07:26:19Z</time>
      </trkpt>
      <trkpt lat="46.0636" lon="4.57378">
        <ele>344.4</ele>
        <time>2022-05-08T07:26:23Z</time>
      </trkpt>
      <trkpt lat="46.06356" lon="4.5737">
        <ele>345.2</ele>
        <time>2022-05-08T07:26:27Z</time>
      </trkpt>
      <trkpt lat="46.06353" lon="4.57361">
        <ele>345.6</ele>
        <time>2022-05-08T07:26:31Z</time>
      </trkpt>
      <trkpt lat="46.0635" lon="4.57352">
        <ele>346.2</ele>
        <time>2022-05-08T07:26:35Z</time>
      </trkpt>
      <trkpt lat="46.06348" lon="4.57343">
        <ele>346.6</ele>
        <time>2022-05-08T07:26:39Z</time>
      </trkpt>
      <trkpt lat="46.06346" lon="4.57333">
        <ele>347</ele>
        <time>2022-05-08T07:26:43Z</time>
      </trkpt>
      <trkpt lat="46.06344" lon="4.57324">
        <ele>348</ele>
        <time>2022-05-08T07:26:47Z</time>
      </trkpt>
      <trkpt lat="46.06342" lon="4.57314">
        <ele>349</ele>
        <time>2022-05-08T07:26:51Z</time>
      </trkpt>
      <trkpt lat="46.0634" lon="4.57305">
        <ele>349.2</ele>
        <time>2022-05-08T07:26:55Z</time>
      </trkpt>
      <trkpt lat="46.06339" lon="4.57296">
        <ele>349.8</ele>
        <time>2022-05-08T07:26:59Z</time>
      </trkpt>
      <trkpt lat="46.06336" lon="4.57287">
        <ele>350.4</ele>
        <time>2022-05-08T07:27:03Z</time>
      </trkpt>
      <trkpt lat="46.06334" lon="4.57278">
        <ele>351</ele>
        <time>2022-05-08T07:27:07Z</time>
      </trkpt>
      <trkpt lat="46.06333" lon="4.57268">
        <ele>351.4</ele>
        <time>2022-05-08T07:27:11Z</time>
      </trkpt>
      <trkpt lat="46.06331" lon="4.57259">
        <ele>352.6</ele>
        <time>2022-05-08T07:27:15Z</time>
      </trkpt>
      <trkpt lat="46.06329" lon="4.5725">
        <ele>353.2</ele>
        <time>2022-05-08T07:27:19Z</time>
      </trkpt>
      <trkpt lat="46.06328" lon="4.5724">
        <ele>353.6</ele>
        <time>2022-05-08T07:27:23Z</time>
      </trkpt>
      <trkpt lat="46.06326" lon="4.57231">
        <ele>354.2</ele>
        <time>2022-05-08T07:27:27Z</time>
      </trkpt>
      <trkpt lat="46.06324" lon="4.57221">
        <ele>354.8</ele>
        <time>2022-05-08T07:27:31Z</time>
      </trkpt>
      <trkpt lat="46.06323" lon="4.57212">
        <ele>355.8</ele>
        <time>2022-05-08T07:27:35Z</time>
      </trkpt>
      <trkpt lat="46.06321" lon="4.57202">
        <ele>356.2</ele>
        <time>2022-05-08T07:27:39Z</time>
      </trkpt>
      <trkpt lat="46.0632" lon="4.57193">
        <ele>357.2</ele>
        <time>2022-05-08T07:27:43Z</time>
      </trkpt>
      <trkpt lat="46.06318" lon="4.57184">
        <ele>357</ele>
        <time>2022-05-08T07:27:47Z</time>
      </trkpt>
      <trkpt lat="46.06316" lon="4.57174">
        <ele>357.8</ele>
        <time>2022-05-08T07:27:51Z</time>
      </trkpt>
      <trkpt lat="46.06314" lon="4.57165">
        <ele>358.6</ele>
        <time>2022-05-08T07:27:55Z</time>
      </trkpt>
      <trkpt lat="46.06313" lon="4.57156">
        <ele>359.4</ele>
        <time>2022-05-08T07:27:59Z</time>
      </trkpt>
      <trkpt lat="46.06312" lon="4.57147">
        <ele>359.6</ele>
        <time>2022-05-08T07:28:03Z</time>
      </trkpt>
      <trkpt lat="46.06309" lon="4.57138">
        <ele>359.6</ele>
        <time>2022-05-08T07:28:07Z</time>
      </trkpt>
      <trkpt lat="46.06307" lon="4.57128">
        <ele>360.8</ele>
        <time>2022-05-08T07:28:11Z</time>
      </trkpt>
      <trkpt lat="46.06304" lon="4.5712">
        <ele>361.4</ele>
        <time>2022-05-08T07:28:15Z</time>
      </trkpt>
      <trkpt lat="46.06302" lon="4.57111">
        <ele>361.6</ele>
        <time>2022-05-08T07:28:19Z</time>
      </trkpt>
      <trkpt lat="46.06299" lon="4.57103">
        <ele>362.6</ele>
        <time>2022-05-08T07:28:23Z</time>
      </trkpt>
      <trkpt lat="46.06296" lon="4.57094">
        <ele>363.6</ele>
        <time>2022-05-08T07:28:27Z</time>
      </trkpt>
      <trkpt lat="46.06293" lon="4.57086">
        <ele>364.6</ele>
        <time>2022-05-08T07:28:31Z</time>
      </trkpt>
      <trkpt lat="46.0629" lon="4.57077">
        <ele>365.2</ele>
        <time>2022-05-08T07:28:35Z</time>
      </trkpt>
      <trkpt lat="46.06287" lon="4.57069">
        <ele>365.6</ele>
        <time>2022-05-08T07:28:39Z</time>
      </trkpt>
      <trkpt lat="46.06285" lon="4.57061">
        <ele>367</ele>
        <time>2022-05-08T07:28:43Z</time>
      </trkpt>
      <trkpt lat="46.06282" lon="4.57052">
        <ele>367.8</ele>
        <time>2022-05-08T07:28:47Z</time>
      </trkpt>
      <trkpt lat="46.06278" lon="4.57044">
        <ele>367.8</ele>
        <time>2022-05-08T07:28:51Z</time>
      </trkpt>
      <trkpt lat="46.06276" lon="4.57035">
        <ele>368.8</ele>
        <time>2022-05-08T07:28:55Z</time>
      </trkpt>
      <trkpt lat="46.06274" lon="4.57026">
        <ele>368.8</ele>
        <time>2022-05-08T07:28:59Z</time>
      </trkpt>
      <trkpt lat="46.06272" lon="4.57016">
        <ele>369.8</ele>
        <time>2022-05-08T07:29:03Z</time>
      </trkpt>
      <trkpt lat="46.06272" lon="4.57007">
        <ele>370.4</ele>
        <time>2022-05-08T07:29:07Z</time>
      </trkpt>
      <trkpt lat="46.06271" lon="4.56997">
        <ele>371.2</ele>
        <time>2022-05-08T07:29:11Z</time>
      </trkpt>
      <trkpt lat="46.06271" lon="4.56988">
        <ele>371</ele>
        <time>2022-05-08T07:29:15Z</time>
      </trkpt>
      <trkpt lat="46.06272" lon="4.56978">
        <ele>372.2</ele>
        <time>2022-05-08T07:29:19Z</time>
      </trkpt>
      <trkpt lat="46.06272" lon="4.56969">
        <ele>372.8</ele>
        <time>2022-05-08T07:29:23Z</time>
      </trkpt>
      <trkpt lat="46.06273" lon="4.56959">
        <ele>373.2</ele>
        <time>2022-05-08T07:29:27Z</time>
      </trkpt>
      <trkpt lat="46.06273" lon="4.5695">
        <ele>373.8</ele>
        <time>2022-05-08T07:29:31Z</time>
      </trkpt>
      <trkpt lat="46.06272" lon="4.56941">
        <ele>374.6</ele>
        <time>2022-05-08T07:29:35Z</time>
      </trkpt>
      <trkpt lat="46.06271" lon="4.56932">
        <ele>375.8</ele>
        <time>2022-05-08T07:29:39Z</time>
      </trkpt>
      <trkpt lat="46.06268" lon="4.56922">
        <ele>376.8</ele>
        <time>2022-05-08T07:29:43Z</time>
      </trkpt>
      <trkpt lat="46.06266" lon="4.56913">
        <ele>377</ele>
        <time>2022-05-08T07:29:47Z</time>
      </trkpt>
      <trkpt lat="46.06263" lon="4.56904">
        <ele>377.2</ele>
        <time>2022-05-08T07:29:51Z</time>
      </trkpt>
      <trkpt lat="46.0626" lon="4.56895">
        <ele>376.8</ele>
        <time>2022-05-08T07:29:55Z</time>
      </trkpt>
      <trkpt lat="46.06257" lon="4.56887">
        <ele>378.8</ele>
        <time>2022-05-08T07:29:59Z</time>
      </trkpt>
      <trkpt lat="46.06252" lon="4.5688">
        <ele>379.6</ele>
        <time>2022-05-08T07:30:03Z</time>
      </trkpt>
      <trkpt lat="46.06247" lon="4.56874">
        <ele>380.2</ele>
        <time>2022-05-08T07:30:07Z</time>
      </trkpt>
      <trkpt lat="46.06242" lon="4.56868">
        <ele>381</ele>
        <time>2022-05-08T07:30:11Z</time>
      </trkpt>
      <trkpt lat="46.06237" lon="4.56863">
        <ele>380.6</ele>
        <time>2022-05-08T07:30:15Z</time>
      </trkpt>
      <trkpt lat="46.06232" lon="4.56857">
        <ele>381.2</ele>
        <time>2022-05-08T07:30:19Z</time>
      </trkpt>
      <trkpt lat="46.06226" lon="4.56852">
        <ele>382.2</ele>
        <time>2022-05-08T07:30:23Z</time>
      </trkpt>
      <trkpt lat="46.06221" lon="4.56845">
        <ele>382.4</ele>
        <time>2022-05-08T07:30:27Z</time>
      </trkpt>
      <trkpt lat="46.06216" lon="4.56839">
        <ele>383</ele>
        <time>2022-05-08T07:30:31Z</time>
      </trkpt>
      <trkpt lat="46.06212" lon="4.56832">
        <ele>384</ele>
        <time>2022-05-08T07:30:35Z</time>
      </trkpt>
      <trkpt lat="46.06209" lon="4.56825">
        <ele>384.6</ele>
        <time>2022-05-08T07:30:39Z</time>
      </trkpt>
      <trkpt lat="46.06205" lon="4.56817">
        <ele>385</ele>
        <time>2022-05-08T07:30:43Z</time>
      </trkpt>
      <trkpt lat="46.06202" lon="4.5681">
        <ele>385.6</ele>
        <time>2022-05-08T07:30:47Z</time>
      </trkpt>
      <trkpt lat="46.062" lon="4.56801">
        <ele>386.8</ele>
        <time>2022-05-08T07:30:51Z</time>
      </trkpt>
      <trkpt lat="46.06199" lon="4.56791">
        <ele>387.6</ele>
        <time>2022-05-08T07:30:55Z</time>
      </trkpt>
      <trkpt lat="46.062" lon="4.56781">
        <ele>388.2</ele>
        <time>2022-05-08T07:30:59Z</time>
      </trkpt>
      <trkpt lat="46.062" lon="4.56772">
        <ele>389</ele>
        <time>2022-05-08T07:31:03Z</time>
      </trkpt>
      <trkpt lat="46.06202" lon="4.56763">
        <ele>389.4</ele>
        <time>2022-05-08T07:31:07Z</time>
      </trkpt>
      <trkpt lat="46.06205" lon="4.56754">
        <ele>390</ele>
        <time>2022-05-08T07:31:11Z</time>
      </trkpt>
      <trkpt lat="46.06208" lon="4.56746">
        <ele>391</ele>
        <time>2022-05-08T07:31:15Z</time>
      </trkpt>
      <trkpt lat="46.06211" lon="4.56737">
        <ele>391.6</ele>
        <time>2022-05-08T07:31:19Z</time>
      </trkpt>
      <trkpt lat="46.06214" lon="4.56729">
        <ele>392</ele>
        <time>2022-05-08T07:31:23Z</time>
      </trkpt>
      <trkpt lat="46.06217" lon="4.5672">
        <ele>392.8</ele>
        <time>2022-05-08T07:31:27Z</time>
      </trkpt>
      <trkpt lat="46.06219" lon="4.56711">
        <ele>392.6</ele>
        <time>2022-05-08T07:31:31Z</time>
      </trkpt>
      <trkpt lat="46.06222" lon="4.56703">
        <ele>393.4</ele>
        <time>2022-05-08T07:31:35Z</time>
      </trkpt>
      <trkpt lat="46.06225" lon="4.56694">
        <ele>394.2</ele>
        <time>2022-05-08T07:31:39Z</time>
      </trkpt>
      <trkpt lat="46.06227" lon="4.56685">
        <ele>394.6</ele>
        <time>2022-05-08T07:31:43Z</time>
      </trkpt>
      <trkpt lat="46.06229" lon="4.56677">
        <ele>395.4</ele>
        <time>2022-05-08T07:31:47Z</time>
      </trkpt>
      <trkpt lat="46.06232" lon="4.56669">
        <ele>396.2</ele>
        <time>2022-05-08T07:31:51Z</time>
      </trkpt>
      <trkpt lat="46.06233" lon="4.5666">
        <ele>397</ele>
        <time>2022-05-08T07:31:55Z</time>
      </trkpt>
      <trkpt lat="46.06236" lon="4.56652">
        <ele>397.6</ele>
        <time>2022-05-08T07:31:59Z</time>
      </trkpt>
      <trkpt lat="46.06238" lon="4.56644">
        <ele>398</ele>
        <time>2022-05-08T07:32:03Z</time>
      </trkpt>
      <trkpt lat="46.0624" lon="4.56635">
        <ele>398.4</ele>
        <time>2022-05-08T07:32:07Z</time>
      </trkpt>
      <trkpt lat="46.06243" lon="4.56626">
        <ele>399.2</ele>
        <time>2022-05-08T07:32:11Z</time>
      </trkpt>
      <trkpt lat="46.06245" lon="4.56618">
        <ele>399</ele>
        <time>2022-05-08T07:32:15Z</time>
      </trkpt>
      <trkpt lat="46.06247" lon="4.56608">
        <ele>400</ele>
        <time>2022-05-08T07:32:19Z</time>
      </trkpt>
      <trkpt lat="46.06249" lon="4.56599">
        <ele>400.4</ele>
        <time>2022-05-08T07:32:23Z</time>
      </trkpt>
      <trkpt lat="46.0625" lon="4.5659">
        <ele>401.4</ele>
        <time>2022-05-08T07:32:27Z</time>
      </trkpt>
      <trkpt lat="46.06252" lon="4.56581">
        <ele>402</ele>
        <time>2022-05-08T07:32:31Z</time>
      </trkpt>
      <trkpt lat="46.06254" lon="4.56572">
        <ele>402.8</ele>
        <time>2022-05-08T07:32:35Z</time>
      </trkpt>
      <trkpt lat="46.06256" lon="4.56563">
        <ele>403.6</ele>
        <time>2022-05-08T07:32:39Z</time>
      </trkpt>
      <trkpt lat="46.06258" lon="4.56554">
        <ele>404.2</ele>
        <time>2022-05-08T07:32:43Z</time>
      </trkpt>
      <trkpt lat="46.0626" lon="4.56545">
        <ele>405</ele>
        <time>2022-05-08T07:32:47Z</time>
      </trkpt>
      <trkpt lat="46.06262" lon="4.56536">
        <ele>405.6</ele>
        <time>2022-05-08T07:32:51Z</time>
      </trkpt>
      <trkpt lat="46.06265" lon="4.56527">
        <ele>406.2</ele>
        <time>2022-05-08T07:32:55Z</time>
      </trkpt>
      <trkpt lat="46.06268" lon="4.5652">
        <ele>406.4</ele>
        <time>2022-05-08T07:32:59Z</time>
      </trkpt>
      <trkpt lat="46.06272" lon="4.56513">
        <ele>406</ele>
        <time>2022-05-08T07:33:03Z</time>
      </trkpt>
      <trkpt lat="46.06276" lon="4.56506">
        <ele>406.8</ele>
        <time>2022-05-08T07:33:07Z</time>
      </trkpt>
      <trkpt lat="46.0628" lon="4.56501">
        <ele>407.2</ele>
        <time>2022-05-08T07:33:11Z</time>
      </trkpt>
      <trkpt lat="46.06285" lon="4.56494">
        <ele>408.2</ele>
        <time>2022-05-08T07:33:15Z</time>
      </trkpt>
      <trkpt lat="46.0629" lon="4.56488">
        <ele>409</ele>
        <time>2022-05-08T07:33:19Z</time>
      </trkpt>
      <trkpt lat="46.06295" lon="4.56483">
        <ele>410.2</ele>
        <time>2022-05-08T07:33:23Z</time>
      </trkpt>
      <trkpt lat="46.063" lon="4.56476">
        <ele>410.6</ele>
        <time>2022-05-08T07:33:27Z</time>
      </trkpt>
      <trkpt lat="46.06305" lon="4.5647">
        <ele>410.6</ele>
        <time>2022-05-08T07:33:31Z</time>
      </trkpt>
      <trkpt lat="46.0631" lon="4.56463">
        <ele>411.6</ele>
        <time>2022-05-08T07:33:35Z</time>
      </trkpt>
      <trkpt lat="46.06315" lon="4.56457">
        <ele>412.4</ele>
        <time>2022-05-08T07:33:39Z</time>
      </trkpt>
      <trkpt lat="46.06321" lon="4.56451">
        <ele>412.8</ele>
        <time>2022-05-08T07:33:43Z</time>
      </trkpt>
      <trkpt lat="46.06326" lon="4.56445">
        <ele>414</ele>
        <time>2022-05-08T07:33:47Z</time>
      </trkpt>
      <trkpt lat="46.06332" lon="4.5644">
        <ele>414</ele>
        <time>2022-05-08T07:33:51Z</time>
      </trkpt>
      <trkpt lat="46.06337" lon="4.56435">
        <ele>414</ele>
        <time>2022-05-08T07:33:55Z</time>
      </trkpt>
      <trkpt lat="46.06343" lon="4.56431">
        <ele>415</ele>
        <time>2022-05-08T07:33:59Z</time>
      </trkpt>
      <trkpt lat="46.06349" lon="4.56427">
        <ele>416.2</ele>
        <time>2022-05-08T07:34:03Z</time>
      </trkpt>
      <trkpt lat="46.06355" lon="4.56423">
        <ele>416.4</ele>
        <time>2022-05-08T07:34:07Z</time>
      </trkpt>
      <trkpt lat="46.06362" lon="4.5642">
        <ele>417.4</ele>
        <time>2022-05-08T07:34:11Z</time>
      </trkpt>
      <trkpt lat="46.06368" lon="4.56417">
        <ele>417.6</ele>
        <time>2022-05-08T07:34:15Z</time>
      </trkpt>
      <trkpt lat="46.06374" lon="4.56414">
        <ele>418</ele>
        <time>2022-05-08T07:34:19Z</time>
      </trkpt>
      <trkpt lat="46.0638" lon="4.56411">
        <ele>417.6</ele>
        <time>2022-05-08T07:34:23Z</time>
      </trkpt>
      <trkpt lat="46.06387" lon="4.56408">
        <ele>419</ele>
        <time>2022-05-08T07:34:27Z</time>
      </trkpt>
      <trkpt lat="46.06393" lon="4.56405">
        <ele>419.4</ele>
        <time>2022-05-08T07:34:31Z</time>
      </trkpt>
      <trkpt lat="46.06399" lon="4.56402">
        <ele>420.8</ele>
        <time>2022-05-08T07:34:35Z</time>
      </trkpt>
      <trkpt lat="46.06405" lon="4.56398">
        <ele>421.6</ele>
        <time>2022-05-08T07:34:39Z</time>
      </trkpt>
      <trkpt lat="46.06411" lon="4.56394">
        <ele>421.6</ele>
        <time>2022-05-08T07:34:43Z</time>
      </trkpt>
      <trkpt lat="46.06417" lon="4.56391">
        <ele>422</ele>
        <time>2022-05-08T07:34:47Z</time>
      </trkpt>
      <trkpt lat="46.06422" lon="4.56387">
        <ele>422.8</ele>
        <time>2022-05-08T07:34:51Z</time>
      </trkpt>
      <trkpt lat="46.06428" lon="4.56383">
        <ele>422.6</ele>
        <time>2022-05-08T07:34:55Z</time>
      </trkpt>
      <trkpt lat="46.06434" lon="4.56379">
        <ele>424.6</ele>
        <time>2022-05-08T07:34:59Z</time>
      </trkpt>
      <trkpt lat="46.0644" lon="4.56375">
        <ele>424.8</ele>
        <time>2022-05-08T07:35:03Z</time>
      </trkpt>
      <trkpt lat="46.06446" lon="4.56369">
        <ele>425.6</ele>
        <time>2022-05-08T07:35:07Z</time>
      </trkpt>
      <trkpt lat="46.06452" lon="4.56365">
        <ele>426.8</ele>
        <time>2022-05-08T07:35:11Z</time>
      </trkpt>
      <trkpt lat="46.06458" lon="4.5636">
        <ele>427.6</ele>
        <time>2022-05-08T07:35:15Z</time>
      </trkpt>
      <trkpt lat="46.06464" lon="4.56355">
        <ele>428.4</ele>
        <time>2022-05-08T07:35:19Z</time>
      </trkpt>
      <trkpt lat="46.06469" lon="4.56349">
        <ele>429.4</ele>
        <time>2022-05-08T07:35:23Z</time>
      </trkpt>
      <trkpt lat="46.06475" lon="4.56345">
        <ele>429.6</ele>
        <time>2022-05-08T07:35:27Z</time>
      </trkpt>
      <trkpt lat="46.0648" lon="4.5634">
        <ele>430.4</ele>
        <time>2022-05-08T07:35:31Z</time>
      </trkpt>
      <trkpt lat="46.06487" lon="4.56336">
        <ele>430.4</ele>
        <time>2022-05-08T07:35:35Z</time>
      </trkpt>
      <trkpt lat="46.06493" lon="4.56333">
        <ele>430.8</ele>
        <time>2022-05-08T07:35:39Z</time>
      </trkpt>
      <trkpt lat="46.06499" lon="4.56329">
        <ele>432.2</ele>
        <time>2022-05-08T07:35:43Z</time>
      </trkpt>
      <trkpt lat="46.06504" lon="4.56325">
        <ele>432.6</ele>
        <time>2022-05-08T07:35:47Z</time>
      </trkpt>
      <trkpt lat="46.06509" lon="4.5632">
        <ele>432.8</ele>
        <time>2022-05-08T07:35:51Z</time>
      </trkpt>
      <trkpt lat="46.06514" lon="4.56316">
        <ele>432.4</ele>
        <time>2022-05-08T07:35:55Z</time>
      </trkpt>
      <trkpt lat="46.06519" lon="4.56311">
        <ele>433.6</ele>
        <time>2022-05-08T07:35:59Z</time>
      </trkpt>
      <trkpt lat="46.06522" lon="4.56306">
        <ele>433.4</ele>
        <time>2022-05-08T07:36:03Z</time>
      </trkpt>
      <trkpt lat="46.06526" lon="4.56302">
        <ele>434.2</ele>
        <time>2022-05-08T07:36:07Z</time>
      </trkpt>
      <trkpt lat="46.0653" lon="4.56298">
        <ele>435.6</ele>
        <time>2022-05-08T07:36:11Z</time>
      </trkpt>
      <trkpt lat="46.06536" lon="4.56296">
        <ele>435.8</ele>
        <time>2022-05-08T07:36:15Z</time>
      </trkpt>
      <trkpt lat="46.06542" lon="4.56297">
        <ele>436.6</ele>
        <time>2022-05-08T07:36:19Z</time>
      </trkpt>
      <trkpt lat="46.06544" lon="4.56305">
        <ele>437.4</ele>
        <time>2022-05-08T07:36:23Z</time>
      </trkpt>
      <trkpt lat="46.0654" lon="4.56313">
        <ele>437.8</ele>
        <time>2022-05-08T07:36:27Z</time>
      </trkpt>
      <trkpt lat="46.06534" lon="4.56319">
        <ele>438</ele>
        <time>2022-05-08T07:36:31Z</time>
      </trkpt>
      <trkpt lat="46.06528" lon="4.56325">
        <ele>438.6</ele>
        <time>2022-05-08T07:36:35Z</time>
      </trkpt>
      <trkpt lat="46.06522" lon="4.5633">
        <ele>439</ele>
        <time>2022-05-08T07:36:39Z</time>
      </trkpt>
      <trkpt lat="46.06517" lon="4.56336">
        <ele>439.2</ele>
        <time>2022-05-08T07:36:43Z</time>
      </trkpt>
      <trkpt lat="46.06511" lon="4.56342">
        <ele>439.4</ele>
        <time>2022-05-08T07:36:47Z</time>
      </trkpt>
      <trkpt lat="46.06507" lon="4.5635">
        <ele>439.4</ele>
        <time>2022-05-08T07:36:51Z</time>
      </trkpt>
      <trkpt lat="46.06502" lon="4.56359">
        <ele>440.4</ele>
        <time>2022-05-08T07:36:55Z</time>
      </trkpt>
      <trkpt lat="46.06497" lon="4.56367">
        <ele>441</ele>
        <time>2022-05-08T07:36:59Z</time>
      </trkpt>
      <trkpt lat="46.06492" lon="4.56376">
        <ele>441.8</ele>
        <time>2022-05-08T07:37:03Z</time>
      </trkpt>
      <trkpt lat="46.06488" lon="4.56386">
        <ele>442.6</ele>
        <time>2022-05-08T07:37:07Z</time>
      </trkpt>
      <trkpt lat="46.06484" lon="4.56395">
        <ele>443</ele>
        <time>2022-05-08T07:37:11Z</time>
      </trkpt>
      <trkpt lat="46.0648" lon="4.56403">
        <ele>443.6</ele>
        <time>2022-05-08T07:37:15Z</time>
      </trkpt>
      <trkpt lat="46.06475" lon="4.56411">
        <ele>444.2</ele>
        <time>2022-05-08T07:37:19Z</time>
      </trkpt>
      <trkpt lat="46.06471" lon="4.5642">
        <ele>444.6</ele>
        <time>2022-05-08T07:37:23Z</time>
      </trkpt>
      <trkpt lat="46.06467" lon="4.56428">
        <ele>445</ele>
        <time>2022-05-08T07:37:27Z</time>
      </trkpt>
      <trkpt lat="46.06463" lon="4.56436">
        <ele>445.6</ele>
        <time>2022-05-08T07:37:31Z</time>
      </trkpt>
      <trkpt lat="46.06459" lon="4.56444">
        <ele>446</ele>
        <time>2022-05-08T07:37:35Z</time>
      </trkpt>
      <trkpt lat="46.06455" lon="4.56453">
        <ele>446.4</ele>
        <time>2022-05-08T07:37:39Z</time>
      </trkpt>
      <trkpt lat="46.0645" lon="4.56461">
        <ele>446.6</ele>
        <time>2022-05-08T07:37:43Z</time>
      </trkpt>
      <trkpt lat="46.06446" lon="4.56469">
        <ele>447</ele>
        <time>2022-05-08T07:37:47Z</time>
      </trkpt>
      <trkpt lat="46.06442" lon="4.56478">
        <ele>447.8</ele>
        <time>2022-05-08T07:37:51Z</time>
      </trkpt>
      <trkpt lat="46.06438" lon="4.56486">
        <ele>448.2</ele>
        <time>2022-05-08T07:37:55Z</time>
      </trkpt>
      <trkpt lat="46.06433" lon="4.56494">
        <ele>449</ele>
        <time>2022-05-08T07:37:59Z</time>
      </trkpt>
      <trkpt lat="46.06428" lon="4.56503">
        <ele>449.4</ele>
        <time>2022-05-08T07:38:03Z</time>
      </trkpt>
      <trkpt lat="46.06424" lon="4.56512">
        <ele>449.8</ele>
        <time>2022-05-08T07:38:07Z</time>
      </trkpt>
      <trkpt lat="46.06419" lon="4.5652">
        <ele>450</ele>
        <time>2022-05-08T07:38:11Z</time>
      </trkpt>
      <trkpt lat="46.06415" lon="4.56529">
        <ele>450.4</ele>
        <time>2022-05-08T07:38:15Z</time>
      </trkpt>
      <trkpt lat="46.0641" lon="4.56538">
        <ele>450.8</ele>
        <time>2022-05-08T07:38:19Z</time>
      </trkpt>
      <trkpt lat="46.06405" lon="4.56546">
        <ele>451</ele>
        <time>2022-05-08T07:38:23Z</time>
      </trkpt>
      <trkpt lat="46.06402" lon="4.56555">
        <ele>451.8</ele>
        <time>2022-05-08T07:38:27Z</time>
      </trkpt>
      <trkpt lat="46.06399" lon="4.56564">
        <ele>452.2</ele>
        <time>2022-05-08T07:38:31Z</time>
      </trkpt>
      <trkpt lat="46.06401" lon="4.56573">
        <ele>452.8</ele>
        <time>2022-05-08T07:38:35Z</time>
      </trkpt>
      <trkpt lat="46.06408" lon="4.56575">
        <ele>453</ele>
        <time>2022-05-08T07:38:39Z</time>
      </trkpt>
      <trkpt lat="46.06414" lon="4.5657">
        <ele>453.4</ele>
        <time>2022-05-08T07:38:43Z</time>
      </trkpt>
      <trkpt lat="46.0642" lon="4.56564">
        <ele>453.2</ele>
        <time>2022-05-08T07:38:47Z</time>
      </trkpt>
      <trkpt lat="46.06425" lon="4.56558">
        <ele>453.4</ele>
        <time>2022-05-08T07:38:51Z</time>
      </trkpt>
      <trkpt lat="46.06429" lon="4.56551">
        <ele>454.2</ele>
        <time>2022-05-08T07:38:55Z</time>
      </trkpt>
      <trkpt lat="46.06434" lon="4.56545">
        <ele>455.6</ele>
        <time>2022-05-08T07:38:59Z</time>
      </trkpt>
      <trkpt lat="46.06439" lon="4.56539">
        <ele>455.8</ele>
        <time>2022-05-08T07:39:03Z</time>
      </trkpt>
      <trkpt lat="46.06444" lon="4.56533">
        <ele>455.6</ele>
        <time>2022-05-08T07:39:07Z</time>
      </trkpt>
      <trkpt lat="46.06449" lon="4.56528">
        <ele>456.2</ele>
        <time>2022-05-08T07:39:11Z</time>
      </trkpt>
      <trkpt lat="46.06455" lon="4.56523">
        <ele>457.6</ele>
        <time>2022-05-08T07:39:15Z</time>
      </trkpt>
      <trkpt lat="46.0646" lon="4.56518">
        <ele>458.6</ele>
        <time>2022-05-08T07:39:19Z</time>
      </trkpt>
      <trkpt lat="46.06465" lon="4.56512">
        <ele>458.8</ele>
        <time>2022-05-08T07:39:23Z</time>
      </trkpt>
      <trkpt lat="46.0647" lon="4.56507">
        <ele>457.8</ele>
        <time>2022-05-08T07:39:27Z</time>
      </trkpt>
      <trkpt lat="46.06476" lon="4.56503">
        <ele>458</ele>
        <time>2022-05-08T07:39:31Z</time>
      </trkpt>
      <trkpt lat="46.06481" lon="4.56498">
        <ele>459.2</ele>
        <time>2022-05-08T07:39:35Z</time>
      </trkpt>
      <trkpt lat="46.06487" lon="4.56492">
        <ele>458.8</ele>
        <time>2022-05-08T07:39:39Z</time>
      </trkpt>
      <trkpt lat="46.06492" lon="4.56487">
        <ele>460.8</ele>
        <time>2022-05-08T07:39:43Z</time>
      </trkpt>
      <trkpt lat="46.06497" lon="4.56482">
        <ele>461.4</ele>
        <time>2022-05-08T07:39:47Z</time>
      </trkpt>
      <trkpt lat="46.06503" lon="4.56477">
        <ele>462.2</ele>
        <time>2022-05-08T07:39:51Z</time>
      </trkpt>
      <trkpt lat="46.06508" lon="4.56472">
        <ele>462.6</ele>
        <time>2022-05-08T07:39:55Z</time>
      </trkpt>
      <trkpt lat="46.06514" lon="4.56468">
        <ele>463.2</ele>
        <time>2022-05-08T07:39:59Z</time>
      </trkpt>
      <trkpt lat="46.0652" lon="4.56463">
        <ele>464.2</ele>
        <time>2022-05-08T07:40:03Z</time>
      </trkpt>
      <trkpt lat="46.06525" lon="4.56459">
        <ele>464.2</ele>
        <time>2022-05-08T07:40:07Z</time>
      </trkpt>
      <trkpt lat="46.06531" lon="4.56455">
        <ele>464.8</ele>
        <time>2022-05-08T07:40:11Z</time>
      </trkpt>
      <trkpt lat="46.06536" lon="4.56451">
        <ele>465.4</ele>
        <time>2022-05-08T07:40:15Z</time>
      </trkpt>
      <trkpt lat="46.06541" lon="4.56446">
        <ele>465.8</ele>
        <time>2022-05-08T07:40:19Z</time>
      </trkpt>
      <trkpt lat="46.06547" lon="4.56443">
        <ele>466.4</ele>
        <time>2022-05-08T07:40:23Z</time>
      </trkpt>
      <trkpt lat="46.06552" lon="4.5644">
        <ele>466.8</ele>
        <time>2022-05-08T07:40:27Z</time>
      </trkpt>
      <trkpt lat="46.06557" lon="4.56437">
        <ele>467.8</ele>
        <time>2022-05-08T07:40:31Z</time>
      </trkpt>
      <trkpt lat="46.06563" lon="4.56434">
        <ele>468.4</ele>
        <time>2022-05-08T07:40:35Z</time>
      </trkpt>
      <trkpt lat="46.06569" lon="4.56432">
        <ele>468.4</ele>
        <time>2022-05-08T07:40:39Z</time>
      </trkpt>
      <trkpt lat="46.06574" lon="4.56429">
        <ele>469.2</ele>
        <time>2022-05-08T07:40:43Z</time>
      </trkpt>
      <trkpt lat="46.0658" lon="4.56427">
        <ele>469.2</ele>
        <time>2022-05-08T07:40:47Z</time>
      </trkpt>
      <trkpt lat="46.06585" lon="4.56425">
        <ele>469.6</ele>
        <time>2022-05-08T07:40:51Z</time>
      </trkpt>
      <trkpt lat="46.06591" lon="4.56423">
        <ele>470</ele>
        <time>2022-05-08T07:40:55Z</time>
      </trkpt>
      <trkpt lat="46.06596" lon="4.5642">
        <ele>470</ele>
        <time>2022-05-08T07:40:59Z</time>
      </trkpt>
      <trkpt lat="46.06602" lon="4.56418">
        <ele>470.8</ele>
        <time>2022-05-08T07:41:03Z</time>
      </trkpt>
      <trkpt lat="46.06607" lon="4.56415">
        <ele>471.4</ele>
        <time>2022-05-08T07:41:07Z</time>
      </trkpt>
      <trkpt lat="46.06613" lon="4.56412">
        <ele>472</ele>
        <time>2022-05-08T07:41:11Z</time>
      </trkpt>
      <trkpt lat="46.06618" lon="4.56409">
        <ele>472</ele>
        <time>2022-05-08T07:41:15Z</time>
      </trkpt>
      <trkpt lat="46.06623" lon="4.56405">
        <ele>472.6</ele>
        <time>2022-05-08T07:41:19Z</time>
      </trkpt>
      <trkpt lat="46.06628" lon="4.56402">
        <ele>474</ele>
        <time>2022-05-08T07:41:23Z</time>
      </trkpt>
      <trkpt lat="46.06633" lon="4.56398">
        <ele>474</ele>
        <time>2022-05-08T07:41:27Z</time>
      </trkpt>
      <trkpt lat="46.06638" lon="4.56393">
        <ele>474.6</ele>
        <time>2022-05-08T07:41:31Z</time>
      </trkpt>
      <trkpt lat="46.06642" lon="4.56388">
        <ele>475.6</ele>
        <time>2022-05-08T07:41:35Z</time>
      </trkpt>
      <trkpt lat="46.06647" lon="4.56383">
        <ele>475.8</ele>
        <time>2022-05-08T07:41:39Z</time>
      </trkpt>
      <trkpt lat="46.06651" lon="4.56377">
        <ele>476.6</ele>
        <time>2022-05-08T07:41:43Z</time>
      </trkpt>
      <trkpt lat="46.06655" lon="4.56371">
        <ele>476.6</ele>
        <time>2022-05-08T07:41:47Z</time>
      </trkpt>
      <trkpt lat="46.06658" lon="4.56365">
        <ele>478.2</ele>
        <time>2022-05-08T07:41:51Z</time>
      </trkpt>
      <trkpt lat="46.06662" lon="4.56359">
        <ele>478.6</ele>
        <time>2022-05-08T07:41:55Z</time>
      </trkpt>
      <trkpt lat="46.06665" lon="4.56352">
        <ele>479.2</ele>
        <time>2022-05-08T07:41:59Z</time>
      </trkpt>
      <trkpt lat="46.06668" lon="4.56345">
        <ele>479.4</ele>
        <time>2022-05-08T07:42:03Z</time>
      </trkpt>
      <trkpt lat="46.06671" lon="4.56338">
        <ele>480.4</ele>
        <time>2022-05-08T07:42:07Z</time>
      </trkpt>
      <trkpt lat="46.06674" lon="4.56331">
        <ele>480.8</ele>
        <time>2022-05-08T07:42:11Z</time>
      </trkpt>
      <trkpt lat="46.06677" lon="4.56323">
        <ele>481.2</ele>
        <time>2022-05-08T07:42:15Z</time>
      </trkpt>
      <trkpt lat="46.06681" lon="4.56316">
        <ele>482</ele>
        <time>2022-05-08T07:42:19Z</time>
      </trkpt>
      <trkpt lat="46.06684" lon="4.56309">
        <ele>482.6</ele>
        <time>2022-05-08T07:42:23Z</time>
      </trkpt>
      <trkpt lat="46.06688" lon="4.56302">
        <ele>482.6</ele>
        <time>2022-05-08T07:42:27Z</time>
      </trkpt>
      <trkpt lat="46.06692" lon="4.56296">
        <ele>482.6</ele>
        <time>2022-05-08T07:42:31Z</time>
      </trkpt>
      <trkpt lat="46.06696" lon="4.5629">
        <ele>483</ele>
        <time>2022-05-08T07:42:35Z</time>
      </trkpt>
      <trkpt lat="46.06701" lon="4.56284">
        <ele>483.2</ele>
        <time>2022-05-08T07:42:39Z</time>
      </trkpt>
      <trkpt lat="46.06705" lon="4.56277">
        <ele>484.6</ele>
        <time>2022-05-08T07:42:43Z</time>
      </trkpt>
      <trkpt lat="46.0671" lon="4.56271">
        <ele>484.6</ele>
        <time>2022-05-08T07:42:47Z</time>
      </trkpt>
      <trkpt lat="46.06715" lon="4.56265">
        <ele>485.4</ele>
        <time>2022-05-08T07:42:51Z</time>
      </trkpt>
      <trkpt lat="46.0672" lon="4.5626">
        <ele>486</ele>
        <time>2022-05-08T07:42:55Z</time>
      </trkpt>
      <trkpt lat="46.06726" lon="4.56256">
        <ele>486.6</ele>
        <time>2022-05-08T07:42:59Z</time>
      </trkpt>
      <trkpt lat="46.06731" lon="4.56251">
        <ele>487.8</ele>
        <time>2022-05-08T07:43:03Z</time>
      </trkpt>
      <trkpt lat="46.06737" lon="4.56246">
        <ele>489.6</ele>
        <time>2022-05-08T07:43:07Z</time>
      </trkpt>
      <trkpt lat="46.06743" lon="4.56243">
        <ele>490</ele>
        <time>2022-05-08T07:43:11Z</time>
      </trkpt>
      <trkpt lat="46.06749" lon="4.56238">
        <ele>490.8</ele>
        <time>2022-05-08T07:43:15Z</time>
      </trkpt>
      <trkpt lat="46.06755" lon="4.56234">
        <ele>490.6</ele>
        <time>2022-05-08T07:43:19Z</time>
      </trkpt>
      <trkpt lat="46.0676" lon="4.56231">
        <ele>491.6</ele>
        <time>2022-05-08T07:43:23Z</time>
      </trkpt>
      <trkpt lat="46.06765" lon="4.56228">
        <ele>492</ele>
        <time>2022-05-08T07:43:27Z</time>
      </trkpt>
      <trkpt lat="46.06768" lon="4.56226">
        <ele>492.4</ele>
        <time>2022-05-08T07:43:31Z</time>
      </trkpt>
      <trkpt lat="46.06773" lon="4.56223">
        <ele>493.4</ele>
        <time>2022-05-08T07:43:35Z</time>
      </trkpt>
      <trkpt lat="46.06778" lon="4.56218">
        <ele>493.8</ele>
        <time>2022-05-08T07:43:39Z</time>
      </trkpt>
      <trkpt lat="46.06785" lon="4.56215">
        <ele>494</ele>
        <time>2022-05-08T07:43:43Z</time>
      </trkpt>
      <trkpt lat="46.06791" lon="4.56212">
        <ele>494.6</ele>
        <time>2022-05-08T07:43:47Z</time>
      </trkpt>
      <trkpt lat="46.06797" lon="4.56208">
        <ele>495</ele>
        <time>2022-05-08T07:43:51Z</time>
      </trkpt>
      <trkpt lat="46.06803" lon="4.56205">
        <ele>495.8</ele>
        <time>2022-05-08T07:43:55Z</time>
      </trkpt>
      <trkpt lat="46.06809" lon="4.56202">
        <ele>496</ele>
        <time>2022-05-08T07:43:59Z</time>
      </trkpt>
      <trkpt lat="46.06815" lon="4.56199">
        <ele>496.4</ele>
        <time>2022-05-08T07:44:03Z</time>
      </trkpt>
      <trkpt lat="46.06821" lon="4.56196">
        <ele>497.4</ele>
        <time>2022-05-08T07:44:07Z</time>
      </trkpt>
      <trkpt lat="46.06826" lon="4.56193">
        <ele>498</ele>
        <time>2022-05-08T07:44:11Z</time>
      </trkpt>
      <trkpt lat="46.06832" lon="4.56189">
        <ele>499.4</ele>
        <time>2022-05-08T07:44:15Z</time>
      </trkpt>
      <trkpt lat="46.06838" lon="4.56184">
        <ele>500</ele>
        <time>2022-05-08T07:44:19Z</time>
      </trkpt>
      <trkpt lat="46.06844" lon="4.5618">
        <ele>500.2</ele>
        <time>2022-05-08T07:44:23Z</time>
      </trkpt>
      <trkpt lat="46.06849" lon="4.56174">
        <ele>500.4</ele>
        <time>2022-05-08T07:44:27Z</time>
      </trkpt>
      <trkpt lat="46.06854" lon="4.56168">
        <ele>501</ele>
        <time>2022-05-08T07:44:31Z</time>
      </trkpt>
      <trkpt lat="46.06858" lon="4.56161">
        <ele>502</ele>
        <time>2022-05-08T07:44:35Z</time>
      </trkpt>
      <trkpt lat="46.06862" lon="4.56152">
        <ele>502.4</ele>
        <time>2022-05-08T07:44:39Z</time>
      </trkpt>
      <trkpt lat="46.06866" lon="4.56143">
        <ele>503</ele>
        <time>2022-05-08T07:44:43Z</time>
      </trkpt>
      <trkpt lat="46.06867" lon="4.56134">
        <ele>504.2</ele>
        <time>2022-05-08T07:44:47Z</time>
      </trkpt>
      <trkpt lat="46.06867" lon="4.56124">
        <ele>504.6</ele>
        <time>2022-05-08T07:44:51Z</time>
      </trkpt>
      <trkpt lat="46.06868" lon="4.56115">
        <ele>505</ele>
        <time>2022-05-08T07:44:55Z</time>
      </trkpt>
      <trkpt lat="46.06869" lon="4.56106">
        <ele>506</ele>
        <time>2022-05-08T07:44:59Z</time>
      </trkpt>
      <trkpt lat="46.06869" lon="4.56096">
        <ele>506.6</ele>
        <time>2022-05-08T07:45:03Z</time>
      </trkpt>
      <trkpt lat="46.0687" lon="4.56087">
        <ele>506.8</ele>
        <time>2022-05-08T07:45:07Z</time>
      </trkpt>
      <trkpt lat="46.0687" lon="4.56078">
        <ele>508.2</ele>
        <time>2022-05-08T07:45:11Z</time>
      </trkpt>
      <trkpt lat="46.0687" lon="4.56068">
        <ele>508</ele>
        <time>2022-05-08T07:45:15Z</time>
      </trkpt>
      <trkpt lat="46.0687" lon="4.56059">
        <ele>508.4</ele>
        <time>2022-05-08T07:45:19Z</time>
      </trkpt>
      <trkpt lat="46.0687" lon="4.5605">
        <ele>509.2</ele>
        <time>2022-05-08T07:45:23Z</time>
      </trkpt>
      <trkpt lat="46.0687" lon="4.56041">
        <ele>510</ele>
        <time>2022-05-08T07:45:27Z</time>
      </trkpt>
      <trkpt lat="46.0687" lon="4.56032">
        <ele>510.2</ele>
        <time>2022-05-08T07:45:31Z</time>
      </trkpt>
      <trkpt lat="46.0687" lon="4.56023">
        <ele>510.6</ele>
        <time>2022-05-08T07:45:35Z</time>
      </trkpt>
      <trkpt lat="46.0687" lon="4.56014">
        <ele>511</ele>
        <time>2022-05-08T07:45:39Z</time>
      </trkpt>
      <trkpt lat="46.06871" lon="4.56006">
        <ele>512</ele>
        <time>2022-05-08T07:45:43Z</time>
      </trkpt>
      <trkpt lat="46.06871" lon="4.55997">
        <ele>511.8</ele>
        <time>2022-05-08T07:45:47Z</time>
      </trkpt>
      <trkpt lat="46.06871" lon="4.55988">
        <ele>513.4</ele>
        <time>2022-05-08T07:45:51Z</time>
      </trkpt>
      <trkpt lat="46.06871" lon="4.55979">
        <ele>513.8</ele>
        <time>2022-05-08T07:45:55Z</time>
      </trkpt>
      <trkpt lat="46.0687" lon="4.55969">
        <ele>514.2</ele>
        <time>2022-05-08T07:45:59Z</time>
      </trkpt>
      <trkpt lat="46.06871" lon="4.5596">
        <ele>515</ele>
        <time>2022-05-08T07:46:03Z</time>
      </trkpt>
      <trkpt lat="46.0687" lon="4.55951">
        <ele>515</ele>
        <time>2022-05-08T07:46:07Z</time>
      </trkpt>
      <trkpt lat="46.0687" lon="4.55942">
        <ele>516</ele>
        <time>2022-05-08T07:46:11Z</time>
      </trkpt>
      <trkpt lat="46.06871" lon="4.55933">
        <ele>516.4</ele>
        <time>2022-05-08T07:46:15Z</time>
      </trkpt>
      <trkpt lat="46.06872" lon="4.55924">
        <ele>517</ele>
        <time>2022-05-08T07:46:19Z</time>
      </trkpt>
      <trkpt lat="46.06873" lon="4.55915">
        <ele>517.6</ele>
        <time>2022-05-08T07:46:23Z</time>
      </trkpt>
      <trkpt lat="46.06875" lon="4.55905">
        <ele>518.4</ele>
        <time>2022-05-08T07:46:27Z</time>
      </trkpt>
      <trkpt lat="46.06877" lon="4.55896">
        <ele>518.8</ele>
        <time>2022-05-08T07:46:31Z</time>
      </trkpt>
      <trkpt lat="46.06879" lon="4.55888">
        <ele>519.4</ele>
        <time>2022-05-08T07:46:35Z</time>
      </trkpt>
      <trkpt lat="46.06883" lon="4.55879">
        <ele>520.2</ele>
        <time>2022-05-08T07:46:39Z</time>
      </trkpt>
      <trkpt lat="46.06885" lon="4.55871">
        <ele>520.4</ele>
        <time>2022-05-08T07:46:43Z</time>
      </trkpt>
      <trkpt lat="46.06888" lon="4.55863">
        <ele>520.6</ele>
        <time>2022-05-08T07:46:47Z</time>
      </trkpt>
      <trkpt lat="46.06891" lon="4.55856">
        <ele>521.6</ele>
        <time>2022-05-08T07:46:51Z</time>
      </trkpt>
      <trkpt lat="46.06895" lon="4.55849">
        <ele>522.4</ele>
        <time>2022-05-08T07:46:55Z</time>
      </trkpt>
      <trkpt lat="46.06899" lon="4.55842">
        <ele>523.4</ele>
        <time>2022-05-08T07:46:59Z</time>
      </trkpt>
      <trkpt lat="46.06903" lon="4.55834">
        <ele>523.2</ele>
        <time>2022-05-08T07:47:03Z</time>
      </trkpt>
      <trkpt lat="46.06907" lon="4.55828">
        <ele>523.6</ele>
        <time>2022-05-08T07:47:07Z</time>
      </trkpt>
      <trkpt lat="46.06912" lon="4.55822">
        <ele>524.6</ele>
        <time>2022-05-08T07:47:11Z</time>
      </trkpt>
      <trkpt lat="46.06916" lon="4.55816">
        <ele>526</ele>
        <time>2022-05-08T07:47:15Z</time>
      </trkpt>
      <trkpt lat="46.06922" lon="4.5581">
        <ele>527</ele>
        <time>2022-05-08T07:47:19Z</time>
      </trkpt>
      <trkpt lat="46.06927" lon="4.55805">
        <ele>527</ele>
        <time>2022-05-08T07:47:23Z</time>
      </trkpt>
      <trkpt lat="46.06933" lon="4.558">
        <ele>527</ele>
        <time>2022-05-08T07:47:27Z</time>
      </trkpt>
      <trkpt lat="46.06939" lon="4.55795">
        <ele>527.8</ele>
        <time>2022-05-08T07:47:31Z</time>
      </trkpt>
      <trkpt lat="46.06945" lon="4.55791">
        <ele>527.8</ele>
        <time>2022-05-08T07:47:35Z</time>
      </trkpt>
      <trkpt lat="46.0695" lon="4.55786">
        <ele>527.6</ele>
        <time>2022-05-08T07:47:39Z</time>
      </trkpt>
      <trkpt lat="46.06956" lon="4.5578">
        <ele>530.2</ele>
        <time>2022-05-08T07:47:43Z</time>
      </trkpt>
      <trkpt lat="46.06962" lon="4.55775">
        <ele>529.4</ele>
        <time>2022-05-08T07:47:47Z</time>
      </trkpt>
      <trkpt lat="46.06968" lon="4.5577">
        <ele>530.2</ele>
        <time>2022-05-08T07:47:51Z</time>
      </trkpt>
      <trkpt lat="46.06975" lon="4.55765">
        <ele>532.6</ele>
        <time>2022-05-08T07:47:55Z</time>
      </trkpt>
      <trkpt lat="46.06981" lon="4.55759">
        <ele>532.8</ele>
        <time>2022-05-08T07:47:59Z</time>
      </trkpt>
      <trkpt lat="46.06987" lon="4.55754">
        <ele>533</ele>
        <time>2022-05-08T07:48:03Z</time>
      </trkpt>
      <trkpt lat="46.06993" lon="4.55749">
        <ele>534</ele>
        <time>2022-05-08T07:48:07Z</time>
      </trkpt>
      <trkpt lat="46.07" lon="4.55743">
        <ele>534.4</ele>
        <time>2022-05-08T07:48:11Z</time>
      </trkpt>
      <trkpt lat="46.07006" lon="4.55739">
        <ele>535.8</ele>
        <time>2022-05-08T07:48:15Z</time>
      </trkpt>
      <trkpt lat="46.07012" lon="4.55734">
        <ele>536.4</ele>
        <time>2022-05-08T07:48:19Z</time>
      </trkpt>
      <trkpt lat="46.07018" lon="4.55731">
        <ele>535.4</ele>
        <time>2022-05-08T07:48:23Z</time>
      </trkpt>
      <trkpt lat="46.07024" lon="4.55727">
        <ele>536.6</ele>
        <time>2022-05-08T07:48:27Z</time>
      </trkpt>
      <trkpt lat="46.07032" lon="4.55716">
        <ele>538.4</ele>
        <time>2022-05-08T07:50:20Z</time>
      </trkpt>
      <trkpt lat="46.07038" lon="4.5571">
        <ele>539.2</ele>
        <time>2022-05-08T07:50:24Z</time>
      </trkpt>
      <trkpt lat="46.07044" lon="4.55703">
        <ele>539</ele>
        <time>2022-05-08T07:50:28Z</time>
      </trkpt>
      <trkpt lat="46.07049" lon="4.55696">
        <ele>539</ele>
        <time>2022-05-08T07:50:32Z</time>
      </trkpt>
      <trkpt lat="46.07055" lon="4.55691">
        <ele>540.4</ele>
        <time>2022-05-08T07:50:36Z</time>
      </trkpt>
      <trkpt lat="46.0706" lon="4.55685">
        <ele>539.2</ele>
        <time>2022-05-08T07:50:40Z</time>
      </trkpt>
      <trkpt lat="46.07066" lon="4.55678">
        <ele>540.6</ele>
        <time>2022-05-08T07:50:44Z</time>
      </trkpt>
      <trkpt lat="46.07072" lon="4.55672">
        <ele>539.8</ele>
        <time>2022-05-08T07:50:48Z</time>
      </trkpt>
      <trkpt lat="46.07079" lon="4.55665">
        <ele>541</ele>
        <time>2022-05-08T07:50:52Z</time>
      </trkpt>
      <trkpt lat="46.07086" lon="4.55659">
        <ele>541.2</ele>
        <time>2022-05-08T07:50:56Z</time>
      </trkpt>
      <trkpt lat="46.07092" lon="4.55653">
        <ele>542.2</ele>
        <time>2022-05-08T07:51:00Z</time>
      </trkpt>
      <trkpt lat="46.07099" lon="4.55646">
        <ele>543</ele>
        <time>2022-05-08T07:51:04Z</time>
      </trkpt>
      <trkpt lat="46.07106" lon="4.55639">
        <ele>543.4</ele>
        <time>2022-05-08T07:51:08Z</time>
      </trkpt>
      <trkpt lat="46.07113" lon="4.55631">
        <ele>543.4</ele>
        <time>2022-05-08T07:51:12Z</time>
      </trkpt>
      <trkpt lat="46.07119" lon="4.55622">
        <ele>544</ele>
        <time>2022-05-08T07:51:16Z</time>
      </trkpt>
      <trkpt lat="46.07123" lon="4.55615">
        <ele>544.8</ele>
        <time>2022-05-08T07:51:20Z</time>
      </trkpt>
      <trkpt lat="46.07128" lon="4.55607">
        <ele>544.6</ele>
        <time>2022-05-08T07:51:24Z</time>
      </trkpt>
      <trkpt lat="46.07132" lon="4.55601">
        <ele>543</ele>
        <time>2022-05-08T07:51:28Z</time>
      </trkpt>
      <trkpt lat="46.07136" lon="4.55593">
        <ele>543.6</ele>
        <time>2022-05-08T07:51:32Z</time>
      </trkpt>
      <trkpt lat="46.07141" lon="4.55585">
        <ele>544.2</ele>
        <time>2022-05-08T07:51:36Z</time>
      </trkpt>
      <trkpt lat="46.07146" lon="4.55576">
        <ele>546</ele>
        <time>2022-05-08T07:51:40Z</time>
      </trkpt>
      <trkpt lat="46.07151" lon="4.55568">
        <ele>545</ele>
        <time>2022-05-08T07:51:44Z</time>
      </trkpt>
      <trkpt lat="46.07157" lon="4.55561">
        <ele>545</ele>
        <time>2022-05-08T07:51:48Z</time>
      </trkpt>
      <trkpt lat="46.07162" lon="4.55553">
        <ele>545.6</ele>
        <time>2022-05-08T07:51:52Z</time>
      </trkpt>
      <trkpt lat="46.07168" lon="4.55544">
        <ele>545.6</ele>
        <time>2022-05-08T07:51:56Z</time>
      </trkpt>
      <trkpt lat="46.07174" lon="4.55537">
        <ele>546.4</ele>
        <time>2022-05-08T07:52:00Z</time>
      </trkpt>
      <trkpt lat="46.07178" lon="4.55532">
        <ele>547</ele>
        <time>2022-05-08T07:52:04Z</time>
      </trkpt>
      <trkpt lat="46.07186" lon="4.55524">
        <ele>547.4</ele>
        <time>2022-05-08T07:52:08Z</time>
      </trkpt>
      <trkpt lat="46.07193" lon="4.55517">
        <ele>549</ele>
        <time>2022-05-08T07:52:12Z</time>
      </trkpt>
      <trkpt lat="46.072" lon="4.5551">
        <ele>549.2</ele>
        <time>2022-05-08T07:52:16Z</time>
      </trkpt>
      <trkpt lat="46.07205" lon="4.55503">
        <ele>550.6</ele>
        <time>2022-05-08T07:52:20Z</time>
      </trkpt>
      <trkpt lat="46.07212" lon="4.55495">
        <ele>551.8</ele>
        <time>2022-05-08T07:52:24Z</time>
      </trkpt>
      <trkpt lat="46.07218" lon="4.55489">
        <ele>551.2</ele>
        <time>2022-05-08T07:52:28Z</time>
      </trkpt>
      <trkpt lat="46.07225" lon="4.55481">
        <ele>552</ele>
        <time>2022-05-08T07:52:32Z</time>
      </trkpt>
      <trkpt lat="46.07232" lon="4.55474">
        <ele>552.4</ele>
        <time>2022-05-08T07:52:36Z</time>
      </trkpt>
      <trkpt lat="46.07239" lon="4.55467">
        <ele>553</ele>
        <time>2022-05-08T07:52:40Z</time>
      </trkpt>
      <trkpt lat="46.07245" lon="4.55459">
        <ele>554.8</ele>
        <time>2022-05-08T07:52:44Z</time>
      </trkpt>
      <trkpt lat="46.07251" lon="4.55452">
        <ele>554</ele>
        <time>2022-05-08T07:52:48Z</time>
      </trkpt>
      <trkpt lat="46.07257" lon="4.55447">
        <ele>553.4</ele>
        <time>2022-05-08T07:52:52Z</time>
      </trkpt>
      <trkpt lat="46.07262" lon="4.5544">
        <ele>554</ele>
        <time>2022-05-08T07:52:56Z</time>
      </trkpt>
      <trkpt lat="46.07267" lon="4.55434">
        <ele>552.4</ele>
        <time>2022-05-08T07:53:00Z</time>
      </trkpt>
      <trkpt lat="46.07271" lon="4.55429">
        <ele>553.6</ele>
        <time>2022-05-08T07:53:04Z</time>
      </trkpt>
      <trkpt lat="46.07277" lon="4.55422">
        <ele>556.2</ele>
        <time>2022-05-08T07:53:08Z</time>
      </trkpt>
      <trkpt lat="46.0728" lon="4.55415">
        <ele>556.6</ele>
        <time>2022-05-08T07:53:12Z</time>
      </trkpt>
      <trkpt lat="46.07287" lon="4.55409">
        <ele>556.6</ele>
        <time>2022-05-08T07:53:16Z</time>
      </trkpt>
      <trkpt lat="46.07292" lon="4.55403">
        <ele>558</ele>
        <time>2022-05-08T07:53:20Z</time>
      </trkpt>
      <trkpt lat="46.07298" lon="4.55399">
        <ele>558</ele>
        <time>2022-05-08T07:53:24Z</time>
      </trkpt>
      <trkpt lat="46.07302" lon="4.55393">
        <ele>558.4</ele>
        <time>2022-05-08T07:53:28Z</time>
      </trkpt>
      <trkpt lat="46.07307" lon="4.55386">
        <ele>557.6</ele>
        <time>2022-05-08T07:53:32Z</time>
      </trkpt>
      <trkpt lat="46.0731" lon="4.55379">
        <ele>558.4</ele>
        <time>2022-05-08T07:53:36Z</time>
      </trkpt>
      <trkpt lat="46.07316" lon="4.55372">
        <ele>560.2</ele>
        <time>2022-05-08T07:53:40Z</time>
      </trkpt>
      <trkpt lat="46.07322" lon="4.55369">
        <ele>560.2</ele>
        <time>2022-05-08T07:53:44Z</time>
      </trkpt>
      <trkpt lat="46.0733" lon="4.55364">
        <ele>561.4</ele>
        <time>2022-05-08T07:53:48Z</time>
      </trkpt>
      <trkpt lat="46.0734" lon="4.5536">
        <ele>562.4</ele>
        <time>2022-05-08T07:53:52Z</time>
      </trkpt>
      <trkpt lat="46.07348" lon="4.55355">
        <ele>562.4</ele>
        <time>2022-05-08T07:53:56Z</time>
      </trkpt>
      <trkpt lat="46.07357" lon="4.55351">
        <ele>563.8</ele>
        <time>2022-05-08T07:54:00Z</time>
      </trkpt>
      <trkpt lat="46.07365" lon="4.55348">
        <ele>563</ele>
        <time>2022-05-08T07:54:04Z</time>
      </trkpt>
      <trkpt lat="46.07373" lon="4.55344">
        <ele>564.2</ele>
        <time>2022-05-08T07:54:08Z</time>
      </trkpt>
      <trkpt lat="46.07381" lon="4.55341">
        <ele>564.6</ele>
        <time>2022-05-08T07:54:12Z</time>
      </trkpt>
      <trkpt lat="46.07389" lon="4.55338">
        <ele>564.8</ele>
        <time>2022-05-08T07:54:16Z</time>
      </trkpt>
      <trkpt lat="46.07396" lon="4.55334">
        <ele>565.6</ele>
        <time>2022-05-08T07:54:20Z</time>
      </trkpt>
      <trkpt lat="46.07403" lon="4.5533">
        <ele>564.6</ele>
        <time>2022-05-08T07:54:24Z</time>
      </trkpt>
      <trkpt lat="46.0741" lon="4.55325">
        <ele>565</ele>
        <time>2022-05-08T07:54:28Z</time>
      </trkpt>
      <trkpt lat="46.07416" lon="4.55321">
        <ele>564.4</ele>
        <time>2022-05-08T07:54:32Z</time>
      </trkpt>
      <trkpt lat="46.07422" lon="4.55316">
        <ele>566.2</ele>
        <time>2022-05-08T07:54:36Z</time>
      </trkpt>
      <trkpt lat="46.0743" lon="4.55313">
        <ele>567</ele>
        <time>2022-05-08T07:54:40Z</time>
      </trkpt>
      <trkpt lat="46.07435" lon="4.5531">
        <ele>567.6</ele>
        <time>2022-05-08T07:54:44Z</time>
      </trkpt>
      <trkpt lat="46.0744" lon="4.55307">
        <ele>568</ele>
        <time>2022-05-08T07:54:48Z</time>
      </trkpt>
      <trkpt lat="46.07444" lon="4.55304">
        <ele>568.8</ele>
        <time>2022-05-08T07:54:52Z</time>
      </trkpt>
      <trkpt lat="46.07448" lon="4.55301">
        <ele>570.2</ele>
        <time>2022-05-08T07:54:56Z</time>
      </trkpt>
      <trkpt lat="46.07453" lon="4.55295">
        <ele>570.4</ele>
        <time>2022-05-08T07:55:00Z</time>
      </trkpt>
      <trkpt lat="46.07459" lon="4.5529">
        <ele>570.8</ele>
        <time>2022-05-08T07:55:04Z</time>
      </trkpt>
      <trkpt lat="46.07463" lon="4.55283">
        <ele>571.2</ele>
        <time>2022-05-08T07:55:08Z</time>
      </trkpt>
      <trkpt lat="46.07469" lon="4.55277">
        <ele>571.4</ele>
        <time>2022-05-08T07:55:12Z</time>
      </trkpt>
      <trkpt lat="46.07474" lon="4.5527">
        <ele>571.8</ele>
        <time>2022-05-08T07:55:16Z</time>
      </trkpt>
      <trkpt lat="46.07478" lon="4.55264">
        <ele>572.6</ele>
        <time>2022-05-08T07:55:20Z</time>
      </trkpt>
      <trkpt lat="46.07482" lon="4.55256">
        <ele>572.6</ele>
        <time>2022-05-08T07:55:24Z</time>
      </trkpt>
      <trkpt lat="46.07487" lon="4.55249">
        <ele>573.2</ele>
        <time>2022-05-08T07:55:28Z</time>
      </trkpt>
      <trkpt lat="46.07491" lon="4.55243">
        <ele>574.2</ele>
        <time>2022-05-08T07:55:32Z</time>
      </trkpt>
      <trkpt lat="46.07496" lon="4.55237">
        <ele>574.8</ele>
        <time>2022-05-08T07:55:36Z</time>
      </trkpt>
      <trkpt lat="46.07501" lon="4.55229">
        <ele>574.8</ele>
        <time>2022-05-08T07:55:40Z</time>
      </trkpt>
      <trkpt lat="46.07508" lon="4.55222">
        <ele>575.6</ele>
        <time>2022-05-08T07:55:44Z</time>
      </trkpt>
      <trkpt lat="46.07514" lon="4.55214">
        <ele>575.6</ele>
        <time>2022-05-08T07:55:48Z</time>
      </trkpt>
      <trkpt lat="46.0752" lon="4.55207">
        <ele>576</ele>
        <time>2022-05-08T07:55:52Z</time>
      </trkpt>
      <trkpt lat="46.07526" lon="4.55202">
        <ele>576.8</ele>
        <time>2022-05-08T07:55:56Z</time>
      </trkpt>
      <trkpt lat="46.07533" lon="4.55197">
        <ele>576.6</ele>
        <time>2022-05-08T07:56:00Z</time>
      </trkpt>
      <trkpt lat="46.07537" lon="4.5519">
        <ele>576.6</ele>
        <time>2022-05-08T07:56:04Z</time>
      </trkpt>
      <trkpt lat="46.07542" lon="4.55183">
        <ele>577.2</ele>
        <time>2022-05-08T07:56:08Z</time>
      </trkpt>
      <trkpt lat="46.07548" lon="4.55176">
        <ele>579.6</ele>
        <time>2022-05-08T07:56:12Z</time>
      </trkpt>
      <trkpt lat="46.07556" lon="4.5517">
        <ele>579.4</ele>
        <time>2022-05-08T07:56:16Z</time>
      </trkpt>
      <trkpt lat="46.07563" lon="4.55161">
        <ele>579.6</ele>
        <time>2022-05-08T07:56:20Z</time>
      </trkpt>
      <trkpt lat="46.0757" lon="4.55152">
        <ele>580.8</ele>
        <time>2022-05-08T07:56:24Z</time>
      </trkpt>
      <trkpt lat="46.07579" lon="4.55141">
        <ele>581.8</ele>
        <time>2022-05-08T07:56:28Z</time>
      </trkpt>
      <trkpt lat="46.07589" lon="4.55132">
        <ele>582.8</ele>
        <time>2022-05-08T07:56:32Z</time>
      </trkpt>
      <trkpt lat="46.07597" lon="4.55125">
        <ele>583.4</ele>
        <time>2022-05-08T07:56:36Z</time>
      </trkpt>
      <trkpt lat="46.07605" lon="4.5512">
        <ele>583.4</ele>
        <time>2022-05-08T07:56:40Z</time>
      </trkpt>
      <trkpt lat="46.07613" lon="4.55116">
        <ele>583.6</ele>
        <time>2022-05-08T07:56:44Z</time>
      </trkpt>
      <trkpt lat="46.07619" lon="4.55115">
        <ele>583.8</ele>
        <time>2022-05-08T07:56:48Z</time>
      </trkpt>
      <trkpt lat="46.07626" lon="4.55113">
        <ele>585.4</ele>
        <time>2022-05-08T07:56:52Z</time>
      </trkpt>
      <trkpt lat="46.07633" lon="4.55111">
        <ele>585.8</ele>
        <time>2022-05-08T07:56:56Z</time>
      </trkpt>
      <trkpt lat="46.0764" lon="4.5511">
        <ele>586.8</ele>
        <time>2022-05-08T07:57:00Z</time>
      </trkpt>
      <trkpt lat="46.07647" lon="4.55108">
        <ele>587</ele>
        <time>2022-05-08T07:57:04Z</time>
      </trkpt>
      <trkpt lat="46.07654" lon="4.55106">
        <ele>587.8</ele>
        <time>2022-05-08T07:57:08Z</time>
      </trkpt>
      <trkpt lat="46.0766" lon="4.55104">
        <ele>588.6</ele>
        <time>2022-05-08T07:57:12Z</time>
      </trkpt>
      <trkpt lat="46.07667" lon="4.55102">
        <ele>588.8</ele>
        <time>2022-05-08T07:57:16Z</time>
      </trkpt>
      <trkpt lat="46.07674" lon="4.55102">
        <ele>589.2</ele>
        <time>2022-05-08T07:57:20Z</time>
      </trkpt>
      <trkpt lat="46.07684" lon="4.55102">
        <ele>590.2</ele>
        <time>2022-05-08T07:57:24Z</time>
      </trkpt>
      <trkpt lat="46.07693" lon="4.55101">
        <ele>590.2</ele>
        <time>2022-05-08T07:57:28Z</time>
      </trkpt>
      <trkpt lat="46.077" lon="4.55101">
        <ele>591</ele>
        <time>2022-05-08T07:57:32Z</time>
      </trkpt>
      <trkpt lat="46.07707" lon="4.55101">
        <ele>591.6</ele>
        <time>2022-05-08T07:57:36Z</time>
      </trkpt>
      <trkpt lat="46.07715" lon="4.55102">
        <ele>591.8</ele>
        <time>2022-05-08T07:57:40Z</time>
      </trkpt>
      <trkpt lat="46.07722" lon="4.55102">
        <ele>593</ele>
        <time>2022-05-08T07:57:44Z</time>
      </trkpt>
      <trkpt lat="46.07729" lon="4.55102">
        <ele>592.6</ele>
        <time>2022-05-08T07:57:48Z</time>
      </trkpt>
      <trkpt lat="46.07738" lon="4.55101">
        <ele>593.4</ele>
        <time>2022-05-08T07:57:52Z</time>
      </trkpt>
      <trkpt lat="46.07746" lon="4.55099">
        <ele>594.4</ele>
        <time>2022-05-08T07:57:56Z</time>
      </trkpt>
      <trkpt lat="46.07753" lon="4.55093">
        <ele>594.6</ele>
        <time>2022-05-08T07:58:00Z</time>
      </trkpt>
      <trkpt lat="46.07753" lon="4.55083">
        <ele>595.6</ele>
        <time>2022-05-08T07:58:04Z</time>
      </trkpt>
      <trkpt lat="46.07748" lon="4.55075">
        <ele>595.8</ele>
        <time>2022-05-08T07:58:08Z</time>
      </trkpt>
      <trkpt lat="46.07743" lon="4.5507">
        <ele>596.4</ele>
        <time>2022-05-08T07:58:12Z</time>
      </trkpt>
      <trkpt lat="46.07737" lon="4.55066">
        <ele>597</ele>
        <time>2022-05-08T07:58:16Z</time>
      </trkpt>
      <trkpt lat="46.0773" lon="4.55063">
        <ele>597.2</ele>
        <time>2022-05-08T07:58:20Z</time>
      </trkpt>
      <trkpt lat="46.07723" lon="4.5506">
        <ele>598</ele>
        <time>2022-05-08T07:58:24Z</time>
      </trkpt>
      <trkpt lat="46.07717" lon="4.55056">
        <ele>598</ele>
        <time>2022-05-08T07:58:28Z</time>
      </trkpt>
      <trkpt lat="46.07712" lon="4.55053">
        <ele>598.8</ele>
        <time>2022-05-08T07:58:32Z</time>
      </trkpt>
      <trkpt lat="46.07706" lon="4.55049">
        <ele>599.4</ele>
        <time>2022-05-08T07:58:36Z</time>
      </trkpt>
      <trkpt lat="46.07699" lon="4.55046">
        <ele>599.6</ele>
        <time>2022-05-08T07:58:40Z</time>
      </trkpt>
      <trkpt lat="46.07694" lon="4.55042">
        <ele>600.2</ele>
        <time>2022-05-08T07:58:44Z</time>
      </trkpt>
      <trkpt lat="46.07687" lon="4.5504">
        <ele>600.4</ele>
        <time>2022-05-08T07:58:48Z</time>
      </trkpt>
      <trkpt lat="46.07678" lon="4.55037">
        <ele>601.2</ele>
        <time>2022-05-08T07:58:52Z</time>
      </trkpt>
      <trkpt lat="46.07669" lon="4.55034">
        <ele>601.8</ele>
        <time>2022-05-08T07:58:56Z</time>
      </trkpt>
      <trkpt lat="46.07661" lon="4.55032">
        <ele>602</ele>
        <time>2022-05-08T07:59:00Z</time>
      </trkpt>
      <trkpt lat="46.07656" lon="4.55028">
        <ele>602.2</ele>
        <time>2022-05-08T07:59:04Z</time>
      </trkpt>
      <trkpt lat="46.07649" lon="4.55026">
        <ele>603</ele>
        <time>2022-05-08T07:59:08Z</time>
      </trkpt>
      <trkpt lat="46.07643" lon="4.55025">
        <ele>603.4</ele>
        <time>2022-05-08T07:59:12Z</time>
      </trkpt>
      <trkpt lat="46.07635" lon="4.55024">
        <ele>604.2</ele>
        <time>2022-05-08T07:59:16Z</time>
      </trkpt>
      <trkpt lat="46.07628" lon="4.55023">
        <ele>604</ele>
        <time>2022-05-08T07:59:20Z</time>
      </trkpt>
      <trkpt lat="46.07622" lon="4.55021">
        <ele>604.6</ele>
        <time>2022-05-08T07:59:24Z</time>
      </trkpt>
      <trkpt lat="46.07616" lon="4.5502">
        <ele>605.6</ele>
        <time>2022-05-08T07:59:28Z</time>
      </trkpt>
      <trkpt lat="46.07609" lon="4.5502">
        <ele>605.8</ele>
        <time>2022-05-08T07:59:32Z</time>
      </trkpt>
      <trkpt lat="46.07601" lon="4.5502">
        <ele>606.2</ele>
        <time>2022-05-08T07:59:36Z</time>
      </trkpt>
      <trkpt lat="46.07594" lon="4.5502">
        <ele>607</ele>
        <time>2022-05-08T07:59:40Z</time>
      </trkpt>
      <trkpt lat="46.07585" lon="4.5502">
        <ele>607.2</ele>
        <time>2022-05-08T07:59:44Z</time>
      </trkpt>
      <trkpt lat="46.07581" lon="4.5502">
        <ele>607.8</ele>
        <time>2022-05-08T07:59:48Z</time>
      </trkpt>
      <trkpt lat="46.07575" lon="4.55014">
        <ele>608.4</ele>
        <time>2022-05-08T07:59:52Z</time>
      </trkpt>
      <trkpt lat="46.07575" lon="4.55006">
        <ele>609.6</ele>
        <time>2022-05-08T07:59:56Z</time>
      </trkpt>
      <trkpt lat="46.07581" lon="4.55001">
        <ele>610.8</ele>
        <time>2022-05-08T08:00:00Z</time>
      </trkpt>
      <trkpt lat="46.07588" lon="4.54999">
        <ele>611.8</ele>
        <time>2022-05-08T08:00:04Z</time>
      </trkpt>
      <trkpt lat="46.07593" lon="4.54998">
        <ele>612.2</ele>
        <time>2022-05-08T08:00:08Z</time>
      </trkpt>
      <trkpt lat="46.07597" lon="4.54997">
        <ele>612.8</ele>
        <time>2022-05-08T08:00:12Z</time>
      </trkpt>
      <trkpt lat="46.07601" lon="4.54995">
        <ele>613.8</ele>
        <time>2022-05-08T08:00:16Z</time>
      </trkpt>
      <trkpt lat="46.07607" lon="4.54993">
        <ele>614.8</ele>
        <time>2022-05-08T08:00:20Z</time>
      </trkpt>
      <trkpt lat="46.07615" lon="4.54991">
        <ele>614.8</ele>
        <time>2022-05-08T08:00:24Z</time>
      </trkpt>
      <trkpt lat="46.07621" lon="4.54987">
        <ele>615.4</ele>
        <time>2022-05-08T08:00:28Z</time>
      </trkpt>
      <trkpt lat="46.07627" lon="4.54987">
        <ele>615.8</ele>
        <time>2022-05-08T08:00:32Z</time>
      </trkpt>
      <trkpt lat="46.07635" lon="4.54984">
        <ele>616.6</ele>
        <time>2022-05-08T08:00:36Z</time>
      </trkpt>
      <trkpt lat="46.07642" lon="4.54983">
        <ele>617</ele>
        <time>2022-05-08T08:00:40Z</time>
      </trkpt>
      <trkpt lat="46.07648" lon="4.54983">
        <ele>618.4</ele>
        <time>2022-05-08T08:00:44Z</time>
      </trkpt>
      <trkpt lat="46.07654" lon="4.54981">
        <ele>618.6</ele>
        <time>2022-05-08T08:00:48Z</time>
      </trkpt>
      <trkpt lat="46.07662" lon="4.54979">
        <ele>619.6</ele>
        <time>2022-05-08T08:00:52Z</time>
      </trkpt>
      <trkpt lat="46.07669" lon="4.54976">
        <ele>620.2</ele>
        <time>2022-05-08T08:00:56Z</time>
      </trkpt>
      <trkpt lat="46.07677" lon="4.54975">
        <ele>620.6</ele>
        <time>2022-05-08T08:01:00Z</time>
      </trkpt>
      <trkpt lat="46.07682" lon="4.54972">
        <ele>621.2</ele>
        <time>2022-05-08T08:01:04Z</time>
      </trkpt>
      <trkpt lat="46.07689" lon="4.54971">
        <ele>622.4</ele>
        <time>2022-05-08T08:01:08Z</time>
      </trkpt>
      <trkpt lat="46.07695" lon="4.54969">
        <ele>623</ele>
        <time>2022-05-08T08:01:12Z</time>
      </trkpt>
      <trkpt lat="46.07701" lon="4.54967">
        <ele>623.8</ele>
        <time>2022-05-08T08:01:16Z</time>
      </trkpt>
      <trkpt lat="46.07707" lon="4.54967">
        <ele>624</ele>
        <time>2022-05-08T08:01:20Z</time>
      </trkpt>
      <trkpt lat="46.07714" lon="4.54966">
        <ele>624.8</ele>
        <time>2022-05-08T08:01:24Z</time>
      </trkpt>
      <trkpt lat="46.07725" lon="4.54965">
        <ele>625.8</ele>
        <time>2022-05-08T08:01:28Z</time>
      </trkpt>
      <trkpt lat="46.07733" lon="4.54964">
        <ele>626</ele>
        <time>2022-05-08T08:01:32Z</time>
      </trkpt>
      <trkpt lat="46.07738" lon="4.54964">
        <ele>626.8</ele>
        <time>2022-05-08T08:01:36Z</time>
      </trkpt>
      <trkpt lat="46.07743" lon="4.54964">
        <ele>627</ele>
        <time>2022-05-08T08:01:40Z</time>
      </trkpt>
      <trkpt lat="46.07751" lon="4.54964">
        <ele>627.2</ele>
        <time>2022-05-08T08:01:44Z</time>
      </trkpt>
      <trkpt lat="46.07758" lon="4.54963">
        <ele>628</ele>
        <time>2022-05-08T08:01:48Z</time>
      </trkpt>
      <trkpt lat="46.07764" lon="4.54962">
        <ele>629.2</ele>
        <time>2022-05-08T08:01:52Z</time>
      </trkpt>
      <trkpt lat="46.07772" lon="4.54962">
        <ele>629.6</ele>
        <time>2022-05-08T08:01:56Z</time>
      </trkpt>
      <trkpt lat="46.07779" lon="4.54961">
        <ele>630.4</ele>
        <time>2022-05-08T08:02:00Z</time>
      </trkpt>
      <trkpt lat="46.07786" lon="4.54959">
        <ele>630.8</ele>
        <time>2022-05-08T08:02:04Z</time>
      </trkpt>
      <trkpt lat="46.07791" lon="4.5496">
        <ele>631</ele>
        <time>2022-05-08T08:02:08Z</time>
      </trkpt>
      <trkpt lat="46.07798" lon="4.54961">
        <ele>632</ele>
        <time>2022-05-08T08:02:12Z</time>
      </trkpt>
      <trkpt lat="46.07804" lon="4.54961">
        <ele>632.8</ele>
        <time>2022-05-08T08:02:16Z</time>
      </trkpt>
      <trkpt lat="46.07814" lon="4.54959">
        <ele>633</ele>
        <time>2022-05-08T08:02:20Z</time>
      </trkpt>
      <trkpt lat="46.0782" lon="4.54957">
        <ele>633.4</ele>
        <time>2022-05-08T08:02:24Z</time>
      </trkpt>
      <trkpt lat="46.07828" lon="4.54955">
        <ele>634.2</ele>
        <time>2022-05-08T08:02:28Z</time>
      </trkpt>
      <trkpt lat="46.07834" lon="4.54954">
        <ele>634.6</ele>
        <time>2022-05-08T08:02:32Z</time>
      </trkpt>
      <trkpt lat="46.07842" lon="4.54952">
        <ele>634.8</ele>
        <time>2022-05-08T08:02:36Z</time>
      </trkpt>
      <trkpt lat="46.07851" lon="4.5495">
        <ele>635.2</ele>
        <time>2022-05-08T08:02:40Z</time>
      </trkpt>
      <trkpt lat="46.07858" lon="4.54949">
        <ele>636.2</ele>
        <time>2022-05-08T08:02:44Z</time>
      </trkpt>
      <trkpt lat="46.07858" lon="4.54949">
        <ele>636.8</ele>
        <time>2022-05-08T08:02:48Z</time>
      </trkpt>
      <trkpt lat="46.07867" lon="4.54947">
        <ele>637.4</ele>
        <time>2022-05-08T08:02:52Z</time>
      </trkpt>
      <trkpt lat="46.07875" lon="4.54945">
        <ele>638</ele>
        <time>2022-05-08T08:02:56Z</time>
      </trkpt>
      <trkpt lat="46.07882" lon="4.54944">
        <ele>638.2</ele>
        <time>2022-05-08T08:03:00Z</time>
      </trkpt>
      <trkpt lat="46.07888" lon="4.54942">
        <ele>638.4</ele>
        <time>2022-05-08T08:03:04Z</time>
      </trkpt>
      <trkpt lat="46.07895" lon="4.54942">
        <ele>640</ele>
        <time>2022-05-08T08:03:08Z</time>
      </trkpt>
      <trkpt lat="46.07901" lon="4.54943">
        <ele>640.8</ele>
        <time>2022-05-08T08:03:12Z</time>
      </trkpt>
      <trkpt lat="46.07906" lon="4.54943">
        <ele>641.2</ele>
        <time>2022-05-08T08:03:16Z</time>
      </trkpt>
      <trkpt lat="46.07913" lon="4.54943">
        <ele>641.2</ele>
        <time>2022-05-08T08:03:20Z</time>
      </trkpt>
      <trkpt lat="46.07921" lon="4.54944">
        <ele>641.8</ele>
        <time>2022-05-08T08:03:24Z</time>
      </trkpt>
      <trkpt lat="46.07929" lon="4.54944">
        <ele>642.8</ele>
        <time>2022-05-08T08:03:28Z</time>
      </trkpt>
      <trkpt lat="46.07937" lon="4.54944">
        <ele>642.8</ele>
        <time>2022-05-08T08:03:32Z</time>
      </trkpt>
      <trkpt lat="46.07943" lon="4.54944">
        <ele>643.4</ele>
        <time>2022-05-08T08:03:36Z</time>
      </trkpt>
      <trkpt lat="46.0795" lon="4.54944">
        <ele>643.6</ele>
        <time>2022-05-08T08:03:40Z</time>
      </trkpt>
      <trkpt lat="46.07956" lon="4.54945">
        <ele>644.2</ele>
        <time>2022-05-08T08:03:44Z</time>
      </trkpt>
      <trkpt lat="46.07961" lon="4.54946">
        <ele>645</ele>
        <time>2022-05-08T08:03:48Z</time>
      </trkpt>
      <trkpt lat="46.07967" lon="4.54947">
        <ele>645.8</ele>
        <time>2022-05-08T08:03:52Z</time>
      </trkpt>
      <trkpt lat="46.07974" lon="4.54949">
        <ele>646.4</ele>
        <time>2022-05-08T08:03:56Z</time>
      </trkpt>
      <trkpt lat="46.07983" lon="4.54951">
        <ele>646.8</ele>
        <time>2022-05-08T08:04:00Z</time>
      </trkpt>
      <trkpt lat="46.0799" lon="4.54955">
        <ele>647</ele>
        <time>2022-05-08T08:04:04Z</time>
      </trkpt>
      <trkpt lat="46.07997" lon="4.54959">
        <ele>647.8</ele>
        <time>2022-05-08T08:04:08Z</time>
      </trkpt>
      <trkpt lat="46.08003" lon="4.54963">
        <ele>649</ele>
        <time>2022-05-08T08:04:12Z</time>
      </trkpt>
      <trkpt lat="46.08009" lon="4.54968">
        <ele>650.6</ele>
        <time>2022-05-08T08:04:16Z</time>
      </trkpt>
      <trkpt lat="46.08015" lon="4.54973">
        <ele>651</ele>
        <time>2022-05-08T08:04:20Z</time>
      </trkpt>
      <trkpt lat="46.08022" lon="4.54978">
        <ele>651.2</ele>
        <time>2022-05-08T08:04:24Z</time>
      </trkpt>
      <trkpt lat="46.08028" lon="4.54984">
        <ele>651.6</ele>
        <time>2022-05-08T08:04:28Z</time>
      </trkpt>
      <trkpt lat="46.08035" lon="4.54989">
        <ele>652.2</ele>
        <time>2022-05-08T08:04:32Z</time>
      </trkpt>
      <trkpt lat="46.08041" lon="4.54994">
        <ele>653.6</ele>
        <time>2022-05-08T08:04:36Z</time>
      </trkpt>
      <trkpt lat="46.08047" lon="4.54996">
        <ele>653.8</ele>
        <time>2022-05-08T08:04:40Z</time>
      </trkpt>
      <trkpt lat="46.08054" lon="4.54993">
        <ele>654.4</ele>
        <time>2022-05-08T08:04:44Z</time>
      </trkpt>
      <trkpt lat="46.08056" lon="4.54983">
        <ele>655</ele>
        <time>2022-05-08T08:04:48Z</time>
      </trkpt>
      <trkpt lat="46.08051" lon="4.54974">
        <ele>655.4</ele>
        <time>2022-05-08T08:04:52Z</time>
      </trkpt>
      <trkpt lat="46.08044" lon="4.54967">
        <ele>655.8</ele>
        <time>2022-05-08T08:04:56Z</time>
      </trkpt>
      <trkpt lat="46.08037" lon="4.54958">
        <ele>657</ele>
        <time>2022-05-08T08:05:00Z</time>
      </trkpt>
      <trkpt lat="46.08032" lon="4.54949">
        <ele>656.6</ele>
        <time>2022-05-08T08:05:04Z</time>
      </trkpt>
      <trkpt lat="46.08025" lon="4.54937">
        <ele>657.4</ele>
        <time>2022-05-08T08:05:08Z</time>
      </trkpt>
      <trkpt lat="46.08017" lon="4.54921">
        <ele>657.8</ele>
        <time>2022-05-08T08:05:12Z</time>
      </trkpt>
      <trkpt lat="46.08009" lon="4.54904">
        <ele>658.6</ele>
        <time>2022-05-08T08:05:16Z</time>
      </trkpt>
      <trkpt lat="46.08008" lon="4.54886">
        <ele>659.2</ele>
        <time>2022-05-08T08:05:20Z</time>
      </trkpt>
      <trkpt lat="46.08012" lon="4.54877">
        <ele>659.6</ele>
        <time>2022-05-08T08:05:24Z</time>
      </trkpt>
      <trkpt lat="46.0803" lon="4.54865">
        <ele>660.2</ele>
        <time>2022-05-08T08:07:38Z</time>
      </trkpt>
      <trkpt lat="46.08039" lon="4.54859">
        <ele>660.2</ele>
        <time>2022-05-08T08:07:42Z</time>
      </trkpt>
      <trkpt lat="46.08048" lon="4.54851">
        <ele>660.2</ele>
        <time>2022-05-08T08:07:46Z</time>
      </trkpt>
      <trkpt lat="46.08058" lon="4.54844">
        <ele>660.4</ele>
        <time>2022-05-08T08:07:50Z</time>
      </trkpt>
      <trkpt lat="46.08068" lon="4.54836">
        <ele>662.2</ele>
        <time>2022-05-08T08:07:54Z</time>
      </trkpt>
      <trkpt lat="46.08079" lon="4.54831">
        <ele>662.4</ele>
        <time>2022-05-08T08:07:58Z</time>
      </trkpt>
      <trkpt lat="46.08091" lon="4.54825">
        <ele>661.4</ele>
        <time>2022-05-08T08:08:02Z</time>
      </trkpt>
      <trkpt lat="46.08104" lon="4.5482">
        <ele>662.2</ele>
        <time>2022-05-08T08:08:06Z</time>
      </trkpt>
      <trkpt lat="46.08116" lon="4.54817">
        <ele>663.2</ele>
        <time>2022-05-08T08:08:10Z</time>
      </trkpt>
      <trkpt lat="46.08129" lon="4.54815">
        <ele>662</ele>
        <time>2022-05-08T08:08:14Z</time>
      </trkpt>
      <trkpt lat="46.08143" lon="4.54812">
        <ele>662.4</ele>
        <time>2022-05-08T08:08:18Z</time>
      </trkpt>
      <trkpt lat="46.08159" lon="4.5481">
        <ele>662.2</ele>
        <time>2022-05-08T08:08:22Z</time>
      </trkpt>
      <trkpt lat="46.08175" lon="4.54807">
        <ele>662.4</ele>
        <time>2022-05-08T08:08:26Z</time>
      </trkpt>
      <trkpt lat="46.08189" lon="4.54803">
        <ele>662.8</ele>
        <time>2022-05-08T08:08:30Z</time>
      </trkpt>
      <trkpt lat="46.08202" lon="4.54799">
        <ele>663.2</ele>
        <time>2022-05-08T08:08:34Z</time>
      </trkpt>
      <trkpt lat="46.08214" lon="4.54795">
        <ele>664.4</ele>
        <time>2022-05-08T08:08:38Z</time>
      </trkpt>
      <trkpt lat="46.08225" lon="4.54791">
        <ele>664.6</ele>
        <time>2022-05-08T08:08:42Z</time>
      </trkpt>
      <trkpt lat="46.08236" lon="4.54787">
        <ele>665.4</ele>
        <time>2022-05-08T08:08:46Z</time>
      </trkpt>
      <trkpt lat="46.08247" lon="4.54783">
        <ele>666</ele>
        <time>2022-05-08T08:08:50Z</time>
      </trkpt>
      <trkpt lat="46.08259" lon="4.54778">
        <ele>666</ele>
        <time>2022-05-08T08:08:54Z</time>
      </trkpt>
      <trkpt lat="46.08273" lon="4.54773">
        <ele>666.2</ele>
        <time>2022-05-08T08:08:58Z</time>
      </trkpt>
      <trkpt lat="46.08287" lon="4.54766">
        <ele>666.6</ele>
        <time>2022-05-08T08:09:02Z</time>
      </trkpt>
      <trkpt lat="46.08301" lon="4.54758">
        <ele>665.6</ele>
        <time>2022-05-08T08:09:06Z</time>
      </trkpt>
      <trkpt lat="46.08314" lon="4.5475">
        <ele>665.4</ele>
        <time>2022-05-08T08:09:10Z</time>
      </trkpt>
      <trkpt lat="46.08327" lon="4.5474">
        <ele>666.4</ele>
        <time>2022-05-08T08:09:14Z</time>
      </trkpt>
      <trkpt lat="46.08339" lon="4.5473">
        <ele>666.8</ele>
        <time>2022-05-08T08:09:18Z</time>
      </trkpt>
      <trkpt lat="46.08348" lon="4.54718">
        <ele>666.2</ele>
        <time>2022-05-08T08:09:22Z</time>
      </trkpt>
      <trkpt lat="46.08356" lon="4.54706">
        <ele>667.4</ele>
        <time>2022-05-08T08:09:26Z</time>
      </trkpt>
      <trkpt lat="46.08366" lon="4.54695">
        <ele>667.2</ele>
        <time>2022-05-08T08:09:30Z</time>
      </trkpt>
      <trkpt lat="46.08376" lon="4.54686">
        <ele>667.8</ele>
        <time>2022-05-08T08:09:34Z</time>
      </trkpt>
      <trkpt lat="46.08387" lon="4.54678">
        <ele>668.8</ele>
        <time>2022-05-08T08:09:38Z</time>
      </trkpt>
      <trkpt lat="46.08399" lon="4.54676">
        <ele>669.2</ele>
        <time>2022-05-08T08:09:42Z</time>
      </trkpt>
      <trkpt lat="46.0841" lon="4.54678">
        <ele>669.2</ele>
        <time>2022-05-08T08:09:46Z</time>
      </trkpt>
      <trkpt lat="46.08421" lon="4.54683">
        <ele>668.8</ele>
        <time>2022-05-08T08:09:50Z</time>
      </trkpt>
      <trkpt lat="46.08431" lon="4.54689">
        <ele>668.6</ele>
        <time>2022-05-08T08:09:54Z</time>
      </trkpt>
      <trkpt lat="46.08441" lon="4.54694">
        <ele>668.2</ele>
        <time>2022-05-08T08:09:58Z</time>
      </trkpt>
      <trkpt lat="46.0845" lon="4.54701">
        <ele>669.6</ele>
        <time>2022-05-08T08:10:02Z</time>
      </trkpt>
      <trkpt lat="46.08461" lon="4.54707">
        <ele>668.6</ele>
        <time>2022-05-08T08:10:06Z</time>
      </trkpt>
      <trkpt lat="46.08472" lon="4.54714">
        <ele>671</ele>
        <time>2022-05-08T08:10:10Z</time>
      </trkpt>
      <trkpt lat="46.08484" lon="4.54725">
        <ele>671</ele>
        <time>2022-05-08T08:10:14Z</time>
      </trkpt>
      <trkpt lat="46.08496" lon="4.54737">
        <ele>671.4</ele>
        <time>2022-05-08T08:10:18Z</time>
      </trkpt>
      <trkpt lat="46.08507" lon="4.5475">
        <ele>670.6</ele>
        <time>2022-05-08T08:10:22Z</time>
      </trkpt>
      <trkpt lat="46.08519" lon="4.54766">
        <ele>671</ele>
        <time>2022-05-08T08:10:26Z</time>
      </trkpt>
      <trkpt lat="46.08527" lon="4.54783">
        <ele>670</ele>
        <time>2022-05-08T08:10:30Z</time>
      </trkpt>
      <trkpt lat="46.08539" lon="4.54802">
        <ele>670.4</ele>
        <time>2022-05-08T08:10:34Z</time>
      </trkpt>
      <trkpt lat="46.08552" lon="4.54825">
        <ele>668.8</ele>
        <time>2022-05-08T08:10:38Z</time>
      </trkpt>
      <trkpt lat="46.08565" lon="4.54846">
        <ele>668.6</ele>
        <time>2022-05-08T08:10:42Z</time>
      </trkpt>
      <trkpt lat="46.08582" lon="4.5486">
        <ele>668.6</ele>
        <time>2022-05-08T08:10:46Z</time>
      </trkpt>
      <trkpt lat="46.08598" lon="4.5487">
        <ele>668.8</ele>
        <time>2022-05-08T08:10:50Z</time>
      </trkpt>
      <trkpt lat="46.08613" lon="4.54879">
        <ele>668.4</ele>
        <time>2022-05-08T08:10:54Z</time>
      </trkpt>
      <trkpt lat="46.08629" lon="4.54885">
        <ele>668.2</ele>
        <time>2022-05-08T08:10:58Z</time>
      </trkpt>
      <trkpt lat="46.08647" lon="4.54885">
        <ele>668.4</ele>
        <time>2022-05-08T08:11:02Z</time>
      </trkpt>
      <trkpt lat="46.08668" lon="4.5488">
        <ele>669</ele>
        <time>2022-05-08T08:11:06Z</time>
      </trkpt>
      <trkpt lat="46.08683" lon="4.54872">
        <ele>668.8</ele>
        <time>2022-05-08T08:11:10Z</time>
      </trkpt>
      <trkpt lat="46.08699" lon="4.54858">
        <ele>669</ele>
        <time>2022-05-08T08:11:14Z</time>
      </trkpt>
      <trkpt lat="46.08714" lon="4.54842">
        <ele>669.8</ele>
        <time>2022-05-08T08:11:18Z</time>
      </trkpt>
      <trkpt lat="46.08727" lon="4.54827">
        <ele>669.8</ele>
        <time>2022-05-08T08:11:22Z</time>
      </trkpt>
      <trkpt lat="46.08741" lon="4.54815">
        <ele>669.8</ele>
        <time>2022-05-08T08:11:26Z</time>
      </trkpt>
      <trkpt lat="46.08756" lon="4.54806">
        <ele>670.6</ele>
        <time>2022-05-08T08:11:30Z</time>
      </trkpt>
      <trkpt lat="46.0877" lon="4.54799">
        <ele>671.2</ele>
        <time>2022-05-08T08:11:34Z</time>
      </trkpt>
      <trkpt lat="46.08786" lon="4.54792">
        <ele>671.8</ele>
        <time>2022-05-08T08:11:38Z</time>
      </trkpt>
      <trkpt lat="46.08803" lon="4.54786">
        <ele>671</ele>
        <time>2022-05-08T08:11:42Z</time>
      </trkpt>
      <trkpt lat="46.08821" lon="4.5478">
        <ele>670.4</ele>
        <time>2022-05-08T08:11:46Z</time>
      </trkpt>
      <trkpt lat="46.08838" lon="4.54774">
        <ele>670.8</ele>
        <time>2022-05-08T08:11:50Z</time>
      </trkpt>
      <trkpt lat="46.08855" lon="4.54771">
        <ele>670.8</ele>
        <time>2022-05-08T08:11:54Z</time>
      </trkpt>
      <trkpt lat="46.08874" lon="4.54765">
        <ele>670</ele>
        <time>2022-05-08T08:11:58Z</time>
      </trkpt>
      <trkpt lat="46.08893" lon="4.54759">
        <ele>669.6</ele>
        <time>2022-05-08T08:12:02Z</time>
      </trkpt>
      <trkpt lat="46.08911" lon="4.5475">
        <ele>669.4</ele>
        <time>2022-05-08T08:12:06Z</time>
      </trkpt>
      <trkpt lat="46.08922" lon="4.54738">
        <ele>668.8</ele>
        <time>2022-05-08T08:12:10Z</time>
      </trkpt>
      <trkpt lat="46.08939" lon="4.54724">
        <ele>668.8</ele>
        <time>2022-05-08T08:12:14Z</time>
      </trkpt>
      <trkpt lat="46.08957" lon="4.54708">
        <ele>668</ele>
        <time>2022-05-08T08:12:18Z</time>
      </trkpt>
      <trkpt lat="46.08975" lon="4.54692">
        <ele>668.6</ele>
        <time>2022-05-08T08:12:22Z</time>
      </trkpt>
      <trkpt lat="46.08994" lon="4.54674">
        <ele>668.4</ele>
        <time>2022-05-08T08:12:26Z</time>
      </trkpt>
      <trkpt lat="46.0901" lon="4.54655">
        <ele>667.4</ele>
        <time>2022-05-08T08:12:30Z</time>
      </trkpt>
      <trkpt lat="46.09028" lon="4.54635">
        <ele>667.2</ele>
        <time>2022-05-08T08:12:34Z</time>
      </trkpt>
      <trkpt lat="46.09043" lon="4.54614">
        <ele>666.8</ele>
        <time>2022-05-08T08:12:38Z</time>
      </trkpt>
      <trkpt lat="46.09056" lon="4.54589">
        <ele>666.4</ele>
        <time>2022-05-08T08:12:42Z</time>
      </trkpt>
      <trkpt lat="46.09062" lon="4.5456">
        <ele>666</ele>
        <time>2022-05-08T08:12:46Z</time>
      </trkpt>
      <trkpt lat="46.09064" lon="4.54529">
        <ele>665.4</ele>
        <time>2022-05-08T08:12:50Z</time>
      </trkpt>
      <trkpt lat="46.09062" lon="4.54502">
        <ele>666.4</ele>
        <time>2022-05-08T08:12:54Z</time>
      </trkpt>
      <trkpt lat="46.09062" lon="4.54475">
        <ele>666.4</ele>
        <time>2022-05-08T08:12:58Z</time>
      </trkpt>
      <trkpt lat="46.09061" lon="4.54449">
        <ele>665.8</ele>
        <time>2022-05-08T08:13:02Z</time>
      </trkpt>
      <trkpt lat="46.09063" lon="4.54426">
        <ele>666.4</ele>
        <time>2022-05-08T08:13:06Z</time>
      </trkpt>
      <trkpt lat="46.09059" lon="4.54404">
        <ele>667.2</ele>
        <time>2022-05-08T08:13:10Z</time>
      </trkpt>
      <trkpt lat="46.09054" lon="4.5438">
        <ele>667</ele>
        <time>2022-05-08T08:13:14Z</time>
      </trkpt>
      <trkpt lat="46.09047" lon="4.54355">
        <ele>667.2</ele>
        <time>2022-05-08T08:13:18Z</time>
      </trkpt>
      <trkpt lat="46.09046" lon="4.54328">
        <ele>666.2</ele>
        <time>2022-05-08T08:13:22Z</time>
      </trkpt>
      <trkpt lat="46.09054" lon="4.54307">
        <ele>668.2</ele>
        <time>2022-05-08T08:13:26Z</time>
      </trkpt>
      <trkpt lat="46.09068" lon="4.54292">
        <ele>668</ele>
        <time>2022-05-08T08:13:30Z</time>
      </trkpt>
      <trkpt lat="46.09085" lon="4.5428">
        <ele>664.8</ele>
        <time>2022-05-08T08:13:34Z</time>
      </trkpt>
      <trkpt lat="46.09105" lon="4.54274">
        <ele>660.8</ele>
        <time>2022-05-08T08:13:38Z</time>
      </trkpt>
      <trkpt lat="46.09126" lon="4.54279">
        <ele>658.6</ele>
        <time>2022-05-08T08:13:42Z</time>
      </trkpt>
      <trkpt lat="46.0915" lon="4.54291">
        <ele>660.2</ele>
        <time>2022-05-08T08:13:46Z</time>
      </trkpt>
      <trkpt lat="46.09175" lon="4.54302">
        <ele>658</ele>
        <time>2022-05-08T08:13:50Z</time>
      </trkpt>
      <trkpt lat="46.092" lon="4.54311">
        <ele>656.2</ele>
        <time>2022-05-08T08:13:54Z</time>
      </trkpt>
      <trkpt lat="46.09232" lon="4.54313">
        <ele>653.8</ele>
        <time>2022-05-08T08:13:58Z</time>
      </trkpt>
      <trkpt lat="46.09274" lon="4.54303">
        <ele>649</ele>
        <time>2022-05-08T08:14:02Z</time>
      </trkpt>
      <trkpt lat="46.09321" lon="4.5429">
        <ele>646.6</ele>
        <time>2022-05-08T08:14:06Z</time>
      </trkpt>
      <trkpt lat="46.09361" lon="4.54269">
        <ele>643.6</ele>
        <time>2022-05-08T08:14:10Z</time>
      </trkpt>
      <trkpt lat="46.09398" lon="4.54246">
        <ele>643.6</ele>
        <time>2022-05-08T08:14:14Z</time>
      </trkpt>
      <trkpt lat="46.09434" lon="4.54223">
        <ele>638.8</ele>
        <time>2022-05-08T08:14:18Z</time>
      </trkpt>
      <trkpt lat="46.09468" lon="4.54195">
        <ele>636.6</ele>
        <time>2022-05-08T08:14:22Z</time>
      </trkpt>
      <trkpt lat="46.09498" lon="4.54159">
        <ele>632.4</ele>
        <time>2022-05-08T08:14:26Z</time>
      </trkpt>
      <trkpt lat="46.09529" lon="4.54136">
        <ele>630.8</ele>
        <time>2022-05-08T08:14:30Z</time>
      </trkpt>
      <trkpt lat="46.09564" lon="4.54143">
        <ele>631.2</ele>
        <time>2022-05-08T08:14:34Z</time>
      </trkpt>
      <trkpt lat="46.09598" lon="4.54159">
        <ele>628.6</ele>
        <time>2022-05-08T08:14:38Z</time>
      </trkpt>
      <trkpt lat="46.09633" lon="4.54177">
        <ele>628</ele>
        <time>2022-05-08T08:14:42Z</time>
      </trkpt>
      <trkpt lat="46.09669" lon="4.54196">
        <ele>625</ele>
        <time>2022-05-08T08:14:46Z</time>
      </trkpt>
      <trkpt lat="46.09699" lon="4.5421">
        <ele>622</ele>
        <time>2022-05-08T08:14:50Z</time>
      </trkpt>
      <trkpt lat="46.09717" lon="4.54213">
        <ele>624.4</ele>
        <time>2022-05-08T08:14:54Z</time>
      </trkpt>
      <trkpt lat="46.09717" lon="4.54213">
        <ele>625.6</ele>
        <time>2022-05-08T08:14:58Z</time>
      </trkpt>
      <trkpt lat="46.09725" lon="4.54201">
        <ele>623.6</ele>
        <time>2022-05-08T08:16:19Z</time>
      </trkpt>
      <trkpt lat="46.09725" lon="4.54186">
        <ele>624.2</ele>
        <time>2022-05-08T08:16:23Z</time>
      </trkpt>
      <trkpt lat="46.09726" lon="4.54166">
        <ele>623.6</ele>
        <time>2022-05-08T08:16:27Z</time>
      </trkpt>
      <trkpt lat="46.0973" lon="4.54143">
        <ele>622.6</ele>
        <time>2022-05-08T08:16:31Z</time>
      </trkpt>
      <trkpt lat="46.09734" lon="4.54118">
        <ele>621</ele>
        <time>2022-05-08T08:16:35Z</time>
      </trkpt>
      <trkpt lat="46.09737" lon="4.54092">
        <ele>619</ele>
        <time>2022-05-08T08:16:39Z</time>
      </trkpt>
      <trkpt lat="46.09743" lon="4.54057">
        <ele>619</ele>
        <time>2022-05-08T08:16:43Z</time>
      </trkpt>
      <trkpt lat="46.0975" lon="4.54019">
        <ele>618.2</ele>
        <time>2022-05-08T08:16:47Z</time>
      </trkpt>
      <trkpt lat="46.09758" lon="4.5398">
        <ele>617.2</ele>
        <time>2022-05-08T08:16:51Z</time>
      </trkpt>
      <trkpt lat="46.09765" lon="4.5394">
        <ele>616.4</ele>
        <time>2022-05-08T08:16:55Z</time>
      </trkpt>
      <trkpt lat="46.09774" lon="4.53897">
        <ele>614.4</ele>
        <time>2022-05-08T08:16:59Z</time>
      </trkpt>
      <trkpt lat="46.0979" lon="4.53855">
        <ele>612.2</ele>
        <time>2022-05-08T08:17:03Z</time>
      </trkpt>
      <trkpt lat="46.0981" lon="4.53816">
        <ele>610</ele>
        <time>2022-05-08T08:17:07Z</time>
      </trkpt>
      <trkpt lat="46.09832" lon="4.53777">
        <ele>608.8</ele>
        <time>2022-05-08T08:17:11Z</time>
      </trkpt>
      <trkpt lat="46.0985" lon="4.53739">
        <ele>607.2</ele>
        <time>2022-05-08T08:17:15Z</time>
      </trkpt>
      <trkpt lat="46.09869" lon="4.53706">
        <ele>605.8</ele>
        <time>2022-05-08T08:17:19Z</time>
      </trkpt>
      <trkpt lat="46.09893" lon="4.53674">
        <ele>603.4</ele>
        <time>2022-05-08T08:17:23Z</time>
      </trkpt>
      <trkpt lat="46.0992" lon="4.53647">
        <ele>602.2</ele>
        <time>2022-05-08T08:17:27Z</time>
      </trkpt>
      <trkpt lat="46.09951" lon="4.53626">
        <ele>601.6</ele>
        <time>2022-05-08T08:17:31Z</time>
      </trkpt>
      <trkpt lat="46.09983" lon="4.53608">
        <ele>599.8</ele>
        <time>2022-05-08T08:17:35Z</time>
      </trkpt>
      <trkpt lat="46.10015" lon="4.5359">
        <ele>597.6</ele>
        <time>2022-05-08T08:17:39Z</time>
      </trkpt>
      <trkpt lat="46.10045" lon="4.53571">
        <ele>596.2</ele>
        <time>2022-05-08T08:17:43Z</time>
      </trkpt>
      <trkpt lat="46.10072" lon="4.5355">
        <ele>597</ele>
        <time>2022-05-08T08:17:47Z</time>
      </trkpt>
      <trkpt lat="46.10095" lon="4.53528">
        <ele>596.8</ele>
        <time>2022-05-08T08:17:51Z</time>
      </trkpt>
      <trkpt lat="46.10114" lon="4.53505">
        <ele>596</ele>
        <time>2022-05-08T08:17:55Z</time>
      </trkpt>
      <trkpt lat="46.10124" lon="4.53477">
        <ele>599.6</ele>
        <time>2022-05-08T08:17:59Z</time>
      </trkpt>
      <trkpt lat="46.10124" lon="4.53449">
        <ele>598</ele>
        <time>2022-05-08T08:18:03Z</time>
      </trkpt>
      <trkpt lat="46.10116" lon="4.53424">
        <ele>597.8</ele>
        <time>2022-05-08T08:18:07Z</time>
      </trkpt>
      <trkpt lat="46.10108" lon="4.53399">
        <ele>597</ele>
        <time>2022-05-08T08:18:11Z</time>
      </trkpt>
      <trkpt lat="46.101" lon="4.53372">
        <ele>597.2</ele>
        <time>2022-05-08T08:18:15Z</time>
      </trkpt>
      <trkpt lat="46.10092" lon="4.53344">
        <ele>596.6</ele>
        <time>2022-05-08T08:18:19Z</time>
      </trkpt>
      <trkpt lat="46.10086" lon="4.53319">
        <ele>594.4</ele>
        <time>2022-05-08T08:18:23Z</time>
      </trkpt>
      <trkpt lat="46.10079" lon="4.53291">
        <ele>593.2</ele>
        <time>2022-05-08T08:18:27Z</time>
      </trkpt>
      <trkpt lat="46.10064" lon="4.53267">
        <ele>590.6</ele>
        <time>2022-05-08T08:18:31Z</time>
      </trkpt>
      <trkpt lat="46.10051" lon="4.53266">
        <ele>594</ele>
        <time>2022-05-08T08:18:35Z</time>
      </trkpt>
      <trkpt lat="46.10044" lon="4.53267">
        <ele>595</ele>
        <time>2022-05-08T08:18:39Z</time>
      </trkpt>
      <trkpt lat="46.10038" lon="4.5327">
        <ele>596.6</ele>
        <time>2022-05-08T08:18:43Z</time>
      </trkpt>
      <trkpt lat="46.10032" lon="4.53272">
        <ele>597.4</ele>
        <time>2022-05-08T08:18:47Z</time>
      </trkpt>
      <trkpt lat="46.10025" lon="4.53273">
        <ele>597.8</ele>
        <time>2022-05-08T08:18:51Z</time>
      </trkpt>
      <trkpt lat="46.10019" lon="4.53273">
        <ele>598.8</ele>
        <time>2022-05-08T08:18:55Z</time>
      </trkpt>
      <trkpt lat="46.10013" lon="4.53273">
        <ele>599.6</ele>
        <time>2022-05-08T08:18:59Z</time>
      </trkpt>
      <trkpt lat="46.10008" lon="4.53269">
        <ele>600.8</ele>
        <time>2022-05-08T08:19:03Z</time>
      </trkpt>
      <trkpt lat="46.10002" lon="4.53265">
        <ele>601.2</ele>
        <time>2022-05-08T08:19:07Z</time>
      </trkpt>
      <trkpt lat="46.09997" lon="4.53259">
        <ele>601.8</ele>
        <time>2022-05-08T08:19:11Z</time>
      </trkpt>
      <trkpt lat="46.09994" lon="4.53253">
        <ele>602.6</ele>
        <time>2022-05-08T08:19:15Z</time>
      </trkpt>
      <trkpt lat="46.09992" lon="4.53247">
        <ele>603.6</ele>
        <time>2022-05-08T08:19:19Z</time>
      </trkpt>
      <trkpt lat="46.0999" lon="4.53241">
        <ele>604</ele>
        <time>2022-05-08T08:19:23Z</time>
      </trkpt>
      <trkpt lat="46.09989" lon="4.53234">
        <ele>604.4</ele>
        <time>2022-05-08T08:19:27Z</time>
      </trkpt>
      <trkpt lat="46.09987" lon="4.53229">
        <ele>605.2</ele>
        <time>2022-05-08T08:19:31Z</time>
      </trkpt>
      <trkpt lat="46.09984" lon="4.53224">
        <ele>606.2</ele>
        <time>2022-05-08T08:19:35Z</time>
      </trkpt>
      <trkpt lat="46.0998" lon="4.5322">
        <ele>606.6</ele>
        <time>2022-05-08T08:19:39Z</time>
      </trkpt>
      <trkpt lat="46.09978" lon="4.53214">
        <ele>607</ele>
        <time>2022-05-08T08:19:43Z</time>
      </trkpt>
      <trkpt lat="46.09975" lon="4.53211">
        <ele>607.8</ele>
        <time>2022-05-08T08:19:47Z</time>
      </trkpt>
      <trkpt lat="46.09971" lon="4.53207">
        <ele>608</ele>
        <time>2022-05-08T08:19:51Z</time>
      </trkpt>
      <trkpt lat="46.09967" lon="4.53203">
        <ele>609</ele>
        <time>2022-05-08T08:19:55Z</time>
      </trkpt>
      <trkpt lat="46.09963" lon="4.532">
        <ele>608.6</ele>
        <time>2022-05-08T08:19:59Z</time>
      </trkpt>
      <trkpt lat="46.09959" lon="4.53197">
        <ele>609.2</ele>
        <time>2022-05-08T08:20:03Z</time>
      </trkpt>
      <trkpt lat="46.09955" lon="4.53195">
        <ele>610.8</ele>
        <time>2022-05-08T08:20:07Z</time>
      </trkpt>
      <trkpt lat="46.0995" lon="4.53194">
        <ele>611.4</ele>
        <time>2022-05-08T08:20:11Z</time>
      </trkpt>
      <trkpt lat="46.09945" lon="4.53193">
        <ele>612.4</ele>
        <time>2022-05-08T08:20:15Z</time>
      </trkpt>
      <trkpt lat="46.0994" lon="4.53191">
        <ele>613.4</ele>
        <time>2022-05-08T08:20:19Z</time>
      </trkpt>
      <trkpt lat="46.09936" lon="4.53189">
        <ele>614</ele>
        <time>2022-05-08T08:20:23Z</time>
      </trkpt>
      <trkpt lat="46.09932" lon="4.53188">
        <ele>614.4</ele>
        <time>2022-05-08T08:20:27Z</time>
      </trkpt>
      <trkpt lat="46.09927" lon="4.53187">
        <ele>615</ele>
        <time>2022-05-08T08:20:31Z</time>
      </trkpt>
      <trkpt lat="46.09923" lon="4.53187">
        <ele>615.6</ele>
        <time>2022-05-08T08:20:35Z</time>
      </trkpt>
      <trkpt lat="46.09919" lon="4.53185">
        <ele>616.4</ele>
        <time>2022-05-08T08:20:39Z</time>
      </trkpt>
      <trkpt lat="46.09915" lon="4.53185">
        <ele>616</ele>
        <time>2022-05-08T08:20:43Z</time>
      </trkpt>
      <trkpt lat="46.09911" lon="4.53183">
        <ele>616.8</ele>
        <time>2022-05-08T08:20:47Z</time>
      </trkpt>
      <trkpt lat="46.09908" lon="4.5318">
        <ele>619</ele>
        <time>2022-05-08T08:20:51Z</time>
      </trkpt>
      <trkpt lat="46.09903" lon="4.5318">
        <ele>620.2</ele>
        <time>2022-05-08T08:20:55Z</time>
      </trkpt>
      <trkpt lat="46.099" lon="4.53176">
        <ele>621.2</ele>
        <time>2022-05-08T08:20:59Z</time>
      </trkpt>
      <trkpt lat="46.09896" lon="4.53173">
        <ele>621.2</ele>
        <time>2022-05-08T08:21:03Z</time>
      </trkpt>
      <trkpt lat="46.09892" lon="4.5317">
        <ele>622.4</ele>
        <time>2022-05-08T08:21:07Z</time>
      </trkpt>
      <trkpt lat="46.0989" lon="4.53165">
        <ele>623</ele>
        <time>2022-05-08T08:21:11Z</time>
      </trkpt>
      <trkpt lat="46.09887" lon="4.53161">
        <ele>623</ele>
        <time>2022-05-08T08:21:15Z</time>
      </trkpt>
      <trkpt lat="46.09884" lon="4.53157">
        <ele>624</ele>
        <time>2022-05-08T08:21:19Z</time>
      </trkpt>
      <trkpt lat="46.09881" lon="4.53152">
        <ele>624.8</ele>
        <time>2022-05-08T08:21:23Z</time>
      </trkpt>
      <trkpt lat="46.09877" lon="4.53148">
        <ele>625.4</ele>
        <time>2022-05-08T08:21:27Z</time>
      </trkpt>
      <trkpt lat="46.09875" lon="4.53143">
        <ele>625.8</ele>
        <time>2022-05-08T08:21:31Z</time>
      </trkpt>
      <trkpt lat="46.09871" lon="4.53139">
        <ele>626.2</ele>
        <time>2022-05-08T08:21:35Z</time>
      </trkpt>
      <trkpt lat="46.09868" lon="4.53134">
        <ele>627.4</ele>
        <time>2022-05-08T08:21:39Z</time>
      </trkpt>
      <trkpt lat="46.09867" lon="4.53129">
        <ele>627.8</ele>
        <time>2022-05-08T08:21:43Z</time>
      </trkpt>
      <trkpt lat="46.09863" lon="4.53126">
        <ele>628.8</ele>
        <time>2022-05-08T08:21:47Z</time>
      </trkpt>
      <trkpt lat="46.09861" lon="4.53122">
        <ele>629</ele>
        <time>2022-05-08T08:21:51Z</time>
      </trkpt>
      <trkpt lat="46.09859" lon="4.53117">
        <ele>630</ele>
        <time>2022-05-08T08:21:55Z</time>
      </trkpt>
      <trkpt lat="46.09857" lon="4.53112">
        <ele>630.6</ele>
        <time>2022-05-08T08:21:59Z</time>
      </trkpt>
      <trkpt lat="46.09854" lon="4.53109">
        <ele>631.2</ele>
        <time>2022-05-08T08:22:03Z</time>
      </trkpt>
      <trkpt lat="46.09851" lon="4.53104">
        <ele>632</ele>
        <time>2022-05-08T08:22:07Z</time>
      </trkpt>
      <trkpt lat="46.09848" lon="4.53099">
        <ele>632.6</ele>
        <time>2022-05-08T08:22:11Z</time>
      </trkpt>
      <trkpt lat="46.09847" lon="4.53094">
        <ele>635.6</ele>
        <time>2022-05-08T08:22:15Z</time>
      </trkpt>
      <trkpt lat="46.09844" lon="4.53089">
        <ele>635.4</ele>
        <time>2022-05-08T08:22:19Z</time>
      </trkpt>
      <trkpt lat="46.09841" lon="4.53084">
        <ele>636</ele>
        <time>2022-05-08T08:22:23Z</time>
      </trkpt>
      <trkpt lat="46.0984" lon="4.53078">
        <ele>636.6</ele>
        <time>2022-05-08T08:22:27Z</time>
      </trkpt>
      <trkpt lat="46.09837" lon="4.53073">
        <ele>637.2</ele>
        <time>2022-05-08T08:22:31Z</time>
      </trkpt>
      <trkpt lat="46.09836" lon="4.53067">
        <ele>637</ele>
        <time>2022-05-08T08:22:35Z</time>
      </trkpt>
      <trkpt lat="46.09835" lon="4.53062">
        <ele>638</ele>
        <time>2022-05-08T08:22:39Z</time>
      </trkpt>
      <trkpt lat="46.09835" lon="4.53055">
        <ele>638.8</ele>
        <time>2022-05-08T08:22:43Z</time>
      </trkpt>
      <trkpt lat="46.09834" lon="4.53048">
        <ele>639.4</ele>
        <time>2022-05-08T08:22:47Z</time>
      </trkpt>
      <trkpt lat="46.09835" lon="4.53042">
        <ele>640.2</ele>
        <time>2022-05-08T08:22:51Z</time>
      </trkpt>
      <trkpt lat="46.09837" lon="4.53036">
        <ele>640</ele>
        <time>2022-05-08T08:22:55Z</time>
      </trkpt>
      <trkpt lat="46.0984" lon="4.53029">
        <ele>640.6</ele>
        <time>2022-05-08T08:22:59Z</time>
      </trkpt>
      <trkpt lat="46.09845" lon="4.53022">
        <ele>640.4</ele>
        <time>2022-05-08T08:23:03Z</time>
      </trkpt>
      <trkpt lat="46.09851" lon="4.53015">
        <ele>640.2</ele>
        <time>2022-05-08T08:23:07Z</time>
      </trkpt>
      <trkpt lat="46.09857" lon="4.53008">
        <ele>640.8</ele>
        <time>2022-05-08T08:23:11Z</time>
      </trkpt>
      <trkpt lat="46.09865" lon="4.52998">
        <ele>640</ele>
        <time>2022-05-08T08:23:15Z</time>
      </trkpt>
      <trkpt lat="46.09873" lon="4.52989">
        <ele>640.2</ele>
        <time>2022-05-08T08:23:19Z</time>
      </trkpt>
      <trkpt lat="46.09879" lon="4.5298">
        <ele>640.4</ele>
        <time>2022-05-08T08:23:23Z</time>
      </trkpt>
      <trkpt lat="46.09886" lon="4.52969">
        <ele>639.8</ele>
        <time>2022-05-08T08:23:27Z</time>
      </trkpt>
      <trkpt lat="46.09893" lon="4.52956">
        <ele>640</ele>
        <time>2022-05-08T08:23:31Z</time>
      </trkpt>
      <trkpt lat="46.09899" lon="4.52943">
        <ele>640</ele>
        <time>2022-05-08T08:23:35Z</time>
      </trkpt>
      <trkpt lat="46.09903" lon="4.52934">
        <ele>640.6</ele>
        <time>2022-05-08T08:23:39Z</time>
      </trkpt>
      <trkpt lat="46.09908" lon="4.52923">
        <ele>640.4</ele>
        <time>2022-05-08T08:23:43Z</time>
      </trkpt>
      <trkpt lat="46.09912" lon="4.52912">
        <ele>640.8</ele>
        <time>2022-05-08T08:23:47Z</time>
      </trkpt>
      <trkpt lat="46.09916" lon="4.52901">
        <ele>640.8</ele>
        <time>2022-05-08T08:23:51Z</time>
      </trkpt>
      <trkpt lat="46.09921" lon="4.52891">
        <ele>642.4</ele>
        <time>2022-05-08T08:23:55Z</time>
      </trkpt>
      <trkpt lat="46.09925" lon="4.52882">
        <ele>642.6</ele>
        <time>2022-05-08T08:23:59Z</time>
      </trkpt>
      <trkpt lat="46.09929" lon="4.52871">
        <ele>642.6</ele>
        <time>2022-05-08T08:24:03Z</time>
      </trkpt>
      <trkpt lat="46.09934" lon="4.52862">
        <ele>642.6</ele>
        <time>2022-05-08T08:24:07Z</time>
      </trkpt>
      <trkpt lat="46.09939" lon="4.52851">
        <ele>643.2</ele>
        <time>2022-05-08T08:24:11Z</time>
      </trkpt>
      <trkpt lat="46.09944" lon="4.52839">
        <ele>643.4</ele>
        <time>2022-05-08T08:24:15Z</time>
      </trkpt>
      <trkpt lat="46.09949" lon="4.52829">
        <ele>644</ele>
        <time>2022-05-08T08:24:19Z</time>
      </trkpt>
      <trkpt lat="46.09953" lon="4.52821">
        <ele>645</ele>
        <time>2022-05-08T08:24:23Z</time>
      </trkpt>
      <trkpt lat="46.09956" lon="4.52815">
        <ele>645.6</ele>
        <time>2022-05-08T08:24:27Z</time>
      </trkpt>
      <trkpt lat="46.0996" lon="4.52807">
        <ele>645.4</ele>
        <time>2022-05-08T08:24:31Z</time>
      </trkpt>
      <trkpt lat="46.09964" lon="4.52801">
        <ele>645.8</ele>
        <time>2022-05-08T08:24:35Z</time>
      </trkpt>
      <trkpt lat="46.09967" lon="4.52795">
        <ele>646.6</ele>
        <time>2022-05-08T08:24:39Z</time>
      </trkpt>
      <trkpt lat="46.0997" lon="4.5279">
        <ele>647.2</ele>
        <time>2022-05-08T08:24:43Z</time>
      </trkpt>
      <trkpt lat="46.09973" lon="4.52784">
        <ele>647.4</ele>
        <time>2022-05-08T08:24:47Z</time>
      </trkpt>
      <trkpt lat="46.09975" lon="4.52779">
        <ele>648</ele>
        <time>2022-05-08T08:24:51Z</time>
      </trkpt>
      <trkpt lat="46.09978" lon="4.52774">
        <ele>648.4</ele>
        <time>2022-05-08T08:24:55Z</time>
      </trkpt>
      <trkpt lat="46.0998" lon="4.52769">
        <ele>649.2</ele>
        <time>2022-05-08T08:24:59Z</time>
      </trkpt>
      <trkpt lat="46.09983" lon="4.52764">
        <ele>650</ele>
        <time>2022-05-08T08:25:03Z</time>
      </trkpt>
      <trkpt lat="46.09985" lon="4.52759">
        <ele>650.4</ele>
        <time>2022-05-08T08:25:07Z</time>
      </trkpt>
      <trkpt lat="46.09988" lon="4.52753">
        <ele>651</ele>
        <time>2022-05-08T08:25:11Z</time>
      </trkpt>
      <trkpt lat="46.09991" lon="4.52748">
        <ele>652.2</ele>
        <time>2022-05-08T08:25:15Z</time>
      </trkpt>
      <trkpt lat="46.09993" lon="4.52743">
        <ele>653.4</ele>
        <time>2022-05-08T08:25:19Z</time>
      </trkpt>
      <trkpt lat="46.09995" lon="4.52739">
        <ele>654.2</ele>
        <time>2022-05-08T08:25:23Z</time>
      </trkpt>
      <trkpt lat="46.09998" lon="4.52734">
        <ele>654.2</ele>
        <time>2022-05-08T08:25:27Z</time>
      </trkpt>
      <trkpt lat="46.1" lon="4.5273">
        <ele>654.6</ele>
        <time>2022-05-08T08:25:31Z</time>
      </trkpt>
      <trkpt lat="46.10002" lon="4.52725">
        <ele>655</ele>
        <time>2022-05-08T08:25:35Z</time>
      </trkpt>
      <trkpt lat="46.10004" lon="4.5272">
        <ele>655.8</ele>
        <time>2022-05-08T08:25:39Z</time>
      </trkpt>
      <trkpt lat="46.10005" lon="4.52714">
        <ele>656.4</ele>
        <time>2022-05-08T08:25:43Z</time>
      </trkpt>
      <trkpt lat="46.10008" lon="4.52708">
        <ele>656.6</ele>
        <time>2022-05-08T08:25:47Z</time>
      </trkpt>
      <trkpt lat="46.10096" lon="4.52473">
        <ele>691</ele>
        <time>2022-05-08T08:30:06Z</time>
      </trkpt>
      <trkpt lat="46.101" lon="4.52473">
        <ele>690</ele>
        <time>2022-05-08T08:30:10Z</time>
      </trkpt>
      <trkpt lat="46.10111" lon="4.52478">
        <ele>688.4</ele>
        <time>2022-05-08T08:30:14Z</time>
      </trkpt>
      <trkpt lat="46.10128" lon="4.5249">
        <ele>685.2</ele>
        <time>2022-05-08T08:30:18Z</time>
      </trkpt>
      <trkpt lat="46.10152" lon="4.52506">
        <ele>679.4</ele>
        <time>2022-05-08T08:30:22Z</time>
      </trkpt>
      <trkpt lat="46.10188" lon="4.52521">
        <ele>675.4</ele>
        <time>2022-05-08T08:30:26Z</time>
      </trkpt>
      <trkpt lat="46.10226" lon="4.52531">
        <ele>667.4</ele>
        <time>2022-05-08T08:30:30Z</time>
      </trkpt>
      <trkpt lat="46.10257" lon="4.5255">
        <ele>668</ele>
        <time>2022-05-08T08:30:34Z</time>
      </trkpt>
      <trkpt lat="46.10288" lon="4.52572">
        <ele>666.8</ele>
        <time>2022-05-08T08:30:38Z</time>
      </trkpt>
      <trkpt lat="46.10316" lon="4.52614">
        <ele>667.2</ele>
        <time>2022-05-08T08:30:42Z</time>
      </trkpt>
      <trkpt lat="46.10339" lon="4.52641">
        <ele>665.4</ele>
        <time>2022-05-08T08:30:46Z</time>
      </trkpt>
      <trkpt lat="46.10369" lon="4.52661">
        <ele>664.8</ele>
        <time>2022-05-08T08:30:50Z</time>
      </trkpt>
      <trkpt lat="46.10397" lon="4.52667">
        <ele>667</ele>
        <time>2022-05-08T08:30:54Z</time>
      </trkpt>
      <trkpt lat="46.10424" lon="4.52668">
        <ele>667.8</ele>
        <time>2022-05-08T08:30:58Z</time>
      </trkpt>
      <trkpt lat="46.1045" lon="4.5267">
        <ele>662.8</ele>
        <time>2022-05-08T08:31:02Z</time>
      </trkpt>
      <trkpt lat="46.10476" lon="4.52675">
        <ele>660</ele>
        <time>2022-05-08T08:31:06Z</time>
      </trkpt>
      <trkpt lat="46.10501" lon="4.52685">
        <ele>660.4</ele>
        <time>2022-05-08T08:31:10Z</time>
      </trkpt>
      <trkpt lat="46.10528" lon="4.52699">
        <ele>661.8</ele>
        <time>2022-05-08T08:31:14Z</time>
      </trkpt>
      <trkpt lat="46.10557" lon="4.5271">
        <ele>662.2</ele>
        <time>2022-05-08T08:31:18Z</time>
      </trkpt>
      <trkpt lat="46.10588" lon="4.52716">
        <ele>661.2</ele>
        <time>2022-05-08T08:31:22Z</time>
      </trkpt>
      <trkpt lat="46.10616" lon="4.52717">
        <ele>662.4</ele>
        <time>2022-05-08T08:31:26Z</time>
      </trkpt>
      <trkpt lat="46.10631" lon="4.52718">
        <ele>664.8</ele>
        <time>2022-05-08T08:31:30Z</time>
      </trkpt>
      <trkpt lat="46.10637" lon="4.52718">
        <ele>666.2</ele>
        <time>2022-05-08T08:31:34Z</time>
      </trkpt>
      <trkpt lat="46.10642" lon="4.52718">
        <ele>666.4</ele>
        <time>2022-05-08T08:31:38Z</time>
      </trkpt>
      <trkpt lat="46.10648" lon="4.52719">
        <ele>667.4</ele>
        <time>2022-05-08T08:31:42Z</time>
      </trkpt>
      <trkpt lat="46.10652" lon="4.52717">
        <ele>668</ele>
        <time>2022-05-08T08:31:46Z</time>
      </trkpt>
      <trkpt lat="46.10657" lon="4.52715">
        <ele>668.8</ele>
        <time>2022-05-08T08:31:50Z</time>
      </trkpt>
      <trkpt lat="46.10662" lon="4.52714">
        <ele>669.6</ele>
        <time>2022-05-08T08:31:54Z</time>
      </trkpt>
      <trkpt lat="46.10667" lon="4.52711">
        <ele>669.8</ele>
        <time>2022-05-08T08:31:58Z</time>
      </trkpt>
      <trkpt lat="46.10671" lon="4.52705">
        <ele>670</ele>
        <time>2022-05-08T08:32:02Z</time>
      </trkpt>
      <trkpt lat="46.10674" lon="4.52699">
        <ele>670.8</ele>
        <time>2022-05-08T08:32:06Z</time>
      </trkpt>
      <trkpt lat="46.10677" lon="4.52692">
        <ele>671.4</ele>
        <time>2022-05-08T08:32:10Z</time>
      </trkpt>
      <trkpt lat="46.1068" lon="4.52684">
        <ele>671.8</ele>
        <time>2022-05-08T08:32:14Z</time>
      </trkpt>
      <trkpt lat="46.10683" lon="4.52675">
        <ele>671.6</ele>
        <time>2022-05-08T08:32:18Z</time>
      </trkpt>
      <trkpt lat="46.10687" lon="4.52667">
        <ele>671.8</ele>
        <time>2022-05-08T08:32:22Z</time>
      </trkpt>
      <trkpt lat="46.10689" lon="4.52658">
        <ele>672</ele>
        <time>2022-05-08T08:32:26Z</time>
      </trkpt>
      <trkpt lat="46.10692" lon="4.52649">
        <ele>672.6</ele>
        <time>2022-05-08T08:32:30Z</time>
      </trkpt>
      <trkpt lat="46.10695" lon="4.52641">
        <ele>672.8</ele>
        <time>2022-05-08T08:32:34Z</time>
      </trkpt>
      <trkpt lat="46.10697" lon="4.52633">
        <ele>673</ele>
        <time>2022-05-08T08:32:38Z</time>
      </trkpt>
      <trkpt lat="46.107" lon="4.52626">
        <ele>674.2</ele>
        <time>2022-05-08T08:32:42Z</time>
      </trkpt>
      <trkpt lat="46.10702" lon="4.52618">
        <ele>674.4</ele>
        <time>2022-05-08T08:32:46Z</time>
      </trkpt>
      <trkpt lat="46.10704" lon="4.52612">
        <ele>675.6</ele>
        <time>2022-05-08T08:32:50Z</time>
      </trkpt>
      <trkpt lat="46.10707" lon="4.52604">
        <ele>676</ele>
        <time>2022-05-08T08:32:54Z</time>
      </trkpt>
      <trkpt lat="46.10709" lon="4.52598">
        <ele>677</ele>
        <time>2022-05-08T08:32:58Z</time>
      </trkpt>
      <trkpt lat="46.10711" lon="4.5259">
        <ele>677.2</ele>
        <time>2022-05-08T08:33:02Z</time>
      </trkpt>
      <trkpt lat="46.10713" lon="4.52583">
        <ele>677.4</ele>
        <time>2022-05-08T08:33:06Z</time>
      </trkpt>
      <trkpt lat="46.10715" lon="4.52576">
        <ele>677.8</ele>
        <time>2022-05-08T08:33:10Z</time>
      </trkpt>
      <trkpt lat="46.10717" lon="4.52569">
        <ele>678.2</ele>
        <time>2022-05-08T08:33:14Z</time>
      </trkpt>
      <trkpt lat="46.10719" lon="4.52561">
        <ele>679.2</ele>
        <time>2022-05-08T08:33:18Z</time>
      </trkpt>
      <trkpt lat="46.10721" lon="4.52552">
        <ele>679.2</ele>
        <time>2022-05-08T08:33:22Z</time>
      </trkpt>
      <trkpt lat="46.10722" lon="4.52544">
        <ele>680</ele>
        <time>2022-05-08T08:33:26Z</time>
      </trkpt>
      <trkpt lat="46.10724" lon="4.52535">
        <ele>680</ele>
        <time>2022-05-08T08:33:30Z</time>
      </trkpt>
      <trkpt lat="46.10725" lon="4.52527">
        <ele>681.2</ele>
        <time>2022-05-08T08:33:34Z</time>
      </trkpt>
      <trkpt lat="46.10726" lon="4.52519">
        <ele>681.4</ele>
        <time>2022-05-08T08:33:38Z</time>
      </trkpt>
      <trkpt lat="46.10727" lon="4.52512">
        <ele>681.8</ele>
        <time>2022-05-08T08:33:42Z</time>
      </trkpt>
      <trkpt lat="46.10727" lon="4.52504">
        <ele>682.8</ele>
        <time>2022-05-08T08:33:46Z</time>
      </trkpt>
      <trkpt lat="46.10728" lon="4.52497">
        <ele>683.4</ele>
        <time>2022-05-08T08:33:50Z</time>
      </trkpt>
      <trkpt lat="46.10729" lon="4.5249">
        <ele>684.6</ele>
        <time>2022-05-08T08:33:54Z</time>
      </trkpt>
      <trkpt lat="46.10729" lon="4.52484">
        <ele>684.8</ele>
        <time>2022-05-08T08:33:58Z</time>
      </trkpt>
      <trkpt lat="46.10728" lon="4.52477">
        <ele>686.6</ele>
        <time>2022-05-08T08:34:02Z</time>
      </trkpt>
      <trkpt lat="46.10729" lon="4.52471">
        <ele>687.4</ele>
        <time>2022-05-08T08:34:06Z</time>
      </trkpt>
      <trkpt lat="46.10729" lon="4.52465">
        <ele>688.8</ele>
        <time>2022-05-08T08:34:10Z</time>
      </trkpt>
      <trkpt lat="46.10733" lon="4.52462">
        <ele>688.2</ele>
        <time>2022-05-08T08:34:14Z</time>
      </trkpt>
      <trkpt lat="46.10737" lon="4.52458">
        <ele>688</ele>
        <time>2022-05-08T08:34:18Z</time>
      </trkpt>
      <trkpt lat="46.10742" lon="4.52459">
        <ele>688.8</ele>
        <time>2022-05-08T08:34:22Z</time>
      </trkpt>
      <trkpt lat="46.10749" lon="4.52461">
        <ele>688.6</ele>
        <time>2022-05-08T08:34:26Z</time>
      </trkpt>
      <trkpt lat="46.10754" lon="4.52462">
        <ele>687.2</ele>
        <time>2022-05-08T08:34:30Z</time>
      </trkpt>
      <trkpt lat="46.10763" lon="4.52464">
        <ele>688.4</ele>
        <time>2022-05-08T08:35:32Z</time>
      </trkpt>
      <trkpt lat="46.10772" lon="4.52466">
        <ele>688.4</ele>
        <time>2022-05-08T08:35:36Z</time>
      </trkpt>
      <trkpt lat="46.10782" lon="4.52468">
        <ele>687.4</ele>
        <time>2022-05-08T08:35:40Z</time>
      </trkpt>
      <trkpt lat="46.10795" lon="4.52472">
        <ele>684.2</ele>
        <time>2022-05-08T08:35:44Z</time>
      </trkpt>
      <trkpt lat="46.10811" lon="4.52478">
        <ele>680.4</ele>
        <time>2022-05-08T08:35:48Z</time>
      </trkpt>
      <trkpt lat="46.10837" lon="4.52487">
        <ele>677</ele>
        <time>2022-05-08T08:35:52Z</time>
      </trkpt>
      <trkpt lat="46.10866" lon="4.52507">
        <ele>674.6</ele>
        <time>2022-05-08T08:35:56Z</time>
      </trkpt>
      <trkpt lat="46.10888" lon="4.52525">
        <ele>673.2</ele>
        <time>2022-05-08T08:36:00Z</time>
      </trkpt>
      <trkpt lat="46.10917" lon="4.52528">
        <ele>669.6</ele>
        <time>2022-05-08T08:36:04Z</time>
      </trkpt>
      <trkpt lat="46.10945" lon="4.52523">
        <ele>668.2</ele>
        <time>2022-05-08T08:36:08Z</time>
      </trkpt>
      <trkpt lat="46.10969" lon="4.52504">
        <ele>666.6</ele>
        <time>2022-05-08T08:36:12Z</time>
      </trkpt>
      <trkpt lat="46.11" lon="4.52489">
        <ele>662.2</ele>
        <time>2022-05-08T08:36:16Z</time>
      </trkpt>
      <trkpt lat="46.11032" lon="4.52496">
        <ele>659.2</ele>
        <time>2022-05-08T08:36:20Z</time>
      </trkpt>
      <trkpt lat="46.11062" lon="4.52517">
        <ele>652.8</ele>
        <time>2022-05-08T08:36:24Z</time>
      </trkpt>
      <trkpt lat="46.11093" lon="4.52535">
        <ele>650.4</ele>
        <time>2022-05-08T08:36:28Z</time>
      </trkpt>
      <trkpt lat="46.11134" lon="4.5255">
        <ele>638.8</ele>
        <time>2022-05-08T08:36:32Z</time>
      </trkpt>
      <trkpt lat="46.11173" lon="4.52575">
        <ele>636.2</ele>
        <time>2022-05-08T08:36:36Z</time>
      </trkpt>
      <trkpt lat="46.11211" lon="4.52605">
        <ele>632.6</ele>
        <time>2022-05-08T08:36:40Z</time>
      </trkpt>
      <trkpt lat="46.11249" lon="4.52634">
        <ele>630</ele>
        <time>2022-05-08T08:36:44Z</time>
      </trkpt>
      <trkpt lat="46.11282" lon="4.52646">
        <ele>632.2</ele>
        <time>2022-05-08T08:36:48Z</time>
      </trkpt>
      <trkpt lat="46.11311" lon="4.52655">
        <ele>630.8</ele>
        <time>2022-05-08T08:36:52Z</time>
      </trkpt>
      <trkpt lat="46.11345" lon="4.52654">
        <ele>628.8</ele>
        <time>2022-05-08T08:36:56Z</time>
      </trkpt>
      <trkpt lat="46.11378" lon="4.52661">
        <ele>630.4</ele>
        <time>2022-05-08T08:37:00Z</time>
      </trkpt>
      <trkpt lat="46.11406" lon="4.52665">
        <ele>631.8</ele>
        <time>2022-05-08T08:37:04Z</time>
      </trkpt>
      <trkpt lat="46.11429" lon="4.52659">
        <ele>632.4</ele>
        <time>2022-05-08T08:37:08Z</time>
      </trkpt>
      <trkpt lat="46.11444" lon="4.52654">
        <ele>634.2</ele>
        <time>2022-05-08T08:37:12Z</time>
      </trkpt>
      <trkpt lat="46.11456" lon="4.52651">
        <ele>635.2</ele>
        <time>2022-05-08T08:37:16Z</time>
      </trkpt>
      <trkpt lat="46.11466" lon="4.52649">
        <ele>636</ele>
        <time>2022-05-08T08:37:20Z</time>
      </trkpt>
      <trkpt lat="46.11474" lon="4.52645">
        <ele>636.4</ele>
        <time>2022-05-08T08:37:24Z</time>
      </trkpt>
      <trkpt lat="46.11483" lon="4.52642">
        <ele>637.4</ele>
        <time>2022-05-08T08:37:28Z</time>
      </trkpt>
      <trkpt lat="46.1149" lon="4.52641">
        <ele>637.4</ele>
        <time>2022-05-08T08:37:32Z</time>
      </trkpt>
      <trkpt lat="46.11498" lon="4.52638">
        <ele>637.2</ele>
        <time>2022-05-08T08:37:36Z</time>
      </trkpt>
      <trkpt lat="46.11506" lon="4.52636">
        <ele>637.4</ele>
        <time>2022-05-08T08:37:40Z</time>
      </trkpt>
      <trkpt lat="46.11514" lon="4.52633">
        <ele>637.2</ele>
        <time>2022-05-08T08:37:44Z</time>
      </trkpt>
      <trkpt lat="46.11523" lon="4.52631">
        <ele>637.8</ele>
        <time>2022-05-08T08:37:48Z</time>
      </trkpt>
      <trkpt lat="46.11534" lon="4.5263">
        <ele>636.8</ele>
        <time>2022-05-08T08:37:52Z</time>
      </trkpt>
      <trkpt lat="46.11545" lon="4.52632">
        <ele>637.4</ele>
        <time>2022-05-08T08:37:56Z</time>
      </trkpt>
      <trkpt lat="46.11559" lon="4.52635">
        <ele>637.4</ele>
        <time>2022-05-08T08:38:00Z</time>
      </trkpt>
      <trkpt lat="46.11573" lon="4.52637">
        <ele>637</ele>
        <time>2022-05-08T08:38:04Z</time>
      </trkpt>
      <trkpt lat="46.11587" lon="4.52638">
        <ele>636.8</ele>
        <time>2022-05-08T08:38:08Z</time>
      </trkpt>
      <trkpt lat="46.11604" lon="4.52635">
        <ele>635</ele>
        <time>2022-05-08T08:38:12Z</time>
      </trkpt>
      <trkpt lat="46.11622" lon="4.52631">
        <ele>634.4</ele>
        <time>2022-05-08T08:38:16Z</time>
      </trkpt>
      <trkpt lat="46.11642" lon="4.52624">
        <ele>633.2</ele>
        <time>2022-05-08T08:38:20Z</time>
      </trkpt>
      <trkpt lat="46.11665" lon="4.52609">
        <ele>631.4</ele>
        <time>2022-05-08T08:38:24Z</time>
      </trkpt>
      <trkpt lat="46.11685" lon="4.52579">
        <ele>630.2</ele>
        <time>2022-05-08T08:38:28Z</time>
      </trkpt>
      <trkpt lat="46.11706" lon="4.52557">
        <ele>630</ele>
        <time>2022-05-08T08:38:32Z</time>
      </trkpt>
      <trkpt lat="46.11719" lon="4.52571">
        <ele>631.4</ele>
        <time>2022-05-08T08:38:36Z</time>
      </trkpt>
      <trkpt lat="46.11723" lon="4.52587">
        <ele>633.4</ele>
        <time>2022-05-08T08:38:40Z</time>
      </trkpt>
      <trkpt lat="46.11726" lon="4.52599">
        <ele>634.4</ele>
        <time>2022-05-08T08:38:44Z</time>
      </trkpt>
      <trkpt lat="46.11729" lon="4.5261">
        <ele>634.6</ele>
        <time>2022-05-08T08:38:48Z</time>
      </trkpt>
      <trkpt lat="46.11731" lon="4.5262">
        <ele>633.2</ele>
        <time>2022-05-08T08:38:52Z</time>
      </trkpt>
      <trkpt lat="46.11734" lon="4.5263">
        <ele>634.4</ele>
        <time>2022-05-08T08:38:56Z</time>
      </trkpt>
      <trkpt lat="46.11737" lon="4.52639">
        <ele>634.8</ele>
        <time>2022-05-08T08:39:00Z</time>
      </trkpt>
      <trkpt lat="46.11739" lon="4.52649">
        <ele>635.2</ele>
        <time>2022-05-08T08:39:04Z</time>
      </trkpt>
      <trkpt lat="46.11742" lon="4.52658">
        <ele>636.2</ele>
        <time>2022-05-08T08:39:08Z</time>
      </trkpt>
      <trkpt lat="46.11745" lon="4.52667">
        <ele>636</ele>
        <time>2022-05-08T08:39:12Z</time>
      </trkpt>
      <trkpt lat="46.11748" lon="4.52676">
        <ele>637.6</ele>
        <time>2022-05-08T08:39:16Z</time>
      </trkpt>
      <trkpt lat="46.11751" lon="4.52685">
        <ele>638</ele>
        <time>2022-05-08T08:39:20Z</time>
      </trkpt>
      <trkpt lat="46.11754" lon="4.52693">
        <ele>639.2</ele>
        <time>2022-05-08T08:39:24Z</time>
      </trkpt>
      <trkpt lat="46.11759" lon="4.52699">
        <ele>639.6</ele>
        <time>2022-05-08T08:39:28Z</time>
      </trkpt>
      <trkpt lat="46.11766" lon="4.52702">
        <ele>640</ele>
        <time>2022-05-08T08:39:32Z</time>
      </trkpt>
      <trkpt lat="46.11772" lon="4.52704">
        <ele>640.4</ele>
        <time>2022-05-08T08:39:36Z</time>
      </trkpt>
      <trkpt lat="46.1178" lon="4.52705">
        <ele>639.6</ele>
        <time>2022-05-08T08:39:40Z</time>
      </trkpt>
      <trkpt lat="46.1179" lon="4.52705">
        <ele>639.4</ele>
        <time>2022-05-08T08:39:44Z</time>
      </trkpt>
      <trkpt lat="46.11803" lon="4.52704">
        <ele>638.4</ele>
        <time>2022-05-08T08:39:48Z</time>
      </trkpt>
      <trkpt lat="46.11819" lon="4.52703">
        <ele>637</ele>
        <time>2022-05-08T08:39:52Z</time>
      </trkpt>
      <trkpt lat="46.11836" lon="4.52702">
        <ele>636.6</ele>
        <time>2022-05-08T08:39:56Z</time>
      </trkpt>
      <trkpt lat="46.11855" lon="4.52699">
        <ele>636</ele>
        <time>2022-05-08T08:40:00Z</time>
      </trkpt>
      <trkpt lat="46.11877" lon="4.52685">
        <ele>634.4</ele>
        <time>2022-05-08T08:40:04Z</time>
      </trkpt>
      <trkpt lat="46.11896" lon="4.52662">
        <ele>636.2</ele>
        <time>2022-05-08T08:40:08Z</time>
      </trkpt>
      <trkpt lat="46.11913" lon="4.52641">
        <ele>636.8</ele>
        <time>2022-05-08T08:40:12Z</time>
      </trkpt>
      <trkpt lat="46.11926" lon="4.52623">
        <ele>637.4</ele>
        <time>2022-05-08T08:40:16Z</time>
      </trkpt>
      <trkpt lat="46.11936" lon="4.52608">
        <ele>638</ele>
        <time>2022-05-08T08:40:20Z</time>
      </trkpt>
      <trkpt lat="46.11944" lon="4.52595">
        <ele>639.6</ele>
        <time>2022-05-08T08:40:24Z</time>
      </trkpt>
      <trkpt lat="46.1195" lon="4.52582">
        <ele>639.8</ele>
        <time>2022-05-08T08:40:28Z</time>
      </trkpt>
      <trkpt lat="46.11954" lon="4.52567">
        <ele>639.6</ele>
        <time>2022-05-08T08:40:32Z</time>
      </trkpt>
      <trkpt lat="46.11958" lon="4.52553">
        <ele>639.6</ele>
        <time>2022-05-08T08:40:36Z</time>
      </trkpt>
      <trkpt lat="46.11961" lon="4.52537">
        <ele>639.8</ele>
        <time>2022-05-08T08:40:40Z</time>
      </trkpt>
      <trkpt lat="46.11963" lon="4.52522">
        <ele>639.8</ele>
        <time>2022-05-08T08:40:44Z</time>
      </trkpt>
      <trkpt lat="46.11965" lon="4.52506">
        <ele>641</ele>
        <time>2022-05-08T08:40:48Z</time>
      </trkpt>
      <trkpt lat="46.11966" lon="4.52493">
        <ele>641.6</ele>
        <time>2022-05-08T08:40:52Z</time>
      </trkpt>
      <trkpt lat="46.11968" lon="4.52484">
        <ele>642.8</ele>
        <time>2022-05-08T08:40:56Z</time>
      </trkpt>
      <trkpt lat="46.11973" lon="4.52484">
        <ele>643.6</ele>
        <time>2022-05-08T08:41:00Z</time>
      </trkpt>
      <trkpt lat="46.11974" lon="4.52494">
        <ele>643</ele>
        <time>2022-05-08T08:41:04Z</time>
      </trkpt>
      <trkpt lat="46.11974" lon="4.52504">
        <ele>643.8</ele>
        <time>2022-05-08T08:41:08Z</time>
      </trkpt>
      <trkpt lat="46.11976" lon="4.52514">
        <ele>644</ele>
        <time>2022-05-08T08:41:12Z</time>
      </trkpt>
      <trkpt lat="46.11977" lon="4.52524">
        <ele>644.4</ele>
        <time>2022-05-08T08:41:16Z</time>
      </trkpt>
      <trkpt lat="46.11978" lon="4.52534">
        <ele>644.8</ele>
        <time>2022-05-08T08:41:20Z</time>
      </trkpt>
      <trkpt lat="46.1198" lon="4.52543">
        <ele>645.8</ele>
        <time>2022-05-08T08:41:24Z</time>
      </trkpt>
      <trkpt lat="46.11981" lon="4.52553">
        <ele>647</ele>
        <time>2022-05-08T08:41:28Z</time>
      </trkpt>
      <trkpt lat="46.11983" lon="4.52563">
        <ele>647</ele>
        <time>2022-05-08T08:41:32Z</time>
      </trkpt>
      <trkpt lat="46.11984" lon="4.52573">
        <ele>646.8</ele>
        <time>2022-05-08T08:41:36Z</time>
      </trkpt>
      <trkpt lat="46.11986" lon="4.52582">
        <ele>648.4</ele>
        <time>2022-05-08T08:41:40Z</time>
      </trkpt>
      <trkpt lat="46.11987" lon="4.52591">
        <ele>648</ele>
        <time>2022-05-08T08:41:44Z</time>
      </trkpt>
      <trkpt lat="46.11988" lon="4.52601">
        <ele>648</ele>
        <time>2022-05-08T08:41:48Z</time>
      </trkpt>
      <trkpt lat="46.1199" lon="4.5261">
        <ele>649.6</ele>
        <time>2022-05-08T08:41:52Z</time>
      </trkpt>
      <trkpt lat="46.11991" lon="4.5262">
        <ele>649.6</ele>
        <time>2022-05-08T08:41:56Z</time>
      </trkpt>
      <trkpt lat="46.11993" lon="4.5263">
        <ele>650.6</ele>
        <time>2022-05-08T08:42:00Z</time>
      </trkpt>
      <trkpt lat="46.11994" lon="4.5264">
        <ele>650.4</ele>
        <time>2022-05-08T08:42:04Z</time>
      </trkpt>
      <trkpt lat="46.11995" lon="4.5265">
        <ele>651.2</ele>
        <time>2022-05-08T08:42:08Z</time>
      </trkpt>
      <trkpt lat="46.11996" lon="4.52659">
        <ele>651.8</ele>
        <time>2022-05-08T08:42:12Z</time>
      </trkpt>
      <trkpt lat="46.11996" lon="4.52669">
        <ele>652</ele>
        <time>2022-05-08T08:42:16Z</time>
      </trkpt>
      <trkpt lat="46.11996" lon="4.52679">
        <ele>652.6</ele>
        <time>2022-05-08T08:42:20Z</time>
      </trkpt>
      <trkpt lat="46.11995" lon="4.52689">
        <ele>653.2</ele>
        <time>2022-05-08T08:42:24Z</time>
      </trkpt>
      <trkpt lat="46.11994" lon="4.52699">
        <ele>653.4</ele>
        <time>2022-05-08T08:42:28Z</time>
      </trkpt>
      <trkpt lat="46.11994" lon="4.52708">
        <ele>653</ele>
        <time>2022-05-08T08:42:32Z</time>
      </trkpt>
      <trkpt lat="46.11994" lon="4.52718">
        <ele>654.6</ele>
        <time>2022-05-08T08:42:36Z</time>
      </trkpt>
      <trkpt lat="46.11993" lon="4.52727">
        <ele>655.2</ele>
        <time>2022-05-08T08:42:40Z</time>
      </trkpt>
      <trkpt lat="46.11993" lon="4.52737">
        <ele>656.2</ele>
        <time>2022-05-08T08:42:44Z</time>
      </trkpt>
      <trkpt lat="46.11992" lon="4.52747">
        <ele>656.4</ele>
        <time>2022-05-08T08:42:48Z</time>
      </trkpt>
      <trkpt lat="46.11992" lon="4.52757">
        <ele>657</ele>
        <time>2022-05-08T08:42:52Z</time>
      </trkpt>
      <trkpt lat="46.11991" lon="4.52767">
        <ele>656</ele>
        <time>2022-05-08T08:42:56Z</time>
      </trkpt>
      <trkpt lat="46.1199" lon="4.52777">
        <ele>657.2</ele>
        <time>2022-05-08T08:43:00Z</time>
      </trkpt>
      <trkpt lat="46.1199" lon="4.52787">
        <ele>657.2</ele>
        <time>2022-05-08T08:43:04Z</time>
      </trkpt>
      <trkpt lat="46.11989" lon="4.52796">
        <ele>657.6</ele>
        <time>2022-05-08T08:43:08Z</time>
      </trkpt>
      <trkpt lat="46.11989" lon="4.52805">
        <ele>657.6</ele>
        <time>2022-05-08T08:43:12Z</time>
      </trkpt>
      <trkpt lat="46.11988" lon="4.52814">
        <ele>657.8</ele>
        <time>2022-05-08T08:43:16Z</time>
      </trkpt>
      <trkpt lat="46.11988" lon="4.52823">
        <ele>658.4</ele>
        <time>2022-05-08T08:43:20Z</time>
      </trkpt>
      <trkpt lat="46.11987" lon="4.52833">
        <ele>659.6</ele>
        <time>2022-05-08T08:43:24Z</time>
      </trkpt>
      <trkpt lat="46.11987" lon="4.52842">
        <ele>660</ele>
        <time>2022-05-08T08:43:28Z</time>
      </trkpt>
      <trkpt lat="46.11986" lon="4.52852">
        <ele>659.8</ele>
        <time>2022-05-08T08:43:32Z</time>
      </trkpt>
      <trkpt lat="46.11985" lon="4.52862">
        <ele>661</ele>
        <time>2022-05-08T08:43:36Z</time>
      </trkpt>
      <trkpt lat="46.11985" lon="4.52872">
        <ele>661.8</ele>
        <time>2022-05-08T08:43:40Z</time>
      </trkpt>
      <trkpt lat="46.11984" lon="4.52881">
        <ele>661.6</ele>
        <time>2022-05-08T08:43:44Z</time>
      </trkpt>
      <trkpt lat="46.11984" lon="4.52891">
        <ele>661.6</ele>
        <time>2022-05-08T08:43:48Z</time>
      </trkpt>
      <trkpt lat="46.11984" lon="4.52901">
        <ele>664.2</ele>
        <time>2022-05-08T08:43:52Z</time>
      </trkpt>
      <trkpt lat="46.11986" lon="4.5291">
        <ele>664.2</ele>
        <time>2022-05-08T08:43:56Z</time>
      </trkpt>
      <trkpt lat="46.11988" lon="4.52919">
        <ele>665.4</ele>
        <time>2022-05-08T08:44:00Z</time>
      </trkpt>
      <trkpt lat="46.11991" lon="4.52928">
        <ele>665.4</ele>
        <time>2022-05-08T08:44:04Z</time>
      </trkpt>
      <trkpt lat="46.11993" lon="4.52937">
        <ele>665.4</ele>
        <time>2022-05-08T08:44:08Z</time>
      </trkpt>
      <trkpt lat="46.11997" lon="4.52945">
        <ele>666.4</ele>
        <time>2022-05-08T08:44:12Z</time>
      </trkpt>
      <trkpt lat="46.12002" lon="4.52953">
        <ele>667.8</ele>
        <time>2022-05-08T08:44:16Z</time>
      </trkpt>
      <trkpt lat="46.12007" lon="4.5296">
        <ele>667.8</ele>
        <time>2022-05-08T08:44:20Z</time>
      </trkpt>
      <trkpt lat="46.12012" lon="4.52967">
        <ele>669.4</ele>
        <time>2022-05-08T08:44:24Z</time>
      </trkpt>
      <trkpt lat="46.12018" lon="4.52972">
        <ele>669.6</ele>
        <time>2022-05-08T08:44:28Z</time>
      </trkpt>
      <trkpt lat="46.12024" lon="4.52976">
        <ele>670.4</ele>
        <time>2022-05-08T08:44:32Z</time>
      </trkpt>
      <trkpt lat="46.1203" lon="4.5298">
        <ele>670.4</ele>
        <time>2022-05-08T08:44:36Z</time>
      </trkpt>
      <trkpt lat="46.12036" lon="4.52983">
        <ele>671.2</ele>
        <time>2022-05-08T08:44:40Z</time>
      </trkpt>
      <trkpt lat="46.12042" lon="4.52986">
        <ele>671.4</ele>
        <time>2022-05-08T08:44:44Z</time>
      </trkpt>
      <trkpt lat="46.12048" lon="4.5299">
        <ele>672.6</ele>
        <time>2022-05-08T08:44:48Z</time>
      </trkpt>
      <trkpt lat="46.12054" lon="4.52993">
        <ele>672.8</ele>
        <time>2022-05-08T08:44:52Z</time>
      </trkpt>
      <trkpt lat="46.1206" lon="4.52997">
        <ele>673.2</ele>
        <time>2022-05-08T08:44:56Z</time>
      </trkpt>
      <trkpt lat="46.12066" lon="4.53">
        <ele>673.4</ele>
        <time>2022-05-08T08:45:00Z</time>
      </trkpt>
      <trkpt lat="46.12073" lon="4.53003">
        <ele>674</ele>
        <time>2022-05-08T08:45:04Z</time>
      </trkpt>
      <trkpt lat="46.12079" lon="4.53006">
        <ele>675.8</ele>
        <time>2022-05-08T08:45:08Z</time>
      </trkpt>
      <trkpt lat="46.12086" lon="4.53009">
        <ele>675.2</ele>
        <time>2022-05-08T08:45:12Z</time>
      </trkpt>
      <trkpt lat="46.12092" lon="4.53012">
        <ele>676.2</ele>
        <time>2022-05-08T08:45:16Z</time>
      </trkpt>
      <trkpt lat="46.12098" lon="4.53015">
        <ele>676.2</ele>
        <time>2022-05-08T08:45:20Z</time>
      </trkpt>
      <trkpt lat="46.12105" lon="4.53018">
        <ele>675.8</ele>
        <time>2022-05-08T08:45:24Z</time>
      </trkpt>
      <trkpt lat="46.12111" lon="4.53022">
        <ele>675.8</ele>
        <time>2022-05-08T08:45:28Z</time>
      </trkpt>
      <trkpt lat="46.12117" lon="4.53024">
        <ele>676.6</ele>
        <time>2022-05-08T08:45:32Z</time>
      </trkpt>
      <trkpt lat="46.12124" lon="4.53028">
        <ele>677</ele>
        <time>2022-05-08T08:45:36Z</time>
      </trkpt>
      <trkpt lat="46.12131" lon="4.53031">
        <ele>677.8</ele>
        <time>2022-05-08T08:45:40Z</time>
      </trkpt>
      <trkpt lat="46.12136" lon="4.53035">
        <ele>678.4</ele>
        <time>2022-05-08T08:45:44Z</time>
      </trkpt>
      <trkpt lat="46.12133" lon="4.53028">
        <ele>678.2</ele>
        <time>2022-05-08T08:46:31Z</time>
      </trkpt>
      <trkpt lat="46.12125" lon="4.53023">
        <ele>678</ele>
        <time>2022-05-08T08:46:35Z</time>
      </trkpt>
      <trkpt lat="46.12125" lon="4.53013">
        <ele>677.6</ele>
        <time>2022-05-08T08:46:39Z</time>
      </trkpt>
      <trkpt lat="46.12131" lon="4.53009">
        <ele>678.4</ele>
        <time>2022-05-08T08:46:43Z</time>
      </trkpt>
      <trkpt lat="46.12139" lon="4.53006">
        <ele>679</ele>
        <time>2022-05-08T08:46:47Z</time>
      </trkpt>
      <trkpt lat="46.12146" lon="4.53003">
        <ele>678.8</ele>
        <time>2022-05-08T08:46:51Z</time>
      </trkpt>
      <trkpt lat="46.12154" lon="4.53">
        <ele>679.2</ele>
        <time>2022-05-08T08:46:55Z</time>
      </trkpt>
      <trkpt lat="46.12161" lon="4.52995">
        <ele>679.4</ele>
        <time>2022-05-08T08:46:59Z</time>
      </trkpt>
      <trkpt lat="46.12168" lon="4.52989">
        <ele>680.4</ele>
        <time>2022-05-08T08:47:03Z</time>
      </trkpt>
      <trkpt lat="46.12175" lon="4.52982">
        <ele>681.4</ele>
        <time>2022-05-08T08:47:07Z</time>
      </trkpt>
      <trkpt lat="46.12182" lon="4.52974">
        <ele>682.2</ele>
        <time>2022-05-08T08:47:11Z</time>
      </trkpt>
      <trkpt lat="46.12189" lon="4.52966">
        <ele>681.8</ele>
        <time>2022-05-08T08:47:15Z</time>
      </trkpt>
      <trkpt lat="46.12195" lon="4.52958">
        <ele>682.2</ele>
        <time>2022-05-08T08:47:19Z</time>
      </trkpt>
      <trkpt lat="46.12201" lon="4.52949">
        <ele>682.2</ele>
        <time>2022-05-08T08:47:23Z</time>
      </trkpt>
      <trkpt lat="46.12207" lon="4.5294">
        <ele>682.6</ele>
        <time>2022-05-08T08:47:27Z</time>
      </trkpt>
      <trkpt lat="46.12212" lon="4.52931">
        <ele>682.8</ele>
        <time>2022-05-08T08:47:31Z</time>
      </trkpt>
      <trkpt lat="46.12217" lon="4.52924">
        <ele>684</ele>
        <time>2022-05-08T08:47:35Z</time>
      </trkpt>
      <trkpt lat="46.12222" lon="4.52919">
        <ele>683.6</ele>
        <time>2022-05-08T08:47:39Z</time>
      </trkpt>
      <trkpt lat="46.12227" lon="4.52914">
        <ele>683.6</ele>
        <time>2022-05-08T08:47:43Z</time>
      </trkpt>
      <trkpt lat="46.12233" lon="4.52909">
        <ele>683.6</ele>
        <time>2022-05-08T08:47:47Z</time>
      </trkpt>
      <trkpt lat="46.12237" lon="4.52907">
        <ele>684</ele>
        <time>2022-05-08T08:47:51Z</time>
      </trkpt>
      <trkpt lat="46.12243" lon="4.52903">
        <ele>684.2</ele>
        <time>2022-05-08T08:47:55Z</time>
      </trkpt>
      <trkpt lat="46.12251" lon="4.529">
        <ele>684.2</ele>
        <time>2022-05-08T08:47:59Z</time>
      </trkpt>
      <trkpt lat="46.12258" lon="4.52896">
        <ele>684.2</ele>
        <time>2022-05-08T08:48:03Z</time>
      </trkpt>
      <trkpt lat="46.12264" lon="4.52894">
        <ele>684</ele>
        <time>2022-05-08T08:48:07Z</time>
      </trkpt>
      <trkpt lat="46.12271" lon="4.52893">
        <ele>684.4</ele>
        <time>2022-05-08T08:48:11Z</time>
      </trkpt>
      <trkpt lat="46.12274" lon="4.52891">
        <ele>684</ele>
        <time>2022-05-08T08:48:15Z</time>
      </trkpt>
      <trkpt lat="46.1228" lon="4.52888">
        <ele>684</ele>
        <time>2022-05-08T08:48:19Z</time>
      </trkpt>
      <trkpt lat="46.12287" lon="4.52886">
        <ele>684</ele>
        <time>2022-05-08T08:48:23Z</time>
      </trkpt>
      <trkpt lat="46.12294" lon="4.52884">
        <ele>684.8</ele>
        <time>2022-05-08T08:48:27Z</time>
      </trkpt>
      <trkpt lat="46.12528" lon="4.52573">
        <ele>719.4</ele>
        <time>2022-05-08T08:54:33Z</time>
      </trkpt>
      <trkpt lat="46.12532" lon="4.52567">
        <ele>719.2</ele>
        <time>2022-05-08T08:54:37Z</time>
      </trkpt>
      <trkpt lat="46.12536" lon="4.52562">
        <ele>719</ele>
        <time>2022-05-08T08:54:41Z</time>
      </trkpt>
      <trkpt lat="46.12539" lon="4.52556">
        <ele>720.2</ele>
        <time>2022-05-08T08:54:45Z</time>
      </trkpt>
      <trkpt lat="46.12543" lon="4.5255">
        <ele>722.4</ele>
        <time>2022-05-08T08:54:49Z</time>
      </trkpt>
      <trkpt lat="46.12548" lon="4.52544">
        <ele>721.4</ele>
        <time>2022-05-08T08:54:53Z</time>
      </trkpt>
      <trkpt lat="46.12552" lon="4.5254">
        <ele>722.4</ele>
        <time>2022-05-08T08:54:57Z</time>
      </trkpt>
      <trkpt lat="46.12555" lon="4.52534">
        <ele>723.2</ele>
        <time>2022-05-08T08:55:01Z</time>
      </trkpt>
      <trkpt lat="46.12558" lon="4.52529">
        <ele>724</ele>
        <time>2022-05-08T08:55:05Z</time>
      </trkpt>
      <trkpt lat="46.12561" lon="4.52522">
        <ele>724.4</ele>
        <time>2022-05-08T08:55:09Z</time>
      </trkpt>
      <trkpt lat="46.12565" lon="4.52515">
        <ele>723.8</ele>
        <time>2022-05-08T08:55:13Z</time>
      </trkpt>
      <trkpt lat="46.12568" lon="4.52509">
        <ele>725.4</ele>
        <time>2022-05-08T08:55:17Z</time>
      </trkpt>
      <trkpt lat="46.12571" lon="4.52502">
        <ele>725.8</ele>
        <time>2022-05-08T08:55:21Z</time>
      </trkpt>
      <trkpt lat="46.12573" lon="4.52496">
        <ele>726.4</ele>
        <time>2022-05-08T08:55:25Z</time>
      </trkpt>
      <trkpt lat="46.12576" lon="4.52489">
        <ele>727.4</ele>
        <time>2022-05-08T08:55:29Z</time>
      </trkpt>
      <trkpt lat="46.12579" lon="4.52484">
        <ele>728.2</ele>
        <time>2022-05-08T08:55:33Z</time>
      </trkpt>
      <trkpt lat="46.12581" lon="4.52478">
        <ele>729</ele>
        <time>2022-05-08T08:55:37Z</time>
      </trkpt>
      <trkpt lat="46.12583" lon="4.52473">
        <ele>728.2</ele>
        <time>2022-05-08T08:55:41Z</time>
      </trkpt>
      <trkpt lat="46.12588" lon="4.52461">
        <ele>729.8</ele>
        <time>2022-05-08T08:56:01Z</time>
      </trkpt>
      <trkpt lat="46.12592" lon="4.52454">
        <ele>729.2</ele>
        <time>2022-05-08T08:56:05Z</time>
      </trkpt>
      <trkpt lat="46.12597" lon="4.52448">
        <ele>729.8</ele>
        <time>2022-05-08T08:56:09Z</time>
      </trkpt>
      <trkpt lat="46.12599" lon="4.52443">
        <ele>730.2</ele>
        <time>2022-05-08T08:56:13Z</time>
      </trkpt>
      <trkpt lat="46.12601" lon="4.52438">
        <ele>730.4</ele>
        <time>2022-05-08T08:56:17Z</time>
      </trkpt>
      <trkpt lat="46.12605" lon="4.52431">
        <ele>730.4</ele>
        <time>2022-05-08T08:56:21Z</time>
      </trkpt>
      <trkpt lat="46.12609" lon="4.52424">
        <ele>730.6</ele>
        <time>2022-05-08T08:56:25Z</time>
      </trkpt>
      <trkpt lat="46.12613" lon="4.52416">
        <ele>731.2</ele>
        <time>2022-05-08T08:56:29Z</time>
      </trkpt>
      <trkpt lat="46.12617" lon="4.52408">
        <ele>730.8</ele>
        <time>2022-05-08T08:56:33Z</time>
      </trkpt>
      <trkpt lat="46.12621" lon="4.52399">
        <ele>730.8</ele>
        <time>2022-05-08T08:56:37Z</time>
      </trkpt>
      <trkpt lat="46.12626" lon="4.52391">
        <ele>731.2</ele>
        <time>2022-05-08T08:56:41Z</time>
      </trkpt>
      <trkpt lat="46.1263" lon="4.52383">
        <ele>731.2</ele>
        <time>2022-05-08T08:56:45Z</time>
      </trkpt>
      <trkpt lat="46.12635" lon="4.52375">
        <ele>730</ele>
        <time>2022-05-08T08:56:49Z</time>
      </trkpt>
      <trkpt lat="46.12639" lon="4.52368">
        <ele>731.4</ele>
        <time>2022-05-08T08:56:53Z</time>
      </trkpt>
      <trkpt lat="46.12644" lon="4.52361">
        <ele>731.8</ele>
        <time>2022-05-08T08:56:57Z</time>
      </trkpt>
      <trkpt lat="46.12649" lon="4.52355">
        <ele>731</ele>
        <time>2022-05-08T08:57:01Z</time>
      </trkpt>
      <trkpt lat="46.12653" lon="4.52348">
        <ele>731.6</ele>
        <time>2022-05-08T08:57:05Z</time>
      </trkpt>
      <trkpt lat="46.12658" lon="4.52342">
        <ele>732.6</ele>
        <time>2022-05-08T08:57:09Z</time>
      </trkpt>
      <trkpt lat="46.12663" lon="4.52336">
        <ele>733.8</ele>
        <time>2022-05-08T08:57:13Z</time>
      </trkpt>
      <trkpt lat="46.12667" lon="4.5233">
        <ele>733.8</ele>
        <time>2022-05-08T08:57:17Z</time>
      </trkpt>
      <trkpt lat="46.12671" lon="4.52324">
        <ele>734</ele>
        <time>2022-05-08T08:57:21Z</time>
      </trkpt>
      <trkpt lat="46.12675" lon="4.52318">
        <ele>735.4</ele>
        <time>2022-05-08T08:57:25Z</time>
      </trkpt>
      <trkpt lat="46.12678" lon="4.52314">
        <ele>735.8</ele>
        <time>2022-05-08T08:57:29Z</time>
      </trkpt>
      <trkpt lat="46.12681" lon="4.5231">
        <ele>735.4</ele>
        <time>2022-05-08T08:57:33Z</time>
      </trkpt>
      <trkpt lat="46.12684" lon="4.52304">
        <ele>736.2</ele>
        <time>2022-05-08T08:57:37Z</time>
      </trkpt>
      <trkpt lat="46.12687" lon="4.523">
        <ele>737.8</ele>
        <time>2022-05-08T08:57:41Z</time>
      </trkpt>
      <trkpt lat="46.1269" lon="4.52295">
        <ele>737.2</ele>
        <time>2022-05-08T08:57:45Z</time>
      </trkpt>
      <trkpt lat="46.12693" lon="4.5229">
        <ele>738</ele>
        <time>2022-05-08T08:57:49Z</time>
      </trkpt>
      <trkpt lat="46.12696" lon="4.52285">
        <ele>738</ele>
        <time>2022-05-08T08:57:53Z</time>
      </trkpt>
      <trkpt lat="46.12699" lon="4.52281">
        <ele>738.8</ele>
        <time>2022-05-08T08:57:57Z</time>
      </trkpt>
      <trkpt lat="46.12702" lon="4.52276">
        <ele>739</ele>
        <time>2022-05-08T08:58:01Z</time>
      </trkpt>
      <trkpt lat="46.12705" lon="4.52273">
        <ele>739.2</ele>
        <time>2022-05-08T08:58:05Z</time>
      </trkpt>
      <trkpt lat="46.12708" lon="4.52267">
        <ele>739.8</ele>
        <time>2022-05-08T08:58:09Z</time>
      </trkpt>
      <trkpt lat="46.1271" lon="4.52263">
        <ele>741.8</ele>
        <time>2022-05-08T08:58:13Z</time>
      </trkpt>
      <trkpt lat="46.12713" lon="4.52259">
        <ele>741</ele>
        <time>2022-05-08T08:58:17Z</time>
      </trkpt>
      <trkpt lat="46.12717" lon="4.52254">
        <ele>741.2</ele>
        <time>2022-05-08T08:58:21Z</time>
      </trkpt>
      <trkpt lat="46.12721" lon="4.52249">
        <ele>741.4</ele>
        <time>2022-05-08T08:58:25Z</time>
      </trkpt>
      <trkpt lat="46.12724" lon="4.52243">
        <ele>742</ele>
        <time>2022-05-08T08:58:29Z</time>
      </trkpt>
      <trkpt lat="46.12728" lon="4.52239">
        <ele>743.2</ele>
        <time>2022-05-08T08:58:33Z</time>
      </trkpt>
      <trkpt lat="46.12731" lon="4.52234">
        <ele>743.6</ele>
        <time>2022-05-08T08:58:37Z</time>
      </trkpt>
      <trkpt lat="46.12733" lon="4.52231">
        <ele>743.8</ele>
        <time>2022-05-08T08:58:41Z</time>
      </trkpt>
      <trkpt lat="46.12736" lon="4.52226">
        <ele>743.4</ele>
        <time>2022-05-08T08:58:45Z</time>
      </trkpt>
      <trkpt lat="46.12739" lon="4.52223">
        <ele>744.6</ele>
        <time>2022-05-08T08:58:49Z</time>
      </trkpt>
      <trkpt lat="46.12741" lon="4.52217">
        <ele>745</ele>
        <time>2022-05-08T08:58:53Z</time>
      </trkpt>
      <trkpt lat="46.12746" lon="4.52211">
        <ele>745.6</ele>
        <time>2022-05-08T08:58:57Z</time>
      </trkpt>
      <trkpt lat="46.12749" lon="4.52205">
        <ele>745.6</ele>
        <time>2022-05-08T08:59:01Z</time>
      </trkpt>
      <trkpt lat="46.12753" lon="4.52198">
        <ele>746.4</ele>
        <time>2022-05-08T08:59:05Z</time>
      </trkpt>
      <trkpt lat="46.12757" lon="4.52191">
        <ele>747</ele>
        <time>2022-05-08T08:59:09Z</time>
      </trkpt>
      <trkpt lat="46.12759" lon="4.52185">
        <ele>747.2</ele>
        <time>2022-05-08T08:59:13Z</time>
      </trkpt>
      <trkpt lat="46.12761" lon="4.52179">
        <ele>747.4</ele>
        <time>2022-05-08T08:59:17Z</time>
      </trkpt>
      <trkpt lat="46.12765" lon="4.52173">
        <ele>746.4</ele>
        <time>2022-05-08T08:59:21Z</time>
      </trkpt>
      <trkpt lat="46.12769" lon="4.52167">
        <ele>748.6</ele>
        <time>2022-05-08T08:59:25Z</time>
      </trkpt>
      <trkpt lat="46.12774" lon="4.5216">
        <ele>748.2</ele>
        <time>2022-05-08T08:59:29Z</time>
      </trkpt>
      <trkpt lat="46.12778" lon="4.52152">
        <ele>748.4</ele>
        <time>2022-05-08T08:59:33Z</time>
      </trkpt>
      <trkpt lat="46.12782" lon="4.52144">
        <ele>748.2</ele>
        <time>2022-05-08T08:59:37Z</time>
      </trkpt>
      <trkpt lat="46.12786" lon="4.52137">
        <ele>748.8</ele>
        <time>2022-05-08T08:59:41Z</time>
      </trkpt>
      <trkpt lat="46.1279" lon="4.52129">
        <ele>750.2</ele>
        <time>2022-05-08T08:59:45Z</time>
      </trkpt>
      <trkpt lat="46.12793" lon="4.52122">
        <ele>750.6</ele>
        <time>2022-05-08T08:59:49Z</time>
      </trkpt>
      <trkpt lat="46.12798" lon="4.52114">
        <ele>750.4</ele>
        <time>2022-05-08T08:59:53Z</time>
      </trkpt>
      <trkpt lat="46.12801" lon="4.52106">
        <ele>750.6</ele>
        <time>2022-05-08T08:59:57Z</time>
      </trkpt>
      <trkpt lat="46.12804" lon="4.52099">
        <ele>751</ele>
        <time>2022-05-08T09:00:01Z</time>
      </trkpt>
      <trkpt lat="46.12807" lon="4.52091">
        <ele>752.8</ele>
        <time>2022-05-08T09:00:05Z</time>
      </trkpt>
      <trkpt lat="46.12811" lon="4.52083">
        <ele>752.6</ele>
        <time>2022-05-08T09:00:09Z</time>
      </trkpt>
      <trkpt lat="46.12814" lon="4.52074">
        <ele>752.4</ele>
        <time>2022-05-08T09:00:13Z</time>
      </trkpt>
      <trkpt lat="46.12816" lon="4.52066">
        <ele>752.8</ele>
        <time>2022-05-08T09:00:17Z</time>
      </trkpt>
      <trkpt lat="46.12817" lon="4.52058">
        <ele>752.6</ele>
        <time>2022-05-08T09:00:21Z</time>
      </trkpt>
      <trkpt lat="46.12819" lon="4.52049">
        <ele>753</ele>
        <time>2022-05-08T09:00:25Z</time>
      </trkpt>
      <trkpt lat="46.1282" lon="4.5204">
        <ele>753.6</ele>
        <time>2022-05-08T09:00:29Z</time>
      </trkpt>
      <trkpt lat="46.12821" lon="4.52035">
        <ele>752.6</ele>
        <time>2022-05-08T09:00:33Z</time>
      </trkpt>
      <trkpt lat="46.1282" lon="4.52029">
        <ele>753</ele>
        <time>2022-05-08T09:00:37Z</time>
      </trkpt>
      <trkpt lat="46.12822" lon="4.52033">
        <ele>754.8</ele>
        <time>2022-05-08T09:08:52Z</time>
      </trkpt>
      <trkpt lat="46.12819" lon="4.52048">
        <ele>754.6</ele>
        <time>2022-05-08T09:08:56Z</time>
      </trkpt>
      <trkpt lat="46.12816" lon="4.52066">
        <ele>754.2</ele>
        <time>2022-05-08T09:09:00Z</time>
      </trkpt>
      <trkpt lat="46.1281" lon="4.52087">
        <ele>753.4</ele>
        <time>2022-05-08T09:09:04Z</time>
      </trkpt>
      <trkpt lat="46.128" lon="4.52109">
        <ele>753</ele>
        <time>2022-05-08T09:09:08Z</time>
      </trkpt>
      <trkpt lat="46.12792" lon="4.52126">
        <ele>750.4</ele>
        <time>2022-05-08T09:09:12Z</time>
      </trkpt>
      <trkpt lat="46.12783" lon="4.52143">
        <ele>750.4</ele>
        <time>2022-05-08T09:09:16Z</time>
      </trkpt>
      <trkpt lat="46.12774" lon="4.52159">
        <ele>749.8</ele>
        <time>2022-05-08T09:09:20Z</time>
      </trkpt>
      <trkpt lat="46.12766" lon="4.52174">
        <ele>748.2</ele>
        <time>2022-05-08T09:09:24Z</time>
      </trkpt>
      <trkpt lat="46.12761" lon="4.52186">
        <ele>747</ele>
        <time>2022-05-08T09:09:28Z</time>
      </trkpt>
      <trkpt lat="46.12758" lon="4.52195">
        <ele>747.4</ele>
        <time>2022-05-08T09:09:32Z</time>
      </trkpt>
      <trkpt lat="46.1275" lon="4.52207">
        <ele>747.4</ele>
        <time>2022-05-08T09:09:36Z</time>
      </trkpt>
      <trkpt lat="46.12743" lon="4.52217">
        <ele>746.8</ele>
        <time>2022-05-08T09:09:40Z</time>
      </trkpt>
      <trkpt lat="46.12737" lon="4.52226">
        <ele>744.2</ele>
        <time>2022-05-08T09:09:44Z</time>
      </trkpt>
      <trkpt lat="46.12729" lon="4.52237">
        <ele>743.8</ele>
        <time>2022-05-08T09:09:48Z</time>
      </trkpt>
      <trkpt lat="46.1272" lon="4.52249">
        <ele>742</ele>
        <time>2022-05-08T09:09:52Z</time>
      </trkpt>
      <trkpt lat="46.12715" lon="4.52258">
        <ele>742</ele>
        <time>2022-05-08T09:09:56Z</time>
      </trkpt>
      <trkpt lat="46.12709" lon="4.52266">
        <ele>740.2</ele>
        <time>2022-05-08T09:10:00Z</time>
      </trkpt>
      <trkpt lat="46.12701" lon="4.52276">
        <ele>738.6</ele>
        <time>2022-05-08T09:10:04Z</time>
      </trkpt>
      <trkpt lat="46.1269" lon="4.52292">
        <ele>738.4</ele>
        <time>2022-05-08T09:10:08Z</time>
      </trkpt>
      <trkpt lat="46.12683" lon="4.52302">
        <ele>737.6</ele>
        <time>2022-05-08T09:10:12Z</time>
      </trkpt>
      <trkpt lat="46.12676" lon="4.52313">
        <ele>736</ele>
        <time>2022-05-08T09:10:16Z</time>
      </trkpt>
      <trkpt lat="46.12664" lon="4.52327">
        <ele>734.6</ele>
        <time>2022-05-08T09:10:20Z</time>
      </trkpt>
      <trkpt lat="46.12653" lon="4.5234">
        <ele>732.4</ele>
        <time>2022-05-08T09:10:24Z</time>
      </trkpt>
      <trkpt lat="46.12643" lon="4.52356">
        <ele>731.4</ele>
        <time>2022-05-08T09:10:28Z</time>
      </trkpt>
      <trkpt lat="46.12632" lon="4.52374">
        <ele>731</ele>
        <time>2022-05-08T09:10:32Z</time>
      </trkpt>
      <trkpt lat="46.12626" lon="4.5239">
        <ele>730.8</ele>
        <time>2022-05-08T09:10:36Z</time>
      </trkpt>
      <trkpt lat="46.12619" lon="4.52407">
        <ele>732.2</ele>
        <time>2022-05-08T09:10:40Z</time>
      </trkpt>
      <trkpt lat="46.12612" lon="4.52421">
        <ele>730.6</ele>
        <time>2022-05-08T09:10:44Z</time>
      </trkpt>
      <trkpt lat="46.12607" lon="4.52434">
        <ele>730</ele>
        <time>2022-05-08T09:10:48Z</time>
      </trkpt>
      <trkpt lat="46.12598" lon="4.5245">
        <ele>729.8</ele>
        <time>2022-05-08T09:10:52Z</time>
      </trkpt>
      <trkpt lat="46.1259" lon="4.52463">
        <ele>727.4</ele>
        <time>2022-05-08T09:10:56Z</time>
      </trkpt>
      <trkpt lat="46.12584" lon="4.52475">
        <ele>726.6</ele>
        <time>2022-05-08T09:11:00Z</time>
      </trkpt>
      <trkpt lat="46.12578" lon="4.52487">
        <ele>726</ele>
        <time>2022-05-08T09:11:04Z</time>
      </trkpt>
      <trkpt lat="46.12573" lon="4.52498">
        <ele>725.6</ele>
        <time>2022-05-08T09:11:08Z</time>
      </trkpt>
      <trkpt lat="46.12566" lon="4.52509">
        <ele>723.6</ele>
        <time>2022-05-08T09:11:12Z</time>
      </trkpt>
      <trkpt lat="46.12556" lon="4.52522">
        <ele>723.4</ele>
        <time>2022-05-08T09:11:16Z</time>
      </trkpt>
      <trkpt lat="46.12547" lon="4.52535">
        <ele>721.8</ele>
        <time>2022-05-08T09:11:20Z</time>
      </trkpt>
      <trkpt lat="46.12537" lon="4.52548">
        <ele>721.8</ele>
        <time>2022-05-08T09:11:24Z</time>
      </trkpt>
      <trkpt lat="46.12527" lon="4.52559">
        <ele>721.8</ele>
        <time>2022-05-08T09:11:28Z</time>
      </trkpt>
      <trkpt lat="46.12518" lon="4.5257">
        <ele>720.8</ele>
        <time>2022-05-08T09:11:32Z</time>
      </trkpt>
      <trkpt lat="46.12508" lon="4.52582">
        <ele>721.2</ele>
        <time>2022-05-08T09:11:36Z</time>
      </trkpt>
      <trkpt lat="46.12498" lon="4.52592">
        <ele>719.2</ele>
        <time>2022-05-08T09:11:40Z</time>
      </trkpt>
      <trkpt lat="46.12491" lon="4.52599">
        <ele>718</ele>
        <time>2022-05-08T09:11:44Z</time>
      </trkpt>
      <trkpt lat="46.12484" lon="4.52608">
        <ele>717.4</ele>
        <time>2022-05-08T09:11:48Z</time>
      </trkpt>
      <trkpt lat="46.12479" lon="4.52615">
        <ele>714.2</ele>
        <time>2022-05-08T09:11:52Z</time>
      </trkpt>
      <trkpt lat="46.12471" lon="4.52626">
        <ele>714.2</ele>
        <time>2022-05-08T09:11:56Z</time>
      </trkpt>
      <trkpt lat="46.12464" lon="4.52639">
        <ele>712</ele>
        <time>2022-05-08T09:12:00Z</time>
      </trkpt>
      <trkpt lat="46.12453" lon="4.52655">
        <ele>708.6</ele>
        <time>2022-05-08T09:12:04Z</time>
      </trkpt>
      <trkpt lat="46.1244" lon="4.5267">
        <ele>707.8</ele>
        <time>2022-05-08T09:12:08Z</time>
      </trkpt>
      <trkpt lat="46.1243" lon="4.52677">
        <ele>707</ele>
        <time>2022-05-08T09:12:12Z</time>
      </trkpt>
      <trkpt lat="46.12423" lon="4.52682">
        <ele>705.8</ele>
        <time>2022-05-08T09:12:16Z</time>
      </trkpt>
      <trkpt lat="46.12417" lon="4.52687">
        <ele>704</ele>
        <time>2022-05-08T09:12:20Z</time>
      </trkpt>
      <trkpt lat="46.12405" lon="4.52697">
        <ele>702.4</ele>
        <time>2022-05-08T09:12:24Z</time>
      </trkpt>
      <trkpt lat="46.12394" lon="4.52706">
        <ele>702.4</ele>
        <time>2022-05-08T09:12:28Z</time>
      </trkpt>
      <trkpt lat="46.12387" lon="4.52713">
        <ele>700.6</ele>
        <time>2022-05-08T09:12:32Z</time>
      </trkpt>
      <trkpt lat="46.12381" lon="4.52719">
        <ele>700.2</ele>
        <time>2022-05-08T09:12:36Z</time>
      </trkpt>
      <trkpt lat="46.12372" lon="4.52725">
        <ele>699</ele>
        <time>2022-05-08T09:12:40Z</time>
      </trkpt>
      <trkpt lat="46.12364" lon="4.52733">
        <ele>698.2</ele>
        <time>2022-05-08T09:12:44Z</time>
      </trkpt>
      <trkpt lat="46.12352" lon="4.52748">
        <ele>696.4</ele>
        <time>2022-05-08T09:12:48Z</time>
      </trkpt>
      <trkpt lat="46.1234" lon="4.52762">
        <ele>694.8</ele>
        <time>2022-05-08T09:12:52Z</time>
      </trkpt>
      <trkpt lat="46.12327" lon="4.52782">
        <ele>693</ele>
        <time>2022-05-08T09:13:31Z</time>
      </trkpt>
      <trkpt lat="46.12301" lon="4.52809">
        <ele>689.4</ele>
        <time>2022-05-08T09:16:35Z</time>
      </trkpt>
      <trkpt lat="46.12294" lon="4.52816">
        <ele>688</ele>
        <time>2022-05-08T09:16:39Z</time>
      </trkpt>
      <trkpt lat="46.12286" lon="4.52825">
        <ele>686.6</ele>
        <time>2022-05-08T09:16:43Z</time>
      </trkpt>
      <trkpt lat="46.12279" lon="4.52838">
        <ele>684.2</ele>
        <time>2022-05-08T09:16:47Z</time>
      </trkpt>
      <trkpt lat="46.12266" lon="4.52858">
        <ele>682.8</ele>
        <time>2022-05-08T09:16:51Z</time>
      </trkpt>
      <trkpt lat="46.12251" lon="4.52879">
        <ele>681.2</ele>
        <time>2022-05-08T09:16:55Z</time>
      </trkpt>
      <trkpt lat="46.12233" lon="4.52902">
        <ele>682</ele>
        <time>2022-05-08T09:16:59Z</time>
      </trkpt>
      <trkpt lat="46.12214" lon="4.52928">
        <ele>681.6</ele>
        <time>2022-05-08T09:17:03Z</time>
      </trkpt>
      <trkpt lat="46.12193" lon="4.52958">
        <ele>679</ele>
        <time>2022-05-08T09:17:07Z</time>
      </trkpt>
      <trkpt lat="46.12171" lon="4.52982">
        <ele>678.6</ele>
        <time>2022-05-08T09:17:11Z</time>
      </trkpt>
      <trkpt lat="46.12147" lon="4.52997">
        <ele>677.8</ele>
        <time>2022-05-08T09:17:15Z</time>
      </trkpt>
      <trkpt lat="46.12127" lon="4.53003">
        <ele>677</ele>
        <time>2022-05-08T09:17:19Z</time>
      </trkpt>
      <trkpt lat="46.1212" lon="4.53021">
        <ele>677.2</ele>
        <time>2022-05-08T09:17:57Z</time>
      </trkpt>
      <trkpt lat="46.12126" lon="4.53025">
        <ele>676.6</ele>
        <time>2022-05-08T09:18:01Z</time>
      </trkpt>
      <trkpt lat="46.12135" lon="4.53031">
        <ele>675</ele>
        <time>2022-05-08T09:18:05Z</time>
      </trkpt>
      <trkpt lat="46.12143" lon="4.53038">
        <ele>677.6</ele>
        <time>2022-05-08T09:18:09Z</time>
      </trkpt>
      <trkpt lat="46.12151" lon="4.53043">
        <ele>676.4</ele>
        <time>2022-05-08T09:18:13Z</time>
      </trkpt>
      <trkpt lat="46.1216" lon="4.53046">
        <ele>675.2</ele>
        <time>2022-05-08T09:18:17Z</time>
      </trkpt>
      <trkpt lat="46.12173" lon="4.5305">
        <ele>675.4</ele>
        <time>2022-05-08T09:18:21Z</time>
      </trkpt>
      <trkpt lat="46.12191" lon="4.53052">
        <ele>675.2</ele>
        <time>2022-05-08T09:18:25Z</time>
      </trkpt>
      <trkpt lat="46.12215" lon="4.5305">
        <ele>670.2</ele>
        <time>2022-05-08T09:18:29Z</time>
      </trkpt>
      <trkpt lat="46.12244" lon="4.53039">
        <ele>666.2</ele>
        <time>2022-05-08T09:18:33Z</time>
      </trkpt>
      <trkpt lat="46.1227" lon="4.53022">
        <ele>667</ele>
        <time>2022-05-08T09:18:37Z</time>
      </trkpt>
      <trkpt lat="46.12297" lon="4.53009">
        <ele>661.8</ele>
        <time>2022-05-08T09:18:41Z</time>
      </trkpt>
      <trkpt lat="46.12325" lon="4.53009">
        <ele>657.4</ele>
        <time>2022-05-08T09:18:45Z</time>
      </trkpt>
      <trkpt lat="46.12347" lon="4.53023">
        <ele>655.8</ele>
        <time>2022-05-08T09:18:49Z</time>
      </trkpt>
      <trkpt lat="46.1237" lon="4.53045">
        <ele>649.6</ele>
        <time>2022-05-08T09:18:53Z</time>
      </trkpt>
      <trkpt lat="46.12398" lon="4.53077">
        <ele>646.4</ele>
        <time>2022-05-08T09:18:57Z</time>
      </trkpt>
      <trkpt lat="46.12429" lon="4.53111">
        <ele>646</ele>
        <time>2022-05-08T09:19:01Z</time>
      </trkpt>
      <trkpt lat="46.12458" lon="4.53144">
        <ele>645</ele>
        <time>2022-05-08T09:19:05Z</time>
      </trkpt>
      <trkpt lat="46.12488" lon="4.53175">
        <ele>642.2</ele>
        <time>2022-05-08T09:19:09Z</time>
      </trkpt>
      <trkpt lat="46.12524" lon="4.53188">
        <ele>640.8</ele>
        <time>2022-05-08T09:19:13Z</time>
      </trkpt>
      <trkpt lat="46.12563" lon="4.53178">
        <ele>637.4</ele>
        <time>2022-05-08T09:19:17Z</time>
      </trkpt>
      <trkpt lat="46.12601" lon="4.53165">
        <ele>635.4</ele>
        <time>2022-05-08T09:19:21Z</time>
      </trkpt>
      <trkpt lat="46.12632" lon="4.53138">
        <ele>632.8</ele>
        <time>2022-05-08T09:19:25Z</time>
      </trkpt>
      <trkpt lat="46.1266" lon="4.53098">
        <ele>629.8</ele>
        <time>2022-05-08T09:19:29Z</time>
      </trkpt>
      <trkpt lat="46.1268" lon="4.53049">
        <ele>626.8</ele>
        <time>2022-05-08T09:19:33Z</time>
      </trkpt>
      <trkpt lat="46.12694" lon="4.52996">
        <ele>622</ele>
        <time>2022-05-08T09:19:37Z</time>
      </trkpt>
      <trkpt lat="46.12723" lon="4.52957">
        <ele>619.2</ele>
        <time>2022-05-08T09:19:41Z</time>
      </trkpt>
      <trkpt lat="46.12762" lon="4.52954">
        <ele>617.8</ele>
        <time>2022-05-08T09:19:45Z</time>
      </trkpt>
      <trkpt lat="46.128" lon="4.52972">
        <ele>613.2</ele>
        <time>2022-05-08T09:19:49Z</time>
      </trkpt>
      <trkpt lat="46.12839" lon="4.52985">
        <ele>612.2</ele>
        <time>2022-05-08T09:19:53Z</time>
      </trkpt>
      <trkpt lat="46.12878" lon="4.52974">
        <ele>611.4</ele>
        <time>2022-05-08T09:19:57Z</time>
      </trkpt>
      <trkpt lat="46.12916" lon="4.52958">
        <ele>607.6</ele>
        <time>2022-05-08T09:20:01Z</time>
      </trkpt>
      <trkpt lat="46.12949" lon="4.5297">
        <ele>600.2</ele>
        <time>2022-05-08T09:20:05Z</time>
      </trkpt>
      <trkpt lat="46.12978" lon="4.52989">
        <ele>599</ele>
        <time>2022-05-08T09:20:09Z</time>
      </trkpt>
      <trkpt lat="46.13012" lon="4.52987">
        <ele>597.4</ele>
        <time>2022-05-08T09:20:13Z</time>
      </trkpt>
      <trkpt lat="46.13042" lon="4.52967">
        <ele>596</ele>
        <time>2022-05-08T09:20:17Z</time>
      </trkpt>
      <trkpt lat="46.13071" lon="4.52944">
        <ele>595.8</ele>
        <time>2022-05-08T09:20:21Z</time>
      </trkpt>
      <trkpt lat="46.13108" lon="4.52921">
        <ele>593.2</ele>
        <time>2022-05-08T09:20:25Z</time>
      </trkpt>
      <trkpt lat="46.1313" lon="4.52942">
        <ele>591.6</ele>
        <time>2022-05-08T09:20:29Z</time>
      </trkpt>
      <trkpt lat="46.13141" lon="4.5299">
        <ele>585</ele>
        <time>2022-05-08T09:20:33Z</time>
      </trkpt>
      <trkpt lat="46.13169" lon="4.53024">
        <ele>587</ele>
        <time>2022-05-08T09:20:37Z</time>
      </trkpt>
      <trkpt lat="46.13198" lon="4.53049">
        <ele>577.6</ele>
        <time>2022-05-08T09:20:41Z</time>
      </trkpt>
      <trkpt lat="46.13233" lon="4.53077">
        <ele>575.2</ele>
        <time>2022-05-08T09:20:45Z</time>
      </trkpt>
      <trkpt lat="46.13264" lon="4.53107">
        <ele>572.2</ele>
        <time>2022-05-08T09:20:49Z</time>
      </trkpt>
      <trkpt lat="46.13292" lon="4.53148">
        <ele>571.4</ele>
        <time>2022-05-08T09:20:53Z</time>
      </trkpt>
      <trkpt lat="46.13318" lon="4.53192">
        <ele>567.6</ele>
        <time>2022-05-08T09:20:57Z</time>
      </trkpt>
      <trkpt lat="46.13347" lon="4.53229">
        <ele>564.6</ele>
        <time>2022-05-08T09:21:01Z</time>
      </trkpt>
      <trkpt lat="46.1338" lon="4.53257">
        <ele>563.4</ele>
        <time>2022-05-08T09:21:05Z</time>
      </trkpt>
      <trkpt lat="46.13415" lon="4.53273">
        <ele>558.4</ele>
        <time>2022-05-08T09:21:09Z</time>
      </trkpt>
      <trkpt lat="46.13449" lon="4.53283">
        <ele>556.6</ele>
        <time>2022-05-08T09:21:13Z</time>
      </trkpt>
      <trkpt lat="46.13484" lon="4.53289">
        <ele>555.8</ele>
        <time>2022-05-08T09:21:17Z</time>
      </trkpt>
      <trkpt lat="46.1352" lon="4.53286">
        <ele>555.6</ele>
        <time>2022-05-08T09:21:21Z</time>
      </trkpt>
      <trkpt lat="46.13557" lon="4.53277">
        <ele>552.6</ele>
        <time>2022-05-08T09:21:25Z</time>
      </trkpt>
      <trkpt lat="46.13596" lon="4.53288">
        <ele>549.4</ele>
        <time>2022-05-08T09:21:29Z</time>
      </trkpt>
      <trkpt lat="46.13636" lon="4.53303">
        <ele>544.8</ele>
        <time>2022-05-08T09:21:33Z</time>
      </trkpt>
      <trkpt lat="46.13676" lon="4.53323">
        <ele>538.6</ele>
        <time>2022-05-08T09:21:37Z</time>
      </trkpt>
      <trkpt lat="46.13714" lon="4.53339">
        <ele>538.8</ele>
        <time>2022-05-08T09:21:41Z</time>
      </trkpt>
      <trkpt lat="46.13756" lon="4.53345">
        <ele>538.4</ele>
        <time>2022-05-08T09:21:45Z</time>
      </trkpt>
      <trkpt lat="46.13798" lon="4.53356">
        <ele>533.2</ele>
        <time>2022-05-08T09:21:49Z</time>
      </trkpt>
      <trkpt lat="46.13839" lon="4.53363">
        <ele>528.6</ele>
        <time>2022-05-08T09:21:53Z</time>
      </trkpt>
      <trkpt lat="46.1388" lon="4.53371">
        <ele>528.6</ele>
        <time>2022-05-08T09:21:57Z</time>
      </trkpt>
      <trkpt lat="46.13918" lon="4.53385">
        <ele>525.2</ele>
        <time>2022-05-08T09:22:01Z</time>
      </trkpt>
      <trkpt lat="46.13952" lon="4.53399">
        <ele>523</ele>
        <time>2022-05-08T09:22:05Z</time>
      </trkpt>
      <trkpt lat="46.13977" lon="4.53425">
        <ele>519</ele>
        <time>2022-05-08T09:22:09Z</time>
      </trkpt>
      <trkpt lat="46.1401" lon="4.5344">
        <ele>514.8</ele>
        <time>2022-05-08T09:22:13Z</time>
      </trkpt>
      <trkpt lat="46.14046" lon="4.5345">
        <ele>513</ele>
        <time>2022-05-08T09:22:17Z</time>
      </trkpt>
      <trkpt lat="46.14081" lon="4.53446">
        <ele>512.2</ele>
        <time>2022-05-08T09:22:21Z</time>
      </trkpt>
      <trkpt lat="46.14111" lon="4.53445">
        <ele>513</ele>
        <time>2022-05-08T09:22:25Z</time>
      </trkpt>
      <trkpt lat="46.14108" lon="4.5346">
        <ele>509.4</ele>
        <time>2022-05-08T09:22:29Z</time>
      </trkpt>
      <trkpt lat="46.14087" lon="4.53465">
        <ele>507.2</ele>
        <time>2022-05-08T09:22:33Z</time>
      </trkpt>
      <trkpt lat="46.14064" lon="4.53473">
        <ele>504</ele>
        <time>2022-05-08T09:22:37Z</time>
      </trkpt>
      <trkpt lat="46.1403" lon="4.53479">
        <ele>499.6</ele>
        <time>2022-05-08T09:22:41Z</time>
      </trkpt>
      <trkpt lat="46.13997" lon="4.53472">
        <ele>495.4</ele>
        <time>2022-05-08T09:22:45Z</time>
      </trkpt>
      <trkpt lat="46.13951" lon="4.53482">
        <ele>491.2</ele>
        <time>2022-05-08T09:22:49Z</time>
      </trkpt>
      <trkpt lat="46.13906" lon="4.53509">
        <ele>486</ele>
        <time>2022-05-08T09:22:53Z</time>
      </trkpt>
      <trkpt lat="46.13865" lon="4.53536">
        <ele>485.4</ele>
        <time>2022-05-08T09:22:57Z</time>
      </trkpt>
      <trkpt lat="46.13826" lon="4.53567">
        <ele>481.8</ele>
        <time>2022-05-08T09:23:01Z</time>
      </trkpt>
      <trkpt lat="46.13794" lon="4.53598">
        <ele>479.2</ele>
        <time>2022-05-08T09:23:05Z</time>
      </trkpt>
      <trkpt lat="46.13765" lon="4.53647">
        <ele>477.4</ele>
        <time>2022-05-08T09:23:09Z</time>
      </trkpt>
      <trkpt lat="46.13773" lon="4.53703">
        <ele>472.4</ele>
        <time>2022-05-08T09:23:13Z</time>
      </trkpt>
      <trkpt lat="46.13807" lon="4.53712">
        <ele>473.4</ele>
        <time>2022-05-08T09:23:17Z</time>
      </trkpt>
      <trkpt lat="46.13845" lon="4.53703">
        <ele>470.6</ele>
        <time>2022-05-08T09:23:21Z</time>
      </trkpt>
      <trkpt lat="46.13881" lon="4.53691">
        <ele>467</ele>
        <time>2022-05-08T09:23:25Z</time>
      </trkpt>
      <trkpt lat="46.13919" lon="4.53678">
        <ele>465.6</ele>
        <time>2022-05-08T09:23:29Z</time>
      </trkpt>
      <trkpt lat="46.13957" lon="4.53665">
        <ele>460.8</ele>
        <time>2022-05-08T09:23:33Z</time>
      </trkpt>
      <trkpt lat="46.13996" lon="4.53658">
        <ele>458.6</ele>
        <time>2022-05-08T09:23:37Z</time>
      </trkpt>
      <trkpt lat="46.14033" lon="4.53654">
        <ele>453.6</ele>
        <time>2022-05-08T09:23:41Z</time>
      </trkpt>
      <trkpt lat="46.14072" lon="4.53657">
        <ele>450.8</ele>
        <time>2022-05-08T09:23:45Z</time>
      </trkpt>
      <trkpt lat="46.14115" lon="4.53672">
        <ele>446.6</ele>
        <time>2022-05-08T09:23:49Z</time>
      </trkpt>
      <trkpt lat="46.14156" lon="4.5368">
        <ele>442.6</ele>
        <time>2022-05-08T09:23:53Z</time>
      </trkpt>
      <trkpt lat="46.14192" lon="4.53674">
        <ele>444.4</ele>
        <time>2022-05-08T09:23:57Z</time>
      </trkpt>
      <trkpt lat="46.14232" lon="4.53668">
        <ele>443.4</ele>
        <time>2022-05-08T09:24:01Z</time>
      </trkpt>
      <trkpt lat="46.1427" lon="4.53659">
        <ele>444.6</ele>
        <time>2022-05-08T09:24:05Z</time>
      </trkpt>
      <trkpt lat="46.14297" lon="4.53651">
        <ele>446.2</ele>
        <time>2022-05-08T09:24:09Z</time>
      </trkpt>
      <trkpt lat="46.1432" lon="4.53647">
        <ele>447.6</ele>
        <time>2022-05-08T09:24:13Z</time>
      </trkpt>
      <trkpt lat="46.14341" lon="4.53645">
        <ele>446.8</ele>
        <time>2022-05-08T09:24:17Z</time>
      </trkpt>
      <trkpt lat="46.14363" lon="4.53651">
        <ele>446.6</ele>
        <time>2022-05-08T09:24:21Z</time>
      </trkpt>
      <trkpt lat="46.14384" lon="4.53661">
        <ele>446.4</ele>
        <time>2022-05-08T09:24:25Z</time>
      </trkpt>
      <trkpt lat="46.14406" lon="4.5367">
        <ele>446</ele>
        <time>2022-05-08T09:24:29Z</time>
      </trkpt>
      <trkpt lat="46.14428" lon="4.53679">
        <ele>445.2</ele>
        <time>2022-05-08T09:24:33Z</time>
      </trkpt>
      <trkpt lat="46.14453" lon="4.5369">
        <ele>443</ele>
        <time>2022-05-08T09:24:37Z</time>
      </trkpt>
      <trkpt lat="46.14479" lon="4.53702">
        <ele>440.6</ele>
        <time>2022-05-08T09:24:41Z</time>
      </trkpt>
      <trkpt lat="46.14507" lon="4.53713">
        <ele>436.2</ele>
        <time>2022-05-08T09:24:45Z</time>
      </trkpt>
      <trkpt lat="46.14538" lon="4.53726">
        <ele>434.2</ele>
        <time>2022-05-08T09:24:49Z</time>
      </trkpt>
      <trkpt lat="46.14572" lon="4.53738">
        <ele>429.6</ele>
        <time>2022-05-08T09:24:53Z</time>
      </trkpt>
      <trkpt lat="46.14606" lon="4.53754">
        <ele>424.8</ele>
        <time>2022-05-08T09:24:57Z</time>
      </trkpt>
      <trkpt lat="46.14637" lon="4.53777">
        <ele>420.8</ele>
        <time>2022-05-08T09:25:01Z</time>
      </trkpt>
      <trkpt lat="46.14665" lon="4.53813">
        <ele>418.2</ele>
        <time>2022-05-08T09:25:05Z</time>
      </trkpt>
      <trkpt lat="46.14688" lon="4.53853">
        <ele>418.8</ele>
        <time>2022-05-08T09:25:09Z</time>
      </trkpt>
      <trkpt lat="46.14712" lon="4.53889">
        <ele>417.2</ele>
        <time>2022-05-08T09:25:13Z</time>
      </trkpt>
      <trkpt lat="46.14739" lon="4.53915">
        <ele>414.8</ele>
        <time>2022-05-08T09:25:17Z</time>
      </trkpt>
      <trkpt lat="46.14765" lon="4.53931">
        <ele>413.2</ele>
        <time>2022-05-08T09:25:21Z</time>
      </trkpt>
      <trkpt lat="46.14789" lon="4.53947">
        <ele>414.8</ele>
        <time>2022-05-08T09:25:25Z</time>
      </trkpt>
      <trkpt lat="46.1482" lon="4.53965">
        <ele>411.8</ele>
        <time>2022-05-08T09:25:29Z</time>
      </trkpt>
      <trkpt lat="46.1485" lon="4.53984">
        <ele>410.6</ele>
        <time>2022-05-08T09:25:33Z</time>
      </trkpt>
      <trkpt lat="46.14878" lon="4.54005">
        <ele>411.6</ele>
        <time>2022-05-08T09:25:37Z</time>
      </trkpt>
      <trkpt lat="46.14901" lon="4.5403">
        <ele>407.4</ele>
        <time>2022-05-08T09:25:41Z</time>
      </trkpt>
      <trkpt lat="46.14914" lon="4.5407">
        <ele>406.2</ele>
        <time>2022-05-08T09:25:45Z</time>
      </trkpt>
      <trkpt lat="46.14903" lon="4.54117">
        <ele>404.2</ele>
        <time>2022-05-08T09:25:49Z</time>
      </trkpt>
      <trkpt lat="46.14885" lon="4.54164">
        <ele>398.8</ele>
        <time>2022-05-08T09:25:53Z</time>
      </trkpt>
      <trkpt lat="46.14862" lon="4.54207">
        <ele>398.6</ele>
        <time>2022-05-08T09:25:57Z</time>
      </trkpt>
      <trkpt lat="46.14833" lon="4.5423">
        <ele>396.6</ele>
        <time>2022-05-08T09:26:01Z</time>
      </trkpt>
      <trkpt lat="46.1483" lon="4.54266">
        <ele>392.6</ele>
        <time>2022-05-08T09:26:05Z</time>
      </trkpt>
      <trkpt lat="46.1486" lon="4.54274">
        <ele>387.4</ele>
        <time>2022-05-08T09:26:09Z</time>
      </trkpt>
      <trkpt lat="46.14905" lon="4.54283">
        <ele>386.6</ele>
        <time>2022-05-08T09:26:13Z</time>
      </trkpt>
      <trkpt lat="46.14946" lon="4.54297">
        <ele>381.6</ele>
        <time>2022-05-08T09:26:17Z</time>
      </trkpt>
      <trkpt lat="46.14988" lon="4.54315">
        <ele>376.4</ele>
        <time>2022-05-08T09:26:21Z</time>
      </trkpt>
      <trkpt lat="46.15018" lon="4.54346">
        <ele>371.8</ele>
        <time>2022-05-08T09:26:25Z</time>
      </trkpt>
      <trkpt lat="46.15046" lon="4.54395">
        <ele>371.8</ele>
        <time>2022-05-08T09:26:29Z</time>
      </trkpt>
      <trkpt lat="46.15077" lon="4.54436">
        <ele>366.6</ele>
        <time>2022-05-08T09:26:33Z</time>
      </trkpt>
      <trkpt lat="46.15111" lon="4.54463">
        <ele>363.6</ele>
        <time>2022-05-08T09:26:37Z</time>
      </trkpt>
      <trkpt lat="46.1515" lon="4.5448">
        <ele>360</ele>
        <time>2022-05-08T09:26:41Z</time>
      </trkpt>
      <trkpt lat="46.1518" lon="4.54502">
        <ele>353.2</ele>
        <time>2022-05-08T09:26:45Z</time>
      </trkpt>
      <trkpt lat="46.15209" lon="4.54528">
        <ele>351.4</ele>
        <time>2022-05-08T09:26:49Z</time>
      </trkpt>
      <trkpt lat="46.15239" lon="4.54564">
        <ele>354</ele>
        <time>2022-05-08T09:26:53Z</time>
      </trkpt>
      <trkpt lat="46.1527" lon="4.54593">
        <ele>351.8</ele>
        <time>2022-05-08T09:26:57Z</time>
      </trkpt>
      <trkpt lat="46.15313" lon="4.54608">
        <ele>348.2</ele>
        <time>2022-05-08T09:27:01Z</time>
      </trkpt>
      <trkpt lat="46.1535" lon="4.546">
        <ele>349.6</ele>
        <time>2022-05-08T09:27:05Z</time>
      </trkpt>
      <trkpt lat="46.15383" lon="4.54593">
        <ele>350.4</ele>
        <time>2022-05-08T09:27:09Z</time>
      </trkpt>
      <trkpt lat="46.15404" lon="4.54595">
        <ele>354.2</ele>
        <time>2022-05-08T09:27:13Z</time>
      </trkpt>
      <trkpt lat="46.1542" lon="4.54597">
        <ele>354.4</ele>
        <time>2022-05-08T09:27:17Z</time>
      </trkpt>
      <trkpt lat="46.15433" lon="4.546">
        <ele>355.2</ele>
        <time>2022-05-08T09:27:21Z</time>
      </trkpt>
      <trkpt lat="46.15445" lon="4.54604">
        <ele>355.4</ele>
        <time>2022-05-08T09:27:25Z</time>
      </trkpt>
      <trkpt lat="46.15456" lon="4.54606">
        <ele>355.8</ele>
        <time>2022-05-08T09:27:29Z</time>
      </trkpt>
      <trkpt lat="46.15467" lon="4.54609">
        <ele>355.6</ele>
        <time>2022-05-08T09:27:33Z</time>
      </trkpt>
      <trkpt lat="46.15475" lon="4.54611">
        <ele>355.8</ele>
        <time>2022-05-08T09:27:37Z</time>
      </trkpt>
      <trkpt lat="46.15486" lon="4.54615">
        <ele>357.2</ele>
        <time>2022-05-08T09:27:41Z</time>
      </trkpt>
      <trkpt lat="46.15497" lon="4.54618">
        <ele>355.4</ele>
        <time>2022-05-08T09:27:45Z</time>
      </trkpt>
      <trkpt lat="46.15508" lon="4.5462">
        <ele>357.2</ele>
        <time>2022-05-08T09:27:49Z</time>
      </trkpt>
      <trkpt lat="46.15518" lon="4.54623">
        <ele>358.2</ele>
        <time>2022-05-08T09:27:53Z</time>
      </trkpt>
      <trkpt lat="46.15529" lon="4.54626">
        <ele>358.4</ele>
        <time>2022-05-08T09:27:57Z</time>
      </trkpt>
      <trkpt lat="46.1554" lon="4.54628">
        <ele>358.6</ele>
        <time>2022-05-08T09:28:01Z</time>
      </trkpt>
      <trkpt lat="46.15551" lon="4.54631">
        <ele>359.6</ele>
        <time>2022-05-08T09:28:05Z</time>
      </trkpt>
      <trkpt lat="46.15563" lon="4.54633">
        <ele>359.4</ele>
        <time>2022-05-08T09:28:09Z</time>
      </trkpt>
      <trkpt lat="46.15573" lon="4.54636">
        <ele>359.8</ele>
        <time>2022-05-08T09:28:13Z</time>
      </trkpt>
      <trkpt lat="46.15584" lon="4.54638">
        <ele>359.8</ele>
        <time>2022-05-08T09:28:17Z</time>
      </trkpt>
      <trkpt lat="46.15594" lon="4.5464">
        <ele>360.4</ele>
        <time>2022-05-08T09:28:21Z</time>
      </trkpt>
      <trkpt lat="46.15605" lon="4.54643">
        <ele>360.2</ele>
        <time>2022-05-08T09:28:25Z</time>
      </trkpt>
      <trkpt lat="46.15615" lon="4.54646">
        <ele>360.2</ele>
        <time>2022-05-08T09:28:29Z</time>
      </trkpt>
      <trkpt lat="46.15625" lon="4.54648">
        <ele>361</ele>
        <time>2022-05-08T09:28:33Z</time>
      </trkpt>
      <trkpt lat="46.15634" lon="4.5465">
        <ele>361.4</ele>
        <time>2022-05-08T09:28:37Z</time>
      </trkpt>
      <trkpt lat="46.15643" lon="4.54652">
        <ele>360.4</ele>
        <time>2022-05-08T09:28:41Z</time>
      </trkpt>
      <trkpt lat="46.15653" lon="4.54652">
        <ele>362.2</ele>
        <time>2022-05-08T09:28:45Z</time>
      </trkpt>
      <trkpt lat="46.15662" lon="4.54652">
        <ele>362.4</ele>
        <time>2022-05-08T09:28:49Z</time>
      </trkpt>
      <trkpt lat="46.15671" lon="4.54652">
        <ele>362.8</ele>
        <time>2022-05-08T09:28:53Z</time>
      </trkpt>
      <trkpt lat="46.15681" lon="4.54649">
        <ele>362.8</ele>
        <time>2022-05-08T09:28:57Z</time>
      </trkpt>
      <trkpt lat="46.15692" lon="4.54644">
        <ele>363.4</ele>
        <time>2022-05-08T09:29:01Z</time>
      </trkpt>
      <trkpt lat="46.15705" lon="4.54637">
        <ele>363.4</ele>
        <time>2022-05-08T09:29:05Z</time>
      </trkpt>
      <trkpt lat="46.15719" lon="4.54626">
        <ele>362.6</ele>
        <time>2022-05-08T09:29:09Z</time>
      </trkpt>
      <trkpt lat="46.1573" lon="4.5462">
        <ele>362.6</ele>
        <time>2022-05-08T09:29:13Z</time>
      </trkpt>
      <trkpt lat="46.15742" lon="4.54611">
        <ele>362.2</ele>
        <time>2022-05-08T09:30:26Z</time>
      </trkpt>
      <trkpt lat="46.15757" lon="4.54607">
        <ele>361</ele>
        <time>2022-05-08T09:30:30Z</time>
      </trkpt>
      <trkpt lat="46.15776" lon="4.54608">
        <ele>358.8</ele>
        <time>2022-05-08T09:30:34Z</time>
      </trkpt>
      <trkpt lat="46.15795" lon="4.54619">
        <ele>357.4</ele>
        <time>2022-05-08T09:30:38Z</time>
      </trkpt>
      <trkpt lat="46.15812" lon="4.54639">
        <ele>359</ele>
        <time>2022-05-08T09:30:42Z</time>
      </trkpt>
      <trkpt lat="46.15825" lon="4.54667">
        <ele>357.8</ele>
        <time>2022-05-08T09:30:46Z</time>
      </trkpt>
      <trkpt lat="46.15834" lon="4.54698">
        <ele>357</ele>
        <time>2022-05-08T09:30:50Z</time>
      </trkpt>
      <trkpt lat="46.15842" lon="4.54731">
        <ele>355.2</ele>
        <time>2022-05-08T09:30:54Z</time>
      </trkpt>
      <trkpt lat="46.15851" lon="4.54767">
        <ele>353.6</ele>
        <time>2022-05-08T09:30:58Z</time>
      </trkpt>
      <trkpt lat="46.15857" lon="4.54806">
        <ele>352.4</ele>
        <time>2022-05-08T09:31:02Z</time>
      </trkpt>
      <trkpt lat="46.15861" lon="4.54846">
        <ele>351.2</ele>
        <time>2022-05-08T09:31:06Z</time>
      </trkpt>
      <trkpt lat="46.15865" lon="4.54883">
        <ele>351.2</ele>
        <time>2022-05-08T09:31:10Z</time>
      </trkpt>
      <trkpt lat="46.15869" lon="4.54921">
        <ele>351.8</ele>
        <time>2022-05-08T09:31:14Z</time>
      </trkpt>
      <trkpt lat="46.15873" lon="4.54958">
        <ele>349.2</ele>
        <time>2022-05-08T09:31:18Z</time>
      </trkpt>
      <trkpt lat="46.15877" lon="4.54994">
        <ele>349.4</ele>
        <time>2022-05-08T09:31:22Z</time>
      </trkpt>
      <trkpt lat="46.1588" lon="4.55026">
        <ele>350.6</ele>
        <time>2022-05-08T09:31:26Z</time>
      </trkpt>
      <trkpt lat="46.15882" lon="4.55058">
        <ele>349.8</ele>
        <time>2022-05-08T09:31:30Z</time>
      </trkpt>
      <trkpt lat="46.15891" lon="4.55088">
        <ele>347.4</ele>
        <time>2022-05-08T09:31:34Z</time>
      </trkpt>
      <trkpt lat="46.15907" lon="4.55112">
        <ele>347</ele>
        <time>2022-05-08T09:31:38Z</time>
      </trkpt>
      <trkpt lat="46.15927" lon="4.55127">
        <ele>345</ele>
        <time>2022-05-08T09:31:42Z</time>
      </trkpt>
      <trkpt lat="46.15948" lon="4.55135">
        <ele>346</ele>
        <time>2022-05-08T09:31:46Z</time>
      </trkpt>
      <trkpt lat="46.15969" lon="4.55141">
        <ele>346.2</ele>
        <time>2022-05-08T09:31:50Z</time>
      </trkpt>
      <trkpt lat="46.15989" lon="4.5515">
        <ele>345.2</ele>
        <time>2022-05-08T09:31:54Z</time>
      </trkpt>
      <trkpt lat="46.16007" lon="4.55165">
        <ele>346.4</ele>
        <time>2022-05-08T09:31:58Z</time>
      </trkpt>
      <trkpt lat="46.16021" lon="4.55185">
        <ele>347.4</ele>
        <time>2022-05-08T09:32:02Z</time>
      </trkpt>
      <trkpt lat="46.16031" lon="4.55206">
        <ele>348.4</ele>
        <time>2022-05-08T09:32:06Z</time>
      </trkpt>
      <trkpt lat="46.16039" lon="4.55229">
        <ele>348</ele>
        <time>2022-05-08T09:32:10Z</time>
      </trkpt>
      <trkpt lat="46.16047" lon="4.55252">
        <ele>348.2</ele>
        <time>2022-05-08T09:32:14Z</time>
      </trkpt>
      <trkpt lat="46.16054" lon="4.55277">
        <ele>347</ele>
        <time>2022-05-08T09:32:18Z</time>
      </trkpt>
      <trkpt lat="46.16062" lon="4.55302">
        <ele>347</ele>
        <time>2022-05-08T09:32:22Z</time>
      </trkpt>
      <trkpt lat="46.16072" lon="4.55327">
        <ele>345.2</ele>
        <time>2022-05-08T09:32:26Z</time>
      </trkpt>
      <trkpt lat="46.16083" lon="4.55353">
        <ele>345.4</ele>
        <time>2022-05-08T09:32:30Z</time>
      </trkpt>
      <trkpt lat="46.16098" lon="4.55379">
        <ele>344</ele>
        <time>2022-05-08T09:32:34Z</time>
      </trkpt>
      <trkpt lat="46.16114" lon="4.55407">
        <ele>341.8</ele>
        <time>2022-05-08T09:32:38Z</time>
      </trkpt>
      <trkpt lat="46.16132" lon="4.55434">
        <ele>341.2</ele>
        <time>2022-05-08T09:32:42Z</time>
      </trkpt>
      <trkpt lat="46.16157" lon="4.55454">
        <ele>336.2</ele>
        <time>2022-05-08T09:32:46Z</time>
      </trkpt>
      <trkpt lat="46.16188" lon="4.55462">
        <ele>333.6</ele>
        <time>2022-05-08T09:32:50Z</time>
      </trkpt>
      <trkpt lat="46.16222" lon="4.55468">
        <ele>331.4</ele>
        <time>2022-05-08T09:32:54Z</time>
      </trkpt>
      <trkpt lat="46.16258" lon="4.55475">
        <ele>325.6</ele>
        <time>2022-05-08T09:32:58Z</time>
      </trkpt>
      <trkpt lat="46.16295" lon="4.55487">
        <ele>326.2</ele>
        <time>2022-05-08T09:33:02Z</time>
      </trkpt>
      <trkpt lat="46.16324" lon="4.55509">
        <ele>328.2</ele>
        <time>2022-05-08T09:33:06Z</time>
      </trkpt>
      <trkpt lat="46.16343" lon="4.55527">
        <ele>332.4</ele>
        <time>2022-05-08T09:33:10Z</time>
      </trkpt>
      <trkpt lat="46.16357" lon="4.5554">
        <ele>334</ele>
        <time>2022-05-08T09:33:14Z</time>
      </trkpt>
      <trkpt lat="46.16371" lon="4.55552">
        <ele>334.8</ele>
        <time>2022-05-08T09:33:18Z</time>
      </trkpt>
      <trkpt lat="46.16382" lon="4.55563">
        <ele>334.6</ele>
        <time>2022-05-08T09:33:22Z</time>
      </trkpt>
      <trkpt lat="46.16395" lon="4.55574">
        <ele>335.8</ele>
        <time>2022-05-08T09:33:26Z</time>
      </trkpt>
      <trkpt lat="46.16412" lon="4.55589">
        <ele>334.8</ele>
        <time>2022-05-08T09:33:30Z</time>
      </trkpt>
      <trkpt lat="46.1643" lon="4.55605">
        <ele>333</ele>
        <time>2022-05-08T09:33:34Z</time>
      </trkpt>
      <trkpt lat="46.16447" lon="4.55622">
        <ele>333.6</ele>
        <time>2022-05-08T09:33:38Z</time>
      </trkpt>
      <trkpt lat="46.16464" lon="4.5564">
        <ele>333</ele>
        <time>2022-05-08T09:33:42Z</time>
      </trkpt>
      <trkpt lat="46.16476" lon="4.55662">
        <ele>332.8</ele>
        <time>2022-05-08T09:33:46Z</time>
      </trkpt>
      <trkpt lat="46.16484" lon="4.55689">
        <ele>331.8</ele>
        <time>2022-05-08T09:33:50Z</time>
      </trkpt>
      <trkpt lat="46.1649" lon="4.55719">
        <ele>330.6</ele>
        <time>2022-05-08T09:33:54Z</time>
      </trkpt>
      <trkpt lat="46.16494" lon="4.55753">
        <ele>328.8</ele>
        <time>2022-05-08T09:33:58Z</time>
      </trkpt>
      <trkpt lat="46.16497" lon="4.55788">
        <ele>328.2</ele>
        <time>2022-05-08T09:34:02Z</time>
      </trkpt>
      <trkpt lat="46.16501" lon="4.55826">
        <ele>327.4</ele>
        <time>2022-05-08T09:34:06Z</time>
      </trkpt>
      <trkpt lat="46.16503" lon="4.55867">
        <ele>325.8</ele>
        <time>2022-05-08T09:34:10Z</time>
      </trkpt>
      <trkpt lat="46.16498" lon="4.5591">
        <ele>323</ele>
        <time>2022-05-08T09:34:14Z</time>
      </trkpt>
      <trkpt lat="46.16482" lon="4.55952">
        <ele>320.6</ele>
        <time>2022-05-08T09:34:18Z</time>
      </trkpt>
      <trkpt lat="46.16462" lon="4.55994">
        <ele>319</ele>
        <time>2022-05-08T09:34:22Z</time>
      </trkpt>
      <trkpt lat="46.16455" lon="4.56043">
        <ele>316</ele>
        <time>2022-05-08T09:34:26Z</time>
      </trkpt>
      <trkpt lat="46.16478" lon="4.56078">
        <ele>311.6</ele>
        <time>2022-05-08T09:34:30Z</time>
      </trkpt>
      <trkpt lat="46.16511" lon="4.56072">
        <ele>311.6</ele>
        <time>2022-05-08T09:34:34Z</time>
      </trkpt>
      <trkpt lat="46.16543" lon="4.56049">
        <ele>309.4</ele>
        <time>2022-05-08T09:34:38Z</time>
      </trkpt>
      <trkpt lat="46.16572" lon="4.56018">
        <ele>306</ele>
        <time>2022-05-08T09:34:42Z</time>
      </trkpt>
      <trkpt lat="46.16597" lon="4.55977">
        <ele>301.4</ele>
        <time>2022-05-08T09:34:46Z</time>
      </trkpt>
      <trkpt lat="46.16618" lon="4.55944">
        <ele>301</ele>
        <time>2022-05-08T09:34:50Z</time>
      </trkpt>
      <trkpt lat="46.16646" lon="4.55941">
        <ele>301.6</ele>
        <time>2022-05-08T09:34:54Z</time>
      </trkpt>
      <trkpt lat="46.16658" lon="4.55951">
        <ele>302.8</ele>
        <time>2022-05-08T09:34:58Z</time>
      </trkpt>
      <trkpt lat="46.16665" lon="4.55965">
        <ele>301.8</ele>
        <time>2022-05-08T09:38:46Z</time>
      </trkpt>
      <trkpt lat="46.16659" lon="4.55979">
        <ele>302.2</ele>
        <time>2022-05-08T09:38:50Z</time>
      </trkpt>
      <trkpt lat="46.16651" lon="4.56004">
        <ele>300.2</ele>
        <time>2022-05-08T09:38:54Z</time>
      </trkpt>
      <trkpt lat="46.16641" lon="4.56035">
        <ele>299.6</ele>
        <time>2022-05-08T09:38:58Z</time>
      </trkpt>
      <trkpt lat="46.1663" lon="4.56068">
        <ele>299.2</ele>
        <time>2022-05-08T09:39:02Z</time>
      </trkpt>
      <trkpt lat="46.16618" lon="4.561">
        <ele>298.2</ele>
        <time>2022-05-08T09:39:06Z</time>
      </trkpt>
      <trkpt lat="46.16606" lon="4.56133">
        <ele>297.4</ele>
        <time>2022-05-08T09:39:10Z</time>
      </trkpt>
      <trkpt lat="46.16593" lon="4.56166">
        <ele>295.2</ele>
        <time>2022-05-08T09:39:14Z</time>
      </trkpt>
      <trkpt lat="46.16584" lon="4.562">
        <ele>295.8</ele>
        <time>2022-05-08T09:39:18Z</time>
      </trkpt>
      <trkpt lat="46.16574" lon="4.56236">
        <ele>293.8</ele>
        <time>2022-05-08T09:39:22Z</time>
      </trkpt>
      <trkpt lat="46.16561" lon="4.5627">
        <ele>294.4</ele>
        <time>2022-05-08T09:39:26Z</time>
      </trkpt>
      <trkpt lat="46.16551" lon="4.56306">
        <ele>293.2</ele>
        <time>2022-05-08T09:39:30Z</time>
      </trkpt>
      <trkpt lat="46.1654" lon="4.56343">
        <ele>291.6</ele>
        <time>2022-05-08T09:39:34Z</time>
      </trkpt>
      <trkpt lat="46.16527" lon="4.56382">
        <ele>290</ele>
        <time>2022-05-08T09:39:38Z</time>
      </trkpt>
      <trkpt lat="46.16513" lon="4.56422">
        <ele>288</ele>
        <time>2022-05-08T09:39:42Z</time>
      </trkpt>
      <trkpt lat="46.16495" lon="4.56463">
        <ele>285.2</ele>
        <time>2022-05-08T09:39:46Z</time>
      </trkpt>
      <trkpt lat="46.16473" lon="4.565">
        <ele>283.6</ele>
        <time>2022-05-08T09:39:50Z</time>
      </trkpt>
      <trkpt lat="46.16451" lon="4.56541">
        <ele>281.2</ele>
        <time>2022-05-08T09:39:54Z</time>
      </trkpt>
      <trkpt lat="46.16434" lon="4.56583">
        <ele>281.8</ele>
        <time>2022-05-08T09:39:58Z</time>
      </trkpt>
      <trkpt lat="46.16424" lon="4.56625">
        <ele>283.4</ele>
        <time>2022-05-08T09:40:02Z</time>
      </trkpt>
      <trkpt lat="46.16419" lon="4.56664">
        <ele>285.2</ele>
        <time>2022-05-08T09:40:06Z</time>
      </trkpt>
      <trkpt lat="46.16415" lon="4.56697">
        <ele>286.6</ele>
        <time>2022-05-08T09:40:10Z</time>
      </trkpt>
      <trkpt lat="46.16414" lon="4.56727">
        <ele>286.4</ele>
        <time>2022-05-08T09:40:14Z</time>
      </trkpt>
      <trkpt lat="46.16411" lon="4.56753">
        <ele>288</ele>
        <time>2022-05-08T09:40:18Z</time>
      </trkpt>
      <trkpt lat="46.16409" lon="4.56779">
        <ele>287.6</ele>
        <time>2022-05-08T09:40:22Z</time>
      </trkpt>
      <trkpt lat="46.16407" lon="4.56805">
        <ele>288.4</ele>
        <time>2022-05-08T09:40:26Z</time>
      </trkpt>
      <trkpt lat="46.16404" lon="4.56833">
        <ele>288.2</ele>
        <time>2022-05-08T09:40:30Z</time>
      </trkpt>
      <trkpt lat="46.16401" lon="4.56863">
        <ele>287.8</ele>
        <time>2022-05-08T09:40:34Z</time>
      </trkpt>
      <trkpt lat="46.16394" lon="4.56894">
        <ele>285.6</ele>
        <time>2022-05-08T09:40:38Z</time>
      </trkpt>
      <trkpt lat="46.16382" lon="4.56927">
        <ele>285.2</ele>
        <time>2022-05-08T09:40:42Z</time>
      </trkpt>
      <trkpt lat="46.16364" lon="4.56957">
        <ele>281.8</ele>
        <time>2022-05-08T09:40:46Z</time>
      </trkpt>
      <trkpt lat="46.1634" lon="4.56981">
        <ele>281.6</ele>
        <time>2022-05-08T09:40:50Z</time>
      </trkpt>
      <trkpt lat="46.16315" lon="4.56999">
        <ele>282.2</ele>
        <time>2022-05-08T09:40:54Z</time>
      </trkpt>
      <trkpt lat="46.16296" lon="4.57017">
        <ele>279.2</ele>
        <time>2022-05-08T09:40:58Z</time>
      </trkpt>
      <trkpt lat="46.16287" lon="4.57034">
        <ele>279</ele>
        <time>2022-05-08T09:41:02Z</time>
      </trkpt>
      <trkpt lat="46.1628" lon="4.5705">
        <ele>278.4</ele>
        <time>2022-05-08T09:41:06Z</time>
      </trkpt>
      <trkpt lat="46.16273" lon="4.57075">
        <ele>277.8</ele>
        <time>2022-05-08T09:41:10Z</time>
      </trkpt>
      <trkpt lat="46.16261" lon="4.57102">
        <ele>274.2</ele>
        <time>2022-05-08T09:41:14Z</time>
      </trkpt>
      <trkpt lat="46.16247" lon="4.57132">
        <ele>273.8</ele>
        <time>2022-05-08T09:41:18Z</time>
      </trkpt>
      <trkpt lat="46.16235" lon="4.57167">
        <ele>273.6</ele>
        <time>2022-05-08T09:41:22Z</time>
      </trkpt>
      <trkpt lat="46.16223" lon="4.57205">
        <ele>270.8</ele>
        <time>2022-05-08T09:41:26Z</time>
      </trkpt>
      <trkpt lat="46.16216" lon="4.57244">
        <ele>271.4</ele>
        <time>2022-05-08T09:41:30Z</time>
      </trkpt>
      <trkpt lat="46.16205" lon="4.57285">
        <ele>270.6</ele>
        <time>2022-05-08T09:41:34Z</time>
      </trkpt>
      <trkpt lat="46.16192" lon="4.57327">
        <ele>270</ele>
        <time>2022-05-08T09:41:38Z</time>
      </trkpt>
      <trkpt lat="46.16179" lon="4.5736">
        <ele>270.6</ele>
        <time>2022-05-08T09:41:42Z</time>
      </trkpt>
      <trkpt lat="46.16171" lon="4.5738">
        <ele>270.4</ele>
        <time>2022-05-08T09:41:46Z</time>
      </trkpt>
      <trkpt lat="46.16165" lon="4.57401">
        <ele>269.2</ele>
        <time>2022-05-08T09:42:01Z</time>
      </trkpt>
      <trkpt lat="46.16158" lon="4.5742">
        <ele>268.2</ele>
        <time>2022-05-08T09:42:05Z</time>
      </trkpt>
      <trkpt lat="46.1615" lon="4.57439">
        <ele>268.6</ele>
        <time>2022-05-08T09:42:09Z</time>
      </trkpt>
      <trkpt lat="46.16143" lon="4.5745">
        <ele>269</ele>
        <time>2022-05-08T09:42:13Z</time>
      </trkpt>
      <trkpt lat="46.1614" lon="4.57461">
        <ele>268</ele>
        <time>2022-05-08T09:42:52Z</time>
      </trkpt>
      <trkpt lat="46.1613" lon="4.57487">
        <ele>267</ele>
        <time>2022-05-08T09:43:09Z</time>
      </trkpt>
      <trkpt lat="46.16121" lon="4.57508">
        <ele>265.6</ele>
        <time>2022-05-08T09:43:13Z</time>
      </trkpt>
      <trkpt lat="46.16113" lon="4.57533">
        <ele>264.2</ele>
        <time>2022-05-08T09:43:17Z</time>
      </trkpt>
      <trkpt lat="46.16102" lon="4.57559">
        <ele>264.2</ele>
        <time>2022-05-08T09:43:21Z</time>
      </trkpt>
      <trkpt lat="46.16089" lon="4.57588">
        <ele>263.8</ele>
        <time>2022-05-08T09:43:25Z</time>
      </trkpt>
      <trkpt lat="46.16072" lon="4.5762">
        <ele>263.6</ele>
        <time>2022-05-08T09:43:29Z</time>
      </trkpt>
      <trkpt lat="46.16058" lon="4.5765">
        <ele>261.6</ele>
        <time>2022-05-08T09:43:33Z</time>
      </trkpt>
      <trkpt lat="46.16046" lon="4.5768">
        <ele>261.2</ele>
        <time>2022-05-08T09:43:37Z</time>
      </trkpt>
      <trkpt lat="46.1603" lon="4.57702">
        <ele>260.8</ele>
        <time>2022-05-08T09:43:41Z</time>
      </trkpt>
      <trkpt lat="46.16019" lon="4.57731">
        <ele>259.8</ele>
        <time>2022-05-08T09:43:45Z</time>
      </trkpt>
      <trkpt lat="46.16004" lon="4.57759">
        <ele>260</ele>
        <time>2022-05-08T09:43:49Z</time>
      </trkpt>
      <trkpt lat="46.15996" lon="4.57789">
        <ele>260</ele>
        <time>2022-05-08T09:43:53Z</time>
      </trkpt>
      <trkpt lat="46.15987" lon="4.57822">
        <ele>259</ele>
        <time>2022-05-08T09:43:57Z</time>
      </trkpt>
      <trkpt lat="46.15975" lon="4.57855">
        <ele>258</ele>
        <time>2022-05-08T09:44:01Z</time>
      </trkpt>
      <trkpt lat="46.15961" lon="4.5789">
        <ele>258.4</ele>
        <time>2022-05-08T09:44:05Z</time>
      </trkpt>
      <trkpt lat="46.15948" lon="4.57926">
        <ele>258.6</ele>
        <time>2022-05-08T09:44:09Z</time>
      </trkpt>
      <trkpt lat="46.15933" lon="4.57962">
        <ele>258.4</ele>
        <time>2022-05-08T09:44:13Z</time>
      </trkpt>
      <trkpt lat="46.15934" lon="4.58008">
        <ele>256.8</ele>
        <time>2022-05-08T09:44:17Z</time>
      </trkpt>
      <trkpt lat="46.15922" lon="4.5805">
        <ele>256.4</ele>
        <time>2022-05-08T09:44:21Z</time>
      </trkpt>
      <trkpt lat="46.15916" lon="4.58086">
        <ele>255.6</ele>
        <time>2022-05-08T09:44:25Z</time>
      </trkpt>
      <trkpt lat="46.15905" lon="4.58117">
        <ele>253.8</ele>
        <time>2022-05-08T09:44:29Z</time>
      </trkpt>
      <trkpt lat="46.15894" lon="4.58149">
        <ele>252.8</ele>
        <time>2022-05-08T09:44:33Z</time>
      </trkpt>
      <trkpt lat="46.15874" lon="4.5817">
        <ele>252.8</ele>
        <time>2022-05-08T09:44:37Z</time>
      </trkpt>
      <trkpt lat="46.15854" lon="4.58185">
        <ele>252</ele>
        <time>2022-05-08T09:44:41Z</time>
      </trkpt>
      <trkpt lat="46.15833" lon="4.58205">
        <ele>250.6</ele>
        <time>2022-05-08T09:44:45Z</time>
      </trkpt>
      <trkpt lat="46.15819" lon="4.58225">
        <ele>251.4</ele>
        <time>2022-05-08T09:44:49Z</time>
      </trkpt>
      <trkpt lat="46.15807" lon="4.5824">
        <ele>252</ele>
        <time>2022-05-08T09:44:53Z</time>
      </trkpt>
      <trkpt lat="46.158" lon="4.58264">
        <ele>251.2</ele>
        <time>2022-05-08T09:44:57Z</time>
      </trkpt>
      <trkpt lat="46.15787" lon="4.58281">
        <ele>251.4</ele>
        <time>2022-05-08T09:45:01Z</time>
      </trkpt>
      <trkpt lat="46.15768" lon="4.58295">
        <ele>250.2</ele>
        <time>2022-05-08T09:45:05Z</time>
      </trkpt>
      <trkpt lat="46.15754" lon="4.58307">
        <ele>250.6</ele>
        <time>2022-05-08T09:45:09Z</time>
      </trkpt>
      <trkpt lat="46.1574" lon="4.58323">
        <ele>250</ele>
        <time>2022-05-08T09:45:13Z</time>
      </trkpt>
      <trkpt lat="46.15727" lon="4.58351">
        <ele>250.2</ele>
        <time>2022-05-08T09:45:17Z</time>
      </trkpt>
      <trkpt lat="46.15711" lon="4.58372">
        <ele>250.2</ele>
        <time>2022-05-08T09:45:21Z</time>
      </trkpt>
      <trkpt lat="46.15696" lon="4.5839">
        <ele>249.8</ele>
        <time>2022-05-08T09:45:25Z</time>
      </trkpt>
      <trkpt lat="46.15687" lon="4.58404">
        <ele>249.4</ele>
        <time>2022-05-08T09:45:29Z</time>
      </trkpt>
      <trkpt lat="46.15678" lon="4.58416">
        <ele>249.4</ele>
        <time>2022-05-08T09:45:33Z</time>
      </trkpt>
      <trkpt lat="46.15669" lon="4.58427">
        <ele>250</ele>
        <time>2022-05-08T09:45:37Z</time>
      </trkpt>
      <trkpt lat="46.1566" lon="4.58442">
        <ele>250.8</ele>
        <time>2022-05-08T09:45:41Z</time>
      </trkpt>
      <trkpt lat="46.15641" lon="4.58444">
        <ele>250.8</ele>
        <time>2022-05-08T09:45:45Z</time>
      </trkpt>
      <trkpt lat="46.15626" lon="4.58454">
        <ele>250.4</ele>
        <time>2022-05-08T09:45:49Z</time>
      </trkpt>
      <trkpt lat="46.15614" lon="4.58461">
        <ele>250.2</ele>
        <time>2022-05-08T09:45:53Z</time>
      </trkpt>
      <trkpt lat="46.15603" lon="4.58464">
        <ele>249.2</ele>
        <time>2022-05-08T09:45:57Z</time>
      </trkpt>
      <trkpt lat="46.15594" lon="4.58461">
        <ele>248.4</ele>
        <time>2022-05-08T09:46:01Z</time>
      </trkpt>
      <trkpt lat="46.15594" lon="4.58464">
        <ele>248.8</ele>
        <time>2022-05-08T09:52:20Z</time>
      </trkpt>
      <trkpt lat="46.15601" lon="4.58463">
        <ele>248.4</ele>
        <time>2022-05-08T09:52:24Z</time>
      </trkpt>
      <trkpt lat="46.15609" lon="4.58463">
        <ele>249</ele>
        <time>2022-05-08T09:52:28Z</time>
      </trkpt>
      <trkpt lat="46.15619" lon="4.58463">
        <ele>250</ele>
        <time>2022-05-08T09:52:32Z</time>
      </trkpt>
      <trkpt lat="46.15628" lon="4.58456">
        <ele>250</ele>
        <time>2022-05-08T09:52:36Z</time>
      </trkpt>
      <trkpt lat="46.15639" lon="4.58451">
        <ele>251</ele>
        <time>2022-05-08T09:52:40Z</time>
      </trkpt>
      <trkpt lat="46.15646" lon="4.58443">
        <ele>249.6</ele>
        <time>2022-05-08T09:52:44Z</time>
      </trkpt>
      <trkpt lat="46.15664" lon="4.58431">
        <ele>248.6</ele>
        <time>2022-05-08T09:52:48Z</time>
      </trkpt>
      <trkpt lat="46.15674" lon="4.58417">
        <ele>248.4</ele>
        <time>2022-05-08T09:52:52Z</time>
      </trkpt>
      <trkpt lat="46.15683" lon="4.58402">
        <ele>247.2</ele>
        <time>2022-05-08T09:52:56Z</time>
      </trkpt>
      <trkpt lat="46.15688" lon="4.58387">
        <ele>246.8</ele>
        <time>2022-05-08T09:53:00Z</time>
      </trkpt>
      <trkpt lat="46.15696" lon="4.58373">
        <ele>248.8</ele>
        <time>2022-05-08T09:53:04Z</time>
      </trkpt>
      <trkpt lat="46.157" lon="4.58361">
        <ele>248</ele>
        <time>2022-05-08T09:53:08Z</time>
      </trkpt>
      <trkpt lat="46.15718" lon="4.58352">
        <ele>247.8</ele>
        <time>2022-05-08T09:53:12Z</time>
      </trkpt>
      <trkpt lat="46.15734" lon="4.58343">
        <ele>248.6</ele>
        <time>2022-05-08T09:53:16Z</time>
      </trkpt>
      <trkpt lat="46.15749" lon="4.58331">
        <ele>249.6</ele>
        <time>2022-05-08T09:53:20Z</time>
      </trkpt>
      <trkpt lat="46.15758" lon="4.58316">
        <ele>250</ele>
        <time>2022-05-08T09:53:24Z</time>
      </trkpt>
      <trkpt lat="46.1577" lon="4.58302">
        <ele>249.2</ele>
        <time>2022-05-08T09:53:28Z</time>
      </trkpt>
      <trkpt lat="46.15777" lon="4.5829">
        <ele>248.8</ele>
        <time>2022-05-08T09:53:32Z</time>
      </trkpt>
      <trkpt lat="46.15787" lon="4.58278">
        <ele>250.2</ele>
        <time>2022-05-08T09:53:36Z</time>
      </trkpt>
      <trkpt lat="46.15799" lon="4.58262">
        <ele>250.6</ele>
        <time>2022-05-08T09:53:40Z</time>
      </trkpt>
      <trkpt lat="46.1581" lon="4.58245">
        <ele>250.2</ele>
        <time>2022-05-08T09:53:44Z</time>
      </trkpt>
      <trkpt lat="46.15822" lon="4.58228">
        <ele>251.2</ele>
        <time>2022-05-08T09:53:48Z</time>
      </trkpt>
      <trkpt lat="46.1583" lon="4.58215">
        <ele>250.8</ele>
        <time>2022-05-08T09:53:52Z</time>
      </trkpt>
      <trkpt lat="46.15844" lon="4.58202">
        <ele>251.6</ele>
        <time>2022-05-08T09:53:56Z</time>
      </trkpt>
      <trkpt lat="46.15855" lon="4.58189">
        <ele>251.6</ele>
        <time>2022-05-08T09:54:00Z</time>
      </trkpt>
      <trkpt lat="46.15869" lon="4.58177">
        <ele>251.6</ele>
        <time>2022-05-08T09:54:04Z</time>
      </trkpt>
      <trkpt lat="46.15881" lon="4.58164">
        <ele>249.8</ele>
        <time>2022-05-08T09:54:08Z</time>
      </trkpt>
      <trkpt lat="46.1589" lon="4.58148">
        <ele>251.2</ele>
        <time>2022-05-08T09:54:12Z</time>
      </trkpt>
      <trkpt lat="46.15894" lon="4.58132">
        <ele>252.2</ele>
        <time>2022-05-08T09:54:16Z</time>
      </trkpt>
      <trkpt lat="46.15901" lon="4.58119">
        <ele>251.6</ele>
        <time>2022-05-08T09:54:20Z</time>
      </trkpt>
      <trkpt lat="46.15907" lon="4.58103">
        <ele>252.6</ele>
        <time>2022-05-08T09:54:24Z</time>
      </trkpt>
      <trkpt lat="46.15914" lon="4.58089">
        <ele>253.8</ele>
        <time>2022-05-08T09:54:28Z</time>
      </trkpt>
      <trkpt lat="46.1592" lon="4.58072">
        <ele>254.4</ele>
        <time>2022-05-08T09:54:32Z</time>
      </trkpt>
      <trkpt lat="46.15927" lon="4.58056">
        <ele>253.2</ele>
        <time>2022-05-08T09:54:36Z</time>
      </trkpt>
      <trkpt lat="46.1593" lon="4.5804">
        <ele>253.6</ele>
        <time>2022-05-08T09:54:40Z</time>
      </trkpt>
      <trkpt lat="46.15936" lon="4.58025">
        <ele>255.2</ele>
        <time>2022-05-08T09:54:44Z</time>
      </trkpt>
      <trkpt lat="46.15942" lon="4.58009">
        <ele>256.4</ele>
        <time>2022-05-08T09:54:48Z</time>
      </trkpt>
      <trkpt lat="46.15947" lon="4.57994">
        <ele>256</ele>
        <time>2022-05-08T09:54:52Z</time>
      </trkpt>
      <trkpt lat="46.15951" lon="4.57978">
        <ele>255.8</ele>
        <time>2022-05-08T09:54:56Z</time>
      </trkpt>
      <trkpt lat="46.1596" lon="4.57963">
        <ele>256</ele>
        <time>2022-05-08T09:55:00Z</time>
      </trkpt>
      <trkpt lat="46.15962" lon="4.57947">
        <ele>255.2</ele>
        <time>2022-05-08T09:55:04Z</time>
      </trkpt>
      <trkpt lat="46.15964" lon="4.5793">
        <ele>255.4</ele>
        <time>2022-05-08T09:55:08Z</time>
      </trkpt>
      <trkpt lat="46.15967" lon="4.57914">
        <ele>255.4</ele>
        <time>2022-05-08T09:55:12Z</time>
      </trkpt>
      <trkpt lat="46.15969" lon="4.57897">
        <ele>257.2</ele>
        <time>2022-05-08T09:55:16Z</time>
      </trkpt>
      <trkpt lat="46.15972" lon="4.5788">
        <ele>257.6</ele>
        <time>2022-05-08T09:55:20Z</time>
      </trkpt>
      <trkpt lat="46.15977" lon="4.57864">
        <ele>257.2</ele>
        <time>2022-05-08T09:55:24Z</time>
      </trkpt>
      <trkpt lat="46.15984" lon="4.57847">
        <ele>258</ele>
        <time>2022-05-08T09:55:28Z</time>
      </trkpt>
      <trkpt lat="46.15989" lon="4.57831">
        <ele>257.8</ele>
        <time>2022-05-08T09:55:32Z</time>
      </trkpt>
      <trkpt lat="46.15991" lon="4.57815">
        <ele>259.4</ele>
        <time>2022-05-08T09:55:36Z</time>
      </trkpt>
      <trkpt lat="46.16" lon="4.57801">
        <ele>259.4</ele>
        <time>2022-05-08T09:55:40Z</time>
      </trkpt>
      <trkpt lat="46.16003" lon="4.57785">
        <ele>259.2</ele>
        <time>2022-05-08T09:55:44Z</time>
      </trkpt>
      <trkpt lat="46.1601" lon="4.5777">
        <ele>259.8</ele>
        <time>2022-05-08T09:55:48Z</time>
      </trkpt>
      <trkpt lat="46.16017" lon="4.57755">
        <ele>260.4</ele>
        <time>2022-05-08T09:55:52Z</time>
      </trkpt>
      <trkpt lat="46.16021" lon="4.57738">
        <ele>260.8</ele>
        <time>2022-05-08T09:55:56Z</time>
      </trkpt>
      <trkpt lat="46.16028" lon="4.57724">
        <ele>262.2</ele>
        <time>2022-05-08T09:56:00Z</time>
      </trkpt>
      <trkpt lat="46.16034" lon="4.57709">
        <ele>262.2</ele>
        <time>2022-05-08T09:56:04Z</time>
      </trkpt>
      <trkpt lat="46.16041" lon="4.57694">
        <ele>262.2</ele>
        <time>2022-05-08T09:56:08Z</time>
      </trkpt>
      <trkpt lat="46.16047" lon="4.57679">
        <ele>262.8</ele>
        <time>2022-05-08T09:56:12Z</time>
      </trkpt>
      <trkpt lat="46.16051" lon="4.57663">
        <ele>262.8</ele>
        <time>2022-05-08T09:56:16Z</time>
      </trkpt>
      <trkpt lat="46.16056" lon="4.57647">
        <ele>263.8</ele>
        <time>2022-05-08T09:56:20Z</time>
      </trkpt>
      <trkpt lat="46.16065" lon="4.57633">
        <ele>264</ele>
        <time>2022-05-08T09:56:24Z</time>
      </trkpt>
      <trkpt lat="46.16072" lon="4.57617">
        <ele>265</ele>
        <time>2022-05-08T09:56:28Z</time>
      </trkpt>
      <trkpt lat="46.16078" lon="4.57602">
        <ele>264.8</ele>
        <time>2022-05-08T09:56:32Z</time>
      </trkpt>
      <trkpt lat="46.16084" lon="4.57587">
        <ele>266.2</ele>
        <time>2022-05-08T09:56:36Z</time>
      </trkpt>
      <trkpt lat="46.16093" lon="4.57572">
        <ele>266.6</ele>
        <time>2022-05-08T09:56:40Z</time>
      </trkpt>
      <trkpt lat="46.16101" lon="4.57557">
        <ele>267</ele>
        <time>2022-05-08T09:56:44Z</time>
      </trkpt>
      <trkpt lat="46.16106" lon="4.57541">
        <ele>267</ele>
        <time>2022-05-08T09:56:48Z</time>
      </trkpt>
      <trkpt lat="46.16112" lon="4.57527">
        <ele>268.2</ele>
        <time>2022-05-08T09:56:52Z</time>
      </trkpt>
      <trkpt lat="46.16118" lon="4.57512">
        <ele>268.2</ele>
        <time>2022-05-08T09:56:56Z</time>
      </trkpt>
      <trkpt lat="46.16125" lon="4.57496">
        <ele>268.6</ele>
        <time>2022-05-08T09:57:00Z</time>
      </trkpt>
      <trkpt lat="46.16131" lon="4.57481">
        <ele>268.2</ele>
        <time>2022-05-08T09:57:04Z</time>
      </trkpt>
      <trkpt lat="46.16137" lon="4.57465">
        <ele>269.2</ele>
        <time>2022-05-08T09:57:08Z</time>
      </trkpt>
      <trkpt lat="46.16143" lon="4.57449">
        <ele>269.2</ele>
        <time>2022-05-08T09:57:12Z</time>
      </trkpt>
      <trkpt lat="46.1615" lon="4.57433">
        <ele>268.8</ele>
        <time>2022-05-08T09:57:16Z</time>
      </trkpt>
      <trkpt lat="46.16156" lon="4.57417">
        <ele>269.6</ele>
        <time>2022-05-08T09:57:20Z</time>
      </trkpt>
      <trkpt lat="46.16162" lon="4.57403">
        <ele>270.4</ele>
        <time>2022-05-08T09:57:24Z</time>
      </trkpt>
      <trkpt lat="46.16167" lon="4.57387">
        <ele>270.2</ele>
        <time>2022-05-08T09:57:28Z</time>
      </trkpt>
      <trkpt lat="46.16175" lon="4.57371">
        <ele>270.6</ele>
        <time>2022-05-08T09:57:32Z</time>
      </trkpt>
      <trkpt lat="46.16181" lon="4.57356">
        <ele>271.4</ele>
        <time>2022-05-08T09:57:36Z</time>
      </trkpt>
      <trkpt lat="46.16186" lon="4.5734">
        <ele>272</ele>
        <time>2022-05-08T09:57:40Z</time>
      </trkpt>
      <trkpt lat="46.16195" lon="4.57326">
        <ele>272.6</ele>
        <time>2022-05-08T09:57:44Z</time>
      </trkpt>
      <trkpt lat="46.162" lon="4.5731">
        <ele>273.2</ele>
        <time>2022-05-08T09:57:48Z</time>
      </trkpt>
      <trkpt lat="46.16205" lon="4.57293">
        <ele>273.2</ele>
        <time>2022-05-08T09:57:52Z</time>
      </trkpt>
      <trkpt lat="46.16211" lon="4.57277">
        <ele>274</ele>
        <time>2022-05-08T09:57:56Z</time>
      </trkpt>
      <trkpt lat="46.16217" lon="4.57262">
        <ele>274.2</ele>
        <time>2022-05-08T09:58:00Z</time>
      </trkpt>
      <trkpt lat="46.16222" lon="4.57245">
        <ele>274.2</ele>
        <time>2022-05-08T09:58:04Z</time>
      </trkpt>
      <trkpt lat="46.16227" lon="4.57229">
        <ele>273.8</ele>
        <time>2022-05-08T09:58:08Z</time>
      </trkpt>
      <trkpt lat="46.1623" lon="4.57212">
        <ele>274.6</ele>
        <time>2022-05-08T09:58:12Z</time>
      </trkpt>
      <trkpt lat="46.16234" lon="4.57196">
        <ele>276.6</ele>
        <time>2022-05-08T09:58:16Z</time>
      </trkpt>
      <trkpt lat="46.16239" lon="4.57181">
        <ele>277</ele>
        <time>2022-05-08T09:58:20Z</time>
      </trkpt>
      <trkpt lat="46.16242" lon="4.57165">
        <ele>277.8</ele>
        <time>2022-05-08T09:58:24Z</time>
      </trkpt>
      <trkpt lat="46.16247" lon="4.5715">
        <ele>277.8</ele>
        <time>2022-05-08T09:58:28Z</time>
      </trkpt>
      <trkpt lat="46.16253" lon="4.57137">
        <ele>278</ele>
        <time>2022-05-08T09:58:32Z</time>
      </trkpt>
      <trkpt lat="46.16256" lon="4.57122">
        <ele>279.4</ele>
        <time>2022-05-08T09:58:36Z</time>
      </trkpt>
      <trkpt lat="46.16262" lon="4.57108">
        <ele>280</ele>
        <time>2022-05-08T09:58:40Z</time>
      </trkpt>
      <trkpt lat="46.1627" lon="4.57093">
        <ele>280.8</ele>
        <time>2022-05-08T09:58:44Z</time>
      </trkpt>
      <trkpt lat="46.16275" lon="4.57078">
        <ele>281</ele>
        <time>2022-05-08T09:58:48Z</time>
      </trkpt>
      <trkpt lat="46.16281" lon="4.57063">
        <ele>281.8</ele>
        <time>2022-05-08T09:58:52Z</time>
      </trkpt>
      <trkpt lat="46.16286" lon="4.57052">
        <ele>281.8</ele>
        <time>2022-05-08T09:58:56Z</time>
      </trkpt>
      <trkpt lat="46.16296" lon="4.5704">
        <ele>283</ele>
        <time>2022-05-08T09:59:00Z</time>
      </trkpt>
      <trkpt lat="46.16312" lon="4.57029">
        <ele>283</ele>
        <time>2022-05-08T09:59:04Z</time>
      </trkpt>
      <trkpt lat="46.16321" lon="4.5702">
        <ele>284.4</ele>
        <time>2022-05-08T09:59:08Z</time>
      </trkpt>
      <trkpt lat="46.16332" lon="4.57012">
        <ele>284</ele>
        <time>2022-05-08T09:59:12Z</time>
      </trkpt>
      <trkpt lat="46.16342" lon="4.57003">
        <ele>284.8</ele>
        <time>2022-05-08T09:59:16Z</time>
      </trkpt>
      <trkpt lat="46.16352" lon="4.56993">
        <ele>285</ele>
        <time>2022-05-08T09:59:20Z</time>
      </trkpt>
      <trkpt lat="46.1636" lon="4.56983">
        <ele>285.2</ele>
        <time>2022-05-08T09:59:24Z</time>
      </trkpt>
      <trkpt lat="46.16369" lon="4.56973">
        <ele>284.8</ele>
        <time>2022-05-08T09:59:28Z</time>
      </trkpt>
      <trkpt lat="46.16376" lon="4.56963">
        <ele>285.8</ele>
        <time>2022-05-08T09:59:32Z</time>
      </trkpt>
      <trkpt lat="46.16383" lon="4.5695">
        <ele>287.2</ele>
        <time>2022-05-08T09:59:36Z</time>
      </trkpt>
      <trkpt lat="46.16388" lon="4.56938">
        <ele>287</ele>
        <time>2022-05-08T09:59:40Z</time>
      </trkpt>
      <trkpt lat="46.16394" lon="4.56924">
        <ele>287</ele>
        <time>2022-05-08T09:59:44Z</time>
      </trkpt>
      <trkpt lat="46.164" lon="4.5691">
        <ele>287.6</ele>
        <time>2022-05-08T09:59:48Z</time>
      </trkpt>
      <trkpt lat="46.16404" lon="4.56893">
        <ele>287.8</ele>
        <time>2022-05-08T09:59:52Z</time>
      </trkpt>
      <trkpt lat="46.16408" lon="4.56874">
        <ele>288.6</ele>
        <time>2022-05-08T09:59:56Z</time>
      </trkpt>
      <trkpt lat="46.1641" lon="4.56852">
        <ele>288</ele>
        <time>2022-05-08T10:00:00Z</time>
      </trkpt>
      <trkpt lat="46.16412" lon="4.56828">
        <ele>287.6</ele>
        <time>2022-05-08T10:00:04Z</time>
      </trkpt>
      <trkpt lat="46.16415" lon="4.56805">
        <ele>286.4</ele>
        <time>2022-05-08T10:00:08Z</time>
      </trkpt>
      <trkpt lat="46.16419" lon="4.56783">
        <ele>286.4</ele>
        <time>2022-05-08T10:00:12Z</time>
      </trkpt>
      <trkpt lat="46.16422" lon="4.56757">
        <ele>285.4</ele>
        <time>2022-05-08T10:00:16Z</time>
      </trkpt>
      <trkpt lat="46.16426" lon="4.56731">
        <ele>284.6</ele>
        <time>2022-05-08T10:00:20Z</time>
      </trkpt>
      <trkpt lat="46.16428" lon="4.56704">
        <ele>283.2</ele>
        <time>2022-05-08T10:00:24Z</time>
      </trkpt>
      <trkpt lat="46.1643" lon="4.56676">
        <ele>284.4</ele>
        <time>2022-05-08T10:00:28Z</time>
      </trkpt>
      <trkpt lat="46.16434" lon="4.56646">
        <ele>285</ele>
        <time>2022-05-08T10:00:32Z</time>
      </trkpt>
      <trkpt lat="46.16439" lon="4.56615">
        <ele>283.6</ele>
        <time>2022-05-08T10:00:36Z</time>
      </trkpt>
      <trkpt lat="46.16447" lon="4.56589">
        <ele>284.6</ele>
        <time>2022-05-08T10:00:40Z</time>
      </trkpt>
      <trkpt lat="46.16455" lon="4.56565">
        <ele>286</ele>
        <time>2022-05-08T10:00:44Z</time>
      </trkpt>
      <trkpt lat="46.16465" lon="4.56547">
        <ele>286.6</ele>
        <time>2022-05-08T10:00:48Z</time>
      </trkpt>
      <trkpt lat="46.16474" lon="4.56532">
        <ele>287.2</ele>
        <time>2022-05-08T10:00:52Z</time>
      </trkpt>
      <trkpt lat="46.16482" lon="4.56519">
        <ele>288</ele>
        <time>2022-05-08T10:00:56Z</time>
      </trkpt>
      <trkpt lat="46.1649" lon="4.56506">
        <ele>288</ele>
        <time>2022-05-08T10:01:00Z</time>
      </trkpt>
      <trkpt lat="46.16497" lon="4.56494">
        <ele>289.2</ele>
        <time>2022-05-08T10:01:04Z</time>
      </trkpt>
      <trkpt lat="46.16504" lon="4.56482">
        <ele>289</ele>
        <time>2022-05-08T10:01:08Z</time>
      </trkpt>
      <trkpt lat="46.16511" lon="4.56469">
        <ele>288.4</ele>
        <time>2022-05-08T10:01:12Z</time>
      </trkpt>
      <trkpt lat="46.16516" lon="4.56456">
        <ele>288.4</ele>
        <time>2022-05-08T10:01:16Z</time>
      </trkpt>
      <trkpt lat="46.16521" lon="4.56442">
        <ele>289</ele>
        <time>2022-05-08T10:01:20Z</time>
      </trkpt>
      <trkpt lat="46.16525" lon="4.56429">
        <ele>288.6</ele>
        <time>2022-05-08T10:01:24Z</time>
      </trkpt>
      <trkpt lat="46.1653" lon="4.56415">
        <ele>290</ele>
        <time>2022-05-08T10:01:28Z</time>
      </trkpt>
      <trkpt lat="46.16535" lon="4.56402">
        <ele>290.8</ele>
        <time>2022-05-08T10:01:32Z</time>
      </trkpt>
      <trkpt lat="46.16539" lon="4.5639">
        <ele>290.8</ele>
        <time>2022-05-08T10:01:36Z</time>
      </trkpt>
      <trkpt lat="46.16545" lon="4.56376">
        <ele>291.6</ele>
        <time>2022-05-08T10:01:40Z</time>
      </trkpt>
      <trkpt lat="46.1655" lon="4.56362">
        <ele>292.8</ele>
        <time>2022-05-08T10:01:44Z</time>
      </trkpt>
      <trkpt lat="46.16557" lon="4.56348">
        <ele>292.6</ele>
        <time>2022-05-08T10:01:48Z</time>
      </trkpt>
      <trkpt lat="46.16561" lon="4.56333">
        <ele>293.6</ele>
        <time>2022-05-08T10:01:52Z</time>
      </trkpt>
      <trkpt lat="46.16565" lon="4.56318">
        <ele>295.2</ele>
        <time>2022-05-08T10:01:56Z</time>
      </trkpt>
      <trkpt lat="46.16571" lon="4.56302">
        <ele>295.6</ele>
        <time>2022-05-08T10:02:00Z</time>
      </trkpt>
      <trkpt lat="46.16576" lon="4.56284">
        <ele>296</ele>
        <time>2022-05-08T10:02:04Z</time>
      </trkpt>
      <trkpt lat="46.1658" lon="4.56265">
        <ele>296.2</ele>
        <time>2022-05-08T10:02:08Z</time>
      </trkpt>
      <trkpt lat="46.16583" lon="4.56251">
        <ele>296.8</ele>
        <time>2022-05-08T10:02:12Z</time>
      </trkpt>
      <trkpt lat="46.16587" lon="4.56232">
        <ele>296.6</ele>
        <time>2022-05-08T10:02:28Z</time>
      </trkpt>
      <trkpt lat="46.16594" lon="4.56215">
        <ele>296.8</ele>
        <time>2022-05-08T10:02:32Z</time>
      </trkpt>
      <trkpt lat="46.16599" lon="4.56197">
        <ele>296.8</ele>
        <time>2022-05-08T10:02:36Z</time>
      </trkpt>
      <trkpt lat="46.16604" lon="4.56178">
        <ele>296.4</ele>
        <time>2022-05-08T10:02:40Z</time>
      </trkpt>
      <trkpt lat="46.1661" lon="4.5616">
        <ele>297.6</ele>
        <time>2022-05-08T10:02:44Z</time>
      </trkpt>
      <trkpt lat="46.16617" lon="4.56142">
        <ele>298.6</ele>
        <time>2022-05-08T10:02:48Z</time>
      </trkpt>
      <trkpt lat="46.16624" lon="4.56124">
        <ele>299</ele>
        <time>2022-05-08T10:02:52Z</time>
      </trkpt>
      <trkpt lat="46.1663" lon="4.56106">
        <ele>299.6</ele>
        <time>2022-05-08T10:02:56Z</time>
      </trkpt>
      <trkpt lat="46.16637" lon="4.56088">
        <ele>299.8</ele>
        <time>2022-05-08T10:03:00Z</time>
      </trkpt>
      <trkpt lat="46.16642" lon="4.5607">
        <ele>300</ele>
        <time>2022-05-08T10:03:04Z</time>
      </trkpt>
      <trkpt lat="46.16648" lon="4.56053">
        <ele>300.2</ele>
        <time>2022-05-08T10:03:08Z</time>
      </trkpt>
      <trkpt lat="46.16653" lon="4.56037">
        <ele>300.8</ele>
        <time>2022-05-08T10:03:12Z</time>
      </trkpt>
      <trkpt lat="46.16659" lon="4.56021">
        <ele>301.4</ele>
        <time>2022-05-08T10:03:16Z</time>
      </trkpt>
      <trkpt lat="46.16663" lon="4.56004">
        <ele>301.2</ele>
        <time>2022-05-08T10:03:20Z</time>
      </trkpt>
      <trkpt lat="46.16667" lon="4.55985">
        <ele>301.6</ele>
        <time>2022-05-08T10:03:24Z</time>
      </trkpt>
      <trkpt lat="46.16672" lon="4.55968">
        <ele>303.2</ele>
        <time>2022-05-08T10:03:28Z</time>
      </trkpt>
      <trkpt lat="46.16676" lon="4.55952">
        <ele>303.6</ele>
        <time>2022-05-08T10:03:32Z</time>
      </trkpt>
      <trkpt lat="46.16682" lon="4.55937">
        <ele>304.2</ele>
        <time>2022-05-08T10:03:36Z</time>
      </trkpt>
      <trkpt lat="46.16686" lon="4.55921">
        <ele>304.4</ele>
        <time>2022-05-08T10:03:40Z</time>
      </trkpt>
      <trkpt lat="46.1669" lon="4.55904">
        <ele>305.2</ele>
        <time>2022-05-08T10:03:44Z</time>
      </trkpt>
      <trkpt lat="46.16694" lon="4.55887">
        <ele>305.4</ele>
        <time>2022-05-08T10:03:48Z</time>
      </trkpt>
      <trkpt lat="46.16699" lon="4.55872">
        <ele>306.4</ele>
        <time>2022-05-08T10:03:52Z</time>
      </trkpt>
      <trkpt lat="46.16705" lon="4.55857">
        <ele>308</ele>
        <time>2022-05-08T10:03:56Z</time>
      </trkpt>
      <trkpt lat="46.16712" lon="4.55843">
        <ele>308</ele>
        <time>2022-05-08T10:04:00Z</time>
      </trkpt>
      <trkpt lat="46.16718" lon="4.55828">
        <ele>308.2</ele>
        <time>2022-05-08T10:04:04Z</time>
      </trkpt>
      <trkpt lat="46.16723" lon="4.55814">
        <ele>308.6</ele>
        <time>2022-05-08T10:04:08Z</time>
      </trkpt>
      <trkpt lat="46.16727" lon="4.558">
        <ele>309</ele>
        <time>2022-05-08T10:04:12Z</time>
      </trkpt>
      <trkpt lat="46.16732" lon="4.55787">
        <ele>309</ele>
        <time>2022-05-08T10:04:16Z</time>
      </trkpt>
      <trkpt lat="46.16737" lon="4.55772">
        <ele>309.8</ele>
        <time>2022-05-08T10:04:20Z</time>
      </trkpt>
      <trkpt lat="46.16741" lon="4.55757">
        <ele>309.8</ele>
        <time>2022-05-08T10:04:24Z</time>
      </trkpt>
      <trkpt lat="46.16745" lon="4.55741">
        <ele>311</ele>
        <time>2022-05-08T10:04:28Z</time>
      </trkpt>
      <trkpt lat="46.16749" lon="4.55726">
        <ele>311.4</ele>
        <time>2022-05-08T10:04:32Z</time>
      </trkpt>
      <trkpt lat="46.16754" lon="4.55711">
        <ele>311</ele>
        <time>2022-05-08T10:04:36Z</time>
      </trkpt>
      <trkpt lat="46.16759" lon="4.55694">
        <ele>313.2</ele>
        <time>2022-05-08T10:04:40Z</time>
      </trkpt>
      <trkpt lat="46.16765" lon="4.55679">
        <ele>313.4</ele>
        <time>2022-05-08T10:04:44Z</time>
      </trkpt>
      <trkpt lat="46.1677" lon="4.55662">
        <ele>313.2</ele>
        <time>2022-05-08T10:04:48Z</time>
      </trkpt>
      <trkpt lat="46.16776" lon="4.55646">
        <ele>313</ele>
        <time>2022-05-08T10:04:52Z</time>
      </trkpt>
      <trkpt lat="46.16782" lon="4.5563">
        <ele>314</ele>
        <time>2022-05-08T10:04:56Z</time>
      </trkpt>
      <trkpt lat="46.16787" lon="4.55613">
        <ele>314</ele>
        <time>2022-05-08T10:05:00Z</time>
      </trkpt>
      <trkpt lat="46.16791" lon="4.55596">
        <ele>312.6</ele>
        <time>2022-05-08T10:05:04Z</time>
      </trkpt>
      <trkpt lat="46.16796" lon="4.55581">
        <ele>313.2</ele>
        <time>2022-05-08T10:05:08Z</time>
      </trkpt>
      <trkpt lat="46.168" lon="4.55564">
        <ele>313.4</ele>
        <time>2022-05-08T10:05:12Z</time>
      </trkpt>
      <trkpt lat="46.16806" lon="4.55548">
        <ele>313.4</ele>
        <time>2022-05-08T10:05:16Z</time>
      </trkpt>
      <trkpt lat="46.16811" lon="4.55531">
        <ele>314</ele>
        <time>2022-05-08T10:05:20Z</time>
      </trkpt>
      <trkpt lat="46.16817" lon="4.55511">
        <ele>314</ele>
        <time>2022-05-08T10:05:24Z</time>
      </trkpt>
      <trkpt lat="46.16823" lon="4.55491">
        <ele>314.6</ele>
        <time>2022-05-08T10:05:28Z</time>
      </trkpt>
      <trkpt lat="46.16829" lon="4.55472">
        <ele>314.2</ele>
        <time>2022-05-08T10:05:32Z</time>
      </trkpt>
      <trkpt lat="46.16834" lon="4.55453">
        <ele>314.4</ele>
        <time>2022-05-08T10:05:36Z</time>
      </trkpt>
      <trkpt lat="46.16839" lon="4.55436">
        <ele>315</ele>
        <time>2022-05-08T10:05:40Z</time>
      </trkpt>
      <trkpt lat="46.16844" lon="4.5542">
        <ele>315.8</ele>
        <time>2022-05-08T10:05:44Z</time>
      </trkpt>
      <trkpt lat="46.1685" lon="4.55403">
        <ele>316.8</ele>
        <time>2022-05-08T10:05:48Z</time>
      </trkpt>
      <trkpt lat="46.16856" lon="4.55388">
        <ele>317.6</ele>
        <time>2022-05-08T10:05:52Z</time>
      </trkpt>
      <trkpt lat="46.16862" lon="4.55375">
        <ele>318</ele>
        <time>2022-05-08T10:05:56Z</time>
      </trkpt>
      <trkpt lat="46.16869" lon="4.55363">
        <ele>318.4</ele>
        <time>2022-05-08T10:06:00Z</time>
      </trkpt>
      <trkpt lat="46.16875" lon="4.55352">
        <ele>319.4</ele>
        <time>2022-05-08T10:06:04Z</time>
      </trkpt>
      <trkpt lat="46.16882" lon="4.55341">
        <ele>319.4</ele>
        <time>2022-05-08T10:06:08Z</time>
      </trkpt>
      <trkpt lat="46.16889" lon="4.55331">
        <ele>319.4</ele>
        <time>2022-05-08T10:06:12Z</time>
      </trkpt>
      <trkpt lat="46.16896" lon="4.55321">
        <ele>320.6</ele>
        <time>2022-05-08T10:06:16Z</time>
      </trkpt>
      <trkpt lat="46.16904" lon="4.55311">
        <ele>320.8</ele>
        <time>2022-05-08T10:06:20Z</time>
      </trkpt>
      <trkpt lat="46.16911" lon="4.55302">
        <ele>322</ele>
        <time>2022-05-08T10:06:24Z</time>
      </trkpt>
      <trkpt lat="46.16911" lon="4.55302">
        <ele>322</ele>
        <time>2022-05-08T10:06:28Z</time>
      </trkpt>
      <trkpt lat="46.1693" lon="4.55282">
        <ele>323.6</ele>
        <time>2022-05-08T10:08:21Z</time>
      </trkpt>
      <trkpt lat="46.16939" lon="4.55275">
        <ele>324.2</ele>
        <time>2022-05-08T10:08:25Z</time>
      </trkpt>
      <trkpt lat="46.16947" lon="4.55268">
        <ele>324.6</ele>
        <time>2022-05-08T10:08:29Z</time>
      </trkpt>
      <trkpt lat="46.16955" lon="4.55261">
        <ele>324.8</ele>
        <time>2022-05-08T10:08:33Z</time>
      </trkpt>
      <trkpt lat="46.16964" lon="4.55255">
        <ele>326.4</ele>
        <time>2022-05-08T10:08:37Z</time>
      </trkpt>
      <trkpt lat="46.16972" lon="4.55249">
        <ele>326.6</ele>
        <time>2022-05-08T10:08:41Z</time>
      </trkpt>
      <trkpt lat="46.1698" lon="4.55243">
        <ele>326.4</ele>
        <time>2022-05-08T10:08:45Z</time>
      </trkpt>
      <trkpt lat="46.16988" lon="4.55237">
        <ele>327.8</ele>
        <time>2022-05-08T10:08:49Z</time>
      </trkpt>
      <trkpt lat="46.16997" lon="4.55232">
        <ele>326.8</ele>
        <time>2022-05-08T10:08:53Z</time>
      </trkpt>
      <trkpt lat="46.17004" lon="4.55227">
        <ele>327.8</ele>
        <time>2022-05-08T10:08:57Z</time>
      </trkpt>
      <trkpt lat="46.17012" lon="4.55221">
        <ele>328.2</ele>
        <time>2022-05-08T10:09:01Z</time>
      </trkpt>
      <trkpt lat="46.1702" lon="4.55217">
        <ele>329.6</ele>
        <time>2022-05-08T10:09:05Z</time>
      </trkpt>
      <trkpt lat="46.17027" lon="4.55211">
        <ele>329.6</ele>
        <time>2022-05-08T10:09:09Z</time>
      </trkpt>
      <trkpt lat="46.17035" lon="4.55207">
        <ele>330.4</ele>
        <time>2022-05-08T10:09:13Z</time>
      </trkpt>
      <trkpt lat="46.17042" lon="4.55202">
        <ele>331</ele>
        <time>2022-05-08T10:09:17Z</time>
      </trkpt>
      <trkpt lat="46.17049" lon="4.55197">
        <ele>331.8</ele>
        <time>2022-05-08T10:09:21Z</time>
      </trkpt>
      <trkpt lat="46.17057" lon="4.55193">
        <ele>331.6</ele>
        <time>2022-05-08T10:09:25Z</time>
      </trkpt>
      <trkpt lat="46.17064" lon="4.55188">
        <ele>331.8</ele>
        <time>2022-05-08T10:09:29Z</time>
      </trkpt>
      <trkpt lat="46.17071" lon="4.55182">
        <ele>330.8</ele>
        <time>2022-05-08T10:09:33Z</time>
      </trkpt>
      <trkpt lat="46.17078" lon="4.55178">
        <ele>331.2</ele>
        <time>2022-05-08T10:09:37Z</time>
      </trkpt>
      <trkpt lat="46.17085" lon="4.55173">
        <ele>333.2</ele>
        <time>2022-05-08T10:09:41Z</time>
      </trkpt>
      <trkpt lat="46.17092" lon="4.55169">
        <ele>334.2</ele>
        <time>2022-05-08T10:09:45Z</time>
      </trkpt>
      <trkpt lat="46.17098" lon="4.55164">
        <ele>333.8</ele>
        <time>2022-05-08T10:09:49Z</time>
      </trkpt>
      <trkpt lat="46.17105" lon="4.5516">
        <ele>335.4</ele>
        <time>2022-05-08T10:09:53Z</time>
      </trkpt>
      <trkpt lat="46.17111" lon="4.55155">
        <ele>336</ele>
        <time>2022-05-08T10:09:57Z</time>
      </trkpt>
      <trkpt lat="46.17118" lon="4.5515">
        <ele>336.6</ele>
        <time>2022-05-08T10:10:01Z</time>
      </trkpt>
      <trkpt lat="46.17124" lon="4.55144">
        <ele>337.4</ele>
        <time>2022-05-08T10:10:05Z</time>
      </trkpt>
      <trkpt lat="46.17131" lon="4.55139">
        <ele>338</ele>
        <time>2022-05-08T10:10:09Z</time>
      </trkpt>
      <trkpt lat="46.17137" lon="4.55133">
        <ele>339.4</ele>
        <time>2022-05-08T10:10:13Z</time>
      </trkpt>
      <trkpt lat="46.17144" lon="4.55127">
        <ele>339.2</ele>
        <time>2022-05-08T10:10:17Z</time>
      </trkpt>
      <trkpt lat="46.1715" lon="4.55121">
        <ele>339.2</ele>
        <time>2022-05-08T10:10:21Z</time>
      </trkpt>
      <trkpt lat="46.17156" lon="4.55114">
        <ele>339</ele>
        <time>2022-05-08T10:10:25Z</time>
      </trkpt>
      <trkpt lat="46.17162" lon="4.55106">
        <ele>339.4</ele>
        <time>2022-05-08T10:10:29Z</time>
      </trkpt>
      <trkpt lat="46.17167" lon="4.55099">
        <ele>340.6</ele>
        <time>2022-05-08T10:10:33Z</time>
      </trkpt>
      <trkpt lat="46.17173" lon="4.55091">
        <ele>341.4</ele>
        <time>2022-05-08T10:10:37Z</time>
      </trkpt>
      <trkpt lat="46.17177" lon="4.55083">
        <ele>341.6</ele>
        <time>2022-05-08T10:10:41Z</time>
      </trkpt>
      <trkpt lat="46.17182" lon="4.55074">
        <ele>342.8</ele>
        <time>2022-05-08T10:10:45Z</time>
      </trkpt>
      <trkpt lat="46.17186" lon="4.55064">
        <ele>343.6</ele>
        <time>2022-05-08T10:10:49Z</time>
      </trkpt>
      <trkpt lat="46.1719" lon="4.55054">
        <ele>344.4</ele>
        <time>2022-05-08T10:10:53Z</time>
      </trkpt>
      <trkpt lat="46.17194" lon="4.55044">
        <ele>344.4</ele>
        <time>2022-05-08T10:10:57Z</time>
      </trkpt>
      <trkpt lat="46.17199" lon="4.55034">
        <ele>345.2</ele>
        <time>2022-05-08T10:11:01Z</time>
      </trkpt>
      <trkpt lat="46.17204" lon="4.55023">
        <ele>346.2</ele>
        <time>2022-05-08T10:11:05Z</time>
      </trkpt>
      <trkpt lat="46.17208" lon="4.55012">
        <ele>346.8</ele>
        <time>2022-05-08T10:11:09Z</time>
      </trkpt>
      <trkpt lat="46.17212" lon="4.55001">
        <ele>347.2</ele>
        <time>2022-05-08T10:11:13Z</time>
      </trkpt>
      <trkpt lat="46.17215" lon="4.54991">
        <ele>347.6</ele>
        <time>2022-05-08T10:11:17Z</time>
      </trkpt>
      <trkpt lat="46.1722" lon="4.5498">
        <ele>348.4</ele>
        <time>2022-05-08T10:11:21Z</time>
      </trkpt>
      <trkpt lat="46.17223" lon="4.54969">
        <ele>349.2</ele>
        <time>2022-05-08T10:11:25Z</time>
      </trkpt>
      <trkpt lat="46.17227" lon="4.5496">
        <ele>350</ele>
        <time>2022-05-08T10:11:29Z</time>
      </trkpt>
      <trkpt lat="46.17231" lon="4.54949">
        <ele>350.2</ele>
        <time>2022-05-08T10:11:33Z</time>
      </trkpt>
      <trkpt lat="46.17235" lon="4.5494">
        <ele>351</ele>
        <time>2022-05-08T10:11:37Z</time>
      </trkpt>
      <trkpt lat="46.17239" lon="4.54929">
        <ele>351.2</ele>
        <time>2022-05-08T10:11:41Z</time>
      </trkpt>
      <trkpt lat="46.17243" lon="4.54918">
        <ele>351.2</ele>
        <time>2022-05-08T10:11:45Z</time>
      </trkpt>
      <trkpt lat="46.17246" lon="4.54907">
        <ele>352</ele>
        <time>2022-05-08T10:11:49Z</time>
      </trkpt>
      <trkpt lat="46.17249" lon="4.54896">
        <ele>353</ele>
        <time>2022-05-08T10:11:53Z</time>
      </trkpt>
      <trkpt lat="46.17252" lon="4.54885">
        <ele>354.2</ele>
        <time>2022-05-08T10:11:57Z</time>
      </trkpt>
      <trkpt lat="46.17255" lon="4.54874">
        <ele>354</ele>
        <time>2022-05-08T10:12:01Z</time>
      </trkpt>
      <trkpt lat="46.17257" lon="4.54862">
        <ele>354.8</ele>
        <time>2022-05-08T10:12:05Z</time>
      </trkpt>
      <trkpt lat="46.17259" lon="4.54851">
        <ele>355.4</ele>
        <time>2022-05-08T10:12:09Z</time>
      </trkpt>
      <trkpt lat="46.17261" lon="4.5484">
        <ele>356.2</ele>
        <time>2022-05-08T10:12:13Z</time>
      </trkpt>
      <trkpt lat="46.17262" lon="4.54828">
        <ele>356</ele>
        <time>2022-05-08T10:12:17Z</time>
      </trkpt>
      <trkpt lat="46.17263" lon="4.54817">
        <ele>356.8</ele>
        <time>2022-05-08T10:12:21Z</time>
      </trkpt>
      <trkpt lat="46.17264" lon="4.54805">
        <ele>357.2</ele>
        <time>2022-05-08T10:12:25Z</time>
      </trkpt>
      <trkpt lat="46.17264" lon="4.54793">
        <ele>357.8</ele>
        <time>2022-05-08T10:12:29Z</time>
      </trkpt>
      <trkpt lat="46.17261" lon="4.5478">
        <ele>358.8</ele>
        <time>2022-05-08T10:12:33Z</time>
      </trkpt>
      <trkpt lat="46.17258" lon="4.54768">
        <ele>359.6</ele>
        <time>2022-05-08T10:12:37Z</time>
      </trkpt>
      <trkpt lat="46.17257" lon="4.54757">
        <ele>360.2</ele>
        <time>2022-05-08T10:12:41Z</time>
      </trkpt>
      <trkpt lat="46.17254" lon="4.54746">
        <ele>360.2</ele>
        <time>2022-05-08T10:12:45Z</time>
      </trkpt>
      <trkpt lat="46.17252" lon="4.54736">
        <ele>360.4</ele>
        <time>2022-05-08T10:12:49Z</time>
      </trkpt>
      <trkpt lat="46.17253" lon="4.54727">
        <ele>361.2</ele>
        <time>2022-05-08T10:12:53Z</time>
      </trkpt>
      <trkpt lat="46.17254" lon="4.54718">
        <ele>361.4</ele>
        <time>2022-05-08T10:12:57Z</time>
      </trkpt>
      <trkpt lat="46.17283" lon="4.54694">
        <ele>365.8</ele>
        <time>2022-05-08T10:50:00Z</time>
      </trkpt>
      <trkpt lat="46.17289" lon="4.54687">
        <ele>365.8</ele>
        <time>2022-05-08T10:50:04Z</time>
      </trkpt>
      <trkpt lat="46.17293" lon="4.5468">
        <ele>366.6</ele>
        <time>2022-05-08T10:50:08Z</time>
      </trkpt>
      <trkpt lat="46.17298" lon="4.54672">
        <ele>367.8</ele>
        <time>2022-05-08T10:50:12Z</time>
      </trkpt>
      <trkpt lat="46.17303" lon="4.54665">
        <ele>368.4</ele>
        <time>2022-05-08T10:50:16Z</time>
      </trkpt>
      <trkpt lat="46.17308" lon="4.54658">
        <ele>368.6</ele>
        <time>2022-05-08T10:50:20Z</time>
      </trkpt>
      <trkpt lat="46.17312" lon="4.5465">
        <ele>368.4</ele>
        <time>2022-05-08T10:50:24Z</time>
      </trkpt>
      <trkpt lat="46.17318" lon="4.54643">
        <ele>370</ele>
        <time>2022-05-08T10:50:28Z</time>
      </trkpt>
      <trkpt lat="46.17323" lon="4.54636">
        <ele>370.6</ele>
        <time>2022-05-08T10:50:32Z</time>
      </trkpt>
      <trkpt lat="46.17328" lon="4.54628">
        <ele>370.6</ele>
        <time>2022-05-08T10:50:36Z</time>
      </trkpt>
      <trkpt lat="46.17333" lon="4.54621">
        <ele>371.2</ele>
        <time>2022-05-08T10:50:40Z</time>
      </trkpt>
      <trkpt lat="46.17338" lon="4.54613">
        <ele>371.4</ele>
        <time>2022-05-08T10:50:44Z</time>
      </trkpt>
      <trkpt lat="46.17343" lon="4.54606">
        <ele>372</ele>
        <time>2022-05-08T10:50:48Z</time>
      </trkpt>
      <trkpt lat="46.17348" lon="4.54598">
        <ele>372.6</ele>
        <time>2022-05-08T10:50:52Z</time>
      </trkpt>
      <trkpt lat="46.17353" lon="4.54591">
        <ele>372.8</ele>
        <time>2022-05-08T10:50:56Z</time>
      </trkpt>
      <trkpt lat="46.17359" lon="4.54585">
        <ele>373.2</ele>
        <time>2022-05-08T10:51:00Z</time>
      </trkpt>
      <trkpt lat="46.17364" lon="4.54578">
        <ele>373.8</ele>
        <time>2022-05-08T10:51:04Z</time>
      </trkpt>
      <trkpt lat="46.17369" lon="4.5457">
        <ele>374.4</ele>
        <time>2022-05-08T10:51:08Z</time>
      </trkpt>
      <trkpt lat="46.17373" lon="4.54561">
        <ele>374.4</ele>
        <time>2022-05-08T10:51:12Z</time>
      </trkpt>
      <trkpt lat="46.17379" lon="4.54553">
        <ele>375</ele>
        <time>2022-05-08T10:51:16Z</time>
      </trkpt>
      <trkpt lat="46.17384" lon="4.54544">
        <ele>375.4</ele>
        <time>2022-05-08T10:51:20Z</time>
      </trkpt>
      <trkpt lat="46.17388" lon="4.54535">
        <ele>376.6</ele>
        <time>2022-05-08T10:51:24Z</time>
      </trkpt>
      <trkpt lat="46.17392" lon="4.54525">
        <ele>376.6</ele>
        <time>2022-05-08T10:51:28Z</time>
      </trkpt>
      <trkpt lat="46.17396" lon="4.54515">
        <ele>377.4</ele>
        <time>2022-05-08T10:51:32Z</time>
      </trkpt>
      <trkpt lat="46.174" lon="4.54505">
        <ele>377.8</ele>
        <time>2022-05-08T10:51:36Z</time>
      </trkpt>
      <trkpt lat="46.17403" lon="4.54494">
        <ele>378</ele>
        <time>2022-05-08T10:51:40Z</time>
      </trkpt>
      <trkpt lat="46.17406" lon="4.54484">
        <ele>378.4</ele>
        <time>2022-05-08T10:51:44Z</time>
      </trkpt>
      <trkpt lat="46.17409" lon="4.54472">
        <ele>378.8</ele>
        <time>2022-05-08T10:51:48Z</time>
      </trkpt>
      <trkpt lat="46.17411" lon="4.5446">
        <ele>380</ele>
        <time>2022-05-08T10:51:52Z</time>
      </trkpt>
      <trkpt lat="46.17413" lon="4.54448">
        <ele>380.2</ele>
        <time>2022-05-08T10:51:56Z</time>
      </trkpt>
      <trkpt lat="46.17414" lon="4.54436">
        <ele>380.4</ele>
        <time>2022-05-08T10:52:00Z</time>
      </trkpt>
      <trkpt lat="46.17415" lon="4.54423">
        <ele>381</ele>
        <time>2022-05-08T10:52:04Z</time>
      </trkpt>
      <trkpt lat="46.17416" lon="4.5441">
        <ele>381.2</ele>
        <time>2022-05-08T10:52:08Z</time>
      </trkpt>
      <trkpt lat="46.17417" lon="4.54397">
        <ele>382.6</ele>
        <time>2022-05-08T10:52:12Z</time>
      </trkpt>
      <trkpt lat="46.17418" lon="4.54385">
        <ele>383</ele>
        <time>2022-05-08T10:52:16Z</time>
      </trkpt>
      <trkpt lat="46.1742" lon="4.54372">
        <ele>383.6</ele>
        <time>2022-05-08T10:52:20Z</time>
      </trkpt>
      <trkpt lat="46.17422" lon="4.5436">
        <ele>384.2</ele>
        <time>2022-05-08T10:52:24Z</time>
      </trkpt>
      <trkpt lat="46.17425" lon="4.54348">
        <ele>384.8</ele>
        <time>2022-05-08T10:52:28Z</time>
      </trkpt>
      <trkpt lat="46.17428" lon="4.54336">
        <ele>384.2</ele>
        <time>2022-05-08T10:52:32Z</time>
      </trkpt>
      <trkpt lat="46.17432" lon="4.54325">
        <ele>385</ele>
        <time>2022-05-08T10:52:36Z</time>
      </trkpt>
      <trkpt lat="46.17436" lon="4.54314">
        <ele>382.8</ele>
        <time>2022-05-08T10:52:40Z</time>
      </trkpt>
      <trkpt lat="46.1744" lon="4.54304">
        <ele>387.2</ele>
        <time>2022-05-08T10:52:44Z</time>
      </trkpt>
      <trkpt lat="46.17445" lon="4.54295">
        <ele>387.4</ele>
        <time>2022-05-08T10:52:48Z</time>
      </trkpt>
      <trkpt lat="46.17451" lon="4.54286">
        <ele>386.2</ele>
        <time>2022-05-08T10:52:52Z</time>
      </trkpt>
      <trkpt lat="46.17456" lon="4.54277">
        <ele>386.6</ele>
        <time>2022-05-08T10:52:56Z</time>
      </trkpt>
      <trkpt lat="46.17461" lon="4.54268">
        <ele>388.8</ele>
        <time>2022-05-08T10:53:00Z</time>
      </trkpt>
      <trkpt lat="46.17465" lon="4.54259">
        <ele>388.2</ele>
        <time>2022-05-08T10:53:04Z</time>
      </trkpt>
      <trkpt lat="46.17471" lon="4.5425">
        <ele>388.2</ele>
        <time>2022-05-08T10:53:08Z</time>
      </trkpt>
      <trkpt lat="46.17476" lon="4.54242">
        <ele>389.6</ele>
        <time>2022-05-08T10:53:12Z</time>
      </trkpt>
      <trkpt lat="46.17481" lon="4.54234">
        <ele>390</ele>
        <time>2022-05-08T10:53:16Z</time>
      </trkpt>
      <trkpt lat="46.17487" lon="4.54225">
        <ele>389.8</ele>
        <time>2022-05-08T10:53:20Z</time>
      </trkpt>
      <trkpt lat="46.17492" lon="4.54216">
        <ele>391.6</ele>
        <time>2022-05-08T10:53:24Z</time>
      </trkpt>
      <trkpt lat="46.17497" lon="4.54208">
        <ele>391.2</ele>
        <time>2022-05-08T10:53:28Z</time>
      </trkpt>
      <trkpt lat="46.17503" lon="4.54199">
        <ele>391.8</ele>
        <time>2022-05-08T10:53:32Z</time>
      </trkpt>
      <trkpt lat="46.17508" lon="4.54191">
        <ele>392.8</ele>
        <time>2022-05-08T10:53:36Z</time>
      </trkpt>
      <trkpt lat="46.17514" lon="4.54182">
        <ele>393.6</ele>
        <time>2022-05-08T10:53:40Z</time>
      </trkpt>
      <trkpt lat="46.17519" lon="4.54173">
        <ele>394.2</ele>
        <time>2022-05-08T10:53:44Z</time>
      </trkpt>
      <trkpt lat="46.17525" lon="4.54163">
        <ele>394.2</ele>
        <time>2022-05-08T10:53:48Z</time>
      </trkpt>
      <trkpt lat="46.17531" lon="4.54154">
        <ele>395.2</ele>
        <time>2022-05-08T10:53:52Z</time>
      </trkpt>
      <trkpt lat="46.17537" lon="4.54145">
        <ele>395.6</ele>
        <time>2022-05-08T10:53:56Z</time>
      </trkpt>
      <trkpt lat="46.17543" lon="4.54137">
        <ele>396.4</ele>
        <time>2022-05-08T10:54:00Z</time>
      </trkpt>
      <trkpt lat="46.17549" lon="4.5413">
        <ele>396.8</ele>
        <time>2022-05-08T10:54:04Z</time>
      </trkpt>
      <trkpt lat="46.17555" lon="4.54121">
        <ele>397.8</ele>
        <time>2022-05-08T10:54:08Z</time>
      </trkpt>
      <trkpt lat="46.17562" lon="4.54115">
        <ele>397.4</ele>
        <time>2022-05-08T10:54:12Z</time>
      </trkpt>
      <trkpt lat="46.17568" lon="4.54107">
        <ele>398</ele>
        <time>2022-05-08T10:54:16Z</time>
      </trkpt>
      <trkpt lat="46.17576" lon="4.54101">
        <ele>398.6</ele>
        <time>2022-05-08T10:54:20Z</time>
      </trkpt>
      <trkpt lat="46.17583" lon="4.54095">
        <ele>399.2</ele>
        <time>2022-05-08T10:54:24Z</time>
      </trkpt>
      <trkpt lat="46.1759" lon="4.54089">
        <ele>399.8</ele>
        <time>2022-05-08T10:54:28Z</time>
      </trkpt>
      <trkpt lat="46.17597" lon="4.54085">
        <ele>400.4</ele>
        <time>2022-05-08T10:54:32Z</time>
      </trkpt>
      <trkpt lat="46.17605" lon="4.5408">
        <ele>401.2</ele>
        <time>2022-05-08T10:54:36Z</time>
      </trkpt>
      <trkpt lat="46.17612" lon="4.54077">
        <ele>401.8</ele>
        <time>2022-05-08T10:54:40Z</time>
      </trkpt>
      <trkpt lat="46.1762" lon="4.54074">
        <ele>402</ele>
        <time>2022-05-08T10:54:44Z</time>
      </trkpt>
      <trkpt lat="46.17628" lon="4.54071">
        <ele>402.8</ele>
        <time>2022-05-08T10:54:48Z</time>
      </trkpt>
      <trkpt lat="46.17637" lon="4.54069">
        <ele>403.2</ele>
        <time>2022-05-08T10:54:52Z</time>
      </trkpt>
      <trkpt lat="46.17644" lon="4.54067">
        <ele>404.2</ele>
        <time>2022-05-08T10:54:56Z</time>
      </trkpt>
      <trkpt lat="46.17652" lon="4.54065">
        <ele>404.6</ele>
        <time>2022-05-08T10:55:00Z</time>
      </trkpt>
      <trkpt lat="46.1766" lon="4.54065">
        <ele>405</ele>
        <time>2022-05-08T10:55:04Z</time>
      </trkpt>
      <trkpt lat="46.17668" lon="4.54064">
        <ele>404.8</ele>
        <time>2022-05-08T10:55:08Z</time>
      </trkpt>
      <trkpt lat="46.17676" lon="4.54063">
        <ele>405.2</ele>
        <time>2022-05-08T10:55:12Z</time>
      </trkpt>
      <trkpt lat="46.17684" lon="4.54063">
        <ele>407</ele>
        <time>2022-05-08T10:55:16Z</time>
      </trkpt>
      <trkpt lat="46.17692" lon="4.54062">
        <ele>408.2</ele>
        <time>2022-05-08T10:55:20Z</time>
      </trkpt>
      <trkpt lat="46.177" lon="4.54061">
        <ele>408.6</ele>
        <time>2022-05-08T10:55:24Z</time>
      </trkpt>
      <trkpt lat="46.17708" lon="4.54061">
        <ele>408.8</ele>
        <time>2022-05-08T10:55:28Z</time>
      </trkpt>
      <trkpt lat="46.17716" lon="4.5406">
        <ele>409.4</ele>
        <time>2022-05-08T10:55:32Z</time>
      </trkpt>
      <trkpt lat="46.17725" lon="4.54059">
        <ele>409.8</ele>
        <time>2022-05-08T10:55:36Z</time>
      </trkpt>
      <trkpt lat="46.17733" lon="4.54057">
        <ele>409.6</ele>
        <time>2022-05-08T10:55:40Z</time>
      </trkpt>
      <trkpt lat="46.17741" lon="4.54055">
        <ele>410.4</ele>
        <time>2022-05-08T10:55:44Z</time>
      </trkpt>
      <trkpt lat="46.17748" lon="4.54051">
        <ele>410.6</ele>
        <time>2022-05-08T10:55:48Z</time>
      </trkpt>
      <trkpt lat="46.17756" lon="4.54047">
        <ele>411</ele>
        <time>2022-05-08T10:55:52Z</time>
      </trkpt>
      <trkpt lat="46.17763" lon="4.54042">
        <ele>411.8</ele>
        <time>2022-05-08T10:55:56Z</time>
      </trkpt>
      <trkpt lat="46.1777" lon="4.54036">
        <ele>412.4</ele>
        <time>2022-05-08T10:56:00Z</time>
      </trkpt>
      <trkpt lat="46.17778" lon="4.5403">
        <ele>412.4</ele>
        <time>2022-05-08T10:56:04Z</time>
      </trkpt>
      <trkpt lat="46.17786" lon="4.54022">
        <ele>412.8</ele>
        <time>2022-05-08T10:56:08Z</time>
      </trkpt>
      <trkpt lat="46.17793" lon="4.54014">
        <ele>412.8</ele>
        <time>2022-05-08T10:56:12Z</time>
      </trkpt>
      <trkpt lat="46.17801" lon="4.54005">
        <ele>413.2</ele>
        <time>2022-05-08T10:56:16Z</time>
      </trkpt>
      <trkpt lat="46.17808" lon="4.53997">
        <ele>413.4</ele>
        <time>2022-05-08T10:56:20Z</time>
      </trkpt>
      <trkpt lat="46.17815" lon="4.53989">
        <ele>414.4</ele>
        <time>2022-05-08T10:56:24Z</time>
      </trkpt>
      <trkpt lat="46.17822" lon="4.5398">
        <ele>414</ele>
        <time>2022-05-08T10:56:28Z</time>
      </trkpt>
      <trkpt lat="46.17829" lon="4.53972">
        <ele>414.8</ele>
        <time>2022-05-08T10:56:32Z</time>
      </trkpt>
      <trkpt lat="46.17836" lon="4.53963">
        <ele>413.8</ele>
        <time>2022-05-08T10:56:36Z</time>
      </trkpt>
      <trkpt lat="46.17842" lon="4.53955">
        <ele>414.4</ele>
        <time>2022-05-08T10:56:40Z</time>
      </trkpt>
      <trkpt lat="46.17849" lon="4.53947">
        <ele>416.4</ele>
        <time>2022-05-08T10:56:44Z</time>
      </trkpt>
      <trkpt lat="46.17855" lon="4.53939">
        <ele>417.6</ele>
        <time>2022-05-08T10:56:48Z</time>
      </trkpt>
      <trkpt lat="46.17862" lon="4.5393">
        <ele>418.2</ele>
        <time>2022-05-08T10:56:52Z</time>
      </trkpt>
      <trkpt lat="46.17869" lon="4.53922">
        <ele>417</ele>
        <time>2022-05-08T10:56:56Z</time>
      </trkpt>
      <trkpt lat="46.17876" lon="4.53913">
        <ele>417</ele>
        <time>2022-05-08T10:57:00Z</time>
      </trkpt>
      <trkpt lat="46.17882" lon="4.53905">
        <ele>417.4</ele>
        <time>2022-05-08T10:57:04Z</time>
      </trkpt>
      <trkpt lat="46.17889" lon="4.53897">
        <ele>419.2</ele>
        <time>2022-05-08T10:57:08Z</time>
      </trkpt>
      <trkpt lat="46.17895" lon="4.53889">
        <ele>419.4</ele>
        <time>2022-05-08T10:57:12Z</time>
      </trkpt>
      <trkpt lat="46.17901" lon="4.53881">
        <ele>420.6</ele>
        <time>2022-05-08T10:57:16Z</time>
      </trkpt>
      <trkpt lat="46.17908" lon="4.53874">
        <ele>420.8</ele>
        <time>2022-05-08T10:57:20Z</time>
      </trkpt>
      <trkpt lat="46.17914" lon="4.53865">
        <ele>419.8</ele>
        <time>2022-05-08T10:57:24Z</time>
      </trkpt>
      <trkpt lat="46.17921" lon="4.53857">
        <ele>420.8</ele>
        <time>2022-05-08T10:57:28Z</time>
      </trkpt>
      <trkpt lat="46.17927" lon="4.53849">
        <ele>421.6</ele>
        <time>2022-05-08T10:57:32Z</time>
      </trkpt>
      <trkpt lat="46.17933" lon="4.5384">
        <ele>422</ele>
        <time>2022-05-08T10:57:36Z</time>
      </trkpt>
      <trkpt lat="46.17939" lon="4.53831">
        <ele>424.6</ele>
        <time>2022-05-08T10:57:40Z</time>
      </trkpt>
      <trkpt lat="46.17945" lon="4.53822">
        <ele>424</ele>
        <time>2022-05-08T10:57:44Z</time>
      </trkpt>
      <trkpt lat="46.1795" lon="4.53812">
        <ele>423.6</ele>
        <time>2022-05-08T10:57:48Z</time>
      </trkpt>
      <trkpt lat="46.17955" lon="4.53802">
        <ele>425.2</ele>
        <time>2022-05-08T10:57:52Z</time>
      </trkpt>
      <trkpt lat="46.1796" lon="4.53793">
        <ele>424.2</ele>
        <time>2022-05-08T10:57:56Z</time>
      </trkpt>
      <trkpt lat="46.17964" lon="4.53782">
        <ele>426.6</ele>
        <time>2022-05-08T10:58:00Z</time>
      </trkpt>
      <trkpt lat="46.17969" lon="4.53771">
        <ele>427.2</ele>
        <time>2022-05-08T10:58:04Z</time>
      </trkpt>
      <trkpt lat="46.17973" lon="4.5376">
        <ele>426</ele>
        <time>2022-05-08T10:58:08Z</time>
      </trkpt>
      <trkpt lat="46.17977" lon="4.53749">
        <ele>425.2</ele>
        <time>2022-05-08T10:58:12Z</time>
      </trkpt>
      <trkpt lat="46.17981" lon="4.53738">
        <ele>427.8</ele>
        <time>2022-05-08T10:58:16Z</time>
      </trkpt>
      <trkpt lat="46.17984" lon="4.53726">
        <ele>427.2</ele>
        <time>2022-05-08T10:58:20Z</time>
      </trkpt>
      <trkpt lat="46.17987" lon="4.53715">
        <ele>427.4</ele>
        <time>2022-05-08T10:58:24Z</time>
      </trkpt>
      <trkpt lat="46.1799" lon="4.53703">
        <ele>428.8</ele>
        <time>2022-05-08T10:58:28Z</time>
      </trkpt>
      <trkpt lat="46.17992" lon="4.53691">
        <ele>429.8</ele>
        <time>2022-05-08T10:58:32Z</time>
      </trkpt>
      <trkpt lat="46.17994" lon="4.5368">
        <ele>430.4</ele>
        <time>2022-05-08T10:58:36Z</time>
      </trkpt>
      <trkpt lat="46.17995" lon="4.53669">
        <ele>431.4</ele>
        <time>2022-05-08T10:58:40Z</time>
      </trkpt>
      <trkpt lat="46.17997" lon="4.53657">
        <ele>432</ele>
        <time>2022-05-08T10:58:44Z</time>
      </trkpt>
      <trkpt lat="46.17998" lon="4.53646">
        <ele>432.2</ele>
        <time>2022-05-08T10:58:48Z</time>
      </trkpt>
      <trkpt lat="46.17999" lon="4.53635">
        <ele>433.2</ele>
        <time>2022-05-08T10:58:52Z</time>
      </trkpt>
      <trkpt lat="46.17999" lon="4.53624">
        <ele>432.2</ele>
        <time>2022-05-08T10:58:56Z</time>
      </trkpt>
      <trkpt lat="46.18" lon="4.53613">
        <ele>433.8</ele>
        <time>2022-05-08T10:59:00Z</time>
      </trkpt>
      <trkpt lat="46.18" lon="4.53602">
        <ele>435</ele>
        <time>2022-05-08T10:59:04Z</time>
      </trkpt>
      <trkpt lat="46.17999" lon="4.5359">
        <ele>435.4</ele>
        <time>2022-05-08T10:59:08Z</time>
      </trkpt>
      <trkpt lat="46.17999" lon="4.53579">
        <ele>435.4</ele>
        <time>2022-05-08T10:59:12Z</time>
      </trkpt>
      <trkpt lat="46.17998" lon="4.53567">
        <ele>435.8</ele>
        <time>2022-05-08T10:59:16Z</time>
      </trkpt>
      <trkpt lat="46.17996" lon="4.53556">
        <ele>437</ele>
        <time>2022-05-08T10:59:20Z</time>
      </trkpt>
      <trkpt lat="46.17995" lon="4.53545">
        <ele>437.4</ele>
        <time>2022-05-08T10:59:24Z</time>
      </trkpt>
      <trkpt lat="46.17993" lon="4.53534">
        <ele>437.6</ele>
        <time>2022-05-08T10:59:28Z</time>
      </trkpt>
      <trkpt lat="46.17991" lon="4.53523">
        <ele>438</ele>
        <time>2022-05-08T10:59:32Z</time>
      </trkpt>
      <trkpt lat="46.17988" lon="4.53512">
        <ele>439.2</ele>
        <time>2022-05-08T10:59:36Z</time>
      </trkpt>
      <trkpt lat="46.17986" lon="4.53501">
        <ele>439.6</ele>
        <time>2022-05-08T10:59:40Z</time>
      </trkpt>
      <trkpt lat="46.17983" lon="4.53491">
        <ele>440.2</ele>
        <time>2022-05-08T10:59:44Z</time>
      </trkpt>
      <trkpt lat="46.1798" lon="4.5348">
        <ele>441.2</ele>
        <time>2022-05-08T10:59:48Z</time>
      </trkpt>
      <trkpt lat="46.17977" lon="4.5347">
        <ele>441.2</ele>
        <time>2022-05-08T10:59:52Z</time>
      </trkpt>
      <trkpt lat="46.17973" lon="4.5346">
        <ele>441.8</ele>
        <time>2022-05-08T10:59:56Z</time>
      </trkpt>
      <trkpt lat="46.1797" lon="4.5345">
        <ele>442.6</ele>
        <time>2022-05-08T11:00:00Z</time>
      </trkpt>
      <trkpt lat="46.17966" lon="4.5344">
        <ele>443.2</ele>
        <time>2022-05-08T11:00:04Z</time>
      </trkpt>
      <trkpt lat="46.17962" lon="4.53431">
        <ele>444.2</ele>
        <time>2022-05-08T11:00:08Z</time>
      </trkpt>
      <trkpt lat="46.17958" lon="4.53421">
        <ele>443.8</ele>
        <time>2022-05-08T11:00:12Z</time>
      </trkpt>
      <trkpt lat="46.17954" lon="4.53412">
        <ele>444.6</ele>
        <time>2022-05-08T11:00:16Z</time>
      </trkpt>
      <trkpt lat="46.17949" lon="4.53402">
        <ele>445.2</ele>
        <time>2022-05-08T11:00:20Z</time>
      </trkpt>
      <trkpt lat="46.17944" lon="4.53393">
        <ele>445.8</ele>
        <time>2022-05-08T11:00:24Z</time>
      </trkpt>
      <trkpt lat="46.1794" lon="4.53384">
        <ele>446.4</ele>
        <time>2022-05-08T11:00:28Z</time>
      </trkpt>
      <trkpt lat="46.17936" lon="4.53374">
        <ele>447</ele>
        <time>2022-05-08T11:00:32Z</time>
      </trkpt>
      <trkpt lat="46.17932" lon="4.53365">
        <ele>447.2</ele>
        <time>2022-05-08T11:00:36Z</time>
      </trkpt>
      <trkpt lat="46.17928" lon="4.53356">
        <ele>447.8</ele>
        <time>2022-05-08T11:00:40Z</time>
      </trkpt>
      <trkpt lat="46.17925" lon="4.53346">
        <ele>448.4</ele>
        <time>2022-05-08T11:00:44Z</time>
      </trkpt>
      <trkpt lat="46.17922" lon="4.53336">
        <ele>448.6</ele>
        <time>2022-05-08T11:00:48Z</time>
      </trkpt>
      <trkpt lat="46.1792" lon="4.53326">
        <ele>449</ele>
        <time>2022-05-08T11:00:52Z</time>
      </trkpt>
      <trkpt lat="46.17918" lon="4.53315">
        <ele>449.8</ele>
        <time>2022-05-08T11:00:56Z</time>
      </trkpt>
      <trkpt lat="46.17916" lon="4.53304">
        <ele>450</ele>
        <time>2022-05-08T11:01:00Z</time>
      </trkpt>
      <trkpt lat="46.17915" lon="4.53293">
        <ele>450.6</ele>
        <time>2022-05-08T11:01:04Z</time>
      </trkpt>
      <trkpt lat="46.17915" lon="4.53282">
        <ele>452</ele>
        <time>2022-05-08T11:01:08Z</time>
      </trkpt>
      <trkpt lat="46.17914" lon="4.53272">
        <ele>452.4</ele>
        <time>2022-05-08T11:01:12Z</time>
      </trkpt>
      <trkpt lat="46.17914" lon="4.53261">
        <ele>453.2</ele>
        <time>2022-05-08T11:01:16Z</time>
      </trkpt>
      <trkpt lat="46.17914" lon="4.5325">
        <ele>453</ele>
        <time>2022-05-08T11:01:20Z</time>
      </trkpt>
      <trkpt lat="46.17915" lon="4.53239">
        <ele>454</ele>
        <time>2022-05-08T11:01:24Z</time>
      </trkpt>
      <trkpt lat="46.17917" lon="4.53229">
        <ele>455</ele>
        <time>2022-05-08T11:01:28Z</time>
      </trkpt>
      <trkpt lat="46.17918" lon="4.53218">
        <ele>454.8</ele>
        <time>2022-05-08T11:01:32Z</time>
      </trkpt>
      <trkpt lat="46.1792" lon="4.53208">
        <ele>455.2</ele>
        <time>2022-05-08T11:01:36Z</time>
      </trkpt>
      <trkpt lat="46.17923" lon="4.53197">
        <ele>455.6</ele>
        <time>2022-05-08T11:01:40Z</time>
      </trkpt>
      <trkpt lat="46.17926" lon="4.53186">
        <ele>455.8</ele>
        <time>2022-05-08T11:01:44Z</time>
      </trkpt>
      <trkpt lat="46.1793" lon="4.53176">
        <ele>456.2</ele>
        <time>2022-05-08T11:01:48Z</time>
      </trkpt>
      <trkpt lat="46.17933" lon="4.53166">
        <ele>457.6</ele>
        <time>2022-05-08T11:01:52Z</time>
      </trkpt>
      <trkpt lat="46.17938" lon="4.53157">
        <ele>458.2</ele>
        <time>2022-05-08T11:01:56Z</time>
      </trkpt>
      <trkpt lat="46.17942" lon="4.53148">
        <ele>458.2</ele>
        <time>2022-05-08T11:02:00Z</time>
      </trkpt>
      <trkpt lat="46.17947" lon="4.5314">
        <ele>458</ele>
        <time>2022-05-08T11:02:04Z</time>
      </trkpt>
      <trkpt lat="46.17952" lon="4.53132">
        <ele>459.6</ele>
        <time>2022-05-08T11:02:08Z</time>
      </trkpt>
      <trkpt lat="46.17957" lon="4.53124">
        <ele>459.6</ele>
        <time>2022-05-08T11:02:12Z</time>
      </trkpt>
      <trkpt lat="46.17962" lon="4.53117">
        <ele>461</ele>
        <time>2022-05-08T11:02:16Z</time>
      </trkpt>
      <trkpt lat="46.17968" lon="4.53108">
        <ele>462</ele>
        <time>2022-05-08T11:02:20Z</time>
      </trkpt>
      <trkpt lat="46.17973" lon="4.53101">
        <ele>462.4</ele>
        <time>2022-05-08T11:02:24Z</time>
      </trkpt>
      <trkpt lat="46.17978" lon="4.53093">
        <ele>462.2</ele>
        <time>2022-05-08T11:02:28Z</time>
      </trkpt>
      <trkpt lat="46.17983" lon="4.53086">
        <ele>462.4</ele>
        <time>2022-05-08T11:02:32Z</time>
      </trkpt>
      <trkpt lat="46.17988" lon="4.53078">
        <ele>463</ele>
        <time>2022-05-08T11:02:36Z</time>
      </trkpt>
      <trkpt lat="46.17993" lon="4.53069">
        <ele>463</ele>
        <time>2022-05-08T11:02:40Z</time>
      </trkpt>
      <trkpt lat="46.17997" lon="4.5306">
        <ele>463.6</ele>
        <time>2022-05-08T11:02:44Z</time>
      </trkpt>
      <trkpt lat="46.18001" lon="4.53051">
        <ele>465</ele>
        <time>2022-05-08T11:02:48Z</time>
      </trkpt>
      <trkpt lat="46.18005" lon="4.53042">
        <ele>465.8</ele>
        <time>2022-05-08T11:02:52Z</time>
      </trkpt>
      <trkpt lat="46.18008" lon="4.53032">
        <ele>465.2</ele>
        <time>2022-05-08T11:02:56Z</time>
      </trkpt>
      <trkpt lat="46.18011" lon="4.5302">
        <ele>465.6</ele>
        <time>2022-05-08T11:03:00Z</time>
      </trkpt>
      <trkpt lat="46.18014" lon="4.5301">
        <ele>466.2</ele>
        <time>2022-05-08T11:03:04Z</time>
      </trkpt>
      <trkpt lat="46.18016" lon="4.52999">
        <ele>467</ele>
        <time>2022-05-08T11:03:08Z</time>
      </trkpt>
      <trkpt lat="46.18017" lon="4.52988">
        <ele>467.4</ele>
        <time>2022-05-08T11:03:12Z</time>
      </trkpt>
      <trkpt lat="46.18019" lon="4.52978">
        <ele>468</ele>
        <time>2022-05-08T11:03:16Z</time>
      </trkpt>
      <trkpt lat="46.1802" lon="4.52967">
        <ele>468.6</ele>
        <time>2022-05-08T11:03:20Z</time>
      </trkpt>
      <trkpt lat="46.18021" lon="4.52956">
        <ele>470</ele>
        <time>2022-05-08T11:03:24Z</time>
      </trkpt>
      <trkpt lat="46.18021" lon="4.52944">
        <ele>470</ele>
        <time>2022-05-08T11:03:28Z</time>
      </trkpt>
      <trkpt lat="46.18021" lon="4.52933">
        <ele>470.8</ele>
        <time>2022-05-08T11:03:32Z</time>
      </trkpt>
      <trkpt lat="46.18019" lon="4.52922">
        <ele>471.6</ele>
        <time>2022-05-08T11:03:36Z</time>
      </trkpt>
      <trkpt lat="46.18018" lon="4.52912">
        <ele>471.8</ele>
        <time>2022-05-08T11:03:40Z</time>
      </trkpt>
      <trkpt lat="46.18016" lon="4.529">
        <ele>473</ele>
        <time>2022-05-08T11:03:44Z</time>
      </trkpt>
      <trkpt lat="46.18014" lon="4.52889">
        <ele>473.4</ele>
        <time>2022-05-08T11:03:48Z</time>
      </trkpt>
      <trkpt lat="46.18012" lon="4.52878">
        <ele>473.6</ele>
        <time>2022-05-08T11:03:52Z</time>
      </trkpt>
      <trkpt lat="46.18009" lon="4.52867">
        <ele>474.2</ele>
        <time>2022-05-08T11:03:56Z</time>
      </trkpt>
      <trkpt lat="46.18006" lon="4.52856">
        <ele>474.6</ele>
        <time>2022-05-08T11:04:00Z</time>
      </trkpt>
      <trkpt lat="46.18003" lon="4.52844">
        <ele>475.2</ele>
        <time>2022-05-08T11:04:04Z</time>
      </trkpt>
      <trkpt lat="46.18" lon="4.52833">
        <ele>475.4</ele>
        <time>2022-05-08T11:04:08Z</time>
      </trkpt>
      <trkpt lat="46.17996" lon="4.52821">
        <ele>475.4</ele>
        <time>2022-05-08T11:04:12Z</time>
      </trkpt>
      <trkpt lat="46.17993" lon="4.5281">
        <ele>476</ele>
        <time>2022-05-08T11:04:16Z</time>
      </trkpt>
      <trkpt lat="46.1799" lon="4.52799">
        <ele>476.2</ele>
        <time>2022-05-08T11:04:20Z</time>
      </trkpt>
      <trkpt lat="46.17987" lon="4.52789">
        <ele>476.6</ele>
        <time>2022-05-08T11:04:24Z</time>
      </trkpt>
      <trkpt lat="46.17983" lon="4.52778">
        <ele>477.4</ele>
        <time>2022-05-08T11:04:28Z</time>
      </trkpt>
      <trkpt lat="46.1798" lon="4.52767">
        <ele>477.8</ele>
        <time>2022-05-08T11:04:32Z</time>
      </trkpt>
      <trkpt lat="46.17977" lon="4.52756">
        <ele>478.8</ele>
        <time>2022-05-08T11:04:36Z</time>
      </trkpt>
      <trkpt lat="46.17973" lon="4.52745">
        <ele>479</ele>
        <time>2022-05-08T11:04:40Z</time>
      </trkpt>
      <trkpt lat="46.1797" lon="4.52734">
        <ele>479.6</ele>
        <time>2022-05-08T11:04:44Z</time>
      </trkpt>
      <trkpt lat="46.17967" lon="4.52723">
        <ele>479.8</ele>
        <time>2022-05-08T11:04:48Z</time>
      </trkpt>
      <trkpt lat="46.17964" lon="4.52712">
        <ele>480.2</ele>
        <time>2022-05-08T11:04:52Z</time>
      </trkpt>
      <trkpt lat="46.17961" lon="4.52702">
        <ele>480.4</ele>
        <time>2022-05-08T11:04:56Z</time>
      </trkpt>
      <trkpt lat="46.17957" lon="4.52691">
        <ele>480.8</ele>
        <time>2022-05-08T11:05:00Z</time>
      </trkpt>
      <trkpt lat="46.17954" lon="4.52681">
        <ele>481.4</ele>
        <time>2022-05-08T11:05:04Z</time>
      </trkpt>
      <trkpt lat="46.17951" lon="4.52671">
        <ele>481.4</ele>
        <time>2022-05-08T11:05:08Z</time>
      </trkpt>
      <trkpt lat="46.17948" lon="4.5266">
        <ele>482</ele>
        <time>2022-05-08T11:05:12Z</time>
      </trkpt>
      <trkpt lat="46.17945" lon="4.52649">
        <ele>483</ele>
        <time>2022-05-08T11:05:16Z</time>
      </trkpt>
      <trkpt lat="46.17942" lon="4.52639">
        <ele>483.8</ele>
        <time>2022-05-08T11:05:20Z</time>
      </trkpt>
      <trkpt lat="46.1794" lon="4.52629">
        <ele>483.8</ele>
        <time>2022-05-08T11:05:24Z</time>
      </trkpt>
      <trkpt lat="46.17936" lon="4.52618">
        <ele>484.6</ele>
        <time>2022-05-08T11:05:28Z</time>
      </trkpt>
      <trkpt lat="46.17933" lon="4.52607">
        <ele>484.6</ele>
        <time>2022-05-08T11:05:32Z</time>
      </trkpt>
      <trkpt lat="46.1793" lon="4.52596">
        <ele>485.2</ele>
        <time>2022-05-08T11:05:36Z</time>
      </trkpt>
      <trkpt lat="46.17927" lon="4.52586">
        <ele>485.4</ele>
        <time>2022-05-08T11:05:40Z</time>
      </trkpt>
      <trkpt lat="46.17923" lon="4.52576">
        <ele>486</ele>
        <time>2022-05-08T11:05:44Z</time>
      </trkpt>
      <trkpt lat="46.1792" lon="4.52565">
        <ele>485.6</ele>
        <time>2022-05-08T11:05:48Z</time>
      </trkpt>
      <trkpt lat="46.17917" lon="4.52554">
        <ele>486.4</ele>
        <time>2022-05-08T11:05:52Z</time>
      </trkpt>
      <trkpt lat="46.17914" lon="4.52543">
        <ele>487.2</ele>
        <time>2022-05-08T11:05:56Z</time>
      </trkpt>
      <trkpt lat="46.1791" lon="4.52532">
        <ele>487.4</ele>
        <time>2022-05-08T11:06:00Z</time>
      </trkpt>
      <trkpt lat="46.17907" lon="4.52521">
        <ele>487.8</ele>
        <time>2022-05-08T11:06:04Z</time>
      </trkpt>
      <trkpt lat="46.17904" lon="4.52511">
        <ele>488.4</ele>
        <time>2022-05-08T11:06:08Z</time>
      </trkpt>
      <trkpt lat="46.17901" lon="4.525">
        <ele>488.6</ele>
        <time>2022-05-08T11:06:12Z</time>
      </trkpt>
      <trkpt lat="46.17898" lon="4.52489">
        <ele>489.2</ele>
        <time>2022-05-08T11:06:16Z</time>
      </trkpt>
      <trkpt lat="46.17895" lon="4.52479">
        <ele>489.6</ele>
        <time>2022-05-08T11:06:20Z</time>
      </trkpt>
      <trkpt lat="46.17891" lon="4.52468">
        <ele>489.4</ele>
        <time>2022-05-08T11:06:24Z</time>
      </trkpt>
      <trkpt lat="46.17888" lon="4.52459">
        <ele>491</ele>
        <time>2022-05-08T11:06:28Z</time>
      </trkpt>
      <trkpt lat="46.17886" lon="4.52449">
        <ele>491.8</ele>
        <time>2022-05-08T11:06:32Z</time>
      </trkpt>
      <trkpt lat="46.17883" lon="4.52438">
        <ele>492.6</ele>
        <time>2022-05-08T11:06:36Z</time>
      </trkpt>
      <trkpt lat="46.1788" lon="4.52428">
        <ele>492.4</ele>
        <time>2022-05-08T11:06:40Z</time>
      </trkpt>
      <trkpt lat="46.17877" lon="4.52417">
        <ele>493.8</ele>
        <time>2022-05-08T11:06:44Z</time>
      </trkpt>
      <trkpt lat="46.17874" lon="4.52406">
        <ele>494</ele>
        <time>2022-05-08T11:06:48Z</time>
      </trkpt>
      <trkpt lat="46.17872" lon="4.52395">
        <ele>494.6</ele>
        <time>2022-05-08T11:06:52Z</time>
      </trkpt>
      <trkpt lat="46.17871" lon="4.52385">
        <ele>494.8</ele>
        <time>2022-05-08T11:06:56Z</time>
      </trkpt>
      <trkpt lat="46.1787" lon="4.52373">
        <ele>495.4</ele>
        <time>2022-05-08T11:07:00Z</time>
      </trkpt>
      <trkpt lat="46.1787" lon="4.52361">
        <ele>495.6</ele>
        <time>2022-05-08T11:07:04Z</time>
      </trkpt>
      <trkpt lat="46.17871" lon="4.52347">
        <ele>495.8</ele>
        <time>2022-05-08T11:07:08Z</time>
      </trkpt>
      <trkpt lat="46.17873" lon="4.52335">
        <ele>497.8</ele>
        <time>2022-05-08T11:07:12Z</time>
      </trkpt>
      <trkpt lat="46.17875" lon="4.52324">
        <ele>497.2</ele>
        <time>2022-05-08T11:07:16Z</time>
      </trkpt>
      <trkpt lat="46.17879" lon="4.52314">
        <ele>496.6</ele>
        <time>2022-05-08T11:07:20Z</time>
      </trkpt>
      <trkpt lat="46.17881" lon="4.52303">
        <ele>498.4</ele>
        <time>2022-05-08T11:07:24Z</time>
      </trkpt>
      <trkpt lat="46.17883" lon="4.52292">
        <ele>498</ele>
        <time>2022-05-08T11:07:28Z</time>
      </trkpt>
      <trkpt lat="46.17885" lon="4.52281">
        <ele>498.6</ele>
        <time>2022-05-08T11:07:32Z</time>
      </trkpt>
      <trkpt lat="46.17888" lon="4.52269">
        <ele>498.8</ele>
        <time>2022-05-08T11:07:36Z</time>
      </trkpt>
      <trkpt lat="46.1789" lon="4.52259">
        <ele>499</ele>
        <time>2022-05-08T11:07:40Z</time>
      </trkpt>
      <trkpt lat="46.17893" lon="4.52248">
        <ele>501.4</ele>
        <time>2022-05-08T11:07:44Z</time>
      </trkpt>
      <trkpt lat="46.17895" lon="4.52237">
        <ele>501.8</ele>
        <time>2022-05-08T11:07:48Z</time>
      </trkpt>
      <trkpt lat="46.17897" lon="4.52225">
        <ele>502.2</ele>
        <time>2022-05-08T11:07:52Z</time>
      </trkpt>
      <trkpt lat="46.179" lon="4.52214">
        <ele>503</ele>
        <time>2022-05-08T11:07:56Z</time>
      </trkpt>
      <trkpt lat="46.17902" lon="4.52202">
        <ele>503</ele>
        <time>2022-05-08T11:08:00Z</time>
      </trkpt>
      <trkpt lat="46.17905" lon="4.52191">
        <ele>504.2</ele>
        <time>2022-05-08T11:08:04Z</time>
      </trkpt>
      <trkpt lat="46.17907" lon="4.5218">
        <ele>504.4</ele>
        <time>2022-05-08T11:08:08Z</time>
      </trkpt>
      <trkpt lat="46.1791" lon="4.52169">
        <ele>504.8</ele>
        <time>2022-05-08T11:08:12Z</time>
      </trkpt>
      <trkpt lat="46.17912" lon="4.52158">
        <ele>504.6</ele>
        <time>2022-05-08T11:08:16Z</time>
      </trkpt>
      <trkpt lat="46.17915" lon="4.52148">
        <ele>505.4</ele>
        <time>2022-05-08T11:08:20Z</time>
      </trkpt>
      <trkpt lat="46.17917" lon="4.52137">
        <ele>505.6</ele>
        <time>2022-05-08T11:08:24Z</time>
      </trkpt>
      <trkpt lat="46.1792" lon="4.52126">
        <ele>506.4</ele>
        <time>2022-05-08T11:08:28Z</time>
      </trkpt>
      <trkpt lat="46.17923" lon="4.52115">
        <ele>506</ele>
        <time>2022-05-08T11:08:32Z</time>
      </trkpt>
      <trkpt lat="46.17925" lon="4.52104">
        <ele>508.2</ele>
        <time>2022-05-08T11:08:36Z</time>
      </trkpt>
      <trkpt lat="46.17928" lon="4.52093">
        <ele>508.6</ele>
        <time>2022-05-08T11:08:40Z</time>
      </trkpt>
      <trkpt lat="46.17931" lon="4.52081">
        <ele>508.8</ele>
        <time>2022-05-08T11:08:44Z</time>
      </trkpt>
      <trkpt lat="46.17934" lon="4.52071">
        <ele>509.2</ele>
        <time>2022-05-08T11:08:48Z</time>
      </trkpt>
      <trkpt lat="46.17936" lon="4.5206">
        <ele>509.6</ele>
        <time>2022-05-08T11:08:52Z</time>
      </trkpt>
      <trkpt lat="46.17939" lon="4.52049">
        <ele>510.4</ele>
        <time>2022-05-08T11:08:56Z</time>
      </trkpt>
      <trkpt lat="46.17941" lon="4.52038">
        <ele>511.2</ele>
        <time>2022-05-08T11:09:00Z</time>
      </trkpt>
      <trkpt lat="46.17944" lon="4.52027">
        <ele>512</ele>
        <time>2022-05-08T11:09:04Z</time>
      </trkpt>
      <trkpt lat="46.17947" lon="4.52016">
        <ele>513.2</ele>
        <time>2022-05-08T11:09:08Z</time>
      </trkpt>
      <trkpt lat="46.17948" lon="4.52004">
        <ele>513.6</ele>
        <time>2022-05-08T11:09:12Z</time>
      </trkpt>
      <trkpt lat="46.1795" lon="4.51992">
        <ele>514.2</ele>
        <time>2022-05-08T11:09:16Z</time>
      </trkpt>
      <trkpt lat="46.17951" lon="4.51979">
        <ele>514.6</ele>
        <time>2022-05-08T11:09:20Z</time>
      </trkpt>
      <trkpt lat="46.17951" lon="4.51968">
        <ele>515</ele>
        <time>2022-05-08T11:09:24Z</time>
      </trkpt>
      <trkpt lat="46.1795" lon="4.51957">
        <ele>516</ele>
        <time>2022-05-08T11:09:28Z</time>
      </trkpt>
      <trkpt lat="46.17949" lon="4.51946">
        <ele>516</ele>
        <time>2022-05-08T11:09:32Z</time>
      </trkpt>
      <trkpt lat="46.17948" lon="4.51934">
        <ele>516.6</ele>
        <time>2022-05-08T11:09:36Z</time>
      </trkpt>
      <trkpt lat="46.17946" lon="4.51923">
        <ele>517</ele>
        <time>2022-05-08T11:09:40Z</time>
      </trkpt>
      <trkpt lat="46.17944" lon="4.51912">
        <ele>517</ele>
        <time>2022-05-08T11:09:44Z</time>
      </trkpt>
      <trkpt lat="46.17942" lon="4.51901">
        <ele>517.4</ele>
        <time>2022-05-08T11:09:48Z</time>
      </trkpt>
      <trkpt lat="46.17936" lon="4.51886">
        <ele>517.2</ele>
        <time>2022-05-08T11:11:03Z</time>
      </trkpt>
      <trkpt lat="46.17931" lon="4.51874">
        <ele>517.6</ele>
        <time>2022-05-08T11:11:07Z</time>
      </trkpt>
      <trkpt lat="46.17925" lon="4.51862">
        <ele>517</ele>
        <time>2022-05-08T11:11:11Z</time>
      </trkpt>
      <trkpt lat="46.17916" lon="4.51849">
        <ele>517.2</ele>
        <time>2022-05-08T11:11:15Z</time>
      </trkpt>
      <trkpt lat="46.17906" lon="4.51832">
        <ele>516.6</ele>
        <time>2022-05-08T11:11:19Z</time>
      </trkpt>
      <trkpt lat="46.17892" lon="4.51814">
        <ele>515.6</ele>
        <time>2022-05-08T11:11:23Z</time>
      </trkpt>
      <trkpt lat="46.17877" lon="4.51792">
        <ele>514.6</ele>
        <time>2022-05-08T11:11:27Z</time>
      </trkpt>
      <trkpt lat="46.17858" lon="4.51767">
        <ele>513</ele>
        <time>2022-05-08T11:11:31Z</time>
      </trkpt>
      <trkpt lat="46.17838" lon="4.51739">
        <ele>512</ele>
        <time>2022-05-08T11:11:35Z</time>
      </trkpt>
      <trkpt lat="46.17816" lon="4.51709">
        <ele>508.8</ele>
        <time>2022-05-08T11:11:39Z</time>
      </trkpt>
      <trkpt lat="46.17795" lon="4.5168">
        <ele>510</ele>
        <time>2022-05-08T11:11:43Z</time>
      </trkpt>
      <trkpt lat="46.17776" lon="4.51651">
        <ele>509</ele>
        <time>2022-05-08T11:11:47Z</time>
      </trkpt>
      <trkpt lat="46.17757" lon="4.51624">
        <ele>508.2</ele>
        <time>2022-05-08T11:11:51Z</time>
      </trkpt>
      <trkpt lat="46.1774" lon="4.51599">
        <ele>509.2</ele>
        <time>2022-05-08T11:11:55Z</time>
      </trkpt>
      <trkpt lat="46.17723" lon="4.51574">
        <ele>509.6</ele>
        <time>2022-05-08T11:11:59Z</time>
      </trkpt>
      <trkpt lat="46.17706" lon="4.51549">
        <ele>509</ele>
        <time>2022-05-08T11:12:03Z</time>
      </trkpt>
      <trkpt lat="46.17691" lon="4.51522">
        <ele>508.2</ele>
        <time>2022-05-08T11:12:07Z</time>
      </trkpt>
      <trkpt lat="46.1768" lon="4.51494">
        <ele>508.8</ele>
        <time>2022-05-08T11:12:11Z</time>
      </trkpt>
      <trkpt lat="46.17673" lon="4.51467">
        <ele>509.6</ele>
        <time>2022-05-08T11:12:15Z</time>
      </trkpt>
      <trkpt lat="46.17669" lon="4.51443">
        <ele>511.2</ele>
        <time>2022-05-08T11:12:19Z</time>
      </trkpt>
      <trkpt lat="46.17667" lon="4.51423">
        <ele>512</ele>
        <time>2022-05-08T11:12:23Z</time>
      </trkpt>
      <trkpt lat="46.17665" lon="4.51407">
        <ele>512.4</ele>
        <time>2022-05-08T11:12:27Z</time>
      </trkpt>
      <trkpt lat="46.17663" lon="4.51391">
        <ele>512.8</ele>
        <time>2022-05-08T11:12:31Z</time>
      </trkpt>
      <trkpt lat="46.17661" lon="4.51377">
        <ele>514</ele>
        <time>2022-05-08T11:12:35Z</time>
      </trkpt>
      <trkpt lat="46.1766" lon="4.51361">
        <ele>514.4</ele>
        <time>2022-05-08T11:12:39Z</time>
      </trkpt>
      <trkpt lat="46.17658" lon="4.51346">
        <ele>514.6</ele>
        <time>2022-05-08T11:12:43Z</time>
      </trkpt>
      <trkpt lat="46.17656" lon="4.51332">
        <ele>515.4</ele>
        <time>2022-05-08T11:12:47Z</time>
      </trkpt>
      <trkpt lat="46.17654" lon="4.51319">
        <ele>516</ele>
        <time>2022-05-08T11:12:51Z</time>
      </trkpt>
      <trkpt lat="46.1765" lon="4.51308">
        <ele>516.8</ele>
        <time>2022-05-08T11:12:55Z</time>
      </trkpt>
      <trkpt lat="46.17646" lon="4.51296">
        <ele>517.2</ele>
        <time>2022-05-08T11:12:59Z</time>
      </trkpt>
      <trkpt lat="46.17642" lon="4.51283">
        <ele>517.8</ele>
        <time>2022-05-08T11:13:03Z</time>
      </trkpt>
      <trkpt lat="46.17638" lon="4.5127">
        <ele>519</ele>
        <time>2022-05-08T11:13:07Z</time>
      </trkpt>
      <trkpt lat="46.17633" lon="4.51257">
        <ele>519.4</ele>
        <time>2022-05-08T11:13:11Z</time>
      </trkpt>
      <trkpt lat="46.17628" lon="4.51244">
        <ele>519.2</ele>
        <time>2022-05-08T11:13:15Z</time>
      </trkpt>
      <trkpt lat="46.17623" lon="4.51232">
        <ele>519.2</ele>
        <time>2022-05-08T11:13:19Z</time>
      </trkpt>
      <trkpt lat="46.17618" lon="4.51221">
        <ele>520.4</ele>
        <time>2022-05-08T11:13:23Z</time>
      </trkpt>
      <trkpt lat="46.17612" lon="4.51209">
        <ele>520.8</ele>
        <time>2022-05-08T11:13:27Z</time>
      </trkpt>
      <trkpt lat="46.17607" lon="4.51198">
        <ele>521.4</ele>
        <time>2022-05-08T11:13:31Z</time>
      </trkpt>
      <trkpt lat="46.17602" lon="4.51187">
        <ele>521.8</ele>
        <time>2022-05-08T11:13:35Z</time>
      </trkpt>
      <trkpt lat="46.17597" lon="4.51176">
        <ele>521.6</ele>
        <time>2022-05-08T11:13:39Z</time>
      </trkpt>
      <trkpt lat="46.17593" lon="4.51165">
        <ele>522.2</ele>
        <time>2022-05-08T11:13:43Z</time>
      </trkpt>
      <trkpt lat="46.17588" lon="4.51155">
        <ele>523.2</ele>
        <time>2022-05-08T11:13:47Z</time>
      </trkpt>
      <trkpt lat="46.17584" lon="4.51145">
        <ele>524.2</ele>
        <time>2022-05-08T11:13:51Z</time>
      </trkpt>
      <trkpt lat="46.17579" lon="4.51135">
        <ele>524.6</ele>
        <time>2022-05-08T11:13:55Z</time>
      </trkpt>
      <trkpt lat="46.17575" lon="4.51126">
        <ele>525.4</ele>
        <time>2022-05-08T11:13:59Z</time>
      </trkpt>
      <trkpt lat="46.17572" lon="4.51117">
        <ele>526</ele>
        <time>2022-05-08T11:14:03Z</time>
      </trkpt>
      <trkpt lat="46.17568" lon="4.51107">
        <ele>526.8</ele>
        <time>2022-05-08T11:14:07Z</time>
      </trkpt>
      <trkpt lat="46.17564" lon="4.51098">
        <ele>527</ele>
        <time>2022-05-08T11:14:11Z</time>
      </trkpt>
      <trkpt lat="46.17559" lon="4.51088">
        <ele>527.6</ele>
        <time>2022-05-08T11:14:15Z</time>
      </trkpt>
      <trkpt lat="46.17554" lon="4.51079">
        <ele>528.2</ele>
        <time>2022-05-08T11:14:19Z</time>
      </trkpt>
      <trkpt lat="46.17549" lon="4.5107">
        <ele>529</ele>
        <time>2022-05-08T11:14:23Z</time>
      </trkpt>
      <trkpt lat="46.17544" lon="4.5106">
        <ele>529.4</ele>
        <time>2022-05-08T11:14:27Z</time>
      </trkpt>
      <trkpt lat="46.17539" lon="4.5105">
        <ele>530.2</ele>
        <time>2022-05-08T11:14:31Z</time>
      </trkpt>
      <trkpt lat="46.17532" lon="4.5104">
        <ele>530.6</ele>
        <time>2022-05-08T11:14:35Z</time>
      </trkpt>
      <trkpt lat="46.17526" lon="4.51031">
        <ele>531.2</ele>
        <time>2022-05-08T11:14:39Z</time>
      </trkpt>
      <trkpt lat="46.17519" lon="4.51024">
        <ele>531.6</ele>
        <time>2022-05-08T11:14:43Z</time>
      </trkpt>
      <trkpt lat="46.17512" lon="4.51016">
        <ele>532.2</ele>
        <time>2022-05-08T11:14:47Z</time>
      </trkpt>
      <trkpt lat="46.17505" lon="4.5101">
        <ele>532</ele>
        <time>2022-05-08T11:14:51Z</time>
      </trkpt>
      <trkpt lat="46.17498" lon="4.51002">
        <ele>532.2</ele>
        <time>2022-05-08T11:14:55Z</time>
      </trkpt>
      <trkpt lat="46.17491" lon="4.50994">
        <ele>533.6</ele>
        <time>2022-05-08T11:14:59Z</time>
      </trkpt>
      <trkpt lat="46.17483" lon="4.50988">
        <ele>533.8</ele>
        <time>2022-05-08T11:15:03Z</time>
      </trkpt>
      <trkpt lat="46.17477" lon="4.5098">
        <ele>534.8</ele>
        <time>2022-05-08T11:15:07Z</time>
      </trkpt>
      <trkpt lat="46.1747" lon="4.50972">
        <ele>535.2</ele>
        <time>2022-05-08T11:15:11Z</time>
      </trkpt>
      <trkpt lat="46.17464" lon="4.50965">
        <ele>536.4</ele>
        <time>2022-05-08T11:15:15Z</time>
      </trkpt>
      <trkpt lat="46.17458" lon="4.50956">
        <ele>536.6</ele>
        <time>2022-05-08T11:15:19Z</time>
      </trkpt>
      <trkpt lat="46.17452" lon="4.50947">
        <ele>537.8</ele>
        <time>2022-05-08T11:15:23Z</time>
      </trkpt>
      <trkpt lat="46.17447" lon="4.50937">
        <ele>538.2</ele>
        <time>2022-05-08T11:15:27Z</time>
      </trkpt>
      <trkpt lat="46.17442" lon="4.50927">
        <ele>538.6</ele>
        <time>2022-05-08T11:15:31Z</time>
      </trkpt>
      <trkpt lat="46.17438" lon="4.50917">
        <ele>539.4</ele>
        <time>2022-05-08T11:15:35Z</time>
      </trkpt>
      <trkpt lat="46.17435" lon="4.50907">
        <ele>539.6</ele>
        <time>2022-05-08T11:15:39Z</time>
      </trkpt>
      <trkpt lat="46.17431" lon="4.50897">
        <ele>540</ele>
        <time>2022-05-08T11:15:43Z</time>
      </trkpt>
      <trkpt lat="46.17428" lon="4.50889">
        <ele>540.4</ele>
        <time>2022-05-08T11:15:47Z</time>
      </trkpt>
      <trkpt lat="46.17425" lon="4.5088">
        <ele>541.2</ele>
        <time>2022-05-08T11:15:51Z</time>
      </trkpt>
      <trkpt lat="46.17423" lon="4.50871">
        <ele>541.8</ele>
        <time>2022-05-08T11:15:55Z</time>
      </trkpt>
      <trkpt lat="46.1742" lon="4.50859">
        <ele>541.8</ele>
        <time>2022-05-08T11:15:59Z</time>
      </trkpt>
      <trkpt lat="46.17416" lon="4.50847">
        <ele>542.4</ele>
        <time>2022-05-08T11:16:03Z</time>
      </trkpt>
      <trkpt lat="46.17412" lon="4.50835">
        <ele>543.4</ele>
        <time>2022-05-08T11:16:07Z</time>
      </trkpt>
      <trkpt lat="46.17407" lon="4.50824">
        <ele>543.6</ele>
        <time>2022-05-08T11:16:11Z</time>
      </trkpt>
      <trkpt lat="46.17403" lon="4.50812">
        <ele>544</ele>
        <time>2022-05-08T11:16:15Z</time>
      </trkpt>
      <trkpt lat="46.174" lon="4.50801">
        <ele>544.2</ele>
        <time>2022-05-08T11:16:19Z</time>
      </trkpt>
      <trkpt lat="46.17395" lon="4.5079">
        <ele>544.2</ele>
        <time>2022-05-08T11:16:23Z</time>
      </trkpt>
      <trkpt lat="46.17392" lon="4.50779">
        <ele>545</ele>
        <time>2022-05-08T11:16:27Z</time>
      </trkpt>
      <trkpt lat="46.17388" lon="4.50768">
        <ele>545</ele>
        <time>2022-05-08T11:16:31Z</time>
      </trkpt>
      <trkpt lat="46.17383" lon="4.50756">
        <ele>545.6</ele>
        <time>2022-05-08T11:16:35Z</time>
      </trkpt>
      <trkpt lat="46.17379" lon="4.50746">
        <ele>545.8</ele>
        <time>2022-05-08T11:16:39Z</time>
      </trkpt>
      <trkpt lat="46.17375" lon="4.50736">
        <ele>546.2</ele>
        <time>2022-05-08T11:16:43Z</time>
      </trkpt>
      <trkpt lat="46.1737" lon="4.50724">
        <ele>546.4</ele>
        <time>2022-05-08T11:16:47Z</time>
      </trkpt>
      <trkpt lat="46.17367" lon="4.50713">
        <ele>547.4</ele>
        <time>2022-05-08T11:16:51Z</time>
      </trkpt>
      <trkpt lat="46.17361" lon="4.50702">
        <ele>548.4</ele>
        <time>2022-05-08T11:16:55Z</time>
      </trkpt>
      <trkpt lat="46.17356" lon="4.5069">
        <ele>548.6</ele>
        <time>2022-05-08T11:16:59Z</time>
      </trkpt>
      <trkpt lat="46.1735" lon="4.50679">
        <ele>549</ele>
        <time>2022-05-08T11:17:03Z</time>
      </trkpt>
      <trkpt lat="46.17344" lon="4.50667">
        <ele>549.8</ele>
        <time>2022-05-08T11:17:07Z</time>
      </trkpt>
      <trkpt lat="46.17338" lon="4.50656">
        <ele>549.6</ele>
        <time>2022-05-08T11:17:11Z</time>
      </trkpt>
      <trkpt lat="46.17332" lon="4.50646">
        <ele>550.4</ele>
        <time>2022-05-08T11:17:15Z</time>
      </trkpt>
      <trkpt lat="46.17326" lon="4.50635">
        <ele>550.6</ele>
        <time>2022-05-08T11:17:19Z</time>
      </trkpt>
      <trkpt lat="46.17319" lon="4.50625">
        <ele>551.2</ele>
        <time>2022-05-08T11:17:23Z</time>
      </trkpt>
      <trkpt lat="46.17312" lon="4.50614">
        <ele>551.2</ele>
        <time>2022-05-08T11:17:27Z</time>
      </trkpt>
      <trkpt lat="46.17305" lon="4.50604">
        <ele>551.6</ele>
        <time>2022-05-08T11:17:31Z</time>
      </trkpt>
      <trkpt lat="46.17299" lon="4.50594">
        <ele>552</ele>
        <time>2022-05-08T11:17:35Z</time>
      </trkpt>
      <trkpt lat="46.17292" lon="4.50584">
        <ele>552.6</ele>
        <time>2022-05-08T11:17:39Z</time>
      </trkpt>
      <trkpt lat="46.17286" lon="4.50574">
        <ele>553.2</ele>
        <time>2022-05-08T11:17:43Z</time>
      </trkpt>
      <trkpt lat="46.17279" lon="4.50564">
        <ele>553.8</ele>
        <time>2022-05-08T11:17:47Z</time>
      </trkpt>
      <trkpt lat="46.17272" lon="4.50554">
        <ele>554</ele>
        <time>2022-05-08T11:17:51Z</time>
      </trkpt>
      <trkpt lat="46.17265" lon="4.50544">
        <ele>554.6</ele>
        <time>2022-05-08T11:17:55Z</time>
      </trkpt>
      <trkpt lat="46.17258" lon="4.50535">
        <ele>554.8</ele>
        <time>2022-05-08T11:17:59Z</time>
      </trkpt>
      <trkpt lat="46.17253" lon="4.50526">
        <ele>555</ele>
        <time>2022-05-08T11:18:03Z</time>
      </trkpt>
      <trkpt lat="46.17245" lon="4.50516">
        <ele>555.2</ele>
        <time>2022-05-08T11:18:07Z</time>
      </trkpt>
      <trkpt lat="46.17238" lon="4.50507">
        <ele>556</ele>
        <time>2022-05-08T11:18:11Z</time>
      </trkpt>
      <trkpt lat="46.17231" lon="4.50499">
        <ele>556</ele>
        <time>2022-05-08T11:18:15Z</time>
      </trkpt>
      <trkpt lat="46.17225" lon="4.50489">
        <ele>556.4</ele>
        <time>2022-05-08T11:18:19Z</time>
      </trkpt>
      <trkpt lat="46.17219" lon="4.5048">
        <ele>557</ele>
        <time>2022-05-08T11:18:23Z</time>
      </trkpt>
      <trkpt lat="46.17212" lon="4.5047">
        <ele>557.2</ele>
        <time>2022-05-08T11:18:27Z</time>
      </trkpt>
      <trkpt lat="46.17205" lon="4.5046">
        <ele>558.4</ele>
        <time>2022-05-08T11:18:31Z</time>
      </trkpt>
      <trkpt lat="46.17198" lon="4.50451">
        <ele>558</ele>
        <time>2022-05-08T11:18:35Z</time>
      </trkpt>
      <trkpt lat="46.17191" lon="4.50441">
        <ele>558.8</ele>
        <time>2022-05-08T11:18:39Z</time>
      </trkpt>
      <trkpt lat="46.17184" lon="4.50431">
        <ele>559</ele>
        <time>2022-05-08T11:18:43Z</time>
      </trkpt>
      <trkpt lat="46.17177" lon="4.50421">
        <ele>559.4</ele>
        <time>2022-05-08T11:18:47Z</time>
      </trkpt>
      <trkpt lat="46.17171" lon="4.50411">
        <ele>559.4</ele>
        <time>2022-05-08T11:18:51Z</time>
      </trkpt>
      <trkpt lat="46.17165" lon="4.50399">
        <ele>559.4</ele>
        <time>2022-05-08T11:18:55Z</time>
      </trkpt>
      <trkpt lat="46.1716" lon="4.50386">
        <ele>560.2</ele>
        <time>2022-05-08T11:18:59Z</time>
      </trkpt>
      <trkpt lat="46.17156" lon="4.50373">
        <ele>560.6</ele>
        <time>2022-05-08T11:19:03Z</time>
      </trkpt>
      <trkpt lat="46.17154" lon="4.5036">
        <ele>561</ele>
        <time>2022-05-08T11:19:07Z</time>
      </trkpt>
      <trkpt lat="46.17153" lon="4.50348">
        <ele>561.2</ele>
        <time>2022-05-08T11:19:11Z</time>
      </trkpt>
      <trkpt lat="46.17152" lon="4.50336">
        <ele>562.2</ele>
        <time>2022-05-08T11:19:15Z</time>
      </trkpt>
      <trkpt lat="46.17152" lon="4.50324">
        <ele>562.6</ele>
        <time>2022-05-08T11:19:19Z</time>
      </trkpt>
      <trkpt lat="46.17152" lon="4.50313">
        <ele>562.8</ele>
        <time>2022-05-08T11:19:23Z</time>
      </trkpt>
      <trkpt lat="46.17151" lon="4.50302">
        <ele>563.4</ele>
        <time>2022-05-08T11:19:27Z</time>
      </trkpt>
      <trkpt lat="46.17152" lon="4.50291">
        <ele>564</ele>
        <time>2022-05-08T11:19:31Z</time>
      </trkpt>
      <trkpt lat="46.17151" lon="4.50279">
        <ele>564.8</ele>
        <time>2022-05-08T11:19:35Z</time>
      </trkpt>
      <trkpt lat="46.17152" lon="4.50268">
        <ele>565.8</ele>
        <time>2022-05-08T11:19:39Z</time>
      </trkpt>
      <trkpt lat="46.17152" lon="4.50257">
        <ele>565.8</ele>
        <time>2022-05-08T11:19:43Z</time>
      </trkpt>
      <trkpt lat="46.17153" lon="4.50246">
        <ele>566.4</ele>
        <time>2022-05-08T11:19:47Z</time>
      </trkpt>
      <trkpt lat="46.17151" lon="4.50233">
        <ele>566.6</ele>
        <time>2022-05-08T11:19:51Z</time>
      </trkpt>
      <trkpt lat="46.17147" lon="4.50219">
        <ele>566.8</ele>
        <time>2022-05-08T11:19:55Z</time>
      </trkpt>
      <trkpt lat="46.17144" lon="4.50201">
        <ele>567.4</ele>
        <time>2022-05-08T11:19:59Z</time>
      </trkpt>
      <trkpt lat="46.17139" lon="4.50184">
        <ele>567.6</ele>
        <time>2022-05-08T11:20:03Z</time>
      </trkpt>
      <trkpt lat="46.17135" lon="4.50168">
        <ele>567.8</ele>
        <time>2022-05-08T11:20:07Z</time>
      </trkpt>
      <trkpt lat="46.17131" lon="4.50152">
        <ele>568.6</ele>
        <time>2022-05-08T11:20:11Z</time>
      </trkpt>
      <trkpt lat="46.17126" lon="4.50137">
        <ele>569.2</ele>
        <time>2022-05-08T11:20:15Z</time>
      </trkpt>
      <trkpt lat="46.17124" lon="4.50124">
        <ele>569.8</ele>
        <time>2022-05-08T11:20:19Z</time>
      </trkpt>
      <trkpt lat="46.1712" lon="4.50112">
        <ele>569.6</ele>
        <time>2022-05-08T11:20:23Z</time>
      </trkpt>
      <trkpt lat="46.17117" lon="4.50098">
        <ele>570.8</ele>
        <time>2022-05-08T11:20:27Z</time>
      </trkpt>
      <trkpt lat="46.17113" lon="4.50084">
        <ele>571.2</ele>
        <time>2022-05-08T11:20:31Z</time>
      </trkpt>
      <trkpt lat="46.17111" lon="4.50071">
        <ele>571</ele>
        <time>2022-05-08T11:20:35Z</time>
      </trkpt>
      <trkpt lat="46.17108" lon="4.50059">
        <ele>571.4</ele>
        <time>2022-05-08T11:20:39Z</time>
      </trkpt>
      <trkpt lat="46.17106" lon="4.50047">
        <ele>572.2</ele>
        <time>2022-05-08T11:20:43Z</time>
      </trkpt>
      <trkpt lat="46.17102" lon="4.50033">
        <ele>572.8</ele>
        <time>2022-05-08T11:20:47Z</time>
      </trkpt>
      <trkpt lat="46.17098" lon="4.50021">
        <ele>573.4</ele>
        <time>2022-05-08T11:20:51Z</time>
      </trkpt>
      <trkpt lat="46.17095" lon="4.50009">
        <ele>573.8</ele>
        <time>2022-05-08T11:20:55Z</time>
      </trkpt>
      <trkpt lat="46.17092" lon="4.49997">
        <ele>573.6</ele>
        <time>2022-05-08T11:20:59Z</time>
      </trkpt>
      <trkpt lat="46.17091" lon="4.49984">
        <ele>574.8</ele>
        <time>2022-05-08T11:21:03Z</time>
      </trkpt>
      <trkpt lat="46.17088" lon="4.49969">
        <ele>574.6</ele>
        <time>2022-05-08T11:21:07Z</time>
      </trkpt>
      <trkpt lat="46.17085" lon="4.49954">
        <ele>575.4</ele>
        <time>2022-05-08T11:21:11Z</time>
      </trkpt>
      <trkpt lat="46.17083" lon="4.4994">
        <ele>576</ele>
        <time>2022-05-08T11:21:15Z</time>
      </trkpt>
      <trkpt lat="46.17078" lon="4.49922">
        <ele>576.4</ele>
        <time>2022-05-08T11:21:19Z</time>
      </trkpt>
      <trkpt lat="46.17074" lon="4.49908">
        <ele>576.8</ele>
        <time>2022-05-08T11:21:23Z</time>
      </trkpt>
      <trkpt lat="46.17071" lon="4.49893">
        <ele>577.4</ele>
        <time>2022-05-08T11:21:27Z</time>
      </trkpt>
      <trkpt lat="46.17068" lon="4.49879">
        <ele>578.2</ele>
        <time>2022-05-08T11:21:31Z</time>
      </trkpt>
      <trkpt lat="46.17065" lon="4.49865">
        <ele>578.8</ele>
        <time>2022-05-08T11:21:35Z</time>
      </trkpt>
      <trkpt lat="46.17061" lon="4.49849">
        <ele>578.6</ele>
        <time>2022-05-08T11:21:39Z</time>
      </trkpt>
      <trkpt lat="46.17057" lon="4.49834">
        <ele>578.8</ele>
        <time>2022-05-08T11:21:43Z</time>
      </trkpt>
      <trkpt lat="46.17053" lon="4.49819">
        <ele>579.4</ele>
        <time>2022-05-08T11:21:47Z</time>
      </trkpt>
      <trkpt lat="46.17049" lon="4.49803">
        <ele>579.8</ele>
        <time>2022-05-08T11:21:51Z</time>
      </trkpt>
      <trkpt lat="46.17044" lon="4.49787">
        <ele>580.8</ele>
        <time>2022-05-08T11:21:55Z</time>
      </trkpt>
      <trkpt lat="46.1704" lon="4.49771">
        <ele>580.8</ele>
        <time>2022-05-08T11:21:59Z</time>
      </trkpt>
      <trkpt lat="46.17036" lon="4.49756">
        <ele>581</ele>
        <time>2022-05-08T11:22:03Z</time>
      </trkpt>
      <trkpt lat="46.17033" lon="4.4974">
        <ele>581.8</ele>
        <time>2022-05-08T11:22:07Z</time>
      </trkpt>
      <trkpt lat="46.17028" lon="4.49723">
        <ele>582</ele>
        <time>2022-05-08T11:22:11Z</time>
      </trkpt>
      <trkpt lat="46.17024" lon="4.49705">
        <ele>582.4</ele>
        <time>2022-05-08T11:22:15Z</time>
      </trkpt>
      <trkpt lat="46.17019" lon="4.49688">
        <ele>582.6</ele>
        <time>2022-05-08T11:22:19Z</time>
      </trkpt>
      <trkpt lat="46.17015" lon="4.49672">
        <ele>582.8</ele>
        <time>2022-05-08T11:22:23Z</time>
      </trkpt>
      <trkpt lat="46.17011" lon="4.49656">
        <ele>583.8</ele>
        <time>2022-05-08T11:22:27Z</time>
      </trkpt>
      <trkpt lat="46.17007" lon="4.49639">
        <ele>583.8</ele>
        <time>2022-05-08T11:22:31Z</time>
      </trkpt>
      <trkpt lat="46.17003" lon="4.49623">
        <ele>584.8</ele>
        <time>2022-05-08T11:22:35Z</time>
      </trkpt>
      <trkpt lat="46.16999" lon="4.49607">
        <ele>585.6</ele>
        <time>2022-05-08T11:22:39Z</time>
      </trkpt>
      <trkpt lat="46.16995" lon="4.49591">
        <ele>585.2</ele>
        <time>2022-05-08T11:22:43Z</time>
      </trkpt>
      <trkpt lat="46.1699" lon="4.49575">
        <ele>585.8</ele>
        <time>2022-05-08T11:22:47Z</time>
      </trkpt>
      <trkpt lat="46.16986" lon="4.49558">
        <ele>586.2</ele>
        <time>2022-05-08T11:22:51Z</time>
      </trkpt>
      <trkpt lat="46.16982" lon="4.49542">
        <ele>586.6</ele>
        <time>2022-05-08T11:22:55Z</time>
      </trkpt>
      <trkpt lat="46.16979" lon="4.49526">
        <ele>586.2</ele>
        <time>2022-05-08T11:22:59Z</time>
      </trkpt>
      <trkpt lat="46.16975" lon="4.4951">
        <ele>587</ele>
        <time>2022-05-08T11:23:03Z</time>
      </trkpt>
      <trkpt lat="46.16971" lon="4.49494">
        <ele>587.4</ele>
        <time>2022-05-08T11:23:07Z</time>
      </trkpt>
      <trkpt lat="46.16968" lon="4.49479">
        <ele>587.4</ele>
        <time>2022-05-08T11:23:11Z</time>
      </trkpt>
      <trkpt lat="46.16964" lon="4.49463">
        <ele>587.6</ele>
        <time>2022-05-08T11:23:15Z</time>
      </trkpt>
      <trkpt lat="46.16961" lon="4.49448">
        <ele>588.8</ele>
        <time>2022-05-08T11:23:19Z</time>
      </trkpt>
      <trkpt lat="46.1696" lon="4.49435">
        <ele>589</ele>
        <time>2022-05-08T11:23:23Z</time>
      </trkpt>
      <trkpt lat="46.16957" lon="4.49422">
        <ele>589.4</ele>
        <time>2022-05-08T11:23:27Z</time>
      </trkpt>
      <trkpt lat="46.16955" lon="4.4941">
        <ele>590.2</ele>
        <time>2022-05-08T11:23:31Z</time>
      </trkpt>
      <trkpt lat="46.16952" lon="4.49398">
        <ele>590.4</ele>
        <time>2022-05-08T11:23:35Z</time>
      </trkpt>
      <trkpt lat="46.16948" lon="4.49383">
        <ele>591.2</ele>
        <time>2022-05-08T11:23:39Z</time>
      </trkpt>
      <trkpt lat="46.16943" lon="4.49364">
        <ele>591.2</ele>
        <time>2022-05-08T11:23:43Z</time>
      </trkpt>
      <trkpt lat="46.16938" lon="4.49346">
        <ele>591.4</ele>
        <time>2022-05-08T11:23:47Z</time>
      </trkpt>
      <trkpt lat="46.16933" lon="4.49327">
        <ele>592</ele>
        <time>2022-05-08T11:23:51Z</time>
      </trkpt>
      <trkpt lat="46.16929" lon="4.4931">
        <ele>592.2</ele>
        <time>2022-05-08T11:23:55Z</time>
      </trkpt>
      <trkpt lat="46.16925" lon="4.49293">
        <ele>593.2</ele>
        <time>2022-05-08T11:23:59Z</time>
      </trkpt>
      <trkpt lat="46.16922" lon="4.49277">
        <ele>593.6</ele>
        <time>2022-05-08T11:24:03Z</time>
      </trkpt>
      <trkpt lat="46.16918" lon="4.49261">
        <ele>593.4</ele>
        <time>2022-05-08T11:24:07Z</time>
      </trkpt>
      <trkpt lat="46.16914" lon="4.49246">
        <ele>594</ele>
        <time>2022-05-08T11:24:11Z</time>
      </trkpt>
      <trkpt lat="46.16909" lon="4.4923">
        <ele>594</ele>
        <time>2022-05-08T11:24:15Z</time>
      </trkpt>
      <trkpt lat="46.16905" lon="4.49213">
        <ele>594.6</ele>
        <time>2022-05-08T11:24:19Z</time>
      </trkpt>
      <trkpt lat="46.16902" lon="4.49196">
        <ele>595.2</ele>
        <time>2022-05-08T11:24:23Z</time>
      </trkpt>
      <trkpt lat="46.16898" lon="4.49181">
        <ele>596.2</ele>
        <time>2022-05-08T11:24:27Z</time>
      </trkpt>
      <trkpt lat="46.16895" lon="4.49165">
        <ele>596.4</ele>
        <time>2022-05-08T11:24:31Z</time>
      </trkpt>
      <trkpt lat="46.16891" lon="4.49149">
        <ele>597.2</ele>
        <time>2022-05-08T11:24:35Z</time>
      </trkpt>
      <trkpt lat="46.16889" lon="4.49137">
        <ele>598</ele>
        <time>2022-05-08T11:24:39Z</time>
      </trkpt>
      <trkpt lat="46.16878" lon="4.49122">
        <ele>597.2</ele>
        <time>2022-05-08T11:26:14Z</time>
      </trkpt>
      <trkpt lat="46.16874" lon="4.49104">
        <ele>596.8</ele>
        <time>2022-05-08T11:26:18Z</time>
      </trkpt>
      <trkpt lat="46.16871" lon="4.49085">
        <ele>597.4</ele>
        <time>2022-05-08T11:26:22Z</time>
      </trkpt>
      <trkpt lat="46.16868" lon="4.4907">
        <ele>598</ele>
        <time>2022-05-08T11:26:26Z</time>
      </trkpt>
      <trkpt lat="46.16865" lon="4.49052">
        <ele>598.2</ele>
        <time>2022-05-08T11:26:30Z</time>
      </trkpt>
      <trkpt lat="46.16863" lon="4.49034">
        <ele>597.4</ele>
        <time>2022-05-08T11:26:34Z</time>
      </trkpt>
      <trkpt lat="46.16863" lon="4.49013">
        <ele>598.2</ele>
        <time>2022-05-08T11:26:38Z</time>
      </trkpt>
      <trkpt lat="46.16864" lon="4.4899">
        <ele>597.2</ele>
        <time>2022-05-08T11:26:42Z</time>
      </trkpt>
      <trkpt lat="46.16866" lon="4.48966">
        <ele>597.4</ele>
        <time>2022-05-08T11:26:46Z</time>
      </trkpt>
      <trkpt lat="46.1687" lon="4.4894">
        <ele>596.4</ele>
        <time>2022-05-08T11:26:50Z</time>
      </trkpt>
      <trkpt lat="46.16876" lon="4.48916">
        <ele>595.8</ele>
        <time>2022-05-08T11:26:54Z</time>
      </trkpt>
      <trkpt lat="46.16884" lon="4.48895">
        <ele>596.8</ele>
        <time>2022-05-08T11:26:58Z</time>
      </trkpt>
      <trkpt lat="46.16892" lon="4.48875">
        <ele>596.6</ele>
        <time>2022-05-08T11:27:02Z</time>
      </trkpt>
      <trkpt lat="46.16901" lon="4.48857">
        <ele>598</ele>
        <time>2022-05-08T11:27:06Z</time>
      </trkpt>
      <trkpt lat="46.1691" lon="4.48839">
        <ele>598.4</ele>
        <time>2022-05-08T11:27:10Z</time>
      </trkpt>
      <trkpt lat="46.16919" lon="4.48821">
        <ele>598</ele>
        <time>2022-05-08T11:27:14Z</time>
      </trkpt>
      <trkpt lat="46.16926" lon="4.48803">
        <ele>598</ele>
        <time>2022-05-08T11:27:18Z</time>
      </trkpt>
      <trkpt lat="46.16935" lon="4.48786">
        <ele>598</ele>
        <time>2022-05-08T11:27:22Z</time>
      </trkpt>
      <trkpt lat="46.16943" lon="4.48769">
        <ele>596</ele>
        <time>2022-05-08T11:27:26Z</time>
      </trkpt>
      <trkpt lat="46.16952" lon="4.48752">
        <ele>598.2</ele>
        <time>2022-05-08T11:27:30Z</time>
      </trkpt>
      <trkpt lat="46.16959" lon="4.48735">
        <ele>596.4</ele>
        <time>2022-05-08T11:27:34Z</time>
      </trkpt>
      <trkpt lat="46.16968" lon="4.48718">
        <ele>597.6</ele>
        <time>2022-05-08T11:27:38Z</time>
      </trkpt>
      <trkpt lat="46.16976" lon="4.48699">
        <ele>598.6</ele>
        <time>2022-05-08T11:27:42Z</time>
      </trkpt>
      <trkpt lat="46.16985" lon="4.48681">
        <ele>598.2</ele>
        <time>2022-05-08T11:27:46Z</time>
      </trkpt>
      <trkpt lat="46.16994" lon="4.48664">
        <ele>598.4</ele>
        <time>2022-05-08T11:27:50Z</time>
      </trkpt>
      <trkpt lat="46.17004" lon="4.48648">
        <ele>599.2</ele>
        <time>2022-05-08T11:27:54Z</time>
      </trkpt>
      <trkpt lat="46.17013" lon="4.4863">
        <ele>599</ele>
        <time>2022-05-08T11:27:58Z</time>
      </trkpt>
      <trkpt lat="46.17022" lon="4.4861">
        <ele>598.6</ele>
        <time>2022-05-08T11:28:02Z</time>
      </trkpt>
      <trkpt lat="46.1703" lon="4.48591">
        <ele>599</ele>
        <time>2022-05-08T11:28:06Z</time>
      </trkpt>
      <trkpt lat="46.17038" lon="4.48574">
        <ele>599.2</ele>
        <time>2022-05-08T11:28:10Z</time>
      </trkpt>
      <trkpt lat="46.17048" lon="4.48556">
        <ele>599.6</ele>
        <time>2022-05-08T11:28:14Z</time>
      </trkpt>
      <trkpt lat="46.17058" lon="4.48537">
        <ele>599.6</ele>
        <time>2022-05-08T11:28:18Z</time>
      </trkpt>
      <trkpt lat="46.17066" lon="4.48518">
        <ele>600</ele>
        <time>2022-05-08T11:28:22Z</time>
      </trkpt>
      <trkpt lat="46.17073" lon="4.48499">
        <ele>599.8</ele>
        <time>2022-05-08T11:28:26Z</time>
      </trkpt>
      <trkpt lat="46.1708" lon="4.48479">
        <ele>601.8</ele>
        <time>2022-05-08T11:28:30Z</time>
      </trkpt>
      <trkpt lat="46.17085" lon="4.4846">
        <ele>601.4</ele>
        <time>2022-05-08T11:28:34Z</time>
      </trkpt>
      <trkpt lat="46.17089" lon="4.48441">
        <ele>602.4</ele>
        <time>2022-05-08T11:28:38Z</time>
      </trkpt>
      <trkpt lat="46.17092" lon="4.48423">
        <ele>603</ele>
        <time>2022-05-08T11:28:42Z</time>
      </trkpt>
      <trkpt lat="46.17096" lon="4.48405">
        <ele>602.4</ele>
        <time>2022-05-08T11:28:46Z</time>
      </trkpt>
      <trkpt lat="46.17097" lon="4.48386">
        <ele>603.2</ele>
        <time>2022-05-08T11:28:50Z</time>
      </trkpt>
      <trkpt lat="46.17097" lon="4.48367">
        <ele>604.2</ele>
        <time>2022-05-08T11:28:54Z</time>
      </trkpt>
      <trkpt lat="46.17097" lon="4.48349">
        <ele>604.8</ele>
        <time>2022-05-08T11:28:58Z</time>
      </trkpt>
      <trkpt lat="46.17095" lon="4.4833">
        <ele>604.8</ele>
        <time>2022-05-08T11:29:02Z</time>
      </trkpt>
      <trkpt lat="46.17093" lon="4.48311">
        <ele>604.8</ele>
        <time>2022-05-08T11:29:06Z</time>
      </trkpt>
      <trkpt lat="46.17089" lon="4.48293">
        <ele>605</ele>
        <time>2022-05-08T11:29:10Z</time>
      </trkpt>
      <trkpt lat="46.17085" lon="4.48276">
        <ele>605.2</ele>
        <time>2022-05-08T11:29:14Z</time>
      </trkpt>
      <trkpt lat="46.1708" lon="4.48259">
        <ele>606.2</ele>
        <time>2022-05-08T11:29:18Z</time>
      </trkpt>
      <trkpt lat="46.17074" lon="4.48242">
        <ele>605.8</ele>
        <time>2022-05-08T11:29:22Z</time>
      </trkpt>
      <trkpt lat="46.17067" lon="4.48225">
        <ele>606.6</ele>
        <time>2022-05-08T11:29:26Z</time>
      </trkpt>
      <trkpt lat="46.1706" lon="4.4821">
        <ele>606.4</ele>
        <time>2022-05-08T11:29:30Z</time>
      </trkpt>
      <trkpt lat="46.17052" lon="4.48195">
        <ele>606.2</ele>
        <time>2022-05-08T11:29:34Z</time>
      </trkpt>
      <trkpt lat="46.17044" lon="4.48182">
        <ele>606.8</ele>
        <time>2022-05-08T11:29:38Z</time>
      </trkpt>
      <trkpt lat="46.17035" lon="4.48169">
        <ele>607.4</ele>
        <time>2022-05-08T11:29:42Z</time>
      </trkpt>
      <trkpt lat="46.17025" lon="4.48157">
        <ele>607</ele>
        <time>2022-05-08T11:29:46Z</time>
      </trkpt>
      <trkpt lat="46.17014" lon="4.48146">
        <ele>607.8</ele>
        <time>2022-05-08T11:29:50Z</time>
      </trkpt>
      <trkpt lat="46.17003" lon="4.48136">
        <ele>608.2</ele>
        <time>2022-05-08T11:29:54Z</time>
      </trkpt>
      <trkpt lat="46.16991" lon="4.48127">
        <ele>608.4</ele>
        <time>2022-05-08T11:29:58Z</time>
      </trkpt>
      <trkpt lat="46.16979" lon="4.48118">
        <ele>608.8</ele>
        <time>2022-05-08T11:30:02Z</time>
      </trkpt>
      <trkpt lat="46.16967" lon="4.48109">
        <ele>609.6</ele>
        <time>2022-05-08T11:30:06Z</time>
      </trkpt>
      <trkpt lat="46.16953" lon="4.48101">
        <ele>610.2</ele>
        <time>2022-05-08T11:30:10Z</time>
      </trkpt>
      <trkpt lat="46.1694" lon="4.48093">
        <ele>610.6</ele>
        <time>2022-05-08T11:30:14Z</time>
      </trkpt>
      <trkpt lat="46.16927" lon="4.48085">
        <ele>611.4</ele>
        <time>2022-05-08T11:30:18Z</time>
      </trkpt>
      <trkpt lat="46.16914" lon="4.48079">
        <ele>612</ele>
        <time>2022-05-08T11:30:22Z</time>
      </trkpt>
      <trkpt lat="46.16901" lon="4.48074">
        <ele>612.2</ele>
        <time>2022-05-08T11:30:26Z</time>
      </trkpt>
      <trkpt lat="46.16887" lon="4.48072">
        <ele>612.6</ele>
        <time>2022-05-08T11:30:30Z</time>
      </trkpt>
      <trkpt lat="46.16874" lon="4.48069">
        <ele>613.6</ele>
        <time>2022-05-08T11:30:34Z</time>
      </trkpt>
      <trkpt lat="46.16861" lon="4.48068">
        <ele>613.2</ele>
        <time>2022-05-08T11:30:38Z</time>
      </trkpt>
      <trkpt lat="46.16847" lon="4.48068">
        <ele>613</ele>
        <time>2022-05-08T11:30:42Z</time>
      </trkpt>
      <trkpt lat="46.16834" lon="4.48068">
        <ele>613.6</ele>
        <time>2022-05-08T11:30:46Z</time>
      </trkpt>
      <trkpt lat="46.1682" lon="4.48068">
        <ele>614</ele>
        <time>2022-05-08T11:30:50Z</time>
      </trkpt>
      <trkpt lat="46.16807" lon="4.48068">
        <ele>614.4</ele>
        <time>2022-05-08T11:30:54Z</time>
      </trkpt>
      <trkpt lat="46.16794" lon="4.48068">
        <ele>614.8</ele>
        <time>2022-05-08T11:30:58Z</time>
      </trkpt>
      <trkpt lat="46.16781" lon="4.48069">
        <ele>615</ele>
        <time>2022-05-08T11:31:02Z</time>
      </trkpt>
      <trkpt lat="46.16768" lon="4.4807">
        <ele>615.2</ele>
        <time>2022-05-08T11:31:06Z</time>
      </trkpt>
      <trkpt lat="46.16755" lon="4.4807">
        <ele>616.2</ele>
        <time>2022-05-08T11:31:10Z</time>
      </trkpt>
      <trkpt lat="46.16742" lon="4.4807">
        <ele>616.2</ele>
        <time>2022-05-08T11:31:14Z</time>
      </trkpt>
      <trkpt lat="46.16729" lon="4.48071">
        <ele>616.6</ele>
        <time>2022-05-08T11:31:18Z</time>
      </trkpt>
      <trkpt lat="46.16716" lon="4.48071">
        <ele>617</ele>
        <time>2022-05-08T11:31:22Z</time>
      </trkpt>
      <trkpt lat="46.16702" lon="4.48072">
        <ele>617.4</ele>
        <time>2022-05-08T11:31:26Z</time>
      </trkpt>
      <trkpt lat="46.16689" lon="4.48073">
        <ele>617.8</ele>
        <time>2022-05-08T11:31:30Z</time>
      </trkpt>
      <trkpt lat="46.16676" lon="4.48074">
        <ele>618.8</ele>
        <time>2022-05-08T11:31:34Z</time>
      </trkpt>
      <trkpt lat="46.16663" lon="4.48074">
        <ele>619</ele>
        <time>2022-05-08T11:31:38Z</time>
      </trkpt>
      <trkpt lat="46.1665" lon="4.48074">
        <ele>619.4</ele>
        <time>2022-05-08T11:31:42Z</time>
      </trkpt>
      <trkpt lat="46.16638" lon="4.48074">
        <ele>619.8</ele>
        <time>2022-05-08T11:31:46Z</time>
      </trkpt>
      <trkpt lat="46.16625" lon="4.48071">
        <ele>619.6</ele>
        <time>2022-05-08T11:31:50Z</time>
      </trkpt>
      <trkpt lat="46.16612" lon="4.48068">
        <ele>620</ele>
        <time>2022-05-08T11:31:54Z</time>
      </trkpt>
      <trkpt lat="46.16597" lon="4.48065">
        <ele>620.4</ele>
        <time>2022-05-08T11:31:58Z</time>
      </trkpt>
      <trkpt lat="46.16583" lon="4.4806">
        <ele>621</ele>
        <time>2022-05-08T11:32:02Z</time>
      </trkpt>
      <trkpt lat="46.1657" lon="4.48053">
        <ele>621.6</ele>
        <time>2022-05-08T11:32:06Z</time>
      </trkpt>
      <trkpt lat="46.16557" lon="4.48045">
        <ele>622</ele>
        <time>2022-05-08T11:32:10Z</time>
      </trkpt>
      <trkpt lat="46.16545" lon="4.48035">
        <ele>622.2</ele>
        <time>2022-05-08T11:32:14Z</time>
      </trkpt>
      <trkpt lat="46.16534" lon="4.48024">
        <ele>621.8</ele>
        <time>2022-05-08T11:32:18Z</time>
      </trkpt>
      <trkpt lat="46.16524" lon="4.48011">
        <ele>622.6</ele>
        <time>2022-05-08T11:32:22Z</time>
      </trkpt>
      <trkpt lat="46.16514" lon="4.47998">
        <ele>623.4</ele>
        <time>2022-05-08T11:32:26Z</time>
      </trkpt>
      <trkpt lat="46.16507" lon="4.47984">
        <ele>623.8</ele>
        <time>2022-05-08T11:32:30Z</time>
      </trkpt>
      <trkpt lat="46.16499" lon="4.4797">
        <ele>624.2</ele>
        <time>2022-05-08T11:32:34Z</time>
      </trkpt>
      <trkpt lat="46.1649" lon="4.47955">
        <ele>624.2</ele>
        <time>2022-05-08T11:32:38Z</time>
      </trkpt>
      <trkpt lat="46.16482" lon="4.4794">
        <ele>625</ele>
        <time>2022-05-08T11:32:42Z</time>
      </trkpt>
      <trkpt lat="46.16475" lon="4.47924">
        <ele>625.2</ele>
        <time>2022-05-08T11:32:46Z</time>
      </trkpt>
      <trkpt lat="46.16467" lon="4.47909">
        <ele>625.4</ele>
        <time>2022-05-08T11:32:50Z</time>
      </trkpt>
      <trkpt lat="46.16458" lon="4.47901">
        <ele>625.8</ele>
        <time>2022-05-08T11:32:54Z</time>
      </trkpt>
      <trkpt lat="46.16449" lon="4.47885">
        <ele>626.2</ele>
        <time>2022-05-08T11:32:58Z</time>
      </trkpt>
      <trkpt lat="46.16439" lon="4.47871">
        <ele>627.2</ele>
        <time>2022-05-08T11:33:02Z</time>
      </trkpt>
      <trkpt lat="46.1643" lon="4.47857">
        <ele>626.4</ele>
        <time>2022-05-08T11:33:06Z</time>
      </trkpt>
      <trkpt lat="46.16421" lon="4.47842">
        <ele>626.8</ele>
        <time>2022-05-08T11:33:10Z</time>
      </trkpt>
      <trkpt lat="46.16412" lon="4.47829">
        <ele>627.6</ele>
        <time>2022-05-08T11:33:14Z</time>
      </trkpt>
      <trkpt lat="46.16401" lon="4.47816">
        <ele>628</ele>
        <time>2022-05-08T11:33:18Z</time>
      </trkpt>
      <trkpt lat="46.1639" lon="4.47801">
        <ele>628</ele>
        <time>2022-05-08T11:33:22Z</time>
      </trkpt>
      <trkpt lat="46.16381" lon="4.47786">
        <ele>628.4</ele>
        <time>2022-05-08T11:33:26Z</time>
      </trkpt>
      <trkpt lat="46.16372" lon="4.47771">
        <ele>629</ele>
        <time>2022-05-08T11:33:30Z</time>
      </trkpt>
      <trkpt lat="46.16363" lon="4.47756">
        <ele>629.2</ele>
        <time>2022-05-08T11:33:34Z</time>
      </trkpt>
      <trkpt lat="46.16356" lon="4.4774">
        <ele>629</ele>
        <time>2022-05-08T11:33:38Z</time>
      </trkpt>
      <trkpt lat="46.16348" lon="4.47724">
        <ele>629.4</ele>
        <time>2022-05-08T11:33:42Z</time>
      </trkpt>
      <trkpt lat="46.16341" lon="4.47708">
        <ele>629.4</ele>
        <time>2022-05-08T11:33:46Z</time>
      </trkpt>
      <trkpt lat="46.16333" lon="4.47692">
        <ele>630.4</ele>
        <time>2022-05-08T11:33:50Z</time>
      </trkpt>
      <trkpt lat="46.16326" lon="4.47676">
        <ele>630.6</ele>
        <time>2022-05-08T11:33:54Z</time>
      </trkpt>
      <trkpt lat="46.16319" lon="4.47658">
        <ele>630.8</ele>
        <time>2022-05-08T11:33:58Z</time>
      </trkpt>
      <trkpt lat="46.16314" lon="4.4764">
        <ele>630.8</ele>
        <time>2022-05-08T11:34:02Z</time>
      </trkpt>
      <trkpt lat="46.1631" lon="4.47621">
        <ele>631.6</ele>
        <time>2022-05-08T11:34:06Z</time>
      </trkpt>
      <trkpt lat="46.16308" lon="4.47602">
        <ele>631.8</ele>
        <time>2022-05-08T11:34:10Z</time>
      </trkpt>
      <trkpt lat="46.16306" lon="4.47583">
        <ele>632.6</ele>
        <time>2022-05-08T11:34:14Z</time>
      </trkpt>
      <trkpt lat="46.16306" lon="4.47563">
        <ele>632.6</ele>
        <time>2022-05-08T11:34:18Z</time>
      </trkpt>
      <trkpt lat="46.16307" lon="4.47542">
        <ele>632.6</ele>
        <time>2022-05-08T11:34:22Z</time>
      </trkpt>
      <trkpt lat="46.1631" lon="4.47521">
        <ele>633</ele>
        <time>2022-05-08T11:34:26Z</time>
      </trkpt>
      <trkpt lat="46.16314" lon="4.47502">
        <ele>633.4</ele>
        <time>2022-05-08T11:34:30Z</time>
      </trkpt>
      <trkpt lat="46.16321" lon="4.47485">
        <ele>631.4</ele>
        <time>2022-05-08T11:34:34Z</time>
      </trkpt>
      <trkpt lat="46.16329" lon="4.47465">
        <ele>631.8</ele>
        <time>2022-05-08T11:34:38Z</time>
      </trkpt>
      <trkpt lat="46.16338" lon="4.47445">
        <ele>632.8</ele>
        <time>2022-05-08T11:34:42Z</time>
      </trkpt>
      <trkpt lat="46.16347" lon="4.47428">
        <ele>631.2</ele>
        <time>2022-05-08T11:34:46Z</time>
      </trkpt>
      <trkpt lat="46.16359" lon="4.47413">
        <ele>630.6</ele>
        <time>2022-05-08T11:34:50Z</time>
      </trkpt>
      <trkpt lat="46.16371" lon="4.47399">
        <ele>631.8</ele>
        <time>2022-05-08T11:34:54Z</time>
      </trkpt>
      <trkpt lat="46.16384" lon="4.47389">
        <ele>630.8</ele>
        <time>2022-05-08T11:34:58Z</time>
      </trkpt>
      <trkpt lat="46.16397" lon="4.4738">
        <ele>631.8</ele>
        <time>2022-05-08T11:35:02Z</time>
      </trkpt>
      <trkpt lat="46.1641" lon="4.47371">
        <ele>633.2</ele>
        <time>2022-05-08T11:35:06Z</time>
      </trkpt>
      <trkpt lat="46.16424" lon="4.47362">
        <ele>632.6</ele>
        <time>2022-05-08T11:35:10Z</time>
      </trkpt>
      <trkpt lat="46.16438" lon="4.47353">
        <ele>632</ele>
        <time>2022-05-08T11:35:14Z</time>
      </trkpt>
      <trkpt lat="46.16451" lon="4.47344">
        <ele>631.2</ele>
        <time>2022-05-08T11:35:18Z</time>
      </trkpt>
      <trkpt lat="46.16464" lon="4.47335">
        <ele>632</ele>
        <time>2022-05-08T11:35:22Z</time>
      </trkpt>
      <trkpt lat="46.16477" lon="4.47327">
        <ele>633.2</ele>
        <time>2022-05-08T11:35:26Z</time>
      </trkpt>
      <trkpt lat="46.1649" lon="4.47318">
        <ele>632.6</ele>
        <time>2022-05-08T11:35:30Z</time>
      </trkpt>
      <trkpt lat="46.16502" lon="4.4731">
        <ele>633.8</ele>
        <time>2022-05-08T11:35:34Z</time>
      </trkpt>
      <trkpt lat="46.16514" lon="4.47298">
        <ele>633.6</ele>
        <time>2022-05-08T11:35:38Z</time>
      </trkpt>
      <trkpt lat="46.16523" lon="4.47282">
        <ele>633.8</ele>
        <time>2022-05-08T11:35:42Z</time>
      </trkpt>
      <trkpt lat="46.16531" lon="4.47263">
        <ele>635</ele>
        <time>2022-05-08T11:35:46Z</time>
      </trkpt>
      <trkpt lat="46.16534" lon="4.47241">
        <ele>635</ele>
        <time>2022-05-08T11:35:50Z</time>
      </trkpt>
      <trkpt lat="46.16535" lon="4.47217">
        <ele>634.4</ele>
        <time>2022-05-08T11:35:54Z</time>
      </trkpt>
      <trkpt lat="46.16533" lon="4.47193">
        <ele>635</ele>
        <time>2022-05-08T11:35:58Z</time>
      </trkpt>
      <trkpt lat="46.16528" lon="4.47173">
        <ele>637.2</ele>
        <time>2022-05-08T11:36:02Z</time>
      </trkpt>
      <trkpt lat="46.16521" lon="4.47154">
        <ele>635.6</ele>
        <time>2022-05-08T11:36:06Z</time>
      </trkpt>
      <trkpt lat="46.16514" lon="4.47135">
        <ele>635.6</ele>
        <time>2022-05-08T11:36:10Z</time>
      </trkpt>
      <trkpt lat="46.16507" lon="4.47117">
        <ele>636</ele>
        <time>2022-05-08T11:36:14Z</time>
      </trkpt>
      <trkpt lat="46.16502" lon="4.47097">
        <ele>635.8</ele>
        <time>2022-05-08T11:36:18Z</time>
      </trkpt>
      <trkpt lat="46.16497" lon="4.47075">
        <ele>636</ele>
        <time>2022-05-08T11:36:22Z</time>
      </trkpt>
      <trkpt lat="46.1649" lon="4.47047">
        <ele>635.2</ele>
        <time>2022-05-08T11:36:26Z</time>
      </trkpt>
      <trkpt lat="46.16484" lon="4.47009">
        <ele>632</ele>
        <time>2022-05-08T11:36:30Z</time>
      </trkpt>
      <trkpt lat="46.16487" lon="4.46964">
        <ele>627</ele>
        <time>2022-05-08T11:36:34Z</time>
      </trkpt>
      <trkpt lat="46.16498" lon="4.46916">
        <ele>623.6</ele>
        <time>2022-05-08T11:36:38Z</time>
      </trkpt>
      <trkpt lat="46.16508" lon="4.46866">
        <ele>621.6</ele>
        <time>2022-05-08T11:36:42Z</time>
      </trkpt>
      <trkpt lat="46.16513" lon="4.46814">
        <ele>621</ele>
        <time>2022-05-08T11:36:46Z</time>
      </trkpt>
      <trkpt lat="46.16516" lon="4.46759">
        <ele>621.4</ele>
        <time>2022-05-08T11:36:50Z</time>
      </trkpt>
      <trkpt lat="46.16513" lon="4.46701">
        <ele>618.4</ele>
        <time>2022-05-08T11:36:54Z</time>
      </trkpt>
      <trkpt lat="46.16496" lon="4.46643">
        <ele>613.6</ele>
        <time>2022-05-08T11:36:58Z</time>
      </trkpt>
      <trkpt lat="46.16473" lon="4.4659">
        <ele>612.8</ele>
        <time>2022-05-08T11:37:02Z</time>
      </trkpt>
      <trkpt lat="46.16449" lon="4.46538">
        <ele>610.6</ele>
        <time>2022-05-08T11:37:06Z</time>
      </trkpt>
      <trkpt lat="46.16427" lon="4.46487">
        <ele>610.6</ele>
        <time>2022-05-08T11:37:10Z</time>
      </trkpt>
      <trkpt lat="46.16405" lon="4.46435">
        <ele>609</ele>
        <time>2022-05-08T11:37:14Z</time>
      </trkpt>
      <trkpt lat="46.16383" lon="4.46386">
        <ele>608.2</ele>
        <time>2022-05-08T11:37:18Z</time>
      </trkpt>
      <trkpt lat="46.16361" lon="4.46339">
        <ele>610</ele>
        <time>2022-05-08T11:37:22Z</time>
      </trkpt>
      <trkpt lat="46.16343" lon="4.46296">
        <ele>609.8</ele>
        <time>2022-05-08T11:37:26Z</time>
      </trkpt>
      <trkpt lat="46.16327" lon="4.46259">
        <ele>610.6</ele>
        <time>2022-05-08T11:37:30Z</time>
      </trkpt>
      <trkpt lat="46.16311" lon="4.46225">
        <ele>611.6</ele>
        <time>2022-05-08T11:37:34Z</time>
      </trkpt>
      <trkpt lat="46.16297" lon="4.46193">
        <ele>611.8</ele>
        <time>2022-05-08T11:37:38Z</time>
      </trkpt>
      <trkpt lat="46.16282" lon="4.4616">
        <ele>611.4</ele>
        <time>2022-05-08T11:37:42Z</time>
      </trkpt>
      <trkpt lat="46.16269" lon="4.46128">
        <ele>611.8</ele>
        <time>2022-05-08T11:37:46Z</time>
      </trkpt>
      <trkpt lat="46.16255" lon="4.46095">
        <ele>611.4</ele>
        <time>2022-05-08T11:37:50Z</time>
      </trkpt>
      <trkpt lat="46.16242" lon="4.46062">
        <ele>610.2</ele>
        <time>2022-05-08T11:37:54Z</time>
      </trkpt>
      <trkpt lat="46.16228" lon="4.4603">
        <ele>610.8</ele>
        <time>2022-05-08T11:37:58Z</time>
      </trkpt>
      <trkpt lat="46.16213" lon="4.45997">
        <ele>609.2</ele>
        <time>2022-05-08T11:38:02Z</time>
      </trkpt>
      <trkpt lat="46.16199" lon="4.45964">
        <ele>608.2</ele>
        <time>2022-05-08T11:38:06Z</time>
      </trkpt>
      <trkpt lat="46.16185" lon="4.45934">
        <ele>608.6</ele>
        <time>2022-05-08T11:38:10Z</time>
      </trkpt>
      <trkpt lat="46.16172" lon="4.45906">
        <ele>609.4</ele>
        <time>2022-05-08T11:38:14Z</time>
      </trkpt>
      <trkpt lat="46.1616" lon="4.45877">
        <ele>607.8</ele>
        <time>2022-05-08T11:38:18Z</time>
      </trkpt>
      <trkpt lat="46.16148" lon="4.45848">
        <ele>607.8</ele>
        <time>2022-05-08T11:38:22Z</time>
      </trkpt>
      <trkpt lat="46.16134" lon="4.45817">
        <ele>607.4</ele>
        <time>2022-05-08T11:38:26Z</time>
      </trkpt>
      <trkpt lat="46.1612" lon="4.45784">
        <ele>607</ele>
        <time>2022-05-08T11:38:30Z</time>
      </trkpt>
      <trkpt lat="46.16106" lon="4.45751">
        <ele>607.2</ele>
        <time>2022-05-08T11:38:34Z</time>
      </trkpt>
      <trkpt lat="46.16093" lon="4.45718">
        <ele>607.6</ele>
        <time>2022-05-08T11:38:38Z</time>
      </trkpt>
      <trkpt lat="46.1608" lon="4.45685">
        <ele>607.2</ele>
        <time>2022-05-08T11:38:42Z</time>
      </trkpt>
      <trkpt lat="46.16067" lon="4.45652">
        <ele>606</ele>
        <time>2022-05-08T11:38:46Z</time>
      </trkpt>
      <trkpt lat="46.16054" lon="4.4562">
        <ele>606.4</ele>
        <time>2022-05-08T11:38:50Z</time>
      </trkpt>
      <trkpt lat="46.16041" lon="4.45588">
        <ele>605.6</ele>
        <time>2022-05-08T11:38:54Z</time>
      </trkpt>
      <trkpt lat="46.1603" lon="4.45555">
        <ele>605.6</ele>
        <time>2022-05-08T11:38:58Z</time>
      </trkpt>
      <trkpt lat="46.16023" lon="4.45522">
        <ele>605.6</ele>
        <time>2022-05-08T11:39:02Z</time>
      </trkpt>
      <trkpt lat="46.16023" lon="4.4549">
        <ele>604.8</ele>
        <time>2022-05-08T11:39:06Z</time>
      </trkpt>
      <trkpt lat="46.16027" lon="4.45462">
        <ele>606</ele>
        <time>2022-05-08T11:39:10Z</time>
      </trkpt>
      <trkpt lat="46.16032" lon="4.45439">
        <ele>607</ele>
        <time>2022-05-08T11:39:14Z</time>
      </trkpt>
      <trkpt lat="46.16038" lon="4.45419">
        <ele>607.8</ele>
        <time>2022-05-08T11:39:18Z</time>
      </trkpt>
      <trkpt lat="46.16044" lon="4.45401">
        <ele>608.4</ele>
        <time>2022-05-08T11:39:22Z</time>
      </trkpt>
      <trkpt lat="46.1605" lon="4.45385">
        <ele>609</ele>
        <time>2022-05-08T11:39:26Z</time>
      </trkpt>
      <trkpt lat="46.16056" lon="4.45368">
        <ele>609.4</ele>
        <time>2022-05-08T11:39:30Z</time>
      </trkpt>
      <trkpt lat="46.16062" lon="4.45352">
        <ele>610.8</ele>
        <time>2022-05-08T11:39:34Z</time>
      </trkpt>
      <trkpt lat="46.16068" lon="4.45335">
        <ele>610.6</ele>
        <time>2022-05-08T11:39:38Z</time>
      </trkpt>
      <trkpt lat="46.16074" lon="4.4532">
        <ele>610.6</ele>
        <time>2022-05-08T11:39:42Z</time>
      </trkpt>
      <trkpt lat="46.1608" lon="4.45306">
        <ele>611.4</ele>
        <time>2022-05-08T11:39:46Z</time>
      </trkpt>
      <trkpt lat="46.16087" lon="4.45291">
        <ele>611.4</ele>
        <time>2022-05-08T11:39:50Z</time>
      </trkpt>
      <trkpt lat="46.16093" lon="4.45276">
        <ele>612.6</ele>
        <time>2022-05-08T11:39:54Z</time>
      </trkpt>
      <trkpt lat="46.161" lon="4.45261">
        <ele>613</ele>
        <time>2022-05-08T11:39:58Z</time>
      </trkpt>
      <trkpt lat="46.16108" lon="4.45248">
        <ele>613</ele>
        <time>2022-05-08T11:40:02Z</time>
      </trkpt>
      <trkpt lat="46.16115" lon="4.45236">
        <ele>613.4</ele>
        <time>2022-05-08T11:40:06Z</time>
      </trkpt>
      <trkpt lat="46.16122" lon="4.45224">
        <ele>614.2</ele>
        <time>2022-05-08T11:40:10Z</time>
      </trkpt>
      <trkpt lat="46.16129" lon="4.45211">
        <ele>613.8</ele>
        <time>2022-05-08T11:40:14Z</time>
      </trkpt>
      <trkpt lat="46.16137" lon="4.45199">
        <ele>614.2</ele>
        <time>2022-05-08T11:40:18Z</time>
      </trkpt>
      <trkpt lat="46.16144" lon="4.45186">
        <ele>615</ele>
        <time>2022-05-08T11:40:22Z</time>
      </trkpt>
      <trkpt lat="46.16151" lon="4.45171">
        <ele>613.4</ele>
        <time>2022-05-08T11:40:26Z</time>
      </trkpt>
      <trkpt lat="46.16158" lon="4.45158">
        <ele>613.8</ele>
        <time>2022-05-08T11:40:30Z</time>
      </trkpt>
      <trkpt lat="46.16165" lon="4.45147">
        <ele>615.6</ele>
        <time>2022-05-08T11:40:34Z</time>
      </trkpt>
      <trkpt lat="46.16171" lon="4.45133">
        <ele>616.2</ele>
        <time>2022-05-08T11:40:38Z</time>
      </trkpt>
      <trkpt lat="46.16178" lon="4.45122">
        <ele>616.4</ele>
        <time>2022-05-08T11:40:42Z</time>
      </trkpt>
      <trkpt lat="46.16185" lon="4.45111">
        <ele>616.6</ele>
        <time>2022-05-08T11:40:46Z</time>
      </trkpt>
      <trkpt lat="46.16193" lon="4.45101">
        <ele>615.8</ele>
        <time>2022-05-08T11:40:50Z</time>
      </trkpt>
      <trkpt lat="46.16201" lon="4.45091">
        <ele>616.4</ele>
        <time>2022-05-08T11:40:54Z</time>
      </trkpt>
      <trkpt lat="46.1621" lon="4.45079">
        <ele>618.6</ele>
        <time>2022-05-08T11:40:58Z</time>
      </trkpt>
      <trkpt lat="46.16218" lon="4.45068">
        <ele>617.4</ele>
        <time>2022-05-08T11:41:02Z</time>
      </trkpt>
      <trkpt lat="46.16227" lon="4.45056">
        <ele>617.6</ele>
        <time>2022-05-08T11:41:06Z</time>
      </trkpt>
      <trkpt lat="46.16237" lon="4.45046">
        <ele>618.8</ele>
        <time>2022-05-08T11:41:10Z</time>
      </trkpt>
      <trkpt lat="46.16246" lon="4.45036">
        <ele>619</ele>
        <time>2022-05-08T11:41:14Z</time>
      </trkpt>
      <trkpt lat="46.16256" lon="4.45029">
        <ele>618.4</ele>
        <time>2022-05-08T11:41:18Z</time>
      </trkpt>
      <trkpt lat="46.16265" lon="4.45021">
        <ele>617.2</ele>
        <time>2022-05-08T11:41:22Z</time>
      </trkpt>
      <trkpt lat="46.16274" lon="4.45014">
        <ele>619.2</ele>
        <time>2022-05-08T11:41:26Z</time>
      </trkpt>
      <trkpt lat="46.16283" lon="4.45008">
        <ele>620.8</ele>
        <time>2022-05-08T11:41:30Z</time>
      </trkpt>
      <trkpt lat="46.16293" lon="4.45001">
        <ele>620.6</ele>
        <time>2022-05-08T11:41:34Z</time>
      </trkpt>
      <trkpt lat="46.16302" lon="4.44994">
        <ele>620.4</ele>
        <time>2022-05-08T11:41:38Z</time>
      </trkpt>
      <trkpt lat="46.16313" lon="4.44988">
        <ele>621</ele>
        <time>2022-05-08T11:41:42Z</time>
      </trkpt>
      <trkpt lat="46.16324" lon="4.44981">
        <ele>622.2</ele>
        <time>2022-05-08T11:41:46Z</time>
      </trkpt>
      <trkpt lat="46.16333" lon="4.44974">
        <ele>623</ele>
        <time>2022-05-08T11:41:50Z</time>
      </trkpt>
      <trkpt lat="46.16343" lon="4.44967">
        <ele>623.2</ele>
        <time>2022-05-08T11:41:54Z</time>
      </trkpt>
      <trkpt lat="46.1635" lon="4.44959">
        <ele>623.6</ele>
        <time>2022-05-08T11:41:58Z</time>
      </trkpt>
      <trkpt lat="46.16361" lon="4.44953">
        <ele>624</ele>
        <time>2022-05-08T11:42:02Z</time>
      </trkpt>
      <trkpt lat="46.16368" lon="4.44947">
        <ele>624.8</ele>
        <time>2022-05-08T11:42:06Z</time>
      </trkpt>
      <trkpt lat="46.16376" lon="4.44942">
        <ele>625.2</ele>
        <time>2022-05-08T11:42:10Z</time>
      </trkpt>
      <trkpt lat="46.16386" lon="4.44937">
        <ele>624.8</ele>
        <time>2022-05-08T11:42:14Z</time>
      </trkpt>
      <trkpt lat="46.16398" lon="4.44932">
        <ele>625.2</ele>
        <time>2022-05-08T11:42:18Z</time>
      </trkpt>
      <trkpt lat="46.16408" lon="4.44921">
        <ele>625.8</ele>
        <time>2022-05-08T11:42:22Z</time>
      </trkpt>
      <trkpt lat="46.16419" lon="4.44907">
        <ele>627</ele>
        <time>2022-05-08T11:42:26Z</time>
      </trkpt>
      <trkpt lat="46.16429" lon="4.44892">
        <ele>627</ele>
        <time>2022-05-08T11:42:30Z</time>
      </trkpt>
      <trkpt lat="46.16439" lon="4.44876">
        <ele>627.4</ele>
        <time>2022-05-08T11:42:34Z</time>
      </trkpt>
      <trkpt lat="46.16448" lon="4.44857">
        <ele>627</ele>
        <time>2022-05-08T11:42:38Z</time>
      </trkpt>
      <trkpt lat="46.16455" lon="4.4484">
        <ele>627.4</ele>
        <time>2022-05-08T11:42:42Z</time>
      </trkpt>
      <trkpt lat="46.16463" lon="4.44822">
        <ele>626.8</ele>
        <time>2022-05-08T11:42:46Z</time>
      </trkpt>
      <trkpt lat="46.1647" lon="4.44803">
        <ele>626.8</ele>
        <time>2022-05-08T11:42:50Z</time>
      </trkpt>
      <trkpt lat="46.16476" lon="4.44784">
        <ele>627</ele>
        <time>2022-05-08T11:42:54Z</time>
      </trkpt>
      <trkpt lat="46.16481" lon="4.44765">
        <ele>626.2</ele>
        <time>2022-05-08T11:42:58Z</time>
      </trkpt>
      <trkpt lat="46.16486" lon="4.44745">
        <ele>626.8</ele>
        <time>2022-05-08T11:43:02Z</time>
      </trkpt>
      <trkpt lat="46.16489" lon="4.44724">
        <ele>626.2</ele>
        <time>2022-05-08T11:43:06Z</time>
      </trkpt>
      <trkpt lat="46.16491" lon="4.44703">
        <ele>627</ele>
        <time>2022-05-08T11:43:10Z</time>
      </trkpt>
      <trkpt lat="46.16492" lon="4.44682">
        <ele>628</ele>
        <time>2022-05-08T11:43:14Z</time>
      </trkpt>
      <trkpt lat="46.16492" lon="4.44663">
        <ele>628.8</ele>
        <time>2022-05-08T11:43:18Z</time>
      </trkpt>
      <trkpt lat="46.16492" lon="4.44648">
        <ele>629.2</ele>
        <time>2022-05-08T11:43:22Z</time>
      </trkpt>
      <trkpt lat="46.16493" lon="4.44633">
        <ele>629.4</ele>
        <time>2022-05-08T11:43:26Z</time>
      </trkpt>
      <trkpt lat="46.16493" lon="4.4462">
        <ele>630</ele>
        <time>2022-05-08T11:43:30Z</time>
      </trkpt>
      <trkpt lat="46.16495" lon="4.44609">
        <ele>629.8</ele>
        <time>2022-05-08T11:43:34Z</time>
      </trkpt>
      <trkpt lat="46.16495" lon="4.44598">
        <ele>630.4</ele>
        <time>2022-05-08T11:43:38Z</time>
      </trkpt>
      <trkpt lat="46.16496" lon="4.44587">
        <ele>631.4</ele>
        <time>2022-05-08T11:43:42Z</time>
      </trkpt>
      <trkpt lat="46.16497" lon="4.44577">
        <ele>631.8</ele>
        <time>2022-05-08T11:43:46Z</time>
      </trkpt>
      <trkpt lat="46.165" lon="4.44567">
        <ele>632.2</ele>
        <time>2022-05-08T11:43:50Z</time>
      </trkpt>
      <trkpt lat="46.16505" lon="4.44557">
        <ele>634.2</ele>
        <time>2022-05-08T11:43:54Z</time>
      </trkpt>
      <trkpt lat="46.16509" lon="4.44548">
        <ele>634</ele>
        <time>2022-05-08T11:43:58Z</time>
      </trkpt>
      <trkpt lat="46.16513" lon="4.44537">
        <ele>633.2</ele>
        <time>2022-05-08T11:44:02Z</time>
      </trkpt>
      <trkpt lat="46.16517" lon="4.44527">
        <ele>634.6</ele>
        <time>2022-05-08T11:44:06Z</time>
      </trkpt>
      <trkpt lat="46.16522" lon="4.44518">
        <ele>634.4</ele>
        <time>2022-05-08T11:44:10Z</time>
      </trkpt>
      <trkpt lat="46.16527" lon="4.4451">
        <ele>635</ele>
        <time>2022-05-08T11:44:14Z</time>
      </trkpt>
      <trkpt lat="46.16532" lon="4.445">
        <ele>636</ele>
        <time>2022-05-08T11:44:18Z</time>
      </trkpt>
      <trkpt lat="46.16537" lon="4.4449">
        <ele>636</ele>
        <time>2022-05-08T11:44:22Z</time>
      </trkpt>
      <trkpt lat="46.16544" lon="4.44483">
        <ele>636.2</ele>
        <time>2022-05-08T11:44:26Z</time>
      </trkpt>
      <trkpt lat="46.1655" lon="4.44474">
        <ele>635.4</ele>
        <time>2022-05-08T11:44:30Z</time>
      </trkpt>
      <trkpt lat="46.16557" lon="4.44467">
        <ele>637</ele>
        <time>2022-05-08T11:44:34Z</time>
      </trkpt>
      <trkpt lat="46.16564" lon="4.44459">
        <ele>638.8</ele>
        <time>2022-05-08T11:44:38Z</time>
      </trkpt>
      <trkpt lat="46.16572" lon="4.44452">
        <ele>638</ele>
        <time>2022-05-08T11:44:42Z</time>
      </trkpt>
      <trkpt lat="46.16579" lon="4.44445">
        <ele>638</ele>
        <time>2022-05-08T11:44:46Z</time>
      </trkpt>
      <trkpt lat="46.16586" lon="4.44438">
        <ele>639.4</ele>
        <time>2022-05-08T11:44:50Z</time>
      </trkpt>
      <trkpt lat="46.16593" lon="4.44432">
        <ele>639.8</ele>
        <time>2022-05-08T11:44:54Z</time>
      </trkpt>
      <trkpt lat="46.166" lon="4.44423">
        <ele>640</ele>
        <time>2022-05-08T11:44:58Z</time>
      </trkpt>
      <trkpt lat="46.16608" lon="4.44415">
        <ele>641</ele>
        <time>2022-05-08T11:45:02Z</time>
      </trkpt>
      <trkpt lat="46.16615" lon="4.44407">
        <ele>638.8</ele>
        <time>2022-05-08T11:45:06Z</time>
      </trkpt>
      <trkpt lat="46.16622" lon="4.444">
        <ele>638.4</ele>
        <time>2022-05-08T11:45:10Z</time>
      </trkpt>
      <trkpt lat="46.16629" lon="4.44393">
        <ele>640.2</ele>
        <time>2022-05-08T11:45:14Z</time>
      </trkpt>
      <trkpt lat="46.16637" lon="4.44384">
        <ele>641.6</ele>
        <time>2022-05-08T11:45:18Z</time>
      </trkpt>
      <trkpt lat="46.16644" lon="4.44376">
        <ele>643.6</ele>
        <time>2022-05-08T11:45:22Z</time>
      </trkpt>
      <trkpt lat="46.16652" lon="4.44368">
        <ele>643</ele>
        <time>2022-05-08T11:45:26Z</time>
      </trkpt>
      <trkpt lat="46.16658" lon="4.44358">
        <ele>642.8</ele>
        <time>2022-05-08T11:45:30Z</time>
      </trkpt>
      <trkpt lat="46.16666" lon="4.44348">
        <ele>643.8</ele>
        <time>2022-05-08T11:45:34Z</time>
      </trkpt>
      <trkpt lat="46.16673" lon="4.44337">
        <ele>644.2</ele>
        <time>2022-05-08T11:45:38Z</time>
      </trkpt>
      <trkpt lat="46.16679" lon="4.44324">
        <ele>644.4</ele>
        <time>2022-05-08T11:45:42Z</time>
      </trkpt>
      <trkpt lat="46.16685" lon="4.44312">
        <ele>643.8</ele>
        <time>2022-05-08T11:45:46Z</time>
      </trkpt>
      <trkpt lat="46.1669" lon="4.44298">
        <ele>645</ele>
        <time>2022-05-08T11:45:50Z</time>
      </trkpt>
      <trkpt lat="46.16695" lon="4.44285">
        <ele>645</ele>
        <time>2022-05-08T11:45:54Z</time>
      </trkpt>
      <trkpt lat="46.167" lon="4.44271">
        <ele>645.6</ele>
        <time>2022-05-08T11:45:58Z</time>
      </trkpt>
      <trkpt lat="46.16704" lon="4.44257">
        <ele>646.4</ele>
        <time>2022-05-08T11:46:02Z</time>
      </trkpt>
      <trkpt lat="46.16708" lon="4.44242">
        <ele>647.6</ele>
        <time>2022-05-08T11:46:06Z</time>
      </trkpt>
      <trkpt lat="46.16712" lon="4.44225">
        <ele>647</ele>
        <time>2022-05-08T11:46:10Z</time>
      </trkpt>
      <trkpt lat="46.16715" lon="4.44209">
        <ele>647.4</ele>
        <time>2022-05-08T11:46:14Z</time>
      </trkpt>
      <trkpt lat="46.16718" lon="4.44194">
        <ele>647.8</ele>
        <time>2022-05-08T11:46:18Z</time>
      </trkpt>
      <trkpt lat="46.16723" lon="4.44182">
        <ele>647.8</ele>
        <time>2022-05-08T11:46:22Z</time>
      </trkpt>
      <trkpt lat="46.1673" lon="4.44172">
        <ele>649</ele>
        <time>2022-05-08T11:46:26Z</time>
      </trkpt>
      <trkpt lat="46.16733" lon="4.44159">
        <ele>648.2</ele>
        <time>2022-05-08T11:46:30Z</time>
      </trkpt>
      <trkpt lat="46.16734" lon="4.44146">
        <ele>650.2</ele>
        <time>2022-05-08T11:46:34Z</time>
      </trkpt>
      <trkpt lat="46.1673" lon="4.44132">
        <ele>649</ele>
        <time>2022-05-08T11:46:38Z</time>
      </trkpt>
      <trkpt lat="46.16725" lon="4.44121">
        <ele>648.8</ele>
        <time>2022-05-08T11:46:42Z</time>
      </trkpt>
      <trkpt lat="46.16725" lon="4.44121">
        <ele>649.6</ele>
        <time>2022-05-08T11:46:46Z</time>
      </trkpt>
      <trkpt lat="46.16715" lon="4.44125">
        <ele>649</ele>
        <time>2022-05-08T11:47:42Z</time>
      </trkpt>
      <trkpt lat="46.16709" lon="4.44113">
        <ele>648.2</ele>
        <time>2022-05-08T11:47:46Z</time>
      </trkpt>
      <trkpt lat="46.16703" lon="4.44095">
        <ele>647.4</ele>
        <time>2022-05-08T11:47:50Z</time>
      </trkpt>
      <trkpt lat="46.167" lon="4.44076">
        <ele>647</ele>
        <time>2022-05-08T11:47:54Z</time>
      </trkpt>
      <trkpt lat="46.16698" lon="4.44068">
        <ele>647.6</ele>
        <time>2022-05-08T11:47:58Z</time>
      </trkpt>
      <trkpt lat="46.16692" lon="4.44055">
        <ele>647.6</ele>
        <time>2022-05-08T11:48:02Z</time>
      </trkpt>
      <trkpt lat="46.16684" lon="4.44036">
        <ele>644.8</ele>
        <time>2022-05-08T11:48:06Z</time>
      </trkpt>
      <trkpt lat="46.16672" lon="4.44015">
        <ele>645.2</ele>
        <time>2022-05-08T11:48:10Z</time>
      </trkpt>
      <trkpt lat="46.16658" lon="4.43993">
        <ele>645</ele>
        <time>2022-05-08T11:48:14Z</time>
      </trkpt>
      <trkpt lat="46.16641" lon="4.43974">
        <ele>642.8</ele>
        <time>2022-05-08T11:48:18Z</time>
      </trkpt>
      <trkpt lat="46.1662" lon="4.43958">
        <ele>642.6</ele>
        <time>2022-05-08T11:48:22Z</time>
      </trkpt>
      <trkpt lat="46.16597" lon="4.43946">
        <ele>639.8</ele>
        <time>2022-05-08T11:48:26Z</time>
      </trkpt>
      <trkpt lat="46.16573" lon="4.43935">
        <ele>639</ele>
        <time>2022-05-08T11:48:30Z</time>
      </trkpt>
      <trkpt lat="46.1655" lon="4.43922">
        <ele>639.6</ele>
        <time>2022-05-08T11:48:34Z</time>
      </trkpt>
      <trkpt lat="46.16525" lon="4.43911">
        <ele>639.8</ele>
        <time>2022-05-08T11:48:38Z</time>
      </trkpt>
      <trkpt lat="46.16499" lon="4.43909">
        <ele>637.8</ele>
        <time>2022-05-08T11:48:42Z</time>
      </trkpt>
      <trkpt lat="46.16476" lon="4.43908">
        <ele>637.4</ele>
        <time>2022-05-08T11:48:46Z</time>
      </trkpt>
      <trkpt lat="46.1645" lon="4.43904">
        <ele>636</ele>
        <time>2022-05-08T11:48:50Z</time>
      </trkpt>
      <trkpt lat="46.16424" lon="4.43897">
        <ele>634.6</ele>
        <time>2022-05-08T11:48:54Z</time>
      </trkpt>
      <trkpt lat="46.16399" lon="4.4389">
        <ele>635</ele>
        <time>2022-05-08T11:48:58Z</time>
      </trkpt>
      <trkpt lat="46.16375" lon="4.43886">
        <ele>634.4</ele>
        <time>2022-05-08T11:49:02Z</time>
      </trkpt>
      <trkpt lat="46.16352" lon="4.43883">
        <ele>634.2</ele>
        <time>2022-05-08T11:49:06Z</time>
      </trkpt>
      <trkpt lat="46.1633" lon="4.43883">
        <ele>634.8</ele>
        <time>2022-05-08T11:49:10Z</time>
      </trkpt>
      <trkpt lat="46.16309" lon="4.43886">
        <ele>635.6</ele>
        <time>2022-05-08T11:49:14Z</time>
      </trkpt>
      <trkpt lat="46.16289" lon="4.43889">
        <ele>634.6</ele>
        <time>2022-05-08T11:49:18Z</time>
      </trkpt>
      <trkpt lat="46.16269" lon="4.43887">
        <ele>635</ele>
        <time>2022-05-08T11:49:22Z</time>
      </trkpt>
      <trkpt lat="46.1625" lon="4.43884">
        <ele>635.8</ele>
        <time>2022-05-08T11:49:26Z</time>
      </trkpt>
      <trkpt lat="46.1623" lon="4.43875">
        <ele>635.8</ele>
        <time>2022-05-08T11:49:30Z</time>
      </trkpt>
      <trkpt lat="46.16211" lon="4.43865">
        <ele>635.6</ele>
        <time>2022-05-08T11:49:34Z</time>
      </trkpt>
      <trkpt lat="46.16192" lon="4.43854">
        <ele>635.6</ele>
        <time>2022-05-08T11:49:38Z</time>
      </trkpt>
      <trkpt lat="46.16172" lon="4.43843">
        <ele>635.2</ele>
        <time>2022-05-08T11:49:42Z</time>
      </trkpt>
      <trkpt lat="46.16156" lon="4.43828">
        <ele>634.6</ele>
        <time>2022-05-08T11:49:46Z</time>
      </trkpt>
      <trkpt lat="46.16139" lon="4.43813">
        <ele>635.2</ele>
        <time>2022-05-08T11:49:50Z</time>
      </trkpt>
      <trkpt lat="46.16122" lon="4.43795">
        <ele>633.8</ele>
        <time>2022-05-08T11:49:54Z</time>
      </trkpt>
      <trkpt lat="46.16104" lon="4.43777">
        <ele>633.2</ele>
        <time>2022-05-08T11:49:58Z</time>
      </trkpt>
      <trkpt lat="46.16085" lon="4.4376">
        <ele>633.6</ele>
        <time>2022-05-08T11:50:02Z</time>
      </trkpt>
      <trkpt lat="46.1607" lon="4.43746">
        <ele>632.8</ele>
        <time>2022-05-08T11:50:06Z</time>
      </trkpt>
      <trkpt lat="46.16059" lon="4.43739">
        <ele>633.4</ele>
        <time>2022-05-08T11:50:10Z</time>
      </trkpt>
      <trkpt lat="46.16046" lon="4.43736">
        <ele>632.4</ele>
        <time>2022-05-08T11:50:14Z</time>
      </trkpt>
      <trkpt lat="46.16028" lon="4.43734">
        <ele>634</ele>
        <time>2022-05-08T11:50:18Z</time>
      </trkpt>
      <trkpt lat="46.16006" lon="4.43734">
        <ele>632.8</ele>
        <time>2022-05-08T11:50:22Z</time>
      </trkpt>
      <trkpt lat="46.15982" lon="4.43741">
        <ele>633.4</ele>
        <time>2022-05-08T11:50:26Z</time>
      </trkpt>
      <trkpt lat="46.15961" lon="4.43748">
        <ele>633</ele>
        <time>2022-05-08T11:50:30Z</time>
      </trkpt>
      <trkpt lat="46.15938" lon="4.4375">
        <ele>631.4</ele>
        <time>2022-05-08T11:50:34Z</time>
      </trkpt>
      <trkpt lat="46.15917" lon="4.43748">
        <ele>632.8</ele>
        <time>2022-05-08T11:50:38Z</time>
      </trkpt>
      <trkpt lat="46.15893" lon="4.43739">
        <ele>630.4</ele>
        <time>2022-05-08T11:50:42Z</time>
      </trkpt>
      <trkpt lat="46.15878" lon="4.43722">
        <ele>632.2</ele>
        <time>2022-05-08T11:50:46Z</time>
      </trkpt>
      <trkpt lat="46.1587" lon="4.43699">
        <ele>632</ele>
        <time>2022-05-08T11:50:50Z</time>
      </trkpt>
      <trkpt lat="46.15862" lon="4.43673">
        <ele>631.8</ele>
        <time>2022-05-08T11:50:54Z</time>
      </trkpt>
      <trkpt lat="46.1585" lon="4.43643">
        <ele>631.4</ele>
        <time>2022-05-08T11:50:58Z</time>
      </trkpt>
      <trkpt lat="46.15835" lon="4.43617">
        <ele>632</ele>
        <time>2022-05-08T11:51:02Z</time>
      </trkpt>
      <trkpt lat="46.15823" lon="4.4359">
        <ele>630.4</ele>
        <time>2022-05-08T11:51:06Z</time>
      </trkpt>
      <trkpt lat="46.15807" lon="4.43567">
        <ele>630.8</ele>
        <time>2022-05-08T11:51:10Z</time>
      </trkpt>
      <trkpt lat="46.1579" lon="4.43551">
        <ele>631.8</ele>
        <time>2022-05-08T11:51:14Z</time>
      </trkpt>
      <trkpt lat="46.15781" lon="4.43546">
        <ele>632.4</ele>
        <time>2022-05-08T11:51:18Z</time>
      </trkpt>
      <trkpt lat="46.15765" lon="4.4354">
        <ele>632</ele>
        <time>2022-05-08T11:51:22Z</time>
      </trkpt>
      <trkpt lat="46.15743" lon="4.43525">
        <ele>631.6</ele>
        <time>2022-05-08T11:51:26Z</time>
      </trkpt>
      <trkpt lat="46.15727" lon="4.43509">
        <ele>631.8</ele>
        <time>2022-05-08T11:51:30Z</time>
      </trkpt>
      <trkpt lat="46.1571" lon="4.43491">
        <ele>632</ele>
        <time>2022-05-08T11:51:34Z</time>
      </trkpt>
      <trkpt lat="46.15697" lon="4.4348">
        <ele>632.4</ele>
        <time>2022-05-08T11:51:38Z</time>
      </trkpt>
      <trkpt lat="46.1568" lon="4.43471">
        <ele>632.2</ele>
        <time>2022-05-08T11:51:42Z</time>
      </trkpt>
      <trkpt lat="46.15665" lon="4.43462">
        <ele>631.4</ele>
        <time>2022-05-08T11:51:46Z</time>
      </trkpt>
      <trkpt lat="46.15645" lon="4.43451">
        <ele>632.6</ele>
        <time>2022-05-08T11:51:50Z</time>
      </trkpt>
      <trkpt lat="46.15628" lon="4.43445">
        <ele>632.2</ele>
        <time>2022-05-08T11:51:54Z</time>
      </trkpt>
      <trkpt lat="46.15609" lon="4.43442">
        <ele>631.8</ele>
        <time>2022-05-08T11:51:58Z</time>
      </trkpt>
      <trkpt lat="46.15586" lon="4.43437">
        <ele>631.8</ele>
        <time>2022-05-08T11:52:02Z</time>
      </trkpt>
      <trkpt lat="46.15563" lon="4.43423">
        <ele>631.4</ele>
        <time>2022-05-08T11:52:06Z</time>
      </trkpt>
      <trkpt lat="46.15545" lon="4.43404">
        <ele>632</ele>
        <time>2022-05-08T11:52:10Z</time>
      </trkpt>
      <trkpt lat="46.15532" lon="4.43385">
        <ele>632.2</ele>
        <time>2022-05-08T11:52:14Z</time>
      </trkpt>
      <trkpt lat="46.15523" lon="4.43363">
        <ele>632.6</ele>
        <time>2022-05-08T11:52:18Z</time>
      </trkpt>
      <trkpt lat="46.15517" lon="4.43339">
        <ele>633.2</ele>
        <time>2022-05-08T11:52:22Z</time>
      </trkpt>
      <trkpt lat="46.15507" lon="4.43312">
        <ele>633</ele>
        <time>2022-05-08T11:52:26Z</time>
      </trkpt>
      <trkpt lat="46.15505" lon="4.4329">
        <ele>633.4</ele>
        <time>2022-05-08T11:52:30Z</time>
      </trkpt>
      <trkpt lat="46.15504" lon="4.43264">
        <ele>633.4</ele>
        <time>2022-05-08T11:52:34Z</time>
      </trkpt>
      <trkpt lat="46.15502" lon="4.43238">
        <ele>633.8</ele>
        <time>2022-05-08T11:52:38Z</time>
      </trkpt>
      <trkpt lat="46.15497" lon="4.43209">
        <ele>633.6</ele>
        <time>2022-05-08T11:52:42Z</time>
      </trkpt>
      <trkpt lat="46.15491" lon="4.43178">
        <ele>634.4</ele>
        <time>2022-05-08T11:52:46Z</time>
      </trkpt>
      <trkpt lat="46.15477" lon="4.43151">
        <ele>634</ele>
        <time>2022-05-08T11:52:50Z</time>
      </trkpt>
      <trkpt lat="46.15462" lon="4.43128">
        <ele>634.4</ele>
        <time>2022-05-08T11:52:54Z</time>
      </trkpt>
      <trkpt lat="46.15448" lon="4.43109">
        <ele>634.2</ele>
        <time>2022-05-08T11:52:58Z</time>
      </trkpt>
      <trkpt lat="46.15433" lon="4.4309">
        <ele>633.8</ele>
        <time>2022-05-08T11:53:02Z</time>
      </trkpt>
      <trkpt lat="46.15417" lon="4.43069">
        <ele>634.4</ele>
        <time>2022-05-08T11:53:06Z</time>
      </trkpt>
      <trkpt lat="46.15404" lon="4.4305">
        <ele>634.6</ele>
        <time>2022-05-08T11:53:10Z</time>
      </trkpt>
      <trkpt lat="46.1539" lon="4.4303">
        <ele>635</ele>
        <time>2022-05-08T11:53:14Z</time>
      </trkpt>
      <trkpt lat="46.15377" lon="4.43008">
        <ele>635.4</ele>
        <time>2022-05-08T11:53:18Z</time>
      </trkpt>
      <trkpt lat="46.15364" lon="4.42985">
        <ele>634.6</ele>
        <time>2022-05-08T11:53:22Z</time>
      </trkpt>
      <trkpt lat="46.15352" lon="4.42963">
        <ele>634.8</ele>
        <time>2022-05-08T11:53:26Z</time>
      </trkpt>
      <trkpt lat="46.1534" lon="4.4294">
        <ele>635.4</ele>
        <time>2022-05-08T11:53:30Z</time>
      </trkpt>
      <trkpt lat="46.15328" lon="4.42919">
        <ele>634.8</ele>
        <time>2022-05-08T11:53:34Z</time>
      </trkpt>
      <trkpt lat="46.15316" lon="4.42898">
        <ele>635</ele>
        <time>2022-05-08T11:53:38Z</time>
      </trkpt>
      <trkpt lat="46.15305" lon="4.42877">
        <ele>635.2</ele>
        <time>2022-05-08T11:53:42Z</time>
      </trkpt>
      <trkpt lat="46.15291" lon="4.42856">
        <ele>635.4</ele>
        <time>2022-05-08T11:53:46Z</time>
      </trkpt>
      <trkpt lat="46.15277" lon="4.42838">
        <ele>636</ele>
        <time>2022-05-08T11:53:50Z</time>
      </trkpt>
      <trkpt lat="46.15264" lon="4.42822">
        <ele>635.6</ele>
        <time>2022-05-08T11:53:54Z</time>
      </trkpt>
      <trkpt lat="46.1525" lon="4.42805">
        <ele>635</ele>
        <time>2022-05-08T11:53:58Z</time>
      </trkpt>
      <trkpt lat="46.15236" lon="4.4279">
        <ele>636.2</ele>
        <time>2022-05-08T11:54:02Z</time>
      </trkpt>
      <trkpt lat="46.15223" lon="4.42777">
        <ele>636.2</ele>
        <time>2022-05-08T11:54:06Z</time>
      </trkpt>
      <trkpt lat="46.1521" lon="4.42766">
        <ele>636.8</ele>
        <time>2022-05-08T11:54:10Z</time>
      </trkpt>
      <trkpt lat="46.15199" lon="4.42757">
        <ele>637.6</ele>
        <time>2022-05-08T11:54:14Z</time>
      </trkpt>
      <trkpt lat="46.15189" lon="4.42748">
        <ele>638.2</ele>
        <time>2022-05-08T11:54:18Z</time>
      </trkpt>
      <trkpt lat="46.1518" lon="4.42739">
        <ele>638.6</ele>
        <time>2022-05-08T11:54:22Z</time>
      </trkpt>
      <trkpt lat="46.15171" lon="4.42731">
        <ele>639.6</ele>
        <time>2022-05-08T11:54:26Z</time>
      </trkpt>
      <trkpt lat="46.15163" lon="4.42722">
        <ele>639.8</ele>
        <time>2022-05-08T11:54:30Z</time>
      </trkpt>
      <trkpt lat="46.15156" lon="4.42715">
        <ele>640.2</ele>
        <time>2022-05-08T11:54:34Z</time>
      </trkpt>
      <trkpt lat="46.15147" lon="4.42711">
        <ele>640.4</ele>
        <time>2022-05-08T11:54:38Z</time>
      </trkpt>
      <trkpt lat="46.15139" lon="4.42708">
        <ele>641.6</ele>
        <time>2022-05-08T11:54:42Z</time>
      </trkpt>
      <trkpt lat="46.15129" lon="4.42707">
        <ele>641.2</ele>
        <time>2022-05-08T11:54:46Z</time>
      </trkpt>
      <trkpt lat="46.15118" lon="4.42704">
        <ele>641.6</ele>
        <time>2022-05-08T11:54:50Z</time>
      </trkpt>
      <trkpt lat="46.15107" lon="4.42702">
        <ele>641.8</ele>
        <time>2022-05-08T11:54:54Z</time>
      </trkpt>
      <trkpt lat="46.15096" lon="4.42698">
        <ele>642.8</ele>
        <time>2022-05-08T11:54:58Z</time>
      </trkpt>
      <trkpt lat="46.15086" lon="4.42694">
        <ele>642.8</ele>
        <time>2022-05-08T11:55:02Z</time>
      </trkpt>
      <trkpt lat="46.15075" lon="4.4269">
        <ele>643.8</ele>
        <time>2022-05-08T11:55:06Z</time>
      </trkpt>
      <trkpt lat="46.15066" lon="4.42684">
        <ele>644.2</ele>
        <time>2022-05-08T11:55:10Z</time>
      </trkpt>
      <trkpt lat="46.15056" lon="4.42678">
        <ele>645</ele>
        <time>2022-05-08T11:55:14Z</time>
      </trkpt>
      <trkpt lat="46.15046" lon="4.42671">
        <ele>645.2</ele>
        <time>2022-05-08T11:55:18Z</time>
      </trkpt>
      <trkpt lat="46.15037" lon="4.42662">
        <ele>645.8</ele>
        <time>2022-05-08T11:55:22Z</time>
      </trkpt>
      <trkpt lat="46.15028" lon="4.42653">
        <ele>646</ele>
        <time>2022-05-08T11:55:26Z</time>
      </trkpt>
      <trkpt lat="46.1502" lon="4.42643">
        <ele>646.6</ele>
        <time>2022-05-08T11:55:30Z</time>
      </trkpt>
      <trkpt lat="46.15012" lon="4.42634">
        <ele>646.6</ele>
        <time>2022-05-08T11:55:34Z</time>
      </trkpt>
      <trkpt lat="46.15003" lon="4.42625">
        <ele>647</ele>
        <time>2022-05-08T11:55:38Z</time>
      </trkpt>
      <trkpt lat="46.14996" lon="4.42614">
        <ele>647.2</ele>
        <time>2022-05-08T11:55:42Z</time>
      </trkpt>
      <trkpt lat="46.14989" lon="4.42605">
        <ele>647.4</ele>
        <time>2022-05-08T11:55:46Z</time>
      </trkpt>
      <trkpt lat="46.14981" lon="4.42596">
        <ele>647.4</ele>
        <time>2022-05-08T11:55:50Z</time>
      </trkpt>
      <trkpt lat="46.14974" lon="4.42586">
        <ele>648.8</ele>
        <time>2022-05-08T11:55:54Z</time>
      </trkpt>
      <trkpt lat="46.14967" lon="4.42577">
        <ele>649.6</ele>
        <time>2022-05-08T11:55:58Z</time>
      </trkpt>
      <trkpt lat="46.1496" lon="4.42568">
        <ele>649.4</ele>
        <time>2022-05-08T11:56:02Z</time>
      </trkpt>
      <trkpt lat="46.14953" lon="4.42558">
        <ele>649</ele>
        <time>2022-05-08T11:56:06Z</time>
      </trkpt>
      <trkpt lat="46.14947" lon="4.42548">
        <ele>650.2</ele>
        <time>2022-05-08T11:56:10Z</time>
      </trkpt>
      <trkpt lat="46.14942" lon="4.42538">
        <ele>650.2</ele>
        <time>2022-05-08T11:56:14Z</time>
      </trkpt>
      <trkpt lat="46.14937" lon="4.42528">
        <ele>649.8</ele>
        <time>2022-05-08T11:56:18Z</time>
      </trkpt>
      <trkpt lat="46.14934" lon="4.42517">
        <ele>650.4</ele>
        <time>2022-05-08T11:56:22Z</time>
      </trkpt>
      <trkpt lat="46.14929" lon="4.42507">
        <ele>650.4</ele>
        <time>2022-05-08T11:56:26Z</time>
      </trkpt>
      <trkpt lat="46.14926" lon="4.42498">
        <ele>650.2</ele>
        <time>2022-05-08T11:56:30Z</time>
      </trkpt>
      <trkpt lat="46.14922" lon="4.42492">
        <ele>650.2</ele>
        <time>2022-05-08T11:56:34Z</time>
      </trkpt>
      <trkpt lat="46.14923" lon="4.425">
        <ele>650</ele>
        <time>2022-05-08T11:56:38Z</time>
      </trkpt>
      <trkpt lat="46.14929" lon="4.42503">
        <ele>650.8</ele>
        <time>2022-05-08T11:56:42Z</time>
      </trkpt>
      <trkpt lat="46.14922" lon="4.42489">
        <ele>653.6</ele>
        <time>2022-05-08T12:12:45Z</time>
      </trkpt>
      <trkpt lat="46.14918" lon="4.4248">
        <ele>653.4</ele>
        <time>2022-05-08T12:12:49Z</time>
      </trkpt>
      <trkpt lat="46.14913" lon="4.4247">
        <ele>653</ele>
        <time>2022-05-08T12:12:53Z</time>
      </trkpt>
      <trkpt lat="46.14908" lon="4.42459">
        <ele>652.8</ele>
        <time>2022-05-08T12:12:57Z</time>
      </trkpt>
      <trkpt lat="46.14902" lon="4.42447">
        <ele>653.4</ele>
        <time>2022-05-08T12:13:01Z</time>
      </trkpt>
      <trkpt lat="46.14895" lon="4.42435">
        <ele>653.4</ele>
        <time>2022-05-08T12:13:05Z</time>
      </trkpt>
      <trkpt lat="46.14888" lon="4.42424">
        <ele>653.4</ele>
        <time>2022-05-08T12:13:09Z</time>
      </trkpt>
      <trkpt lat="46.1488" lon="4.42415">
        <ele>653.2</ele>
        <time>2022-05-08T12:13:13Z</time>
      </trkpt>
      <trkpt lat="46.14872" lon="4.42407">
        <ele>653.4</ele>
        <time>2022-05-08T12:13:17Z</time>
      </trkpt>
      <trkpt lat="46.14863" lon="4.42399">
        <ele>653</ele>
        <time>2022-05-08T12:13:21Z</time>
      </trkpt>
      <trkpt lat="46.14854" lon="4.42391">
        <ele>652.8</ele>
        <time>2022-05-08T12:13:25Z</time>
      </trkpt>
      <trkpt lat="46.14844" lon="4.42383">
        <ele>651.6</ele>
        <time>2022-05-08T12:13:29Z</time>
      </trkpt>
      <trkpt lat="46.14836" lon="4.42374">
        <ele>651.8</ele>
        <time>2022-05-08T12:13:33Z</time>
      </trkpt>
      <trkpt lat="46.14827" lon="4.42364">
        <ele>651.8</ele>
        <time>2022-05-08T12:13:37Z</time>
      </trkpt>
      <trkpt lat="46.14819" lon="4.42354">
        <ele>651.6</ele>
        <time>2022-05-08T12:13:41Z</time>
      </trkpt>
      <trkpt lat="46.14811" lon="4.42341">
        <ele>651.4</ele>
        <time>2022-05-08T12:13:45Z</time>
      </trkpt>
      <trkpt lat="46.14805" lon="4.42329">
        <ele>651.8</ele>
        <time>2022-05-08T12:13:49Z</time>
      </trkpt>
      <trkpt lat="46.14801" lon="4.42317">
        <ele>650.4</ele>
        <time>2022-05-08T12:13:53Z</time>
      </trkpt>
      <trkpt lat="46.14796" lon="4.42301">
        <ele>651.8</ele>
        <time>2022-05-08T12:13:57Z</time>
      </trkpt>
      <trkpt lat="46.14794" lon="4.42286">
        <ele>651.6</ele>
        <time>2022-05-08T12:14:01Z</time>
      </trkpt>
      <trkpt lat="46.14793" lon="4.4227">
        <ele>650.4</ele>
        <time>2022-05-08T12:14:05Z</time>
      </trkpt>
      <trkpt lat="46.14793" lon="4.42255">
        <ele>651.6</ele>
        <time>2022-05-08T12:14:09Z</time>
      </trkpt>
      <trkpt lat="46.14792" lon="4.42237">
        <ele>651.8</ele>
        <time>2022-05-08T12:14:13Z</time>
      </trkpt>
      <trkpt lat="46.14792" lon="4.42216">
        <ele>651.4</ele>
        <time>2022-05-08T12:14:17Z</time>
      </trkpt>
      <trkpt lat="46.14787" lon="4.42194">
        <ele>651.6</ele>
        <time>2022-05-08T12:14:21Z</time>
      </trkpt>
      <trkpt lat="46.14782" lon="4.42174">
        <ele>651</ele>
        <time>2022-05-08T12:14:25Z</time>
      </trkpt>
      <trkpt lat="46.14777" lon="4.42154">
        <ele>650.4</ele>
        <time>2022-05-08T12:14:29Z</time>
      </trkpt>
      <trkpt lat="46.14772" lon="4.42135">
        <ele>651.2</ele>
        <time>2022-05-08T12:14:33Z</time>
      </trkpt>
      <trkpt lat="46.14766" lon="4.42119">
        <ele>651.4</ele>
        <time>2022-05-08T12:14:37Z</time>
      </trkpt>
      <trkpt lat="46.14757" lon="4.42104">
        <ele>650</ele>
        <time>2022-05-08T12:14:41Z</time>
      </trkpt>
      <trkpt lat="46.14747" lon="4.42086">
        <ele>649</ele>
        <time>2022-05-08T12:14:45Z</time>
      </trkpt>
      <trkpt lat="46.14738" lon="4.42068">
        <ele>649.2</ele>
        <time>2022-05-08T12:14:49Z</time>
      </trkpt>
      <trkpt lat="46.14728" lon="4.42053">
        <ele>649</ele>
        <time>2022-05-08T12:14:53Z</time>
      </trkpt>
      <trkpt lat="46.14715" lon="4.42038">
        <ele>649</ele>
        <time>2022-05-08T12:14:57Z</time>
      </trkpt>
      <trkpt lat="46.147" lon="4.42027">
        <ele>650.4</ele>
        <time>2022-05-08T12:15:01Z</time>
      </trkpt>
      <trkpt lat="46.14681" lon="4.42017">
        <ele>650.2</ele>
        <time>2022-05-08T12:15:05Z</time>
      </trkpt>
      <trkpt lat="46.14661" lon="4.42013">
        <ele>649.6</ele>
        <time>2022-05-08T12:15:09Z</time>
      </trkpt>
      <trkpt lat="46.14642" lon="4.42014">
        <ele>650.4</ele>
        <time>2022-05-08T12:15:13Z</time>
      </trkpt>
      <trkpt lat="46.14623" lon="4.42017">
        <ele>648.6</ele>
        <time>2022-05-08T12:15:17Z</time>
      </trkpt>
      <trkpt lat="46.14605" lon="4.42025">
        <ele>649</ele>
        <time>2022-05-08T12:15:21Z</time>
      </trkpt>
      <trkpt lat="46.14587" lon="4.42035">
        <ele>648.6</ele>
        <time>2022-05-08T12:15:25Z</time>
      </trkpt>
      <trkpt lat="46.1457" lon="4.42044">
        <ele>648.6</ele>
        <time>2022-05-08T12:15:29Z</time>
      </trkpt>
      <trkpt lat="46.14553" lon="4.42054">
        <ele>647.8</ele>
        <time>2022-05-08T12:15:33Z</time>
      </trkpt>
      <trkpt lat="46.14538" lon="4.42064">
        <ele>648</ele>
        <time>2022-05-08T12:15:37Z</time>
      </trkpt>
      <trkpt lat="46.14524" lon="4.42074">
        <ele>647.6</ele>
        <time>2022-05-08T12:15:41Z</time>
      </trkpt>
      <trkpt lat="46.14506" lon="4.42078">
        <ele>647.6</ele>
        <time>2022-05-08T12:15:45Z</time>
      </trkpt>
      <trkpt lat="46.14495" lon="4.42084">
        <ele>646.8</ele>
        <time>2022-05-08T12:15:49Z</time>
      </trkpt>
      <trkpt lat="46.14479" lon="4.42088">
        <ele>647.4</ele>
        <time>2022-05-08T12:15:53Z</time>
      </trkpt>
      <trkpt lat="46.14464" lon="4.42088">
        <ele>647</ele>
        <time>2022-05-08T12:15:57Z</time>
      </trkpt>
      <trkpt lat="46.14448" lon="4.42078">
        <ele>645.4</ele>
        <time>2022-05-08T12:16:01Z</time>
      </trkpt>
      <trkpt lat="46.1444" lon="4.42059">
        <ele>645</ele>
        <time>2022-05-08T12:16:05Z</time>
      </trkpt>
      <trkpt lat="46.14441" lon="4.42037">
        <ele>644.6</ele>
        <time>2022-05-08T12:16:09Z</time>
      </trkpt>
      <trkpt lat="46.14445" lon="4.42016">
        <ele>642.4</ele>
        <time>2022-05-08T12:16:13Z</time>
      </trkpt>
      <trkpt lat="46.1445" lon="4.41994">
        <ele>643.2</ele>
        <time>2022-05-08T12:16:17Z</time>
      </trkpt>
      <trkpt lat="46.14451" lon="4.4197">
        <ele>644.6</ele>
        <time>2022-05-08T12:16:21Z</time>
      </trkpt>
      <trkpt lat="46.14444" lon="4.41943">
        <ele>645.2</ele>
        <time>2022-05-08T12:16:25Z</time>
      </trkpt>
      <trkpt lat="46.14442" lon="4.41916">
        <ele>644.8</ele>
        <time>2022-05-08T12:16:29Z</time>
      </trkpt>
      <trkpt lat="46.14442" lon="4.4189">
        <ele>645.8</ele>
        <time>2022-05-08T12:16:33Z</time>
      </trkpt>
      <trkpt lat="46.1444" lon="4.41864">
        <ele>644.6</ele>
        <time>2022-05-08T12:16:37Z</time>
      </trkpt>
      <trkpt lat="46.14437" lon="4.41839">
        <ele>643.6</ele>
        <time>2022-05-08T12:16:41Z</time>
      </trkpt>
      <trkpt lat="46.14431" lon="4.41815">
        <ele>644.4</ele>
        <time>2022-05-08T12:16:45Z</time>
      </trkpt>
      <trkpt lat="46.14421" lon="4.4179">
        <ele>643.4</ele>
        <time>2022-05-08T12:16:49Z</time>
      </trkpt>
      <trkpt lat="46.14412" lon="4.41766">
        <ele>642.4</ele>
        <time>2022-05-08T12:16:53Z</time>
      </trkpt>
      <trkpt lat="46.14403" lon="4.41741">
        <ele>641.6</ele>
        <time>2022-05-08T12:16:57Z</time>
      </trkpt>
      <trkpt lat="46.14395" lon="4.41717">
        <ele>643.6</ele>
        <time>2022-05-08T12:17:01Z</time>
      </trkpt>
      <trkpt lat="46.14392" lon="4.4169">
        <ele>642.8</ele>
        <time>2022-05-08T12:17:05Z</time>
      </trkpt>
      <trkpt lat="46.1439" lon="4.41661">
        <ele>642.2</ele>
        <time>2022-05-08T12:17:09Z</time>
      </trkpt>
      <trkpt lat="46.1439" lon="4.41633">
        <ele>641.4</ele>
        <time>2022-05-08T12:17:13Z</time>
      </trkpt>
      <trkpt lat="46.14389" lon="4.41604">
        <ele>640.4</ele>
        <time>2022-05-08T12:17:17Z</time>
      </trkpt>
      <trkpt lat="46.14386" lon="4.41575">
        <ele>642.8</ele>
        <time>2022-05-08T12:17:21Z</time>
      </trkpt>
      <trkpt lat="46.14382" lon="4.41546">
        <ele>642.2</ele>
        <time>2022-05-08T12:17:25Z</time>
      </trkpt>
      <trkpt lat="46.14373" lon="4.41519">
        <ele>642.6</ele>
        <time>2022-05-08T12:17:29Z</time>
      </trkpt>
      <trkpt lat="46.14362" lon="4.41495">
        <ele>642.6</ele>
        <time>2022-05-08T12:17:33Z</time>
      </trkpt>
      <trkpt lat="46.14348" lon="4.41472">
        <ele>642.4</ele>
        <time>2022-05-08T12:17:37Z</time>
      </trkpt>
      <trkpt lat="46.14332" lon="4.41452">
        <ele>641.2</ele>
        <time>2022-05-08T12:17:41Z</time>
      </trkpt>
      <trkpt lat="46.14317" lon="4.41434">
        <ele>641.2</ele>
        <time>2022-05-08T12:17:45Z</time>
      </trkpt>
      <trkpt lat="46.143" lon="4.41418">
        <ele>640.8</ele>
        <time>2022-05-08T12:17:49Z</time>
      </trkpt>
      <trkpt lat="46.14285" lon="4.41404">
        <ele>641</ele>
        <time>2022-05-08T12:17:53Z</time>
      </trkpt>
      <trkpt lat="46.14269" lon="4.41394">
        <ele>640.6</ele>
        <time>2022-05-08T12:17:57Z</time>
      </trkpt>
      <trkpt lat="46.14254" lon="4.41385">
        <ele>640.8</ele>
        <time>2022-05-08T12:18:01Z</time>
      </trkpt>
      <trkpt lat="46.14237" lon="4.41376">
        <ele>640.2</ele>
        <time>2022-05-08T12:18:05Z</time>
      </trkpt>
      <trkpt lat="46.14221" lon="4.41365">
        <ele>640.6</ele>
        <time>2022-05-08T12:18:09Z</time>
      </trkpt>
      <trkpt lat="46.14208" lon="4.41351">
        <ele>640.6</ele>
        <time>2022-05-08T12:18:13Z</time>
      </trkpt>
      <trkpt lat="46.14201" lon="4.41339">
        <ele>641</ele>
        <time>2022-05-08T12:18:17Z</time>
      </trkpt>
      <trkpt lat="46.14201" lon="4.41328">
        <ele>637.2</ele>
        <time>2022-05-08T12:18:21Z</time>
      </trkpt>
      <trkpt lat="46.14205" lon="4.41314">
        <ele>638.2</ele>
        <time>2022-05-08T12:18:25Z</time>
      </trkpt>
      <trkpt lat="46.14209" lon="4.413">
        <ele>640.4</ele>
        <time>2022-05-08T12:18:29Z</time>
      </trkpt>
      <trkpt lat="46.14218" lon="4.41288">
        <ele>641.2</ele>
        <time>2022-05-08T12:18:33Z</time>
      </trkpt>
      <trkpt lat="46.1423" lon="4.41277">
        <ele>640.6</ele>
        <time>2022-05-08T12:18:37Z</time>
      </trkpt>
      <trkpt lat="46.14239" lon="4.41269">
        <ele>640</ele>
        <time>2022-05-08T12:18:41Z</time>
      </trkpt>
      <trkpt lat="46.14247" lon="4.4126">
        <ele>639.8</ele>
        <time>2022-05-08T12:18:45Z</time>
      </trkpt>
      <trkpt lat="46.14252" lon="4.41253">
        <ele>640.8</ele>
        <time>2022-05-08T12:18:49Z</time>
      </trkpt>
      <trkpt lat="46.14252" lon="4.41246">
        <ele>639.8</ele>
        <time>2022-05-08T12:23:10Z</time>
      </trkpt>
      <trkpt lat="46.1424" lon="4.41255">
        <ele>639.8</ele>
        <time>2022-05-08T12:23:14Z</time>
      </trkpt>
      <trkpt lat="46.14228" lon="4.41265">
        <ele>639.2</ele>
        <time>2022-05-08T12:23:18Z</time>
      </trkpt>
      <trkpt lat="46.14217" lon="4.41275">
        <ele>639</ele>
        <time>2022-05-08T12:23:22Z</time>
      </trkpt>
      <trkpt lat="46.14206" lon="4.41284">
        <ele>639.8</ele>
        <time>2022-05-08T12:23:26Z</time>
      </trkpt>
      <trkpt lat="46.14198" lon="4.41299">
        <ele>640</ele>
        <time>2022-05-08T12:23:30Z</time>
      </trkpt>
      <trkpt lat="46.14192" lon="4.41317">
        <ele>639.8</ele>
        <time>2022-05-08T12:23:34Z</time>
      </trkpt>
      <trkpt lat="46.14196" lon="4.41333">
        <ele>640.6</ele>
        <time>2022-05-08T12:23:38Z</time>
      </trkpt>
      <trkpt lat="46.14204" lon="4.41345">
        <ele>640.4</ele>
        <time>2022-05-08T12:23:42Z</time>
      </trkpt>
      <trkpt lat="46.14216" lon="4.41355">
        <ele>639.8</ele>
        <time>2022-05-08T12:23:46Z</time>
      </trkpt>
      <trkpt lat="46.14226" lon="4.41362">
        <ele>641.6</ele>
        <time>2022-05-08T12:23:50Z</time>
      </trkpt>
      <trkpt lat="46.14234" lon="4.41371">
        <ele>640.8</ele>
        <time>2022-05-08T12:23:54Z</time>
      </trkpt>
      <trkpt lat="46.14242" lon="4.4138">
        <ele>640.8</ele>
        <time>2022-05-08T12:23:58Z</time>
      </trkpt>
      <trkpt lat="46.14253" lon="4.41389">
        <ele>640.8</ele>
        <time>2022-05-08T12:24:02Z</time>
      </trkpt>
      <trkpt lat="46.14268" lon="4.41402">
        <ele>640.8</ele>
        <time>2022-05-08T12:24:06Z</time>
      </trkpt>
      <trkpt lat="46.14284" lon="4.41417">
        <ele>641.6</ele>
        <time>2022-05-08T12:24:10Z</time>
      </trkpt>
      <trkpt lat="46.14302" lon="4.41431">
        <ele>641.6</ele>
        <time>2022-05-08T12:24:14Z</time>
      </trkpt>
      <trkpt lat="46.14316" lon="4.41444">
        <ele>641.8</ele>
        <time>2022-05-08T12:24:18Z</time>
      </trkpt>
      <trkpt lat="46.14329" lon="4.4146">
        <ele>641.6</ele>
        <time>2022-05-08T12:24:22Z</time>
      </trkpt>
      <trkpt lat="46.14341" lon="4.41476">
        <ele>641.8</ele>
        <time>2022-05-08T12:24:26Z</time>
      </trkpt>
      <trkpt lat="46.14351" lon="4.41492">
        <ele>641.8</ele>
        <time>2022-05-08T12:24:30Z</time>
      </trkpt>
      <trkpt lat="46.14361" lon="4.41511">
        <ele>642.4</ele>
        <time>2022-05-08T12:24:34Z</time>
      </trkpt>
      <trkpt lat="46.14368" lon="4.41532">
        <ele>641.6</ele>
        <time>2022-05-08T12:24:38Z</time>
      </trkpt>
      <trkpt lat="46.14374" lon="4.41554">
        <ele>640.4</ele>
        <time>2022-05-08T12:24:42Z</time>
      </trkpt>
      <trkpt lat="46.14377" lon="4.41577">
        <ele>642</ele>
        <time>2022-05-08T12:24:46Z</time>
      </trkpt>
      <trkpt lat="46.14378" lon="4.41599">
        <ele>643</ele>
        <time>2022-05-08T12:24:50Z</time>
      </trkpt>
      <trkpt lat="46.14379" lon="4.41622">
        <ele>643.2</ele>
        <time>2022-05-08T12:24:54Z</time>
      </trkpt>
      <trkpt lat="46.14379" lon="4.41644">
        <ele>643.4</ele>
        <time>2022-05-08T12:24:58Z</time>
      </trkpt>
      <trkpt lat="46.1438" lon="4.41666">
        <ele>642.8</ele>
        <time>2022-05-08T12:25:02Z</time>
      </trkpt>
      <trkpt lat="46.14382" lon="4.41688">
        <ele>644</ele>
        <time>2022-05-08T12:25:06Z</time>
      </trkpt>
      <trkpt lat="46.14385" lon="4.41709">
        <ele>642.8</ele>
        <time>2022-05-08T12:25:10Z</time>
      </trkpt>
      <trkpt lat="46.14391" lon="4.41731">
        <ele>644.2</ele>
        <time>2022-05-08T12:25:14Z</time>
      </trkpt>
      <trkpt lat="46.14397" lon="4.41753">
        <ele>643.8</ele>
        <time>2022-05-08T12:25:18Z</time>
      </trkpt>
      <trkpt lat="46.14405" lon="4.41773">
        <ele>643.8</ele>
        <time>2022-05-08T12:25:22Z</time>
      </trkpt>
      <trkpt lat="46.14411" lon="4.41791">
        <ele>643.8</ele>
        <time>2022-05-08T12:25:26Z</time>
      </trkpt>
      <trkpt lat="46.14418" lon="4.41814">
        <ele>644</ele>
        <time>2022-05-08T12:25:30Z</time>
      </trkpt>
      <trkpt lat="46.14424" lon="4.41837">
        <ele>644</ele>
        <time>2022-05-08T12:25:34Z</time>
      </trkpt>
      <trkpt lat="46.14427" lon="4.4186">
        <ele>644.6</ele>
        <time>2022-05-08T12:25:38Z</time>
      </trkpt>
      <trkpt lat="46.14429" lon="4.41883">
        <ele>644.2</ele>
        <time>2022-05-08T12:25:42Z</time>
      </trkpt>
      <trkpt lat="46.14429" lon="4.41905">
        <ele>644.2</ele>
        <time>2022-05-08T12:25:46Z</time>
      </trkpt>
      <trkpt lat="46.14427" lon="4.41927">
        <ele>644.6</ele>
        <time>2022-05-08T12:25:50Z</time>
      </trkpt>
      <trkpt lat="46.14425" lon="4.41949">
        <ele>643.4</ele>
        <time>2022-05-08T12:25:54Z</time>
      </trkpt>
      <trkpt lat="46.14423" lon="4.41971">
        <ele>643.6</ele>
        <time>2022-05-08T12:25:58Z</time>
      </trkpt>
      <trkpt lat="46.14419" lon="4.4199">
        <ele>644.2</ele>
        <time>2022-05-08T12:26:02Z</time>
      </trkpt>
      <trkpt lat="46.14415" lon="4.42006">
        <ele>645</ele>
        <time>2022-05-08T12:26:06Z</time>
      </trkpt>
      <trkpt lat="46.14409" lon="4.4202">
        <ele>645.2</ele>
        <time>2022-05-08T12:26:10Z</time>
      </trkpt>
      <trkpt lat="46.14411" lon="4.42042">
        <ele>645.2</ele>
        <time>2022-05-08T12:26:14Z</time>
      </trkpt>
      <trkpt lat="46.14415" lon="4.42065">
        <ele>644.8</ele>
        <time>2022-05-08T12:26:18Z</time>
      </trkpt>
      <trkpt lat="46.14427" lon="4.42084">
        <ele>644.4</ele>
        <time>2022-05-08T12:26:22Z</time>
      </trkpt>
      <trkpt lat="46.1444" lon="4.42093">
        <ele>646</ele>
        <time>2022-05-08T12:26:26Z</time>
      </trkpt>
      <trkpt lat="46.14453" lon="4.42096">
        <ele>645.4</ele>
        <time>2022-05-08T12:26:30Z</time>
      </trkpt>
      <trkpt lat="46.14462" lon="4.42095">
        <ele>646</ele>
        <time>2022-05-08T12:26:34Z</time>
      </trkpt>
      <trkpt lat="46.14474" lon="4.42093">
        <ele>646.2</ele>
        <time>2022-05-08T12:26:38Z</time>
      </trkpt>
      <trkpt lat="46.1449" lon="4.42087">
        <ele>646.6</ele>
        <time>2022-05-08T12:26:42Z</time>
      </trkpt>
      <trkpt lat="46.14505" lon="4.42082">
        <ele>647.6</ele>
        <time>2022-05-08T12:26:46Z</time>
      </trkpt>
      <trkpt lat="46.14515" lon="4.42071">
        <ele>646.8</ele>
        <time>2022-05-08T12:26:50Z</time>
      </trkpt>
      <trkpt lat="46.14532" lon="4.42066">
        <ele>646</ele>
        <time>2022-05-08T12:26:54Z</time>
      </trkpt>
      <trkpt lat="46.14546" lon="4.4206">
        <ele>644.2</ele>
        <time>2022-05-08T12:26:58Z</time>
      </trkpt>
      <trkpt lat="46.14558" lon="4.42047">
        <ele>643.8</ele>
        <time>2022-05-08T12:27:02Z</time>
      </trkpt>
      <trkpt lat="46.14572" lon="4.42033">
        <ele>645.6</ele>
        <time>2022-05-08T12:27:06Z</time>
      </trkpt>
      <trkpt lat="46.14591" lon="4.42022">
        <ele>647.2</ele>
        <time>2022-05-08T12:27:10Z</time>
      </trkpt>
      <trkpt lat="46.14608" lon="4.42015">
        <ele>646.6</ele>
        <time>2022-05-08T12:27:14Z</time>
      </trkpt>
      <trkpt lat="46.14625" lon="4.4201">
        <ele>647</ele>
        <time>2022-05-08T12:27:18Z</time>
      </trkpt>
      <trkpt lat="46.14642" lon="4.42007">
        <ele>645.6</ele>
        <time>2022-05-08T12:27:22Z</time>
      </trkpt>
      <trkpt lat="46.14656" lon="4.42009">
        <ele>645.4</ele>
        <time>2022-05-08T12:27:26Z</time>
      </trkpt>
      <trkpt lat="46.14669" lon="4.42013">
        <ele>646.8</ele>
        <time>2022-05-08T12:27:30Z</time>
      </trkpt>
      <trkpt lat="46.14682" lon="4.42022">
        <ele>648</ele>
        <time>2022-05-08T12:27:34Z</time>
      </trkpt>
      <trkpt lat="46.14693" lon="4.42034">
        <ele>646.2</ele>
        <time>2022-05-08T12:27:38Z</time>
      </trkpt>
      <trkpt lat="46.14703" lon="4.42046">
        <ele>644.4</ele>
        <time>2022-05-08T12:27:42Z</time>
      </trkpt>
      <trkpt lat="46.14712" lon="4.42059">
        <ele>645.2</ele>
        <time>2022-05-08T12:27:46Z</time>
      </trkpt>
      <trkpt lat="46.1472" lon="4.42068">
        <ele>647.2</ele>
        <time>2022-05-08T12:27:50Z</time>
      </trkpt>
      <trkpt lat="46.14728" lon="4.42078">
        <ele>648</ele>
        <time>2022-05-08T12:27:54Z</time>
      </trkpt>
      <trkpt lat="46.14738" lon="4.42092">
        <ele>647.2</ele>
        <time>2022-05-08T12:27:58Z</time>
      </trkpt>
      <trkpt lat="46.14745" lon="4.42108">
        <ele>647.2</ele>
        <time>2022-05-08T12:28:02Z</time>
      </trkpt>
      <trkpt lat="46.14751" lon="4.42123">
        <ele>647.4</ele>
        <time>2022-05-08T12:28:06Z</time>
      </trkpt>
      <trkpt lat="46.14758" lon="4.42146">
        <ele>647.2</ele>
        <time>2022-05-08T12:28:10Z</time>
      </trkpt>
      <trkpt lat="46.14761" lon="4.42169">
        <ele>647.4</ele>
        <time>2022-05-08T12:28:14Z</time>
      </trkpt>
      <trkpt lat="46.14767" lon="4.42188">
        <ele>647.8</ele>
        <time>2022-05-08T12:28:18Z</time>
      </trkpt>
      <trkpt lat="46.1477" lon="4.42208">
        <ele>648.2</ele>
        <time>2022-05-08T12:28:22Z</time>
      </trkpt>
      <trkpt lat="46.14773" lon="4.42225">
        <ele>648.4</ele>
        <time>2022-05-08T12:28:26Z</time>
      </trkpt>
      <trkpt lat="46.14776" lon="4.42241">
        <ele>648.4</ele>
        <time>2022-05-08T12:28:30Z</time>
      </trkpt>
      <trkpt lat="46.14782" lon="4.42255">
        <ele>649.2</ele>
        <time>2022-05-08T12:28:34Z</time>
      </trkpt>
      <trkpt lat="46.14786" lon="4.42271">
        <ele>648.8</ele>
        <time>2022-05-08T12:28:38Z</time>
      </trkpt>
      <trkpt lat="46.14792" lon="4.42295">
        <ele>649.6</ele>
        <time>2022-05-08T12:28:42Z</time>
      </trkpt>
      <trkpt lat="46.14802" lon="4.42316">
        <ele>647.8</ele>
        <time>2022-05-08T12:28:46Z</time>
      </trkpt>
      <trkpt lat="46.14813" lon="4.42334">
        <ele>648.8</ele>
        <time>2022-05-08T12:28:50Z</time>
      </trkpt>
      <trkpt lat="46.14825" lon="4.42352">
        <ele>650.6</ele>
        <time>2022-05-08T12:28:54Z</time>
      </trkpt>
      <trkpt lat="46.14838" lon="4.42373">
        <ele>650.4</ele>
        <time>2022-05-08T12:28:58Z</time>
      </trkpt>
      <trkpt lat="46.14852" lon="4.42388">
        <ele>649.4</ele>
        <time>2022-05-08T12:29:02Z</time>
      </trkpt>
      <trkpt lat="46.14865" lon="4.42402">
        <ele>649.6</ele>
        <time>2022-05-08T12:29:06Z</time>
      </trkpt>
      <trkpt lat="46.14877" lon="4.42415">
        <ele>650.6</ele>
        <time>2022-05-08T12:29:10Z</time>
      </trkpt>
      <trkpt lat="46.14889" lon="4.4243">
        <ele>650.6</ele>
        <time>2022-05-08T12:29:14Z</time>
      </trkpt>
      <trkpt lat="46.14898" lon="4.42448">
        <ele>650.4</ele>
        <time>2022-05-08T12:29:18Z</time>
      </trkpt>
      <trkpt lat="46.14906" lon="4.42465">
        <ele>649.6</ele>
        <time>2022-05-08T12:29:22Z</time>
      </trkpt>
      <trkpt lat="46.14915" lon="4.42484">
        <ele>649</ele>
        <time>2022-05-08T12:29:26Z</time>
      </trkpt>
      <trkpt lat="46.14923" lon="4.42502">
        <ele>650.8</ele>
        <time>2022-05-08T12:29:30Z</time>
      </trkpt>
      <trkpt lat="46.14929" lon="4.42519">
        <ele>649.6</ele>
        <time>2022-05-08T12:29:34Z</time>
      </trkpt>
      <trkpt lat="46.14921" lon="4.42518">
        <ele>651</ele>
        <time>2022-05-08T12:29:38Z</time>
      </trkpt>
      <trkpt lat="46.14913" lon="4.42505">
        <ele>651.8</ele>
        <time>2022-05-08T12:29:42Z</time>
      </trkpt>
      <trkpt lat="46.14905" lon="4.42493">
        <ele>651.8</ele>
        <time>2022-05-08T12:29:46Z</time>
      </trkpt>
      <trkpt lat="46.14897" lon="4.42483">
        <ele>653</ele>
        <time>2022-05-08T12:29:50Z</time>
      </trkpt>
      <trkpt lat="46.14889" lon="4.42473">
        <ele>653.4</ele>
        <time>2022-05-08T12:29:54Z</time>
      </trkpt>
      <trkpt lat="46.14881" lon="4.42464">
        <ele>653.6</ele>
        <time>2022-05-08T12:29:58Z</time>
      </trkpt>
      <trkpt lat="46.14871" lon="4.42455">
        <ele>653.8</ele>
        <time>2022-05-08T12:30:02Z</time>
      </trkpt>
      <trkpt lat="46.1486" lon="4.42447">
        <ele>655.2</ele>
        <time>2022-05-08T12:30:06Z</time>
      </trkpt>
      <trkpt lat="46.14849" lon="4.42438">
        <ele>655.4</ele>
        <time>2022-05-08T12:30:10Z</time>
      </trkpt>
      <trkpt lat="46.14839" lon="4.4243">
        <ele>655.6</ele>
        <time>2022-05-08T12:30:14Z</time>
      </trkpt>
      <trkpt lat="46.14828" lon="4.42421">
        <ele>655.8</ele>
        <time>2022-05-08T12:30:18Z</time>
      </trkpt>
      <trkpt lat="46.14816" lon="4.42412">
        <ele>655.2</ele>
        <time>2022-05-08T12:30:22Z</time>
      </trkpt>
      <trkpt lat="46.14807" lon="4.42402">
        <ele>656</ele>
        <time>2022-05-08T12:30:26Z</time>
      </trkpt>
      <trkpt lat="46.14799" lon="4.42391">
        <ele>656.8</ele>
        <time>2022-05-08T12:30:30Z</time>
      </trkpt>
      <trkpt lat="46.14791" lon="4.42382">
        <ele>657</ele>
        <time>2022-05-08T12:30:34Z</time>
      </trkpt>
      <trkpt lat="46.14783" lon="4.42372">
        <ele>657.2</ele>
        <time>2022-05-08T12:30:38Z</time>
      </trkpt>
      <trkpt lat="46.14777" lon="4.4236">
        <ele>657.8</ele>
        <time>2022-05-08T12:30:42Z</time>
      </trkpt>
      <trkpt lat="46.14771" lon="4.42349">
        <ele>658.8</ele>
        <time>2022-05-08T12:30:46Z</time>
      </trkpt>
      <trkpt lat="46.14767" lon="4.42338">
        <ele>659.6</ele>
        <time>2022-05-08T12:30:50Z</time>
      </trkpt>
      <trkpt lat="46.14764" lon="4.42328">
        <ele>659.8</ele>
        <time>2022-05-08T12:30:54Z</time>
      </trkpt>
      <trkpt lat="46.14762" lon="4.42315">
        <ele>660.4</ele>
        <time>2022-05-08T12:30:58Z</time>
      </trkpt>
      <trkpt lat="46.1476" lon="4.42303">
        <ele>661.2</ele>
        <time>2022-05-08T12:31:02Z</time>
      </trkpt>
      <trkpt lat="46.14756" lon="4.4229">
        <ele>661.6</ele>
        <time>2022-05-08T12:31:06Z</time>
      </trkpt>
      <trkpt lat="46.14751" lon="4.42274">
        <ele>661.4</ele>
        <time>2022-05-08T12:31:10Z</time>
      </trkpt>
      <trkpt lat="46.14748" lon="4.4226">
        <ele>662.4</ele>
        <time>2022-05-08T12:31:14Z</time>
      </trkpt>
      <trkpt lat="46.14745" lon="4.42249">
        <ele>662.8</ele>
        <time>2022-05-08T12:31:18Z</time>
      </trkpt>
      <trkpt lat="46.14744" lon="4.42236">
        <ele>662.6</ele>
        <time>2022-05-08T12:31:22Z</time>
      </trkpt>
      <trkpt lat="46.14742" lon="4.42226">
        <ele>663.6</ele>
        <time>2022-05-08T12:31:26Z</time>
      </trkpt>
      <trkpt lat="46.14738" lon="4.42216">
        <ele>664.2</ele>
        <time>2022-05-08T12:31:30Z</time>
      </trkpt>
      <trkpt lat="46.14729" lon="4.42203">
        <ele>664.2</ele>
        <time>2022-05-08T12:31:34Z</time>
      </trkpt>
      <trkpt lat="46.14722" lon="4.4219">
        <ele>664.8</ele>
        <time>2022-05-08T12:31:38Z</time>
      </trkpt>
      <trkpt lat="46.14717" lon="4.42178">
        <ele>665.8</ele>
        <time>2022-05-08T12:31:42Z</time>
      </trkpt>
      <trkpt lat="46.14713" lon="4.42165">
        <ele>666.6</ele>
        <time>2022-05-08T12:31:46Z</time>
      </trkpt>
      <trkpt lat="46.14707" lon="4.42156">
        <ele>666.2</ele>
        <time>2022-05-08T12:31:50Z</time>
      </trkpt>
      <trkpt lat="46.14699" lon="4.42146">
        <ele>667.4</ele>
        <time>2022-05-08T12:31:54Z</time>
      </trkpt>
      <trkpt lat="46.14691" lon="4.42138">
        <ele>668</ele>
        <time>2022-05-08T12:31:58Z</time>
      </trkpt>
      <trkpt lat="46.14684" lon="4.4213">
        <ele>668.4</ele>
        <time>2022-05-08T12:32:02Z</time>
      </trkpt>
      <trkpt lat="46.14674" lon="4.42123">
        <ele>668.8</ele>
        <time>2022-05-08T12:32:06Z</time>
      </trkpt>
      <trkpt lat="46.14665" lon="4.42117">
        <ele>669.4</ele>
        <time>2022-05-08T12:32:10Z</time>
      </trkpt>
      <trkpt lat="46.14654" lon="4.42113">
        <ele>669.6</ele>
        <time>2022-05-08T12:32:14Z</time>
      </trkpt>
      <trkpt lat="46.14644" lon="4.42112">
        <ele>669.8</ele>
        <time>2022-05-08T12:32:18Z</time>
      </trkpt>
      <trkpt lat="46.14634" lon="4.42109">
        <ele>670.8</ele>
        <time>2022-05-08T12:32:22Z</time>
      </trkpt>
      <trkpt lat="46.14624" lon="4.42108">
        <ele>670.8</ele>
        <time>2022-05-08T12:32:26Z</time>
      </trkpt>
      <trkpt lat="46.14613" lon="4.42109">
        <ele>671</ele>
        <time>2022-05-08T12:32:30Z</time>
      </trkpt>
      <trkpt lat="46.14602" lon="4.42113">
        <ele>671.6</ele>
        <time>2022-05-08T12:32:34Z</time>
      </trkpt>
      <trkpt lat="46.14592" lon="4.42117">
        <ele>671.8</ele>
        <time>2022-05-08T12:32:38Z</time>
      </trkpt>
      <trkpt lat="46.14584" lon="4.42119">
        <ele>672.6</ele>
        <time>2022-05-08T12:32:42Z</time>
      </trkpt>
      <trkpt lat="46.14578" lon="4.4212">
        <ele>672.8</ele>
        <time>2022-05-08T12:32:46Z</time>
      </trkpt>
      <trkpt lat="46.14571" lon="4.42124">
        <ele>673.8</ele>
        <time>2022-05-08T12:32:50Z</time>
      </trkpt>
      <trkpt lat="46.14562" lon="4.42127">
        <ele>674.4</ele>
        <time>2022-05-08T12:32:54Z</time>
      </trkpt>
      <trkpt lat="46.14551" lon="4.42134">
        <ele>675</ele>
        <time>2022-05-08T12:32:58Z</time>
      </trkpt>
      <trkpt lat="46.14542" lon="4.42141">
        <ele>675.6</ele>
        <time>2022-05-08T12:33:02Z</time>
      </trkpt>
      <trkpt lat="46.14535" lon="4.42144">
        <ele>675.8</ele>
        <time>2022-05-08T12:33:06Z</time>
      </trkpt>
      <trkpt lat="46.14528" lon="4.42148">
        <ele>676.2</ele>
        <time>2022-05-08T12:33:10Z</time>
      </trkpt>
      <trkpt lat="46.14518" lon="4.42154">
        <ele>676.6</ele>
        <time>2022-05-08T12:33:14Z</time>
      </trkpt>
      <trkpt lat="46.14508" lon="4.4216">
        <ele>677</ele>
        <time>2022-05-08T12:33:18Z</time>
      </trkpt>
      <trkpt lat="46.14498" lon="4.42164">
        <ele>677.2</ele>
        <time>2022-05-08T12:33:22Z</time>
      </trkpt>
      <trkpt lat="46.14488" lon="4.42169">
        <ele>676.8</ele>
        <time>2022-05-08T12:33:26Z</time>
      </trkpt>
      <trkpt lat="46.14475" lon="4.42174">
        <ele>677.2</ele>
        <time>2022-05-08T12:33:30Z</time>
      </trkpt>
      <trkpt lat="46.14466" lon="4.42181">
        <ele>678.2</ele>
        <time>2022-05-08T12:33:34Z</time>
      </trkpt>
      <trkpt lat="46.14458" lon="4.42187">
        <ele>678.4</ele>
        <time>2022-05-08T12:33:38Z</time>
      </trkpt>
      <trkpt lat="46.14451" lon="4.42196">
        <ele>678.8</ele>
        <time>2022-05-08T12:33:42Z</time>
      </trkpt>
      <trkpt lat="46.14446" lon="4.42204">
        <ele>679.2</ele>
        <time>2022-05-08T12:33:46Z</time>
      </trkpt>
      <trkpt lat="46.14439" lon="4.42212">
        <ele>680.2</ele>
        <time>2022-05-08T12:33:50Z</time>
      </trkpt>
      <trkpt lat="46.14427" lon="4.4222">
        <ele>680.4</ele>
        <time>2022-05-08T12:33:54Z</time>
      </trkpt>
      <trkpt lat="46.14422" lon="4.42228">
        <ele>681</ele>
        <time>2022-05-08T12:33:58Z</time>
      </trkpt>
      <trkpt lat="46.14412" lon="4.42232">
        <ele>681</ele>
        <time>2022-05-08T12:34:02Z</time>
      </trkpt>
      <trkpt lat="46.144" lon="4.42237">
        <ele>681.8</ele>
        <time>2022-05-08T12:34:06Z</time>
      </trkpt>
      <trkpt lat="46.1439" lon="4.42239">
        <ele>681.8</ele>
        <time>2022-05-08T12:34:10Z</time>
      </trkpt>
      <trkpt lat="46.14378" lon="4.42239">
        <ele>682</ele>
        <time>2022-05-08T12:34:14Z</time>
      </trkpt>
      <trkpt lat="46.14367" lon="4.42238">
        <ele>682.4</ele>
        <time>2022-05-08T12:34:18Z</time>
      </trkpt>
      <trkpt lat="46.14357" lon="4.42237">
        <ele>683.6</ele>
        <time>2022-05-08T12:34:22Z</time>
      </trkpt>
      <trkpt lat="46.14346" lon="4.42234">
        <ele>683.8</ele>
        <time>2022-05-08T12:34:26Z</time>
      </trkpt>
      <trkpt lat="46.14336" lon="4.42231">
        <ele>684.8</ele>
        <time>2022-05-08T12:34:30Z</time>
      </trkpt>
      <trkpt lat="46.14327" lon="4.42228">
        <ele>684.8</ele>
        <time>2022-05-08T12:34:34Z</time>
      </trkpt>
      <trkpt lat="46.14317" lon="4.42224">
        <ele>685.4</ele>
        <time>2022-05-08T12:34:38Z</time>
      </trkpt>
      <trkpt lat="46.14307" lon="4.42221">
        <ele>686</ele>
        <time>2022-05-08T12:34:42Z</time>
      </trkpt>
      <trkpt lat="46.14299" lon="4.42218">
        <ele>686</ele>
        <time>2022-05-08T12:34:46Z</time>
      </trkpt>
      <trkpt lat="46.1429" lon="4.42213">
        <ele>686.6</ele>
        <time>2022-05-08T12:34:50Z</time>
      </trkpt>
      <trkpt lat="46.14281" lon="4.4221">
        <ele>687</ele>
        <time>2022-05-08T12:34:54Z</time>
      </trkpt>
      <trkpt lat="46.14273" lon="4.42205">
        <ele>686.8</ele>
        <time>2022-05-08T12:34:58Z</time>
      </trkpt>
      <trkpt lat="46.14264" lon="4.42199">
        <ele>687.4</ele>
        <time>2022-05-08T12:35:02Z</time>
      </trkpt>
      <trkpt lat="46.14255" lon="4.42193">
        <ele>687.4</ele>
        <time>2022-05-08T12:35:06Z</time>
      </trkpt>
      <trkpt lat="46.14248" lon="4.42185">
        <ele>687.4</ele>
        <time>2022-05-08T12:35:10Z</time>
      </trkpt>
      <trkpt lat="46.1424" lon="4.42177">
        <ele>688.2</ele>
        <time>2022-05-08T12:35:14Z</time>
      </trkpt>
      <trkpt lat="46.14233" lon="4.42169">
        <ele>689.2</ele>
        <time>2022-05-08T12:35:18Z</time>
      </trkpt>
      <trkpt lat="46.14227" lon="4.42159">
        <ele>689</ele>
        <time>2022-05-08T12:35:22Z</time>
      </trkpt>
      <trkpt lat="46.14222" lon="4.4215">
        <ele>690.2</ele>
        <time>2022-05-08T12:35:26Z</time>
      </trkpt>
      <trkpt lat="46.14216" lon="4.4214">
        <ele>690.4</ele>
        <time>2022-05-08T12:35:30Z</time>
      </trkpt>
      <trkpt lat="46.14212" lon="4.4213">
        <ele>690.2</ele>
        <time>2022-05-08T12:35:34Z</time>
      </trkpt>
      <trkpt lat="46.14208" lon="4.42121">
        <ele>691.2</ele>
        <time>2022-05-08T12:35:38Z</time>
      </trkpt>
      <trkpt lat="46.14203" lon="4.42113">
        <ele>691.6</ele>
        <time>2022-05-08T12:35:42Z</time>
      </trkpt>
      <trkpt lat="46.142" lon="4.42104">
        <ele>692</ele>
        <time>2022-05-08T12:35:46Z</time>
      </trkpt>
      <trkpt lat="46.14194" lon="4.42096">
        <ele>692.2</ele>
        <time>2022-05-08T12:35:50Z</time>
      </trkpt>
      <trkpt lat="46.14189" lon="4.42087">
        <ele>693</ele>
        <time>2022-05-08T12:35:54Z</time>
      </trkpt>
      <trkpt lat="46.14184" lon="4.42076">
        <ele>693.2</ele>
        <time>2022-05-08T12:35:58Z</time>
      </trkpt>
      <trkpt lat="46.14178" lon="4.42066">
        <ele>693.6</ele>
        <time>2022-05-08T12:36:02Z</time>
      </trkpt>
      <trkpt lat="46.14174" lon="4.42055">
        <ele>694</ele>
        <time>2022-05-08T12:36:06Z</time>
      </trkpt>
      <trkpt lat="46.14171" lon="4.42044">
        <ele>694.6</ele>
        <time>2022-05-08T12:36:10Z</time>
      </trkpt>
      <trkpt lat="46.14166" lon="4.42036">
        <ele>694.4</ele>
        <time>2022-05-08T12:36:14Z</time>
      </trkpt>
      <trkpt lat="46.14164" lon="4.42024">
        <ele>695.4</ele>
        <time>2022-05-08T12:36:18Z</time>
      </trkpt>
      <trkpt lat="46.14164" lon="4.42014">
        <ele>696</ele>
        <time>2022-05-08T12:36:22Z</time>
      </trkpt>
      <trkpt lat="46.1416" lon="4.42003">
        <ele>695.8</ele>
        <time>2022-05-08T12:36:26Z</time>
      </trkpt>
      <trkpt lat="46.14155" lon="4.41988">
        <ele>696.4</ele>
        <time>2022-05-08T12:36:30Z</time>
      </trkpt>
      <trkpt lat="46.14152" lon="4.41974">
        <ele>697.6</ele>
        <time>2022-05-08T12:36:34Z</time>
      </trkpt>
      <trkpt lat="46.14149" lon="4.41963">
        <ele>698</ele>
        <time>2022-05-08T12:36:38Z</time>
      </trkpt>
      <trkpt lat="46.14146" lon="4.41952">
        <ele>698.4</ele>
        <time>2022-05-08T12:36:42Z</time>
      </trkpt>
      <trkpt lat="46.14144" lon="4.41942">
        <ele>698.8</ele>
        <time>2022-05-08T12:36:46Z</time>
      </trkpt>
      <trkpt lat="46.14144" lon="4.41931">
        <ele>699.2</ele>
        <time>2022-05-08T12:36:50Z</time>
      </trkpt>
      <trkpt lat="46.14145" lon="4.41926">
        <ele>700.4</ele>
        <time>2022-05-08T12:36:54Z</time>
      </trkpt>
      <trkpt lat="46.14147" lon="4.41916">
        <ele>701</ele>
        <time>2022-05-08T12:36:58Z</time>
      </trkpt>
      <trkpt lat="46.14148" lon="4.41908">
        <ele>701.8</ele>
        <time>2022-05-08T12:37:02Z</time>
      </trkpt>
      <trkpt lat="46.14147" lon="4.41893">
        <ele>702.4</ele>
        <time>2022-05-08T12:37:06Z</time>
      </trkpt>
      <trkpt lat="46.1415" lon="4.41873">
        <ele>703.8</ele>
        <time>2022-05-08T12:37:10Z</time>
      </trkpt>
      <trkpt lat="46.14152" lon="4.41857">
        <ele>703.8</ele>
        <time>2022-05-08T12:37:14Z</time>
      </trkpt>
      <trkpt lat="46.14153" lon="4.41845">
        <ele>704.4</ele>
        <time>2022-05-08T12:37:18Z</time>
      </trkpt>
      <trkpt lat="46.14153" lon="4.41833">
        <ele>704.2</ele>
        <time>2022-05-08T12:37:22Z</time>
      </trkpt>
      <trkpt lat="46.1415" lon="4.4182">
        <ele>705.4</ele>
        <time>2022-05-08T12:37:26Z</time>
      </trkpt>
      <trkpt lat="46.14151" lon="4.41813">
        <ele>705.4</ele>
        <time>2022-05-08T12:37:30Z</time>
      </trkpt>
      <trkpt lat="46.14154" lon="4.41803">
        <ele>706.2</ele>
        <time>2022-05-08T12:37:34Z</time>
      </trkpt>
      <trkpt lat="46.14153" lon="4.41792">
        <ele>706.8</ele>
        <time>2022-05-08T12:37:38Z</time>
      </trkpt>
      <trkpt lat="46.14153" lon="4.41781">
        <ele>707</ele>
        <time>2022-05-08T12:37:42Z</time>
      </trkpt>
      <trkpt lat="46.14151" lon="4.41767">
        <ele>708.2</ele>
        <time>2022-05-08T12:37:46Z</time>
      </trkpt>
      <trkpt lat="46.14152" lon="4.41755">
        <ele>707.8</ele>
        <time>2022-05-08T12:37:50Z</time>
      </trkpt>
      <trkpt lat="46.14148" lon="4.41741">
        <ele>708.6</ele>
        <time>2022-05-08T12:37:54Z</time>
      </trkpt>
      <trkpt lat="46.14145" lon="4.41727">
        <ele>709.4</ele>
        <time>2022-05-08T12:37:58Z</time>
      </trkpt>
      <trkpt lat="46.14142" lon="4.41713">
        <ele>709.6</ele>
        <time>2022-05-08T12:38:02Z</time>
      </trkpt>
      <trkpt lat="46.14138" lon="4.41701">
        <ele>710.4</ele>
        <time>2022-05-08T12:38:06Z</time>
      </trkpt>
      <trkpt lat="46.14133" lon="4.41692">
        <ele>710.8</ele>
        <time>2022-05-08T12:38:10Z</time>
      </trkpt>
      <trkpt lat="46.14128" lon="4.41683">
        <ele>711.2</ele>
        <time>2022-05-08T12:38:14Z</time>
      </trkpt>
      <trkpt lat="46.14121" lon="4.41676">
        <ele>711.4</ele>
        <time>2022-05-08T12:38:18Z</time>
      </trkpt>
      <trkpt lat="46.14112" lon="4.41671">
        <ele>712.2</ele>
        <time>2022-05-08T12:38:22Z</time>
      </trkpt>
      <trkpt lat="46.14105" lon="4.41665">
        <ele>712.6</ele>
        <time>2022-05-08T12:38:26Z</time>
      </trkpt>
      <trkpt lat="46.14093" lon="4.41658">
        <ele>713.2</ele>
        <time>2022-05-08T12:39:02Z</time>
      </trkpt>
      <trkpt lat="46.14084" lon="4.41654">
        <ele>714</ele>
        <time>2022-05-08T12:39:06Z</time>
      </trkpt>
      <trkpt lat="46.14076" lon="4.4165">
        <ele>714.4</ele>
        <time>2022-05-08T12:39:10Z</time>
      </trkpt>
      <trkpt lat="46.14069" lon="4.41644">
        <ele>714.6</ele>
        <time>2022-05-08T12:39:14Z</time>
      </trkpt>
      <trkpt lat="46.14061" lon="4.4164">
        <ele>715</ele>
        <time>2022-05-08T12:39:18Z</time>
      </trkpt>
      <trkpt lat="46.14053" lon="4.41634">
        <ele>715.6</ele>
        <time>2022-05-08T12:39:22Z</time>
      </trkpt>
      <trkpt lat="46.14047" lon="4.41628">
        <ele>716.2</ele>
        <time>2022-05-08T12:39:26Z</time>
      </trkpt>
      <trkpt lat="46.1404" lon="4.41622">
        <ele>717.4</ele>
        <time>2022-05-08T12:39:30Z</time>
      </trkpt>
      <trkpt lat="46.14033" lon="4.41616">
        <ele>717.4</ele>
        <time>2022-05-08T12:39:34Z</time>
      </trkpt>
      <trkpt lat="46.14026" lon="4.41609">
        <ele>718</ele>
        <time>2022-05-08T12:39:38Z</time>
      </trkpt>
      <trkpt lat="46.14018" lon="4.41603">
        <ele>718.2</ele>
        <time>2022-05-08T12:39:42Z</time>
      </trkpt>
      <trkpt lat="46.14012" lon="4.41596">
        <ele>718.6</ele>
        <time>2022-05-08T12:39:46Z</time>
      </trkpt>
      <trkpt lat="46.14005" lon="4.4159">
        <ele>719.4</ele>
        <time>2022-05-08T12:39:50Z</time>
      </trkpt>
      <trkpt lat="46.13999" lon="4.41583">
        <ele>720</ele>
        <time>2022-05-08T12:39:54Z</time>
      </trkpt>
      <trkpt lat="46.13993" lon="4.41576">
        <ele>720.2</ele>
        <time>2022-05-08T12:39:58Z</time>
      </trkpt>
      <trkpt lat="46.13988" lon="4.4157">
        <ele>721</ele>
        <time>2022-05-08T12:40:02Z</time>
      </trkpt>
      <trkpt lat="46.13982" lon="4.41562">
        <ele>721.4</ele>
        <time>2022-05-08T12:40:06Z</time>
      </trkpt>
      <trkpt lat="46.13977" lon="4.41555">
        <ele>722.2</ele>
        <time>2022-05-08T12:40:10Z</time>
      </trkpt>
      <trkpt lat="46.13971" lon="4.41548">
        <ele>722.4</ele>
        <time>2022-05-08T12:40:14Z</time>
      </trkpt>
      <trkpt lat="46.13966" lon="4.41541">
        <ele>723.2</ele>
        <time>2022-05-08T12:40:18Z</time>
      </trkpt>
      <trkpt lat="46.1396" lon="4.41533">
        <ele>723.8</ele>
        <time>2022-05-08T12:40:22Z</time>
      </trkpt>
      <trkpt lat="46.13953" lon="4.41526">
        <ele>724.2</ele>
        <time>2022-05-08T12:40:26Z</time>
      </trkpt>
      <trkpt lat="46.13947" lon="4.41519">
        <ele>724</ele>
        <time>2022-05-08T12:40:30Z</time>
      </trkpt>
      <trkpt lat="46.13941" lon="4.41513">
        <ele>724.6</ele>
        <time>2022-05-08T12:40:34Z</time>
      </trkpt>
      <trkpt lat="46.13935" lon="4.41507">
        <ele>725.4</ele>
        <time>2022-05-08T12:40:38Z</time>
      </trkpt>
      <trkpt lat="46.13928" lon="4.41501">
        <ele>726</ele>
        <time>2022-05-08T12:40:42Z</time>
      </trkpt>
      <trkpt lat="46.13922" lon="4.41495">
        <ele>726.6</ele>
        <time>2022-05-08T12:40:46Z</time>
      </trkpt>
      <trkpt lat="46.13917" lon="4.4149">
        <ele>727</ele>
        <time>2022-05-08T12:40:50Z</time>
      </trkpt>
      <trkpt lat="46.13909" lon="4.41483">
        <ele>727.4</ele>
        <time>2022-05-08T12:40:54Z</time>
      </trkpt>
      <trkpt lat="46.13904" lon="4.41477">
        <ele>727.8</ele>
        <time>2022-05-08T12:40:58Z</time>
      </trkpt>
      <trkpt lat="46.13897" lon="4.41471">
        <ele>728.6</ele>
        <time>2022-05-08T12:41:02Z</time>
      </trkpt>
      <trkpt lat="46.1389" lon="4.41464">
        <ele>729</ele>
        <time>2022-05-08T12:41:06Z</time>
      </trkpt>
      <trkpt lat="46.13883" lon="4.41458">
        <ele>729.8</ele>
        <time>2022-05-08T12:41:10Z</time>
      </trkpt>
      <trkpt lat="46.13877" lon="4.41453">
        <ele>730.4</ele>
        <time>2022-05-08T12:41:14Z</time>
      </trkpt>
      <trkpt lat="46.1387" lon="4.41447">
        <ele>730.2</ele>
        <time>2022-05-08T12:41:18Z</time>
      </trkpt>
      <trkpt lat="46.13863" lon="4.41441">
        <ele>731.4</ele>
        <time>2022-05-08T12:41:22Z</time>
      </trkpt>
      <trkpt lat="46.13856" lon="4.41435">
        <ele>732</ele>
        <time>2022-05-08T12:41:26Z</time>
      </trkpt>
      <trkpt lat="46.13849" lon="4.41429">
        <ele>732.6</ele>
        <time>2022-05-08T12:41:30Z</time>
      </trkpt>
      <trkpt lat="46.13843" lon="4.41424">
        <ele>732.8</ele>
        <time>2022-05-08T12:41:34Z</time>
      </trkpt>
      <trkpt lat="46.13836" lon="4.41418">
        <ele>733.4</ele>
        <time>2022-05-08T12:41:38Z</time>
      </trkpt>
      <trkpt lat="46.13831" lon="4.4141">
        <ele>734</ele>
        <time>2022-05-08T12:41:42Z</time>
      </trkpt>
      <trkpt lat="46.13828" lon="4.41402">
        <ele>734.6</ele>
        <time>2022-05-08T12:41:46Z</time>
      </trkpt>
      <trkpt lat="46.13825" lon="4.41393">
        <ele>735.4</ele>
        <time>2022-05-08T12:41:50Z</time>
      </trkpt>
      <trkpt lat="46.13822" lon="4.41384">
        <ele>735.8</ele>
        <time>2022-05-08T12:41:54Z</time>
      </trkpt>
      <trkpt lat="46.1382" lon="4.41375">
        <ele>736.6</ele>
        <time>2022-05-08T12:41:58Z</time>
      </trkpt>
      <trkpt lat="46.13818" lon="4.41367">
        <ele>737.4</ele>
        <time>2022-05-08T12:42:02Z</time>
      </trkpt>
      <trkpt lat="46.13819" lon="4.41356">
        <ele>737.6</ele>
        <time>2022-05-08T12:42:06Z</time>
      </trkpt>
      <trkpt lat="46.13821" lon="4.41346">
        <ele>737.8</ele>
        <time>2022-05-08T12:42:10Z</time>
      </trkpt>
      <trkpt lat="46.13821" lon="4.41333">
        <ele>738.4</ele>
        <time>2022-05-08T12:42:14Z</time>
      </trkpt>
      <trkpt lat="46.13823" lon="4.41321">
        <ele>739.8</ele>
        <time>2022-05-08T12:42:18Z</time>
      </trkpt>
      <trkpt lat="46.13827" lon="4.41312">
        <ele>739.8</ele>
        <time>2022-05-08T12:42:22Z</time>
      </trkpt>
      <trkpt lat="46.13828" lon="4.41301">
        <ele>740.6</ele>
        <time>2022-05-08T12:42:26Z</time>
      </trkpt>
      <trkpt lat="46.1383" lon="4.4129">
        <ele>741.2</ele>
        <time>2022-05-08T12:42:30Z</time>
      </trkpt>
      <trkpt lat="46.1383" lon="4.41279">
        <ele>741</ele>
        <time>2022-05-08T12:42:34Z</time>
      </trkpt>
      <trkpt lat="46.13832" lon="4.41268">
        <ele>741.8</ele>
        <time>2022-05-08T12:42:38Z</time>
      </trkpt>
      <trkpt lat="46.13834" lon="4.41258">
        <ele>742.4</ele>
        <time>2022-05-08T12:42:42Z</time>
      </trkpt>
      <trkpt lat="46.13834" lon="4.41247">
        <ele>742.4</ele>
        <time>2022-05-08T12:42:46Z</time>
      </trkpt>
      <trkpt lat="46.13836" lon="4.41236">
        <ele>743.2</ele>
        <time>2022-05-08T12:42:50Z</time>
      </trkpt>
      <trkpt lat="46.13836" lon="4.41224">
        <ele>744</ele>
        <time>2022-05-08T12:42:54Z</time>
      </trkpt>
      <trkpt lat="46.13836" lon="4.41214">
        <ele>744.6</ele>
        <time>2022-05-08T12:42:58Z</time>
      </trkpt>
      <trkpt lat="46.13835" lon="4.41202">
        <ele>744.6</ele>
        <time>2022-05-08T12:43:02Z</time>
      </trkpt>
      <trkpt lat="46.13834" lon="4.41191">
        <ele>745.2</ele>
        <time>2022-05-08T12:43:06Z</time>
      </trkpt>
      <trkpt lat="46.13833" lon="4.41179">
        <ele>745.4</ele>
        <time>2022-05-08T12:43:10Z</time>
      </trkpt>
      <trkpt lat="46.13831" lon="4.41168">
        <ele>745.8</ele>
        <time>2022-05-08T12:43:14Z</time>
      </trkpt>
      <trkpt lat="46.13829" lon="4.41157">
        <ele>746.2</ele>
        <time>2022-05-08T12:43:18Z</time>
      </trkpt>
      <trkpt lat="46.13827" lon="4.41146">
        <ele>747.2</ele>
        <time>2022-05-08T12:43:22Z</time>
      </trkpt>
      <trkpt lat="46.13824" lon="4.41136">
        <ele>747.2</ele>
        <time>2022-05-08T12:43:26Z</time>
      </trkpt>
      <trkpt lat="46.13822" lon="4.41126">
        <ele>748</ele>
        <time>2022-05-08T12:43:30Z</time>
      </trkpt>
      <trkpt lat="46.1382" lon="4.41116">
        <ele>748.2</ele>
        <time>2022-05-08T12:43:34Z</time>
      </trkpt>
      <trkpt lat="46.13817" lon="4.41106">
        <ele>748.8</ele>
        <time>2022-05-08T12:43:38Z</time>
      </trkpt>
      <trkpt lat="46.13814" lon="4.41096">
        <ele>749</ele>
        <time>2022-05-08T12:43:42Z</time>
      </trkpt>
      <trkpt lat="46.13811" lon="4.41087">
        <ele>750</ele>
        <time>2022-05-08T12:43:46Z</time>
      </trkpt>
      <trkpt lat="46.13808" lon="4.41077">
        <ele>751</ele>
        <time>2022-05-08T12:43:50Z</time>
      </trkpt>
      <trkpt lat="46.13804" lon="4.41067">
        <ele>751</ele>
        <time>2022-05-08T12:43:54Z</time>
      </trkpt>
      <trkpt lat="46.13801" lon="4.41056">
        <ele>751.8</ele>
        <time>2022-05-08T12:43:58Z</time>
      </trkpt>
      <trkpt lat="46.13797" lon="4.41046">
        <ele>752.8</ele>
        <time>2022-05-08T12:44:02Z</time>
      </trkpt>
      <trkpt lat="46.13794" lon="4.41037">
        <ele>752.8</ele>
        <time>2022-05-08T12:44:06Z</time>
      </trkpt>
      <trkpt lat="46.13791" lon="4.41026">
        <ele>753.4</ele>
        <time>2022-05-08T12:44:10Z</time>
      </trkpt>
      <trkpt lat="46.13788" lon="4.41016">
        <ele>753.8</ele>
        <time>2022-05-08T12:44:14Z</time>
      </trkpt>
      <trkpt lat="46.13785" lon="4.41006">
        <ele>754.6</ele>
        <time>2022-05-08T12:44:18Z</time>
      </trkpt>
      <trkpt lat="46.13782" lon="4.40996">
        <ele>755</ele>
        <time>2022-05-08T12:44:22Z</time>
      </trkpt>
      <trkpt lat="46.13778" lon="4.40985">
        <ele>755.4</ele>
        <time>2022-05-08T12:44:26Z</time>
      </trkpt>
      <trkpt lat="46.13775" lon="4.40975">
        <ele>755.8</ele>
        <time>2022-05-08T12:44:30Z</time>
      </trkpt>
      <trkpt lat="46.13772" lon="4.40965">
        <ele>756.2</ele>
        <time>2022-05-08T12:44:34Z</time>
      </trkpt>
      <trkpt lat="46.13769" lon="4.40955">
        <ele>756.6</ele>
        <time>2022-05-08T12:44:38Z</time>
      </trkpt>
      <trkpt lat="46.13765" lon="4.40946">
        <ele>757.2</ele>
        <time>2022-05-08T12:44:42Z</time>
      </trkpt>
      <trkpt lat="46.13761" lon="4.40936">
        <ele>757</ele>
        <time>2022-05-08T12:44:46Z</time>
      </trkpt>
      <trkpt lat="46.13757" lon="4.40928">
        <ele>758</ele>
        <time>2022-05-08T12:44:50Z</time>
      </trkpt>
      <trkpt lat="46.13752" lon="4.40919">
        <ele>758.8</ele>
        <time>2022-05-08T12:44:54Z</time>
      </trkpt>
      <trkpt lat="46.13746" lon="4.40911">
        <ele>759.4</ele>
        <time>2022-05-08T12:44:58Z</time>
      </trkpt>
      <trkpt lat="46.1374" lon="4.40903">
        <ele>760</ele>
        <time>2022-05-08T12:45:02Z</time>
      </trkpt>
      <trkpt lat="46.13734" lon="4.40897">
        <ele>760.2</ele>
        <time>2022-05-08T12:45:06Z</time>
      </trkpt>
      <trkpt lat="46.13728" lon="4.40891">
        <ele>761.6</ele>
        <time>2022-05-08T12:45:10Z</time>
      </trkpt>
      <trkpt lat="46.13721" lon="4.40886">
        <ele>762.2</ele>
        <time>2022-05-08T12:45:14Z</time>
      </trkpt>
      <trkpt lat="46.13713" lon="4.40882">
        <ele>762</ele>
        <time>2022-05-08T12:45:18Z</time>
      </trkpt>
      <trkpt lat="46.13707" lon="4.40878">
        <ele>762.2</ele>
        <time>2022-05-08T12:45:22Z</time>
      </trkpt>
      <trkpt lat="46.13701" lon="4.40874">
        <ele>762</ele>
        <time>2022-05-08T12:45:26Z</time>
      </trkpt>
      <trkpt lat="46.13701" lon="4.40874">
        <ele>762.2</ele>
        <time>2022-05-08T12:45:30Z</time>
      </trkpt>
      <trkpt lat="46.13693" lon="4.40872">
        <ele>761</ele>
        <time>2022-05-08T12:48:52Z</time>
      </trkpt>
      <trkpt lat="46.13683" lon="4.40868">
        <ele>760.4</ele>
        <time>2022-05-08T12:48:56Z</time>
      </trkpt>
      <trkpt lat="46.1367" lon="4.40864">
        <ele>758.8</ele>
        <time>2022-05-08T12:49:00Z</time>
      </trkpt>
      <trkpt lat="46.13647" lon="4.40859">
        <ele>756.2</ele>
        <time>2022-05-08T12:49:04Z</time>
      </trkpt>
      <trkpt lat="46.13619" lon="4.40874">
        <ele>753</ele>
        <time>2022-05-08T12:49:08Z</time>
      </trkpt>
      <trkpt lat="46.13597" lon="4.40907">
        <ele>750.4</ele>
        <time>2022-05-08T12:49:12Z</time>
      </trkpt>
      <trkpt lat="46.1357" lon="4.40943">
        <ele>748.4</ele>
        <time>2022-05-08T12:49:16Z</time>
      </trkpt>
      <trkpt lat="46.13537" lon="4.40959">
        <ele>745.2</ele>
        <time>2022-05-08T12:49:20Z</time>
      </trkpt>
      <trkpt lat="46.13514" lon="4.40971">
        <ele>745.4</ele>
        <time>2022-05-08T12:49:24Z</time>
      </trkpt>
      <trkpt lat="46.13499" lon="4.40975">
        <ele>744.8</ele>
        <time>2022-05-08T12:49:28Z</time>
      </trkpt>
      <trkpt lat="46.13487" lon="4.40975">
        <ele>744.6</ele>
        <time>2022-05-08T12:49:32Z</time>
      </trkpt>
      <trkpt lat="46.13471" lon="4.40972">
        <ele>742.6</ele>
        <time>2022-05-08T12:49:36Z</time>
      </trkpt>
      <trkpt lat="46.13451" lon="4.40965">
        <ele>741.2</ele>
        <time>2022-05-08T12:49:40Z</time>
      </trkpt>
      <trkpt lat="46.13427" lon="4.40954">
        <ele>737.4</ele>
        <time>2022-05-08T12:49:44Z</time>
      </trkpt>
      <trkpt lat="46.13403" lon="4.40941">
        <ele>735.6</ele>
        <time>2022-05-08T12:49:48Z</time>
      </trkpt>
      <trkpt lat="46.13383" lon="4.40923">
        <ele>736</ele>
        <time>2022-05-08T12:49:52Z</time>
      </trkpt>
      <trkpt lat="46.13371" lon="4.40912">
        <ele>738</ele>
        <time>2022-05-08T12:49:56Z</time>
      </trkpt>
      <trkpt lat="46.13373" lon="4.40919">
        <ele>737.4</ele>
        <time>2022-05-08T12:51:36Z</time>
      </trkpt>
      <trkpt lat="46.13387" lon="4.40903">
        <ele>734.8</ele>
        <time>2022-05-08T12:51:40Z</time>
      </trkpt>
      <trkpt lat="46.13415" lon="4.40899">
        <ele>732.2</ele>
        <time>2022-05-08T12:51:44Z</time>
      </trkpt>
      <trkpt lat="46.13445" lon="4.40889">
        <ele>728</ele>
        <time>2022-05-08T12:51:48Z</time>
      </trkpt>
      <trkpt lat="46.13442" lon="4.40839">
        <ele>722.2</ele>
        <time>2022-05-08T12:51:52Z</time>
      </trkpt>
      <trkpt lat="46.13413" lon="4.40802">
        <ele>720.2</ele>
        <time>2022-05-08T12:51:56Z</time>
      </trkpt>
      <trkpt lat="46.13385" lon="4.40764">
        <ele>718</ele>
        <time>2022-05-08T12:52:00Z</time>
      </trkpt>
      <trkpt lat="46.1336" lon="4.40715">
        <ele>714.4</ele>
        <time>2022-05-08T12:52:04Z</time>
      </trkpt>
      <trkpt lat="46.13336" lon="4.40665">
        <ele>711.2</ele>
        <time>2022-05-08T12:52:08Z</time>
      </trkpt>
      <trkpt lat="46.13319" lon="4.40609">
        <ele>708.8</ele>
        <time>2022-05-08T12:52:12Z</time>
      </trkpt>
      <trkpt lat="46.13301" lon="4.4055">
        <ele>703.8</ele>
        <time>2022-05-08T12:52:16Z</time>
      </trkpt>
      <trkpt lat="46.13279" lon="4.40491">
        <ele>701.6</ele>
        <time>2022-05-08T12:52:20Z</time>
      </trkpt>
      <trkpt lat="46.13259" lon="4.40433">
        <ele>696</ele>
        <time>2022-05-08T12:52:24Z</time>
      </trkpt>
      <trkpt lat="46.13231" lon="4.40384">
        <ele>696.4</ele>
        <time>2022-05-08T12:52:28Z</time>
      </trkpt>
      <trkpt lat="46.13197" lon="4.40338">
        <ele>691.6</ele>
        <time>2022-05-08T12:52:32Z</time>
      </trkpt>
      <trkpt lat="46.13159" lon="4.40301">
        <ele>688.2</ele>
        <time>2022-05-08T12:52:36Z</time>
      </trkpt>
      <trkpt lat="46.13119" lon="4.40269">
        <ele>687.4</ele>
        <time>2022-05-08T12:52:40Z</time>
      </trkpt>
      <trkpt lat="46.13091" lon="4.40215">
        <ele>684.4</ele>
        <time>2022-05-08T12:52:44Z</time>
      </trkpt>
      <trkpt lat="46.13066" lon="4.40154">
        <ele>683.4</ele>
        <time>2022-05-08T12:52:48Z</time>
      </trkpt>
      <trkpt lat="46.13045" lon="4.40091">
        <ele>673.2</ele>
        <time>2022-05-08T12:52:52Z</time>
      </trkpt>
      <trkpt lat="46.13039" lon="4.40023">
        <ele>671.2</ele>
        <time>2022-05-08T12:52:56Z</time>
      </trkpt>
      <trkpt lat="46.13041" lon="4.39959">
        <ele>667</ele>
        <time>2022-05-08T12:53:00Z</time>
      </trkpt>
      <trkpt lat="46.13042" lon="4.39899">
        <ele>668</ele>
        <time>2022-05-08T12:53:04Z</time>
      </trkpt>
      <trkpt lat="46.13029" lon="4.39854">
        <ele>668.8</ele>
        <time>2022-05-08T12:53:08Z</time>
      </trkpt>
      <trkpt lat="46.13008" lon="4.39834">
        <ele>667.4</ele>
        <time>2022-05-08T12:53:12Z</time>
      </trkpt>
      <trkpt lat="46.12986" lon="4.3983">
        <ele>665.4</ele>
        <time>2022-05-08T12:53:16Z</time>
      </trkpt>
      <trkpt lat="46.12959" lon="4.39831">
        <ele>664</ele>
        <time>2022-05-08T12:53:20Z</time>
      </trkpt>
      <trkpt lat="46.12938" lon="4.39805">
        <ele>663.8</ele>
        <time>2022-05-08T12:53:24Z</time>
      </trkpt>
      <trkpt lat="46.12929" lon="4.3977">
        <ele>662.4</ele>
        <time>2022-05-08T12:53:28Z</time>
      </trkpt>
      <trkpt lat="46.12917" lon="4.3975">
        <ele>660.2</ele>
        <time>2022-05-08T12:53:32Z</time>
      </trkpt>
      <trkpt lat="46.12896" lon="4.39737">
        <ele>658.2</ele>
        <time>2022-05-08T12:53:36Z</time>
      </trkpt>
      <trkpt lat="46.12883" lon="4.3973">
        <ele>659.2</ele>
        <time>2022-05-08T12:53:40Z</time>
      </trkpt>
      <trkpt lat="46.1287" lon="4.39744">
        <ele>657.8</ele>
        <time>2022-05-08T12:53:44Z</time>
      </trkpt>
      <trkpt lat="46.12874" lon="4.39772">
        <ele>652.4</ele>
        <time>2022-05-08T12:53:48Z</time>
      </trkpt>
      <trkpt lat="46.12886" lon="4.39791">
        <ele>654.6</ele>
        <time>2022-05-08T12:53:52Z</time>
      </trkpt>
      <trkpt lat="46.12899" lon="4.39811">
        <ele>653.2</ele>
        <time>2022-05-08T12:53:56Z</time>
      </trkpt>
      <trkpt lat="46.12911" lon="4.3984">
        <ele>653</ele>
        <time>2022-05-08T12:54:00Z</time>
      </trkpt>
      <trkpt lat="46.12915" lon="4.39873">
        <ele>654</ele>
        <time>2022-05-08T12:54:04Z</time>
      </trkpt>
      <trkpt lat="46.12903" lon="4.39902">
        <ele>654</ele>
        <time>2022-05-08T12:54:08Z</time>
      </trkpt>
      <trkpt lat="46.1289" lon="4.39933">
        <ele>652.4</ele>
        <time>2022-05-08T12:54:12Z</time>
      </trkpt>
      <trkpt lat="46.12876" lon="4.39967">
        <ele>649</ele>
        <time>2022-05-08T12:54:16Z</time>
      </trkpt>
      <trkpt lat="46.12876" lon="4.39967">
        <ele>648.4</ele>
        <time>2022-05-08T12:54:20Z</time>
      </trkpt>
      <trkpt lat="46.12856" lon="4.40007">
        <ele>647.8</ele>
        <time>2022-05-08T12:54:24Z</time>
      </trkpt>
      <trkpt lat="46.12839" lon="4.40036">
        <ele>645.8</ele>
        <time>2022-05-08T12:54:28Z</time>
      </trkpt>
      <trkpt lat="46.12818" lon="4.40061">
        <ele>643.6</ele>
        <time>2022-05-08T12:54:32Z</time>
      </trkpt>
      <trkpt lat="46.12793" lon="4.40085">
        <ele>643.4</ele>
        <time>2022-05-08T12:54:36Z</time>
      </trkpt>
      <trkpt lat="46.12765" lon="4.401">
        <ele>645</ele>
        <time>2022-05-08T12:54:40Z</time>
      </trkpt>
      <trkpt lat="46.12742" lon="4.40097">
        <ele>647</ele>
        <time>2022-05-08T12:54:44Z</time>
      </trkpt>
      <trkpt lat="46.12727" lon="4.40092">
        <ele>647.8</ele>
        <time>2022-05-08T12:54:48Z</time>
      </trkpt>
      <trkpt lat="46.12716" lon="4.40089">
        <ele>649</ele>
        <time>2022-05-08T12:54:52Z</time>
      </trkpt>
      <trkpt lat="46.12707" lon="4.40087">
        <ele>649.2</ele>
        <time>2022-05-08T12:54:56Z</time>
      </trkpt>
      <trkpt lat="46.12699" lon="4.40086">
        <ele>650.2</ele>
        <time>2022-05-08T12:55:00Z</time>
      </trkpt>
      <trkpt lat="46.12691" lon="4.40085">
        <ele>650.4</ele>
        <time>2022-05-08T12:55:04Z</time>
      </trkpt>
      <trkpt lat="46.12682" lon="4.40084">
        <ele>650.4</ele>
        <time>2022-05-08T12:55:08Z</time>
      </trkpt>
      <trkpt lat="46.12674" lon="4.40084">
        <ele>652.2</ele>
        <time>2022-05-08T12:55:12Z</time>
      </trkpt>
      <trkpt lat="46.12665" lon="4.40085">
        <ele>652.4</ele>
        <time>2022-05-08T12:55:16Z</time>
      </trkpt>
      <trkpt lat="46.12657" lon="4.40086">
        <ele>652.6</ele>
        <time>2022-05-08T12:55:20Z</time>
      </trkpt>
      <trkpt lat="46.12648" lon="4.40088">
        <ele>653.2</ele>
        <time>2022-05-08T12:55:24Z</time>
      </trkpt>
      <trkpt lat="46.12641" lon="4.40089">
        <ele>653.6</ele>
        <time>2022-05-08T12:55:28Z</time>
      </trkpt>
      <trkpt lat="46.12633" lon="4.4009">
        <ele>654.2</ele>
        <time>2022-05-08T12:55:32Z</time>
      </trkpt>
      <trkpt lat="46.12624" lon="4.40089">
        <ele>654.6</ele>
        <time>2022-05-08T12:55:36Z</time>
      </trkpt>
      <trkpt lat="46.12616" lon="4.40084">
        <ele>655.6</ele>
        <time>2022-05-08T12:55:40Z</time>
      </trkpt>
      <trkpt lat="46.12609" lon="4.40077">
        <ele>656.2</ele>
        <time>2022-05-08T12:55:44Z</time>
      </trkpt>
      <trkpt lat="46.12604" lon="4.40067">
        <ele>656.4</ele>
        <time>2022-05-08T12:55:48Z</time>
      </trkpt>
      <trkpt lat="46.126" lon="4.40059">
        <ele>656.8</ele>
        <time>2022-05-08T12:55:52Z</time>
      </trkpt>
      <trkpt lat="46.12595" lon="4.4005">
        <ele>656.8</ele>
        <time>2022-05-08T12:55:56Z</time>
      </trkpt>
      <trkpt lat="46.12588" lon="4.40042">
        <ele>658</ele>
        <time>2022-05-08T12:56:00Z</time>
      </trkpt>
      <trkpt lat="46.12581" lon="4.40037">
        <ele>658</ele>
        <time>2022-05-08T12:56:04Z</time>
      </trkpt>
      <trkpt lat="46.12573" lon="4.40033">
        <ele>659.4</ele>
        <time>2022-05-08T12:56:08Z</time>
      </trkpt>
      <trkpt lat="46.12564" lon="4.4003">
        <ele>660.6</ele>
        <time>2022-05-08T12:56:12Z</time>
      </trkpt>
      <trkpt lat="46.12556" lon="4.40028">
        <ele>660.8</ele>
        <time>2022-05-08T12:56:16Z</time>
      </trkpt>
      <trkpt lat="46.12548" lon="4.40028">
        <ele>661.8</ele>
        <time>2022-05-08T12:56:20Z</time>
      </trkpt>
      <trkpt lat="46.1254" lon="4.40027">
        <ele>662.2</ele>
        <time>2022-05-08T12:56:24Z</time>
      </trkpt>
      <trkpt lat="46.12532" lon="4.40025">
        <ele>662.6</ele>
        <time>2022-05-08T12:56:28Z</time>
      </trkpt>
      <trkpt lat="46.12523" lon="4.40024">
        <ele>663</ele>
        <time>2022-05-08T12:56:32Z</time>
      </trkpt>
      <trkpt lat="46.12515" lon="4.40022">
        <ele>664.4</ele>
        <time>2022-05-08T12:56:36Z</time>
      </trkpt>
      <trkpt lat="46.12507" lon="4.40021">
        <ele>664.2</ele>
        <time>2022-05-08T12:56:40Z</time>
      </trkpt>
      <trkpt lat="46.125" lon="4.40018">
        <ele>664.8</ele>
        <time>2022-05-08T12:56:44Z</time>
      </trkpt>
      <trkpt lat="46.12492" lon="4.40013">
        <ele>665.6</ele>
        <time>2022-05-08T12:56:48Z</time>
      </trkpt>
      <trkpt lat="46.12485" lon="4.40007">
        <ele>666.6</ele>
        <time>2022-05-08T12:56:52Z</time>
      </trkpt>
      <trkpt lat="46.12479" lon="4.4">
        <ele>667</ele>
        <time>2022-05-08T12:56:56Z</time>
      </trkpt>
      <trkpt lat="46.12472" lon="4.39993">
        <ele>668</ele>
        <time>2022-05-08T12:57:00Z</time>
      </trkpt>
      <trkpt lat="46.12466" lon="4.39987">
        <ele>668.4</ele>
        <time>2022-05-08T12:57:04Z</time>
      </trkpt>
      <trkpt lat="46.12459" lon="4.39981">
        <ele>668.8</ele>
        <time>2022-05-08T12:57:08Z</time>
      </trkpt>
      <trkpt lat="46.12451" lon="4.39976">
        <ele>669.4</ele>
        <time>2022-05-08T12:57:12Z</time>
      </trkpt>
      <trkpt lat="46.12443" lon="4.39972">
        <ele>669.6</ele>
        <time>2022-05-08T12:57:16Z</time>
      </trkpt>
      <trkpt lat="46.12434" lon="4.3997">
        <ele>671</ele>
        <time>2022-05-08T12:57:20Z</time>
      </trkpt>
      <trkpt lat="46.12426" lon="4.3997">
        <ele>671</ele>
        <time>2022-05-08T12:57:24Z</time>
      </trkpt>
      <trkpt lat="46.12417" lon="4.39972">
        <ele>672</ele>
        <time>2022-05-08T12:57:28Z</time>
      </trkpt>
      <trkpt lat="46.1241" lon="4.39976">
        <ele>671.6</ele>
        <time>2022-05-08T12:57:32Z</time>
      </trkpt>
      <trkpt lat="46.12403" lon="4.39983">
        <ele>672.2</ele>
        <time>2022-05-08T12:57:36Z</time>
      </trkpt>
      <trkpt lat="46.12397" lon="4.39993">
        <ele>672.8</ele>
        <time>2022-05-08T12:57:40Z</time>
      </trkpt>
      <trkpt lat="46.12391" lon="4.40004">
        <ele>672.8</ele>
        <time>2022-05-08T12:57:44Z</time>
      </trkpt>
      <trkpt lat="46.12386" lon="4.40015">
        <ele>673.4</ele>
        <time>2022-05-08T12:57:48Z</time>
      </trkpt>
      <trkpt lat="46.12382" lon="4.40027">
        <ele>674</ele>
        <time>2022-05-08T12:57:52Z</time>
      </trkpt>
      <trkpt lat="46.12378" lon="4.40039">
        <ele>674</ele>
        <time>2022-05-08T12:57:56Z</time>
      </trkpt>
      <trkpt lat="46.12374" lon="4.40051">
        <ele>674.6</ele>
        <time>2022-05-08T12:58:00Z</time>
      </trkpt>
      <trkpt lat="46.1237" lon="4.40063">
        <ele>674.8</ele>
        <time>2022-05-08T12:58:04Z</time>
      </trkpt>
      <trkpt lat="46.12365" lon="4.40076">
        <ele>675.6</ele>
        <time>2022-05-08T12:58:08Z</time>
      </trkpt>
      <trkpt lat="46.12361" lon="4.40088">
        <ele>675.8</ele>
        <time>2022-05-08T12:58:12Z</time>
      </trkpt>
      <trkpt lat="46.12357" lon="4.401">
        <ele>675.6</ele>
        <time>2022-05-08T12:58:16Z</time>
      </trkpt>
      <trkpt lat="46.12354" lon="4.40112">
        <ele>676</ele>
        <time>2022-05-08T12:58:20Z</time>
      </trkpt>
      <trkpt lat="46.1235" lon="4.40124">
        <ele>676.2</ele>
        <time>2022-05-08T12:58:24Z</time>
      </trkpt>
      <trkpt lat="46.12346" lon="4.40136">
        <ele>677.2</ele>
        <time>2022-05-08T12:58:28Z</time>
      </trkpt>
      <trkpt lat="46.12342" lon="4.40149">
        <ele>678.6</ele>
        <time>2022-05-08T12:58:32Z</time>
      </trkpt>
      <trkpt lat="46.12338" lon="4.40162">
        <ele>677.8</ele>
        <time>2022-05-08T12:58:36Z</time>
      </trkpt>
      <trkpt lat="46.12334" lon="4.40174">
        <ele>678.8</ele>
        <time>2022-05-08T12:58:40Z</time>
      </trkpt>
      <trkpt lat="46.1233" lon="4.40187">
        <ele>679.4</ele>
        <time>2022-05-08T12:58:44Z</time>
      </trkpt>
      <trkpt lat="46.12326" lon="4.40199">
        <ele>679.6</ele>
        <time>2022-05-08T12:58:48Z</time>
      </trkpt>
      <trkpt lat="46.12322" lon="4.40212">
        <ele>680</ele>
        <time>2022-05-08T12:58:52Z</time>
      </trkpt>
      <trkpt lat="46.12318" lon="4.40226">
        <ele>680.8</ele>
        <time>2022-05-08T12:58:56Z</time>
      </trkpt>
      <trkpt lat="46.12315" lon="4.4024">
        <ele>681.2</ele>
        <time>2022-05-08T12:59:00Z</time>
      </trkpt>
      <trkpt lat="46.12311" lon="4.40254">
        <ele>681</ele>
        <time>2022-05-08T12:59:04Z</time>
      </trkpt>
      <trkpt lat="46.12308" lon="4.40268">
        <ele>681.2</ele>
        <time>2022-05-08T12:59:08Z</time>
      </trkpt>
      <trkpt lat="46.12305" lon="4.40282">
        <ele>682</ele>
        <time>2022-05-08T12:59:12Z</time>
      </trkpt>
      <trkpt lat="46.12301" lon="4.40296">
        <ele>681.6</ele>
        <time>2022-05-08T12:59:16Z</time>
      </trkpt>
      <trkpt lat="46.12298" lon="4.40311">
        <ele>682.4</ele>
        <time>2022-05-08T12:59:20Z</time>
      </trkpt>
      <trkpt lat="46.12294" lon="4.40325">
        <ele>681.6</ele>
        <time>2022-05-08T12:59:24Z</time>
      </trkpt>
      <trkpt lat="46.12291" lon="4.40339">
        <ele>681.8</ele>
        <time>2022-05-08T12:59:28Z</time>
      </trkpt>
      <trkpt lat="46.12288" lon="4.40353">
        <ele>684</ele>
        <time>2022-05-08T12:59:32Z</time>
      </trkpt>
      <trkpt lat="46.12284" lon="4.40368">
        <ele>684</ele>
        <time>2022-05-08T12:59:36Z</time>
      </trkpt>
      <trkpt lat="46.1228" lon="4.40383">
        <ele>684.4</ele>
        <time>2022-05-08T12:59:40Z</time>
      </trkpt>
      <trkpt lat="46.12275" lon="4.40395">
        <ele>685.8</ele>
        <time>2022-05-08T12:59:44Z</time>
      </trkpt>
      <trkpt lat="46.12272" lon="4.4041">
        <ele>685.6</ele>
        <time>2022-05-08T12:59:48Z</time>
      </trkpt>
      <trkpt lat="46.12268" lon="4.40424">
        <ele>686</ele>
        <time>2022-05-08T12:59:52Z</time>
      </trkpt>
      <trkpt lat="46.12265" lon="4.40438">
        <ele>687.2</ele>
        <time>2022-05-08T12:59:56Z</time>
      </trkpt>
      <trkpt lat="46.12261" lon="4.40452">
        <ele>687.2</ele>
        <time>2022-05-08T13:00:00Z</time>
      </trkpt>
      <trkpt lat="46.12257" lon="4.40466">
        <ele>687.6</ele>
        <time>2022-05-08T13:00:04Z</time>
      </trkpt>
      <trkpt lat="46.12253" lon="4.40479">
        <ele>688.4</ele>
        <time>2022-05-08T13:00:08Z</time>
      </trkpt>
      <trkpt lat="46.12249" lon="4.40491">
        <ele>689</ele>
        <time>2022-05-08T13:00:12Z</time>
      </trkpt>
      <trkpt lat="46.12246" lon="4.40503">
        <ele>688.8</ele>
        <time>2022-05-08T13:00:16Z</time>
      </trkpt>
      <trkpt lat="46.12242" lon="4.40515">
        <ele>689</ele>
        <time>2022-05-08T13:00:20Z</time>
      </trkpt>
      <trkpt lat="46.12239" lon="4.40528">
        <ele>688.8</ele>
        <time>2022-05-08T13:00:24Z</time>
      </trkpt>
      <trkpt lat="46.12237" lon="4.40541">
        <ele>689.8</ele>
        <time>2022-05-08T13:00:28Z</time>
      </trkpt>
      <trkpt lat="46.12238" lon="4.40556">
        <ele>690</ele>
        <time>2022-05-08T13:00:32Z</time>
      </trkpt>
      <trkpt lat="46.1224" lon="4.40571">
        <ele>689.6</ele>
        <time>2022-05-08T13:00:36Z</time>
      </trkpt>
      <trkpt lat="46.12243" lon="4.40586">
        <ele>690.6</ele>
        <time>2022-05-08T13:00:40Z</time>
      </trkpt>
      <trkpt lat="46.12247" lon="4.406">
        <ele>692.4</ele>
        <time>2022-05-08T13:00:44Z</time>
      </trkpt>
      <trkpt lat="46.12251" lon="4.40613">
        <ele>692.8</ele>
        <time>2022-05-08T13:00:48Z</time>
      </trkpt>
      <trkpt lat="46.12254" lon="4.40626">
        <ele>693</ele>
        <time>2022-05-08T13:00:52Z</time>
      </trkpt>
      <trkpt lat="46.12258" lon="4.40638">
        <ele>693.8</ele>
        <time>2022-05-08T13:00:56Z</time>
      </trkpt>
      <trkpt lat="46.12262" lon="4.40651">
        <ele>692.8</ele>
        <time>2022-05-08T13:01:00Z</time>
      </trkpt>
      <trkpt lat="46.12266" lon="4.40664">
        <ele>692.8</ele>
        <time>2022-05-08T13:01:04Z</time>
      </trkpt>
      <trkpt lat="46.1227" lon="4.40676">
        <ele>694</ele>
        <time>2022-05-08T13:01:08Z</time>
      </trkpt>
      <trkpt lat="46.12272" lon="4.40689">
        <ele>694.8</ele>
        <time>2022-05-08T13:01:12Z</time>
      </trkpt>
      <trkpt lat="46.12274" lon="4.40703">
        <ele>695.6</ele>
        <time>2022-05-08T13:01:16Z</time>
      </trkpt>
      <trkpt lat="46.12273" lon="4.40715">
        <ele>695.6</ele>
        <time>2022-05-08T13:01:20Z</time>
      </trkpt>
      <trkpt lat="46.12274" lon="4.40727">
        <ele>695.8</ele>
        <time>2022-05-08T13:01:24Z</time>
      </trkpt>
      <trkpt lat="46.12275" lon="4.40739">
        <ele>696.2</ele>
        <time>2022-05-08T13:01:28Z</time>
      </trkpt>
      <trkpt lat="46.12275" lon="4.4075">
        <ele>696.8</ele>
        <time>2022-05-08T13:01:32Z</time>
      </trkpt>
      <trkpt lat="46.12275" lon="4.40761">
        <ele>697.8</ele>
        <time>2022-05-08T13:01:36Z</time>
      </trkpt>
      <trkpt lat="46.12277" lon="4.40775">
        <ele>698.6</ele>
        <time>2022-05-08T13:01:40Z</time>
      </trkpt>
      <trkpt lat="46.1228" lon="4.4079">
        <ele>698.8</ele>
        <time>2022-05-08T13:01:44Z</time>
      </trkpt>
      <trkpt lat="46.12284" lon="4.40802">
        <ele>699.6</ele>
        <time>2022-05-08T13:01:48Z</time>
      </trkpt>
      <trkpt lat="46.12286" lon="4.40812">
        <ele>699.8</ele>
        <time>2022-05-08T13:01:52Z</time>
      </trkpt>
      <trkpt lat="46.12289" lon="4.40826">
        <ele>700.2</ele>
        <time>2022-05-08T13:01:56Z</time>
      </trkpt>
      <trkpt lat="46.12295" lon="4.4084">
        <ele>700.6</ele>
        <time>2022-05-08T13:02:00Z</time>
      </trkpt>
      <trkpt lat="46.123" lon="4.40853">
        <ele>701</ele>
        <time>2022-05-08T13:02:04Z</time>
      </trkpt>
      <trkpt lat="46.12303" lon="4.40866">
        <ele>701.4</ele>
        <time>2022-05-08T13:02:08Z</time>
      </trkpt>
      <trkpt lat="46.12306" lon="4.40879">
        <ele>701.8</ele>
        <time>2022-05-08T13:02:12Z</time>
      </trkpt>
      <trkpt lat="46.1231" lon="4.40892">
        <ele>702.4</ele>
        <time>2022-05-08T13:02:16Z</time>
      </trkpt>
      <trkpt lat="46.12312" lon="4.40904">
        <ele>702.4</ele>
        <time>2022-05-08T13:02:20Z</time>
      </trkpt>
      <trkpt lat="46.12314" lon="4.40917">
        <ele>702.2</ele>
        <time>2022-05-08T13:02:24Z</time>
      </trkpt>
      <trkpt lat="46.12317" lon="4.40931">
        <ele>702.2</ele>
        <time>2022-05-08T13:02:28Z</time>
      </trkpt>
      <trkpt lat="46.1232" lon="4.40944">
        <ele>702</ele>
        <time>2022-05-08T13:02:32Z</time>
      </trkpt>
      <trkpt lat="46.12323" lon="4.40956">
        <ele>704</ele>
        <time>2022-05-08T13:02:36Z</time>
      </trkpt>
      <trkpt lat="46.12327" lon="4.40968">
        <ele>702.6</ele>
        <time>2022-05-08T13:02:40Z</time>
      </trkpt>
      <trkpt lat="46.1233" lon="4.4098">
        <ele>702.6</ele>
        <time>2022-05-08T13:02:44Z</time>
      </trkpt>
      <trkpt lat="46.12334" lon="4.40991">
        <ele>704.4</ele>
        <time>2022-05-08T13:02:48Z</time>
      </trkpt>
      <trkpt lat="46.12338" lon="4.41002">
        <ele>705.4</ele>
        <time>2022-05-08T13:02:52Z</time>
      </trkpt>
      <trkpt lat="46.12343" lon="4.41014">
        <ele>705.8</ele>
        <time>2022-05-08T13:02:56Z</time>
      </trkpt>
      <trkpt lat="46.12348" lon="4.41026">
        <ele>705.2</ele>
        <time>2022-05-08T13:03:00Z</time>
      </trkpt>
      <trkpt lat="46.12353" lon="4.41038">
        <ele>707.6</ele>
        <time>2022-05-08T13:03:04Z</time>
      </trkpt>
      <trkpt lat="46.12357" lon="4.41051">
        <ele>707</ele>
        <time>2022-05-08T13:03:08Z</time>
      </trkpt>
      <trkpt lat="46.12361" lon="4.41063">
        <ele>706.6</ele>
        <time>2022-05-08T13:03:12Z</time>
      </trkpt>
      <trkpt lat="46.12365" lon="4.41076">
        <ele>707.2</ele>
        <time>2022-05-08T13:03:16Z</time>
      </trkpt>
      <trkpt lat="46.12369" lon="4.41089">
        <ele>707.2</ele>
        <time>2022-05-08T13:03:20Z</time>
      </trkpt>
      <trkpt lat="46.12373" lon="4.41101">
        <ele>708.4</ele>
        <time>2022-05-08T13:03:24Z</time>
      </trkpt>
      <trkpt lat="46.12377" lon="4.41114">
        <ele>708.2</ele>
        <time>2022-05-08T13:03:28Z</time>
      </trkpt>
      <trkpt lat="46.1238" lon="4.41126">
        <ele>708.8</ele>
        <time>2022-05-08T13:03:32Z</time>
      </trkpt>
      <trkpt lat="46.12384" lon="4.41138">
        <ele>710.2</ele>
        <time>2022-05-08T13:03:36Z</time>
      </trkpt>
      <trkpt lat="46.12387" lon="4.4115">
        <ele>710.4</ele>
        <time>2022-05-08T13:03:40Z</time>
      </trkpt>
      <trkpt lat="46.12391" lon="4.41162">
        <ele>710.4</ele>
        <time>2022-05-08T13:03:44Z</time>
      </trkpt>
      <trkpt lat="46.12394" lon="4.41174">
        <ele>711.4</ele>
        <time>2022-05-08T13:03:48Z</time>
      </trkpt>
      <trkpt lat="46.12397" lon="4.41186">
        <ele>712</ele>
        <time>2022-05-08T13:03:52Z</time>
      </trkpt>
      <trkpt lat="46.12401" lon="4.41198">
        <ele>711.2</ele>
        <time>2022-05-08T13:03:56Z</time>
      </trkpt>
      <trkpt lat="46.12404" lon="4.41211">
        <ele>713</ele>
        <time>2022-05-08T13:04:00Z</time>
      </trkpt>
      <trkpt lat="46.12408" lon="4.41223">
        <ele>713</ele>
        <time>2022-05-08T13:04:04Z</time>
      </trkpt>
      <trkpt lat="46.12412" lon="4.41235">
        <ele>713.4</ele>
        <time>2022-05-08T13:04:08Z</time>
      </trkpt>
      <trkpt lat="46.12416" lon="4.41248">
        <ele>713.4</ele>
        <time>2022-05-08T13:04:12Z</time>
      </trkpt>
      <trkpt lat="46.12419" lon="4.41261">
        <ele>713.6</ele>
        <time>2022-05-08T13:04:16Z</time>
      </trkpt>
      <trkpt lat="46.12422" lon="4.41274">
        <ele>713.6</ele>
        <time>2022-05-08T13:04:20Z</time>
      </trkpt>
      <trkpt lat="46.12425" lon="4.41288">
        <ele>713.8</ele>
        <time>2022-05-08T13:04:24Z</time>
      </trkpt>
      <trkpt lat="46.12427" lon="4.41302">
        <ele>712.2</ele>
        <time>2022-05-08T13:04:28Z</time>
      </trkpt>
      <trkpt lat="46.12429" lon="4.41316">
        <ele>714.4</ele>
        <time>2022-05-08T13:04:32Z</time>
      </trkpt>
      <trkpt lat="46.12431" lon="4.4133">
        <ele>714.4</ele>
        <time>2022-05-08T13:04:36Z</time>
      </trkpt>
      <trkpt lat="46.12433" lon="4.41344">
        <ele>715.4</ele>
        <time>2022-05-08T13:04:40Z</time>
      </trkpt>
      <trkpt lat="46.12435" lon="4.41358">
        <ele>716.4</ele>
        <time>2022-05-08T13:04:44Z</time>
      </trkpt>
      <trkpt lat="46.12438" lon="4.41372">
        <ele>716</ele>
        <time>2022-05-08T13:04:48Z</time>
      </trkpt>
      <trkpt lat="46.12441" lon="4.41386">
        <ele>715.8</ele>
        <time>2022-05-08T13:04:52Z</time>
      </trkpt>
      <trkpt lat="46.12445" lon="4.414">
        <ele>717</ele>
        <time>2022-05-08T13:04:56Z</time>
      </trkpt>
      <trkpt lat="46.12449" lon="4.41416">
        <ele>716.4</ele>
        <time>2022-05-08T13:05:00Z</time>
      </trkpt>
      <trkpt lat="46.12457" lon="4.41432">
        <ele>716</ele>
        <time>2022-05-08T13:05:04Z</time>
      </trkpt>
      <trkpt lat="46.12467" lon="4.41446">
        <ele>716.4</ele>
        <time>2022-05-08T13:05:08Z</time>
      </trkpt>
      <trkpt lat="46.12479" lon="4.41459">
        <ele>716.2</ele>
        <time>2022-05-08T13:05:12Z</time>
      </trkpt>
      <trkpt lat="46.12492" lon="4.4147">
        <ele>715.8</ele>
        <time>2022-05-08T13:05:16Z</time>
      </trkpt>
      <trkpt lat="46.12505" lon="4.4148">
        <ele>716.8</ele>
        <time>2022-05-08T13:05:20Z</time>
      </trkpt>
      <trkpt lat="46.12517" lon="4.41489">
        <ele>716.8</ele>
        <time>2022-05-08T13:05:24Z</time>
      </trkpt>
      <trkpt lat="46.1253" lon="4.41497">
        <ele>715.2</ele>
        <time>2022-05-08T13:05:28Z</time>
      </trkpt>
      <trkpt lat="46.12542" lon="4.41505">
        <ele>716.4</ele>
        <time>2022-05-08T13:05:32Z</time>
      </trkpt>
      <trkpt lat="46.12554" lon="4.41511">
        <ele>715.6</ele>
        <time>2022-05-08T13:05:36Z</time>
      </trkpt>
      <trkpt lat="46.12566" lon="4.41518">
        <ele>715.4</ele>
        <time>2022-05-08T13:05:40Z</time>
      </trkpt>
      <trkpt lat="46.12578" lon="4.41525">
        <ele>717.4</ele>
        <time>2022-05-08T13:05:44Z</time>
      </trkpt>
      <trkpt lat="46.1259" lon="4.41532">
        <ele>716</ele>
        <time>2022-05-08T13:05:48Z</time>
      </trkpt>
      <trkpt lat="46.12602" lon="4.4154">
        <ele>715.8</ele>
        <time>2022-05-08T13:05:52Z</time>
      </trkpt>
      <trkpt lat="46.12614" lon="4.41549">
        <ele>714.8</ele>
        <time>2022-05-08T13:05:56Z</time>
      </trkpt>
      <trkpt lat="46.12625" lon="4.4156">
        <ele>716.4</ele>
        <time>2022-05-08T13:06:00Z</time>
      </trkpt>
      <trkpt lat="46.12634" lon="4.41573">
        <ele>717.2</ele>
        <time>2022-05-08T13:06:04Z</time>
      </trkpt>
      <trkpt lat="46.12641" lon="4.4159">
        <ele>716</ele>
        <time>2022-05-08T13:06:08Z</time>
      </trkpt>
      <trkpt lat="46.12646" lon="4.41609">
        <ele>716</ele>
        <time>2022-05-08T13:06:12Z</time>
      </trkpt>
      <trkpt lat="46.12646" lon="4.41629">
        <ele>716</ele>
        <time>2022-05-08T13:06:16Z</time>
      </trkpt>
      <trkpt lat="46.12641" lon="4.41647">
        <ele>716.2</ele>
        <time>2022-05-08T13:06:20Z</time>
      </trkpt>
      <trkpt lat="46.12633" lon="4.41661">
        <ele>716.4</ele>
        <time>2022-05-08T13:06:24Z</time>
      </trkpt>
      <trkpt lat="46.12626" lon="4.41672">
        <ele>717.2</ele>
        <time>2022-05-08T13:06:28Z</time>
      </trkpt>
      <trkpt lat="46.12618" lon="4.41683">
        <ele>717.6</ele>
        <time>2022-05-08T13:06:32Z</time>
      </trkpt>
      <trkpt lat="46.12611" lon="4.41694">
        <ele>719.4</ele>
        <time>2022-05-08T13:06:36Z</time>
      </trkpt>
      <trkpt lat="46.12603" lon="4.41704">
        <ele>720.2</ele>
        <time>2022-05-08T13:06:40Z</time>
      </trkpt>
      <trkpt lat="46.12595" lon="4.41714">
        <ele>720.2</ele>
        <time>2022-05-08T13:06:44Z</time>
      </trkpt>
      <trkpt lat="46.12586" lon="4.41725">
        <ele>721</ele>
        <time>2022-05-08T13:06:48Z</time>
      </trkpt>
      <trkpt lat="46.12577" lon="4.41737">
        <ele>720.6</ele>
        <time>2022-05-08T13:06:52Z</time>
      </trkpt>
      <trkpt lat="46.12567" lon="4.41747">
        <ele>720.6</ele>
        <time>2022-05-08T13:06:56Z</time>
      </trkpt>
      <trkpt lat="46.12557" lon="4.41757">
        <ele>721.2</ele>
        <time>2022-05-08T13:07:00Z</time>
      </trkpt>
      <trkpt lat="46.12548" lon="4.41767">
        <ele>721.4</ele>
        <time>2022-05-08T13:07:04Z</time>
      </trkpt>
      <trkpt lat="46.1254" lon="4.41778">
        <ele>721.8</ele>
        <time>2022-05-08T13:07:08Z</time>
      </trkpt>
      <trkpt lat="46.12531" lon="4.41787">
        <ele>722.6</ele>
        <time>2022-05-08T13:07:12Z</time>
      </trkpt>
      <trkpt lat="46.12522" lon="4.41796">
        <ele>723.6</ele>
        <time>2022-05-08T13:07:16Z</time>
      </trkpt>
      <trkpt lat="46.12513" lon="4.41804">
        <ele>723.2</ele>
        <time>2022-05-08T13:07:20Z</time>
      </trkpt>
      <trkpt lat="46.12503" lon="4.41813">
        <ele>723</ele>
        <time>2022-05-08T13:07:24Z</time>
      </trkpt>
      <trkpt lat="46.12494" lon="4.41821">
        <ele>723.4</ele>
        <time>2022-05-08T13:07:28Z</time>
      </trkpt>
      <trkpt lat="46.12485" lon="4.4183">
        <ele>724</ele>
        <time>2022-05-08T13:07:32Z</time>
      </trkpt>
      <trkpt lat="46.12476" lon="4.41839">
        <ele>723.8</ele>
        <time>2022-05-08T13:07:36Z</time>
      </trkpt>
      <trkpt lat="46.12468" lon="4.4185">
        <ele>724</ele>
        <time>2022-05-08T13:07:40Z</time>
      </trkpt>
      <trkpt lat="46.1246" lon="4.4186">
        <ele>725.4</ele>
        <time>2022-05-08T13:07:44Z</time>
      </trkpt>
      <trkpt lat="46.12453" lon="4.41872">
        <ele>724.6</ele>
        <time>2022-05-08T13:07:48Z</time>
      </trkpt>
      <trkpt lat="46.12446" lon="4.41885">
        <ele>725</ele>
        <time>2022-05-08T13:07:52Z</time>
      </trkpt>
      <trkpt lat="46.1244" lon="4.41898">
        <ele>725.6</ele>
        <time>2022-05-08T13:07:56Z</time>
      </trkpt>
      <trkpt lat="46.12433" lon="4.41911">
        <ele>725.6</ele>
        <time>2022-05-08T13:08:00Z</time>
      </trkpt>
      <trkpt lat="46.12427" lon="4.41925">
        <ele>726.2</ele>
        <time>2022-05-08T13:08:04Z</time>
      </trkpt>
      <trkpt lat="46.1242" lon="4.41939">
        <ele>726.8</ele>
        <time>2022-05-08T13:08:08Z</time>
      </trkpt>
      <trkpt lat="46.12413" lon="4.41953">
        <ele>727.2</ele>
        <time>2022-05-08T13:08:12Z</time>
      </trkpt>
      <trkpt lat="46.12406" lon="4.41966">
        <ele>727.4</ele>
        <time>2022-05-08T13:08:16Z</time>
      </trkpt>
      <trkpt lat="46.124" lon="4.41979">
        <ele>728.2</ele>
        <time>2022-05-08T13:08:20Z</time>
      </trkpt>
      <trkpt lat="46.12393" lon="4.41992">
        <ele>728.2</ele>
        <time>2022-05-08T13:08:24Z</time>
      </trkpt>
      <trkpt lat="46.12387" lon="4.42004">
        <ele>728.2</ele>
        <time>2022-05-08T13:08:28Z</time>
      </trkpt>
      <trkpt lat="46.12381" lon="4.42017">
        <ele>729</ele>
        <time>2022-05-08T13:08:32Z</time>
      </trkpt>
      <trkpt lat="46.12375" lon="4.4203">
        <ele>729.2</ele>
        <time>2022-05-08T13:08:36Z</time>
      </trkpt>
      <trkpt lat="46.12368" lon="4.42042">
        <ele>730</ele>
        <time>2022-05-08T13:08:40Z</time>
      </trkpt>
      <trkpt lat="46.12362" lon="4.42055">
        <ele>729.8</ele>
        <time>2022-05-08T13:08:44Z</time>
      </trkpt>
      <trkpt lat="46.12356" lon="4.42068">
        <ele>730.2</ele>
        <time>2022-05-08T13:08:48Z</time>
      </trkpt>
      <trkpt lat="46.12349" lon="4.42082">
        <ele>730.6</ele>
        <time>2022-05-08T13:08:52Z</time>
      </trkpt>
      <trkpt lat="46.12342" lon="4.42093">
        <ele>730.4</ele>
        <time>2022-05-08T13:08:56Z</time>
      </trkpt>
      <trkpt lat="46.12334" lon="4.42103">
        <ele>730.8</ele>
        <time>2022-05-08T13:09:00Z</time>
      </trkpt>
      <trkpt lat="46.12326" lon="4.42113">
        <ele>731</ele>
        <time>2022-05-08T13:09:04Z</time>
      </trkpt>
      <trkpt lat="46.12316" lon="4.4212">
        <ele>731.6</ele>
        <time>2022-05-08T13:09:08Z</time>
      </trkpt>
      <trkpt lat="46.12305" lon="4.42125">
        <ele>732.4</ele>
        <time>2022-05-08T13:09:12Z</time>
      </trkpt>
      <trkpt lat="46.12294" lon="4.42124">
        <ele>732.2</ele>
        <time>2022-05-08T13:09:16Z</time>
      </trkpt>
      <trkpt lat="46.12284" lon="4.4212">
        <ele>732.8</ele>
        <time>2022-05-08T13:09:20Z</time>
      </trkpt>
      <trkpt lat="46.12273" lon="4.42112">
        <ele>733.6</ele>
        <time>2022-05-08T13:09:24Z</time>
      </trkpt>
      <trkpt lat="46.12265" lon="4.42104">
        <ele>734.2</ele>
        <time>2022-05-08T13:09:28Z</time>
      </trkpt>
      <trkpt lat="46.12261" lon="4.42097">
        <ele>734.4</ele>
        <time>2022-05-08T13:09:32Z</time>
      </trkpt>
      <trkpt lat="46.12254" lon="4.42091">
        <ele>735.6</ele>
        <time>2022-05-08T13:09:36Z</time>
      </trkpt>
      <trkpt lat="46.12245" lon="4.4208">
        <ele>735.4</ele>
        <time>2022-05-08T13:09:40Z</time>
      </trkpt>
      <trkpt lat="46.12238" lon="4.42071">
        <ele>736.2</ele>
        <time>2022-05-08T13:09:44Z</time>
      </trkpt>
      <trkpt lat="46.12232" lon="4.42063">
        <ele>736.4</ele>
        <time>2022-05-08T13:09:48Z</time>
      </trkpt>
      <trkpt lat="46.12225" lon="4.42059">
        <ele>736.6</ele>
        <time>2022-05-08T13:09:52Z</time>
      </trkpt>
      <trkpt lat="46.12219" lon="4.42054">
        <ele>737.2</ele>
        <time>2022-05-08T13:09:56Z</time>
      </trkpt>
      <trkpt lat="46.12211" lon="4.4205">
        <ele>737.2</ele>
        <time>2022-05-08T13:10:00Z</time>
      </trkpt>
      <trkpt lat="46.12199" lon="4.42042">
        <ele>737.6</ele>
        <time>2022-05-08T13:10:04Z</time>
      </trkpt>
      <trkpt lat="46.12183" lon="4.42032">
        <ele>738</ele>
        <time>2022-05-08T13:10:08Z</time>
      </trkpt>
      <trkpt lat="46.1217" lon="4.42024">
        <ele>738</ele>
        <time>2022-05-08T13:10:12Z</time>
      </trkpt>
      <trkpt lat="46.12158" lon="4.4202">
        <ele>738.8</ele>
        <time>2022-05-08T13:10:16Z</time>
      </trkpt>
      <trkpt lat="46.12146" lon="4.42017">
        <ele>738.8</ele>
        <time>2022-05-08T13:10:20Z</time>
      </trkpt>
      <trkpt lat="46.12134" lon="4.42017">
        <ele>739.4</ele>
        <time>2022-05-08T13:10:24Z</time>
      </trkpt>
      <trkpt lat="46.12123" lon="4.4202">
        <ele>739.4</ele>
        <time>2022-05-08T13:10:28Z</time>
      </trkpt>
      <trkpt lat="46.12114" lon="4.42026">
        <ele>740.4</ele>
        <time>2022-05-08T13:10:32Z</time>
      </trkpt>
      <trkpt lat="46.12104" lon="4.42034">
        <ele>740.2</ele>
        <time>2022-05-08T13:10:36Z</time>
      </trkpt>
      <trkpt lat="46.12095" lon="4.42044">
        <ele>740.8</ele>
        <time>2022-05-08T13:10:40Z</time>
      </trkpt>
      <trkpt lat="46.12087" lon="4.42057">
        <ele>741</ele>
        <time>2022-05-08T13:10:44Z</time>
      </trkpt>
      <trkpt lat="46.12081" lon="4.4207">
        <ele>741.4</ele>
        <time>2022-05-08T13:10:48Z</time>
      </trkpt>
      <trkpt lat="46.12076" lon="4.42085">
        <ele>741.8</ele>
        <time>2022-05-08T13:10:52Z</time>
      </trkpt>
      <trkpt lat="46.12071" lon="4.42099">
        <ele>741.6</ele>
        <time>2022-05-08T13:10:56Z</time>
      </trkpt>
      <trkpt lat="46.12068" lon="4.42114">
        <ele>742.4</ele>
        <time>2022-05-08T13:11:00Z</time>
      </trkpt>
      <trkpt lat="46.12065" lon="4.42128">
        <ele>744.2</ele>
        <time>2022-05-08T13:11:04Z</time>
      </trkpt>
      <trkpt lat="46.12062" lon="4.42144">
        <ele>742.4</ele>
        <time>2022-05-08T13:11:08Z</time>
      </trkpt>
      <trkpt lat="46.12061" lon="4.42162">
        <ele>742.6</ele>
        <time>2022-05-08T13:11:12Z</time>
      </trkpt>
      <trkpt lat="46.12061" lon="4.42179">
        <ele>744</ele>
        <time>2022-05-08T13:11:16Z</time>
      </trkpt>
      <trkpt lat="46.12062" lon="4.42194">
        <ele>744.8</ele>
        <time>2022-05-08T13:11:20Z</time>
      </trkpt>
      <trkpt lat="46.12063" lon="4.42208">
        <ele>745.4</ele>
        <time>2022-05-08T13:11:24Z</time>
      </trkpt>
      <trkpt lat="46.12064" lon="4.42223">
        <ele>745.6</ele>
        <time>2022-05-08T13:11:28Z</time>
      </trkpt>
      <trkpt lat="46.12066" lon="4.42238">
        <ele>745.4</ele>
        <time>2022-05-08T13:11:32Z</time>
      </trkpt>
      <trkpt lat="46.12068" lon="4.42253">
        <ele>745.8</ele>
        <time>2022-05-08T13:11:36Z</time>
      </trkpt>
      <trkpt lat="46.12071" lon="4.42267">
        <ele>746.4</ele>
        <time>2022-05-08T13:11:40Z</time>
      </trkpt>
      <trkpt lat="46.12073" lon="4.42282">
        <ele>746.6</ele>
        <time>2022-05-08T13:11:44Z</time>
      </trkpt>
      <trkpt lat="46.12077" lon="4.42296">
        <ele>746.8</ele>
        <time>2022-05-08T13:11:48Z</time>
      </trkpt>
      <trkpt lat="46.12081" lon="4.4231">
        <ele>747.6</ele>
        <time>2022-05-08T13:11:52Z</time>
      </trkpt>
      <trkpt lat="46.12086" lon="4.42324">
        <ele>748</ele>
        <time>2022-05-08T13:11:56Z</time>
      </trkpt>
      <trkpt lat="46.12091" lon="4.42338">
        <ele>748</ele>
        <time>2022-05-08T13:12:00Z</time>
      </trkpt>
      <trkpt lat="46.12096" lon="4.42352">
        <ele>748</ele>
        <time>2022-05-08T13:12:04Z</time>
      </trkpt>
      <trkpt lat="46.12101" lon="4.42367">
        <ele>748</ele>
        <time>2022-05-08T13:12:08Z</time>
      </trkpt>
      <trkpt lat="46.12104" lon="4.42383">
        <ele>748.8</ele>
        <time>2022-05-08T13:12:12Z</time>
      </trkpt>
      <trkpt lat="46.12104" lon="4.42399">
        <ele>749.2</ele>
        <time>2022-05-08T13:12:16Z</time>
      </trkpt>
      <trkpt lat="46.12101" lon="4.42415">
        <ele>749</ele>
        <time>2022-05-08T13:12:20Z</time>
      </trkpt>
      <trkpt lat="46.12097" lon="4.4243">
        <ele>749.8</ele>
        <time>2022-05-08T13:12:24Z</time>
      </trkpt>
      <trkpt lat="46.12093" lon="4.42445">
        <ele>749.8</ele>
        <time>2022-05-08T13:12:28Z</time>
      </trkpt>
      <trkpt lat="46.12089" lon="4.42459">
        <ele>750.8</ele>
        <time>2022-05-08T13:12:32Z</time>
      </trkpt>
      <trkpt lat="46.12084" lon="4.42471">
        <ele>751.2</ele>
        <time>2022-05-08T13:12:36Z</time>
      </trkpt>
      <trkpt lat="46.12079" lon="4.42484">
        <ele>751.4</ele>
        <time>2022-05-08T13:12:40Z</time>
      </trkpt>
      <trkpt lat="46.12072" lon="4.42497">
        <ele>751.2</ele>
        <time>2022-05-08T13:12:44Z</time>
      </trkpt>
      <trkpt lat="46.12064" lon="4.4251">
        <ele>751.6</ele>
        <time>2022-05-08T13:12:48Z</time>
      </trkpt>
      <trkpt lat="46.12056" lon="4.42521">
        <ele>752.2</ele>
        <time>2022-05-08T13:12:52Z</time>
      </trkpt>
      <trkpt lat="46.12047" lon="4.42531">
        <ele>752.8</ele>
        <time>2022-05-08T13:12:56Z</time>
      </trkpt>
      <trkpt lat="46.12038" lon="4.42539">
        <ele>753</ele>
        <time>2022-05-08T13:13:00Z</time>
      </trkpt>
      <trkpt lat="46.1203" lon="4.42547">
        <ele>753</ele>
        <time>2022-05-08T13:13:04Z</time>
      </trkpt>
      <trkpt lat="46.1202" lon="4.42555">
        <ele>753.2</ele>
        <time>2022-05-08T13:13:08Z</time>
      </trkpt>
      <trkpt lat="46.12011" lon="4.42562">
        <ele>753.4</ele>
        <time>2022-05-08T13:13:12Z</time>
      </trkpt>
      <trkpt lat="46.12004" lon="4.42569">
        <ele>753.6</ele>
        <time>2022-05-08T13:13:16Z</time>
      </trkpt>
      <trkpt lat="46.11997" lon="4.42575">
        <ele>754.6</ele>
        <time>2022-05-08T13:13:20Z</time>
      </trkpt>
      <trkpt lat="46.1199" lon="4.4258">
        <ele>755</ele>
        <time>2022-05-08T13:13:24Z</time>
      </trkpt>
      <trkpt lat="46.11983" lon="4.42586">
        <ele>754.6</ele>
        <time>2022-05-08T13:13:28Z</time>
      </trkpt>
      <trkpt lat="46.11974" lon="4.42591">
        <ele>756</ele>
        <time>2022-05-08T13:13:32Z</time>
      </trkpt>
      <trkpt lat="46.11967" lon="4.42596">
        <ele>756.4</ele>
        <time>2022-05-08T13:13:36Z</time>
      </trkpt>
      <trkpt lat="46.11955" lon="4.42602">
        <ele>756.2</ele>
        <time>2022-05-08T13:13:40Z</time>
      </trkpt>
      <trkpt lat="46.11947" lon="4.42606">
        <ele>757</ele>
        <time>2022-05-08T13:13:44Z</time>
      </trkpt>
      <trkpt lat="46.1194" lon="4.4261">
        <ele>757</ele>
        <time>2022-05-08T13:13:48Z</time>
      </trkpt>
      <trkpt lat="46.1193" lon="4.42614">
        <ele>758</ele>
        <time>2022-05-08T13:13:52Z</time>
      </trkpt>
      <trkpt lat="46.11923" lon="4.42621">
        <ele>757.8</ele>
        <time>2022-05-08T13:13:56Z</time>
      </trkpt>
      <trkpt lat="46.1191" lon="4.42627">
        <ele>758</ele>
        <time>2022-05-08T13:14:00Z</time>
      </trkpt>
      <trkpt lat="46.11897" lon="4.42634">
        <ele>758.2</ele>
        <time>2022-05-08T13:14:04Z</time>
      </trkpt>
      <trkpt lat="46.11882" lon="4.42643">
        <ele>758.6</ele>
        <time>2022-05-08T13:14:08Z</time>
      </trkpt>
      <trkpt lat="46.11868" lon="4.42653">
        <ele>758.4</ele>
        <time>2022-05-08T13:14:12Z</time>
      </trkpt>
      <trkpt lat="46.11856" lon="4.42659">
        <ele>758.8</ele>
        <time>2022-05-08T13:14:16Z</time>
      </trkpt>
      <trkpt lat="46.11847" lon="4.42668">
        <ele>758.8</ele>
        <time>2022-05-08T13:14:20Z</time>
      </trkpt>
      <trkpt lat="46.11838" lon="4.42675">
        <ele>759.6</ele>
        <time>2022-05-08T13:14:24Z</time>
      </trkpt>
      <trkpt lat="46.11829" lon="4.4268">
        <ele>759.2</ele>
        <time>2022-05-08T13:14:28Z</time>
      </trkpt>
      <trkpt lat="46.11821" lon="4.42685">
        <ele>759.6</ele>
        <time>2022-05-08T13:14:32Z</time>
      </trkpt>
      <trkpt lat="46.11813" lon="4.42691">
        <ele>759.6</ele>
        <time>2022-05-08T13:14:36Z</time>
      </trkpt>
      <trkpt lat="46.11802" lon="4.42697">
        <ele>760.2</ele>
        <time>2022-05-08T13:14:40Z</time>
      </trkpt>
      <trkpt lat="46.11795" lon="4.42704">
        <ele>760.2</ele>
        <time>2022-05-08T13:14:44Z</time>
      </trkpt>
      <trkpt lat="46.11782" lon="4.42709">
        <ele>760.6</ele>
        <time>2022-05-08T13:14:48Z</time>
      </trkpt>
      <trkpt lat="46.11769" lon="4.42713">
        <ele>760.2</ele>
        <time>2022-05-08T13:14:52Z</time>
      </trkpt>
      <trkpt lat="46.11756" lon="4.42715">
        <ele>760.4</ele>
        <time>2022-05-08T13:14:56Z</time>
      </trkpt>
      <trkpt lat="46.11744" lon="4.42716">
        <ele>761.6</ele>
        <time>2022-05-08T13:15:00Z</time>
      </trkpt>
      <trkpt lat="46.11733" lon="4.42715">
        <ele>762.2</ele>
        <time>2022-05-08T13:15:04Z</time>
      </trkpt>
      <trkpt lat="46.11723" lon="4.42715">
        <ele>762.6</ele>
        <time>2022-05-08T13:15:08Z</time>
      </trkpt>
      <trkpt lat="46.11712" lon="4.42715">
        <ele>763.2</ele>
        <time>2022-05-08T13:15:12Z</time>
      </trkpt>
      <trkpt lat="46.11701" lon="4.42714">
        <ele>763.2</ele>
        <time>2022-05-08T13:15:16Z</time>
      </trkpt>
      <trkpt lat="46.1169" lon="4.42712">
        <ele>763</ele>
        <time>2022-05-08T13:15:20Z</time>
      </trkpt>
      <trkpt lat="46.1168" lon="4.42711">
        <ele>764</ele>
        <time>2022-05-08T13:15:24Z</time>
      </trkpt>
      <trkpt lat="46.1167" lon="4.4271">
        <ele>763.6</ele>
        <time>2022-05-08T13:15:28Z</time>
      </trkpt>
      <trkpt lat="46.1166" lon="4.42709">
        <ele>764.4</ele>
        <time>2022-05-08T13:15:32Z</time>
      </trkpt>
      <trkpt lat="46.11651" lon="4.42709">
        <ele>764.6</ele>
        <time>2022-05-08T13:15:36Z</time>
      </trkpt>
      <trkpt lat="46.11642" lon="4.42709">
        <ele>765.4</ele>
        <time>2022-05-08T13:15:40Z</time>
      </trkpt>
      <trkpt lat="46.11633" lon="4.42708">
        <ele>764.6</ele>
        <time>2022-05-08T13:15:44Z</time>
      </trkpt>
      <trkpt lat="46.11625" lon="4.42706">
        <ele>765.6</ele>
        <time>2022-05-08T13:15:48Z</time>
      </trkpt>
      <trkpt lat="46.11615" lon="4.42704">
        <ele>766.4</ele>
        <time>2022-05-08T13:15:52Z</time>
      </trkpt>
      <trkpt lat="46.11604" lon="4.42701">
        <ele>765.8</ele>
        <time>2022-05-08T13:15:56Z</time>
      </trkpt>
      <trkpt lat="46.11591" lon="4.42696">
        <ele>766.4</ele>
        <time>2022-05-08T13:16:00Z</time>
      </trkpt>
      <trkpt lat="46.11579" lon="4.42692">
        <ele>766.8</ele>
        <time>2022-05-08T13:16:04Z</time>
      </trkpt>
      <trkpt lat="46.11568" lon="4.42687">
        <ele>767.2</ele>
        <time>2022-05-08T13:16:08Z</time>
      </trkpt>
      <trkpt lat="46.11558" lon="4.42681">
        <ele>767.6</ele>
        <time>2022-05-08T13:16:12Z</time>
      </trkpt>
      <trkpt lat="46.11547" lon="4.42674">
        <ele>767.6</ele>
        <time>2022-05-08T13:16:16Z</time>
      </trkpt>
      <trkpt lat="46.11537" lon="4.42665">
        <ele>767.6</ele>
        <time>2022-05-08T13:16:20Z</time>
      </trkpt>
      <trkpt lat="46.11528" lon="4.42656">
        <ele>768.6</ele>
        <time>2022-05-08T13:16:24Z</time>
      </trkpt>
      <trkpt lat="46.11519" lon="4.42646">
        <ele>769.4</ele>
        <time>2022-05-08T13:16:28Z</time>
      </trkpt>
      <trkpt lat="46.11511" lon="4.42636">
        <ele>769.2</ele>
        <time>2022-05-08T13:16:32Z</time>
      </trkpt>
      <trkpt lat="46.11503" lon="4.42626">
        <ele>769.6</ele>
        <time>2022-05-08T13:16:36Z</time>
      </trkpt>
      <trkpt lat="46.11495" lon="4.42615">
        <ele>769.6</ele>
        <time>2022-05-08T13:16:40Z</time>
      </trkpt>
      <trkpt lat="46.11487" lon="4.42606">
        <ele>770.4</ele>
        <time>2022-05-08T13:16:44Z</time>
      </trkpt>
      <trkpt lat="46.11478" lon="4.42597">
        <ele>770.4</ele>
        <time>2022-05-08T13:16:48Z</time>
      </trkpt>
      <trkpt lat="46.11469" lon="4.4259">
        <ele>771</ele>
        <time>2022-05-08T13:16:52Z</time>
      </trkpt>
      <trkpt lat="46.11459" lon="4.42584">
        <ele>771.4</ele>
        <time>2022-05-08T13:16:56Z</time>
      </trkpt>
      <trkpt lat="46.11451" lon="4.42577">
        <ele>771.4</ele>
        <time>2022-05-08T13:17:00Z</time>
      </trkpt>
      <trkpt lat="46.11444" lon="4.42575">
        <ele>772</ele>
        <time>2022-05-08T13:17:04Z</time>
      </trkpt>
      <trkpt lat="46.11435" lon="4.42569">
        <ele>773</ele>
        <time>2022-05-08T13:17:08Z</time>
      </trkpt>
      <trkpt lat="46.11428" lon="4.42566">
        <ele>772.8</ele>
        <time>2022-05-08T13:17:12Z</time>
      </trkpt>
      <trkpt lat="46.11417" lon="4.42562">
        <ele>773.4</ele>
        <time>2022-05-08T13:17:16Z</time>
      </trkpt>
      <trkpt lat="46.11406" lon="4.42559">
        <ele>774</ele>
        <time>2022-05-08T13:17:20Z</time>
      </trkpt>
      <trkpt lat="46.11392" lon="4.42553">
        <ele>774.2</ele>
        <time>2022-05-08T13:17:24Z</time>
      </trkpt>
      <trkpt lat="46.11381" lon="4.42551">
        <ele>774.6</ele>
        <time>2022-05-08T13:17:28Z</time>
      </trkpt>
      <trkpt lat="46.11373" lon="4.42548">
        <ele>776</ele>
        <time>2022-05-08T13:17:32Z</time>
      </trkpt>
      <trkpt lat="46.11359" lon="4.42545">
        <ele>776.2</ele>
        <time>2022-05-08T13:17:36Z</time>
      </trkpt>
      <trkpt lat="46.11346" lon="4.42544">
        <ele>776.4</ele>
        <time>2022-05-08T13:17:40Z</time>
      </trkpt>
      <trkpt lat="46.11336" lon="4.42546">
        <ele>776.4</ele>
        <time>2022-05-08T13:17:44Z</time>
      </trkpt>
      <trkpt lat="46.11325" lon="4.42547">
        <ele>777.2</ele>
        <time>2022-05-08T13:17:48Z</time>
      </trkpt>
      <trkpt lat="46.11311" lon="4.42552">
        <ele>777.6</ele>
        <time>2022-05-08T13:17:52Z</time>
      </trkpt>
      <trkpt lat="46.11297" lon="4.42557">
        <ele>777.6</ele>
        <time>2022-05-08T13:17:56Z</time>
      </trkpt>
      <trkpt lat="46.11285" lon="4.42566">
        <ele>777.2</ele>
        <time>2022-05-08T13:18:00Z</time>
      </trkpt>
      <trkpt lat="46.11275" lon="4.42575">
        <ele>778.8</ele>
        <time>2022-05-08T13:18:04Z</time>
      </trkpt>
      <trkpt lat="46.11266" lon="4.42585">
        <ele>778.4</ele>
        <time>2022-05-08T13:18:08Z</time>
      </trkpt>
      <trkpt lat="46.11258" lon="4.42594">
        <ele>778.6</ele>
        <time>2022-05-08T13:18:12Z</time>
      </trkpt>
      <trkpt lat="46.1125" lon="4.42605">
        <ele>779.2</ele>
        <time>2022-05-08T13:18:16Z</time>
      </trkpt>
      <trkpt lat="46.11242" lon="4.42615">
        <ele>779.8</ele>
        <time>2022-05-08T13:18:20Z</time>
      </trkpt>
      <trkpt lat="46.11234" lon="4.42626">
        <ele>779.4</ele>
        <time>2022-05-08T13:18:24Z</time>
      </trkpt>
      <trkpt lat="46.11226" lon="4.42636">
        <ele>779</ele>
        <time>2022-05-08T13:18:28Z</time>
      </trkpt>
      <trkpt lat="46.11219" lon="4.42648">
        <ele>779.2</ele>
        <time>2022-05-08T13:18:32Z</time>
      </trkpt>
      <trkpt lat="46.11212" lon="4.42659">
        <ele>779.8</ele>
        <time>2022-05-08T13:18:36Z</time>
      </trkpt>
      <trkpt lat="46.11205" lon="4.42671">
        <ele>780</ele>
        <time>2022-05-08T13:18:40Z</time>
      </trkpt>
      <trkpt lat="46.11199" lon="4.4268">
        <ele>781.2</ele>
        <time>2022-05-08T13:18:44Z</time>
      </trkpt>
      <trkpt lat="46.11194" lon="4.42693">
        <ele>780.8</ele>
        <time>2022-05-08T13:18:48Z</time>
      </trkpt>
      <trkpt lat="46.11186" lon="4.42704">
        <ele>782.2</ele>
        <time>2022-05-08T13:18:52Z</time>
      </trkpt>
      <trkpt lat="46.11181" lon="4.42717">
        <ele>782.6</ele>
        <time>2022-05-08T13:18:56Z</time>
      </trkpt>
      <trkpt lat="46.11174" lon="4.42727">
        <ele>784</ele>
        <time>2022-05-08T13:19:00Z</time>
      </trkpt>
      <trkpt lat="46.11167" lon="4.42739">
        <ele>784.2</ele>
        <time>2022-05-08T13:19:04Z</time>
      </trkpt>
      <trkpt lat="46.11159" lon="4.42749">
        <ele>784.6</ele>
        <time>2022-05-08T13:19:08Z</time>
      </trkpt>
      <trkpt lat="46.11149" lon="4.42755">
        <ele>784.6</ele>
        <time>2022-05-08T13:19:12Z</time>
      </trkpt>
      <trkpt lat="46.11147" lon="4.42765">
        <ele>784.8</ele>
        <time>2022-05-08T13:19:16Z</time>
      </trkpt>
      <trkpt lat="46.11139" lon="4.42773">
        <ele>785</ele>
        <time>2022-05-08T13:19:20Z</time>
      </trkpt>
      <trkpt lat="46.11129" lon="4.42781">
        <ele>784.8</ele>
        <time>2022-05-08T13:19:24Z</time>
      </trkpt>
      <trkpt lat="46.11121" lon="4.42791">
        <ele>785.4</ele>
        <time>2022-05-08T13:19:28Z</time>
      </trkpt>
      <trkpt lat="46.11111" lon="4.42799">
        <ele>785.8</ele>
        <time>2022-05-08T13:19:32Z</time>
      </trkpt>
      <trkpt lat="46.11101" lon="4.42809">
        <ele>786.2</ele>
        <time>2022-05-08T13:19:36Z</time>
      </trkpt>
      <trkpt lat="46.11093" lon="4.42817">
        <ele>786.6</ele>
        <time>2022-05-08T13:19:40Z</time>
      </trkpt>
      <trkpt lat="46.11082" lon="4.42823">
        <ele>786.8</ele>
        <time>2022-05-08T13:19:44Z</time>
      </trkpt>
      <trkpt lat="46.11071" lon="4.42829">
        <ele>787.2</ele>
        <time>2022-05-08T13:19:48Z</time>
      </trkpt>
      <trkpt lat="46.11061" lon="4.42837">
        <ele>788.2</ele>
        <time>2022-05-08T13:19:52Z</time>
      </trkpt>
      <trkpt lat="46.11051" lon="4.42847">
        <ele>787.8</ele>
        <time>2022-05-08T13:19:56Z</time>
      </trkpt>
      <trkpt lat="46.1104" lon="4.42853">
        <ele>788.4</ele>
        <time>2022-05-08T13:20:00Z</time>
      </trkpt>
      <trkpt lat="46.1103" lon="4.42859">
        <ele>789</ele>
        <time>2022-05-08T13:20:04Z</time>
      </trkpt>
      <trkpt lat="46.11017" lon="4.42866">
        <ele>789.2</ele>
        <time>2022-05-08T13:20:08Z</time>
      </trkpt>
      <trkpt lat="46.11005" lon="4.42874">
        <ele>789.8</ele>
        <time>2022-05-08T13:20:12Z</time>
      </trkpt>
      <trkpt lat="46.10995" lon="4.42879">
        <ele>789.8</ele>
        <time>2022-05-08T13:20:16Z</time>
      </trkpt>
      <trkpt lat="46.10985" lon="4.42886">
        <ele>790.4</ele>
        <time>2022-05-08T13:20:20Z</time>
      </trkpt>
      <trkpt lat="46.10975" lon="4.42895">
        <ele>790.8</ele>
        <time>2022-05-08T13:20:24Z</time>
      </trkpt>
      <trkpt lat="46.10966" lon="4.42903">
        <ele>789.8</ele>
        <time>2022-05-08T13:20:28Z</time>
      </trkpt>
      <trkpt lat="46.10942" lon="4.42957">
        <ele>790.2</ele>
        <time>2022-05-08T13:23:29Z</time>
      </trkpt>
      <trkpt lat="46.10932" lon="4.42965">
        <ele>789.4</ele>
        <time>2022-05-08T13:23:33Z</time>
      </trkpt>
      <trkpt lat="46.10919" lon="4.42973">
        <ele>787.6</ele>
        <time>2022-05-08T13:23:37Z</time>
      </trkpt>
      <trkpt lat="46.10905" lon="4.42979">
        <ele>786.4</ele>
        <time>2022-05-08T13:23:41Z</time>
      </trkpt>
      <trkpt lat="46.10888" lon="4.42989">
        <ele>786.2</ele>
        <time>2022-05-08T13:23:45Z</time>
      </trkpt>
      <trkpt lat="46.10872" lon="4.42999">
        <ele>785.4</ele>
        <time>2022-05-08T13:23:49Z</time>
      </trkpt>
      <trkpt lat="46.10856" lon="4.4301">
        <ele>783.4</ele>
        <time>2022-05-08T13:23:53Z</time>
      </trkpt>
      <trkpt lat="46.10841" lon="4.43021">
        <ele>781.2</ele>
        <time>2022-05-08T13:23:57Z</time>
      </trkpt>
      <trkpt lat="46.10825" lon="4.43036">
        <ele>781.2</ele>
        <time>2022-05-08T13:24:01Z</time>
      </trkpt>
      <trkpt lat="46.10811" lon="4.43051">
        <ele>782.6</ele>
        <time>2022-05-08T13:24:05Z</time>
      </trkpt>
      <trkpt lat="46.10797" lon="4.43072">
        <ele>781.6</ele>
        <time>2022-05-08T13:24:09Z</time>
      </trkpt>
      <trkpt lat="46.10777" lon="4.4309">
        <ele>779.8</ele>
        <time>2022-05-08T13:24:13Z</time>
      </trkpt>
      <trkpt lat="46.10747" lon="4.43101">
        <ele>779.2</ele>
        <time>2022-05-08T13:24:17Z</time>
      </trkpt>
      <trkpt lat="46.10717" lon="4.43108">
        <ele>775.2</ele>
        <time>2022-05-08T13:24:21Z</time>
      </trkpt>
      <trkpt lat="46.10685" lon="4.4312">
        <ele>775.2</ele>
        <time>2022-05-08T13:24:25Z</time>
      </trkpt>
      <trkpt lat="46.1066" lon="4.43137">
        <ele>774.2</ele>
        <time>2022-05-08T13:24:29Z</time>
      </trkpt>
      <trkpt lat="46.1064" lon="4.4316">
        <ele>772.4</ele>
        <time>2022-05-08T13:24:33Z</time>
      </trkpt>
      <trkpt lat="46.10618" lon="4.43181">
        <ele>771.6</ele>
        <time>2022-05-08T13:24:37Z</time>
      </trkpt>
      <trkpt lat="46.10595" lon="4.432">
        <ele>771.6</ele>
        <time>2022-05-08T13:24:41Z</time>
      </trkpt>
      <trkpt lat="46.1057" lon="4.43216">
        <ele>770.4</ele>
        <time>2022-05-08T13:24:45Z</time>
      </trkpt>
      <trkpt lat="46.10546" lon="4.43213">
        <ele>769.4</ele>
        <time>2022-05-08T13:24:49Z</time>
      </trkpt>
      <trkpt lat="46.10528" lon="4.43197">
        <ele>768.4</ele>
        <time>2022-05-08T13:24:53Z</time>
      </trkpt>
      <trkpt lat="46.1051" lon="4.43191">
        <ele>766.6</ele>
        <time>2022-05-08T13:24:57Z</time>
      </trkpt>
      <trkpt lat="46.10484" lon="4.43185">
        <ele>767.4</ele>
        <time>2022-05-08T13:25:01Z</time>
      </trkpt>
      <trkpt lat="46.1046" lon="4.43189">
        <ele>767</ele>
        <time>2022-05-08T13:25:05Z</time>
      </trkpt>
      <trkpt lat="46.10424" lon="4.43215">
        <ele>766.2</ele>
        <time>2022-05-08T13:25:56Z</time>
      </trkpt>
      <trkpt lat="46.10411" lon="4.43224">
        <ele>764.2</ele>
        <time>2022-05-08T13:26:00Z</time>
      </trkpt>
      <trkpt lat="46.10396" lon="4.43238">
        <ele>763</ele>
        <time>2022-05-08T13:26:04Z</time>
      </trkpt>
      <trkpt lat="46.10378" lon="4.43251">
        <ele>763.2</ele>
        <time>2022-05-08T13:26:08Z</time>
      </trkpt>
      <trkpt lat="46.10359" lon="4.4326">
        <ele>763</ele>
        <time>2022-05-08T13:26:12Z</time>
      </trkpt>
      <trkpt lat="46.10341" lon="4.43266">
        <ele>761.2</ele>
        <time>2022-05-08T13:26:16Z</time>
      </trkpt>
      <trkpt lat="46.1032" lon="4.43277">
        <ele>759.2</ele>
        <time>2022-05-08T13:26:20Z</time>
      </trkpt>
      <trkpt lat="46.10295" lon="4.43297">
        <ele>755.8</ele>
        <time>2022-05-08T13:26:24Z</time>
      </trkpt>
      <trkpt lat="46.10273" lon="4.43316">
        <ele>760.8</ele>
        <time>2022-05-08T13:26:28Z</time>
      </trkpt>
      <trkpt lat="46.10252" lon="4.43341">
        <ele>757.6</ele>
        <time>2022-05-08T13:26:32Z</time>
      </trkpt>
      <trkpt lat="46.1023" lon="4.43368">
        <ele>756.2</ele>
        <time>2022-05-08T13:26:36Z</time>
      </trkpt>
      <trkpt lat="46.10205" lon="4.43397">
        <ele>754.8</ele>
        <time>2022-05-08T13:26:40Z</time>
      </trkpt>
      <trkpt lat="46.1018" lon="4.43429">
        <ele>753.8</ele>
        <time>2022-05-08T13:26:44Z</time>
      </trkpt>
      <trkpt lat="46.10161" lon="4.43468">
        <ele>754.6</ele>
        <time>2022-05-08T13:26:48Z</time>
      </trkpt>
      <trkpt lat="46.10147" lon="4.4351">
        <ele>755</ele>
        <time>2022-05-08T13:26:52Z</time>
      </trkpt>
      <trkpt lat="46.10121" lon="4.43546">
        <ele>751.6</ele>
        <time>2022-05-08T13:26:56Z</time>
      </trkpt>
      <trkpt lat="46.10086" lon="4.43562">
        <ele>750</ele>
        <time>2022-05-08T13:27:00Z</time>
      </trkpt>
      <trkpt lat="46.10051" lon="4.4357">
        <ele>748</ele>
        <time>2022-05-08T13:27:04Z</time>
      </trkpt>
      <trkpt lat="46.10019" lon="4.43588">
        <ele>746</ele>
        <time>2022-05-08T13:27:08Z</time>
      </trkpt>
      <trkpt lat="46.09989" lon="4.43612">
        <ele>744.6</ele>
        <time>2022-05-08T13:27:12Z</time>
      </trkpt>
      <trkpt lat="46.0996" lon="4.43632">
        <ele>745</ele>
        <time>2022-05-08T13:27:16Z</time>
      </trkpt>
      <trkpt lat="46.0993" lon="4.43646">
        <ele>742.2</ele>
        <time>2022-05-08T13:27:20Z</time>
      </trkpt>
      <trkpt lat="46.09898" lon="4.43647">
        <ele>743</ele>
        <time>2022-05-08T13:27:24Z</time>
      </trkpt>
      <trkpt lat="46.09868" lon="4.43643">
        <ele>741.4</ele>
        <time>2022-05-08T13:27:28Z</time>
      </trkpt>
      <trkpt lat="46.09836" lon="4.4364">
        <ele>740.8</ele>
        <time>2022-05-08T13:27:32Z</time>
      </trkpt>
      <trkpt lat="46.09805" lon="4.43643">
        <ele>740</ele>
        <time>2022-05-08T13:27:36Z</time>
      </trkpt>
      <trkpt lat="46.09775" lon="4.43655">
        <ele>737.6</ele>
        <time>2022-05-08T13:27:40Z</time>
      </trkpt>
      <trkpt lat="46.09747" lon="4.43675">
        <ele>734.8</ele>
        <time>2022-05-08T13:27:44Z</time>
      </trkpt>
      <trkpt lat="46.09725" lon="4.43705">
        <ele>735.8</ele>
        <time>2022-05-08T13:27:48Z</time>
      </trkpt>
      <trkpt lat="46.09706" lon="4.43736">
        <ele>734.4</ele>
        <time>2022-05-08T13:27:52Z</time>
      </trkpt>
      <trkpt lat="46.09688" lon="4.4377">
        <ele>733.4</ele>
        <time>2022-05-08T13:27:56Z</time>
      </trkpt>
      <trkpt lat="46.09671" lon="4.43803">
        <ele>731.8</ele>
        <time>2022-05-08T13:28:00Z</time>
      </trkpt>
      <trkpt lat="46.09654" lon="4.43837">
        <ele>730.4</ele>
        <time>2022-05-08T13:28:04Z</time>
      </trkpt>
      <trkpt lat="46.09635" lon="4.43869">
        <ele>731.4</ele>
        <time>2022-05-08T13:28:08Z</time>
      </trkpt>
      <trkpt lat="46.09618" lon="4.439">
        <ele>730</ele>
        <time>2022-05-08T13:28:12Z</time>
      </trkpt>
      <trkpt lat="46.09597" lon="4.43924">
        <ele>729.4</ele>
        <time>2022-05-08T13:28:16Z</time>
      </trkpt>
      <trkpt lat="46.09574" lon="4.43944">
        <ele>727.4</ele>
        <time>2022-05-08T13:28:20Z</time>
      </trkpt>
      <trkpt lat="46.09545" lon="4.43957">
        <ele>724.2</ele>
        <time>2022-05-08T13:28:24Z</time>
      </trkpt>
      <trkpt lat="46.0951" lon="4.43966">
        <ele>721.8</ele>
        <time>2022-05-08T13:28:28Z</time>
      </trkpt>
      <trkpt lat="46.09474" lon="4.43977">
        <ele>720.4</ele>
        <time>2022-05-08T13:28:32Z</time>
      </trkpt>
      <trkpt lat="46.09435" lon="4.43994">
        <ele>718.6</ele>
        <time>2022-05-08T13:28:36Z</time>
      </trkpt>
      <trkpt lat="46.09396" lon="4.44003">
        <ele>717.8</ele>
        <time>2022-05-08T13:28:40Z</time>
      </trkpt>
      <trkpt lat="46.09358" lon="4.44003">
        <ele>715.4</ele>
        <time>2022-05-08T13:28:44Z</time>
      </trkpt>
      <trkpt lat="46.0932" lon="4.43999">
        <ele>713.8</ele>
        <time>2022-05-08T13:28:48Z</time>
      </trkpt>
      <trkpt lat="46.0928" lon="4.43996">
        <ele>710.6</ele>
        <time>2022-05-08T13:28:52Z</time>
      </trkpt>
      <trkpt lat="46.09245" lon="4.43994">
        <ele>713.6</ele>
        <time>2022-05-08T13:28:56Z</time>
      </trkpt>
      <trkpt lat="46.09225" lon="4.43995">
        <ele>715.2</ele>
        <time>2022-05-08T13:29:00Z</time>
      </trkpt>
      <trkpt lat="46.09203" lon="4.43994">
        <ele>714.4</ele>
        <time>2022-05-08T13:30:31Z</time>
      </trkpt>
      <trkpt lat="46.0919" lon="4.44006">
        <ele>712.4</ele>
        <time>2022-05-08T13:30:35Z</time>
      </trkpt>
      <trkpt lat="46.09175" lon="4.4403">
        <ele>710.6</ele>
        <time>2022-05-08T13:30:39Z</time>
      </trkpt>
      <trkpt lat="46.09158" lon="4.44055">
        <ele>708.2</ele>
        <time>2022-05-08T13:30:43Z</time>
      </trkpt>
      <trkpt lat="46.0914" lon="4.44087">
        <ele>706</ele>
        <time>2022-05-08T13:30:47Z</time>
      </trkpt>
      <trkpt lat="46.09114" lon="4.44123">
        <ele>703.4</ele>
        <time>2022-05-08T13:30:51Z</time>
      </trkpt>
      <trkpt lat="46.09082" lon="4.44152">
        <ele>701</ele>
        <time>2022-05-08T13:30:55Z</time>
      </trkpt>
      <trkpt lat="46.0905" lon="4.4418">
        <ele>694.4</ele>
        <time>2022-05-08T13:30:59Z</time>
      </trkpt>
      <trkpt lat="46.09034" lon="4.44229">
        <ele>691.4</ele>
        <time>2022-05-08T13:31:03Z</time>
      </trkpt>
      <trkpt lat="46.09038" lon="4.44285">
        <ele>688.2</ele>
        <time>2022-05-08T13:31:07Z</time>
      </trkpt>
      <trkpt lat="46.09044" lon="4.44341">
        <ele>686.6</ele>
        <time>2022-05-08T13:31:11Z</time>
      </trkpt>
      <trkpt lat="46.0905" lon="4.44395">
        <ele>682.8</ele>
        <time>2022-05-08T13:31:15Z</time>
      </trkpt>
      <trkpt lat="46.09048" lon="4.44454">
        <ele>678</ele>
        <time>2022-05-08T13:31:19Z</time>
      </trkpt>
      <trkpt lat="46.09036" lon="4.44514">
        <ele>674.2</ele>
        <time>2022-05-08T13:31:23Z</time>
      </trkpt>
      <trkpt lat="46.09038" lon="4.44574">
        <ele>672.4</ele>
        <time>2022-05-08T13:31:27Z</time>
      </trkpt>
      <trkpt lat="46.09053" lon="4.4463">
        <ele>669.6</ele>
        <time>2022-05-08T13:31:31Z</time>
      </trkpt>
      <trkpt lat="46.0907" lon="4.44687">
        <ele>665.8</ele>
        <time>2022-05-08T13:31:35Z</time>
      </trkpt>
      <trkpt lat="46.0908" lon="4.44744">
        <ele>662.2</ele>
        <time>2022-05-08T13:31:39Z</time>
      </trkpt>
      <trkpt lat="46.09081" lon="4.44803">
        <ele>659</ele>
        <time>2022-05-08T13:31:43Z</time>
      </trkpt>
      <trkpt lat="46.09083" lon="4.44862">
        <ele>657</ele>
        <time>2022-05-08T13:31:47Z</time>
      </trkpt>
      <trkpt lat="46.0908" lon="4.4492">
        <ele>653.8</ele>
        <time>2022-05-08T13:31:51Z</time>
      </trkpt>
      <trkpt lat="46.09063" lon="4.44975">
        <ele>652.4</ele>
        <time>2022-05-08T13:31:55Z</time>
      </trkpt>
      <trkpt lat="46.09048" lon="4.45024">
        <ele>649</ele>
        <time>2022-05-08T13:31:59Z</time>
      </trkpt>
      <trkpt lat="46.09055" lon="4.45074">
        <ele>647.6</ele>
        <time>2022-05-08T13:32:03Z</time>
      </trkpt>
      <trkpt lat="46.09086" lon="4.45107">
        <ele>644.2</ele>
        <time>2022-05-08T13:32:07Z</time>
      </trkpt>
      <trkpt lat="46.09119" lon="4.45123">
        <ele>640</ele>
        <time>2022-05-08T13:32:11Z</time>
      </trkpt>
      <trkpt lat="46.09149" lon="4.45128">
        <ele>638.4</ele>
        <time>2022-05-08T13:32:15Z</time>
      </trkpt>
      <trkpt lat="46.09176" lon="4.45107">
        <ele>635.2</ele>
        <time>2022-05-08T13:32:19Z</time>
      </trkpt>
      <trkpt lat="46.09198" lon="4.45065">
        <ele>636.8</ele>
        <time>2022-05-08T13:32:23Z</time>
      </trkpt>
      <trkpt lat="46.09194" lon="4.45015">
        <ele>634.6</ele>
        <time>2022-05-08T13:32:27Z</time>
      </trkpt>
      <trkpt lat="46.09199" lon="4.44966">
        <ele>632.4</ele>
        <time>2022-05-08T13:32:31Z</time>
      </trkpt>
      <trkpt lat="46.0923" lon="4.44957">
        <ele>631.2</ele>
        <time>2022-05-08T13:32:35Z</time>
      </trkpt>
      <trkpt lat="46.09257" lon="4.44988">
        <ele>625</ele>
        <time>2022-05-08T13:32:39Z</time>
      </trkpt>
      <trkpt lat="46.09287" lon="4.45027">
        <ele>622</ele>
        <time>2022-05-08T13:32:43Z</time>
      </trkpt>
      <trkpt lat="46.09315" lon="4.45074">
        <ele>620.2</ele>
        <time>2022-05-08T13:32:47Z</time>
      </trkpt>
      <trkpt lat="46.09338" lon="4.45125">
        <ele>617.2</ele>
        <time>2022-05-08T13:32:51Z</time>
      </trkpt>
      <trkpt lat="46.09341" lon="4.45187">
        <ele>613.4</ele>
        <time>2022-05-08T13:32:55Z</time>
      </trkpt>
      <trkpt lat="46.09328" lon="4.45247">
        <ele>610.8</ele>
        <time>2022-05-08T13:32:59Z</time>
      </trkpt>
      <trkpt lat="46.09301" lon="4.45297">
        <ele>606.4</ele>
        <time>2022-05-08T13:33:03Z</time>
      </trkpt>
      <trkpt lat="46.09259" lon="4.45327">
        <ele>603.2</ele>
        <time>2022-05-08T13:33:07Z</time>
      </trkpt>
      <trkpt lat="46.09214" lon="4.45348">
        <ele>599</ele>
        <time>2022-05-08T13:33:11Z</time>
      </trkpt>
      <trkpt lat="46.09172" lon="4.45366">
        <ele>596.6</ele>
        <time>2022-05-08T13:33:15Z</time>
      </trkpt>
      <trkpt lat="46.0913" lon="4.45353">
        <ele>594</ele>
        <time>2022-05-08T13:33:19Z</time>
      </trkpt>
      <trkpt lat="46.09089" lon="4.45342">
        <ele>591.6</ele>
        <time>2022-05-08T13:33:23Z</time>
      </trkpt>
      <trkpt lat="46.09059" lon="4.45347">
        <ele>590.2</ele>
        <time>2022-05-08T13:33:27Z</time>
      </trkpt>
      <trkpt lat="46.09058" lon="4.45388">
        <ele>587.8</ele>
        <time>2022-05-08T13:33:31Z</time>
      </trkpt>
      <trkpt lat="46.09071" lon="4.45435">
        <ele>581.8</ele>
        <time>2022-05-08T13:33:35Z</time>
      </trkpt>
      <trkpt lat="46.09082" lon="4.45484">
        <ele>578.4</ele>
        <time>2022-05-08T13:33:39Z</time>
      </trkpt>
      <trkpt lat="46.09103" lon="4.45535">
        <ele>575.4</ele>
        <time>2022-05-08T13:33:43Z</time>
      </trkpt>
      <trkpt lat="46.09129" lon="4.45579">
        <ele>574.4</ele>
        <time>2022-05-08T13:33:47Z</time>
      </trkpt>
      <trkpt lat="46.0914" lon="4.4563">
        <ele>571.8</ele>
        <time>2022-05-08T13:33:51Z</time>
      </trkpt>
      <trkpt lat="46.09119" lon="4.45672">
        <ele>568</ele>
        <time>2022-05-08T13:33:55Z</time>
      </trkpt>
      <trkpt lat="46.09082" lon="4.45671">
        <ele>567.4</ele>
        <time>2022-05-08T13:33:59Z</time>
      </trkpt>
      <trkpt lat="46.09042" lon="4.45657">
        <ele>564.4</ele>
        <time>2022-05-08T13:34:03Z</time>
      </trkpt>
      <trkpt lat="46.08998" lon="4.45651">
        <ele>560.4</ele>
        <time>2022-05-08T13:34:07Z</time>
      </trkpt>
      <trkpt lat="46.08956" lon="4.45658">
        <ele>556.4</ele>
        <time>2022-05-08T13:34:11Z</time>
      </trkpt>
      <trkpt lat="46.08913" lon="4.45667">
        <ele>554.2</ele>
        <time>2022-05-08T13:34:15Z</time>
      </trkpt>
      <trkpt lat="46.08872" lon="4.45655">
        <ele>550.6</ele>
        <time>2022-05-08T13:34:19Z</time>
      </trkpt>
      <trkpt lat="46.08838" lon="4.4568">
        <ele>549</ele>
        <time>2022-05-08T13:34:23Z</time>
      </trkpt>
      <trkpt lat="46.08818" lon="4.45734">
        <ele>542.6</ele>
        <time>2022-05-08T13:34:27Z</time>
      </trkpt>
      <trkpt lat="46.08806" lon="4.45795">
        <ele>542.8</ele>
        <time>2022-05-08T13:34:31Z</time>
      </trkpt>
      <trkpt lat="46.08801" lon="4.45859">
        <ele>539.2</ele>
        <time>2022-05-08T13:34:35Z</time>
      </trkpt>
      <trkpt lat="46.0879" lon="4.45918">
        <ele>534</ele>
        <time>2022-05-08T13:34:39Z</time>
      </trkpt>
      <trkpt lat="46.08771" lon="4.45976">
        <ele>531</ele>
        <time>2022-05-08T13:34:43Z</time>
      </trkpt>
      <trkpt lat="46.08747" lon="4.46028">
        <ele>529.8</ele>
        <time>2022-05-08T13:34:47Z</time>
      </trkpt>
      <trkpt lat="46.08705" lon="4.46062">
        <ele>527.2</ele>
        <time>2022-05-08T13:34:51Z</time>
      </trkpt>
      <trkpt lat="46.08661" lon="4.46082">
        <ele>524</ele>
        <time>2022-05-08T13:34:55Z</time>
      </trkpt>
      <trkpt lat="46.08615" lon="4.46079">
        <ele>519.8</ele>
        <time>2022-05-08T13:34:59Z</time>
      </trkpt>
      <trkpt lat="46.08574" lon="4.4607">
        <ele>517.4</ele>
        <time>2022-05-08T13:35:03Z</time>
      </trkpt>
      <trkpt lat="46.08539" lon="4.4603">
        <ele>512.2</ele>
        <time>2022-05-08T13:35:07Z</time>
      </trkpt>
      <trkpt lat="46.08514" lon="4.45989">
        <ele>511.8</ele>
        <time>2022-05-08T13:35:11Z</time>
      </trkpt>
      <trkpt lat="46.08488" lon="4.45998">
        <ele>511.4</ele>
        <time>2022-05-08T13:35:15Z</time>
      </trkpt>
      <trkpt lat="46.08492" lon="4.4604">
        <ele>507.2</ele>
        <time>2022-05-08T13:35:19Z</time>
      </trkpt>
      <trkpt lat="46.08509" lon="4.46086">
        <ele>505.6</ele>
        <time>2022-05-08T13:35:23Z</time>
      </trkpt>
      <trkpt lat="46.08529" lon="4.46134">
        <ele>500.2</ele>
        <time>2022-05-08T13:35:27Z</time>
      </trkpt>
      <trkpt lat="46.08561" lon="4.46171">
        <ele>494.4</ele>
        <time>2022-05-08T13:35:31Z</time>
      </trkpt>
      <trkpt lat="46.08587" lon="4.46221">
        <ele>490.4</ele>
        <time>2022-05-08T13:35:35Z</time>
      </trkpt>
      <trkpt lat="46.08605" lon="4.46278">
        <ele>486.4</ele>
        <time>2022-05-08T13:35:39Z</time>
      </trkpt>
      <trkpt lat="46.08624" lon="4.46333">
        <ele>483</ele>
        <time>2022-05-08T13:35:43Z</time>
      </trkpt>
      <trkpt lat="46.08644" lon="4.46379">
        <ele>481.6</ele>
        <time>2022-05-08T13:35:47Z</time>
      </trkpt>
      <trkpt lat="46.08668" lon="4.46413">
        <ele>476.2</ele>
        <time>2022-05-08T13:35:51Z</time>
      </trkpt>
      <trkpt lat="46.08694" lon="4.46434">
        <ele>475.2</ele>
        <time>2022-05-08T13:35:55Z</time>
      </trkpt>
      <trkpt lat="46.08719" lon="4.46449">
        <ele>474.6</ele>
        <time>2022-05-08T13:35:59Z</time>
      </trkpt>
      <trkpt lat="46.08747" lon="4.4647">
        <ele>469.2</ele>
        <time>2022-05-08T13:36:03Z</time>
      </trkpt>
      <trkpt lat="46.08769" lon="4.46503">
        <ele>466.4</ele>
        <time>2022-05-08T13:36:07Z</time>
      </trkpt>
      <trkpt lat="46.08777" lon="4.4655">
        <ele>462.8</ele>
        <time>2022-05-08T13:36:11Z</time>
      </trkpt>
      <trkpt lat="46.08783" lon="4.46591">
        <ele>463</ele>
        <time>2022-05-08T13:36:15Z</time>
      </trkpt>
      <trkpt lat="46.08783" lon="4.46614">
        <ele>460.4</ele>
        <time>2022-05-08T13:36:19Z</time>
      </trkpt>
      <trkpt lat="46.08773" lon="4.46616">
        <ele>460.6</ele>
        <time>2022-05-08T13:36:23Z</time>
      </trkpt>
      <trkpt lat="46.08761" lon="4.46617">
        <ele>461.6</ele>
        <time>2022-05-08T13:36:27Z</time>
      </trkpt>
      <trkpt lat="46.08751" lon="4.46615">
        <ele>460.8</ele>
        <time>2022-05-08T13:36:31Z</time>
      </trkpt>
      <trkpt lat="46.08736" lon="4.4661">
        <ele>459.6</ele>
        <time>2022-05-08T13:36:35Z</time>
      </trkpt>
      <trkpt lat="46.08722" lon="4.46603">
        <ele>458.6</ele>
        <time>2022-05-08T13:36:39Z</time>
      </trkpt>
      <trkpt lat="46.08708" lon="4.46597">
        <ele>458.2</ele>
        <time>2022-05-08T13:36:43Z</time>
      </trkpt>
      <trkpt lat="46.08689" lon="4.46581">
        <ele>456.8</ele>
        <time>2022-05-08T13:36:47Z</time>
      </trkpt>
      <trkpt lat="46.08666" lon="4.4656">
        <ele>454.2</ele>
        <time>2022-05-08T13:36:51Z</time>
      </trkpt>
      <trkpt lat="46.08642" lon="4.46537">
        <ele>452.6</ele>
        <time>2022-05-08T13:36:55Z</time>
      </trkpt>
      <trkpt lat="46.08617" lon="4.46516">
        <ele>452</ele>
        <time>2022-05-08T13:36:59Z</time>
      </trkpt>
      <trkpt lat="46.08604" lon="4.46505">
        <ele>451.6</ele>
        <time>2022-05-08T13:37:03Z</time>
      </trkpt>
      <trkpt lat="46.08604" lon="4.46505">
        <ele>451.4</ele>
        <time>2022-05-08T13:37:07Z</time>
      </trkpt>
      <trkpt lat="46.08594" lon="4.46495">
        <ele>450.6</ele>
        <time>2022-05-08T13:37:25Z</time>
      </trkpt>
      <trkpt lat="46.08579" lon="4.46486">
        <ele>449.8</ele>
        <time>2022-05-08T13:37:29Z</time>
      </trkpt>
      <trkpt lat="46.08561" lon="4.46474">
        <ele>447.8</ele>
        <time>2022-05-08T13:37:33Z</time>
      </trkpt>
      <trkpt lat="46.0854" lon="4.46463">
        <ele>447</ele>
        <time>2022-05-08T13:37:37Z</time>
      </trkpt>
      <trkpt lat="46.08517" lon="4.46452">
        <ele>445.8</ele>
        <time>2022-05-08T13:37:41Z</time>
      </trkpt>
      <trkpt lat="46.08493" lon="4.46441">
        <ele>444.8</ele>
        <time>2022-05-08T13:37:45Z</time>
      </trkpt>
      <trkpt lat="46.08469" lon="4.46436">
        <ele>442.2</ele>
        <time>2022-05-08T13:37:49Z</time>
      </trkpt>
      <trkpt lat="46.08451" lon="4.46447">
        <ele>440.6</ele>
        <time>2022-05-08T13:37:53Z</time>
      </trkpt>
      <trkpt lat="46.0844" lon="4.46464">
        <ele>440.2</ele>
        <time>2022-05-08T13:37:57Z</time>
      </trkpt>
      <trkpt lat="46.08441" lon="4.46488">
        <ele>440.4</ele>
        <time>2022-05-08T13:38:01Z</time>
      </trkpt>
      <trkpt lat="46.08448" lon="4.4651">
        <ele>440</ele>
        <time>2022-05-08T13:38:05Z</time>
      </trkpt>
      <trkpt lat="46.0846" lon="4.46534">
        <ele>440.4</ele>
        <time>2022-05-08T13:38:09Z</time>
      </trkpt>
      <trkpt lat="46.08473" lon="4.46558">
        <ele>440</ele>
        <time>2022-05-08T13:38:13Z</time>
      </trkpt>
      <trkpt lat="46.08488" lon="4.46581">
        <ele>439.2</ele>
        <time>2022-05-08T13:38:17Z</time>
      </trkpt>
      <trkpt lat="46.08501" lon="4.46605">
        <ele>439.4</ele>
        <time>2022-05-08T13:38:21Z</time>
      </trkpt>
      <trkpt lat="46.08511" lon="4.46625">
        <ele>438.4</ele>
        <time>2022-05-08T13:38:25Z</time>
      </trkpt>
      <trkpt lat="46.08523" lon="4.46639">
        <ele>438.6</ele>
        <time>2022-05-08T13:38:29Z</time>
      </trkpt>
      <trkpt lat="46.08536" lon="4.46657">
        <ele>438</ele>
        <time>2022-05-08T13:38:33Z</time>
      </trkpt>
      <trkpt lat="46.08552" lon="4.46676">
        <ele>436.2</ele>
        <time>2022-05-08T13:38:37Z</time>
      </trkpt>
      <trkpt lat="46.08572" lon="4.46696">
        <ele>436.2</ele>
        <time>2022-05-08T13:38:41Z</time>
      </trkpt>
      <trkpt lat="46.08595" lon="4.4672">
        <ele>432.2</ele>
        <time>2022-05-08T13:38:45Z</time>
      </trkpt>
      <trkpt lat="46.08617" lon="4.46757">
        <ele>428.4</ele>
        <time>2022-05-08T13:38:49Z</time>
      </trkpt>
      <trkpt lat="46.08635" lon="4.46802">
        <ele>427</ele>
        <time>2022-05-08T13:38:53Z</time>
      </trkpt>
      <trkpt lat="46.08643" lon="4.46853">
        <ele>423.4</ele>
        <time>2022-05-08T13:38:57Z</time>
      </trkpt>
      <trkpt lat="46.08646" lon="4.46905">
        <ele>419.8</ele>
        <time>2022-05-08T13:39:01Z</time>
      </trkpt>
      <trkpt lat="46.08646" lon="4.46958">
        <ele>417.6</ele>
        <time>2022-05-08T13:39:05Z</time>
      </trkpt>
      <trkpt lat="46.08643" lon="4.47011">
        <ele>416.4</ele>
        <time>2022-05-08T13:39:09Z</time>
      </trkpt>
      <trkpt lat="46.08637" lon="4.47064">
        <ele>416</ele>
        <time>2022-05-08T13:39:13Z</time>
      </trkpt>
      <trkpt lat="46.08627" lon="4.47116">
        <ele>411.2</ele>
        <time>2022-05-08T13:39:17Z</time>
      </trkpt>
      <trkpt lat="46.08617" lon="4.47166">
        <ele>410</ele>
        <time>2022-05-08T13:39:21Z</time>
      </trkpt>
      <trkpt lat="46.08606" lon="4.47217">
        <ele>412.6</ele>
        <time>2022-05-08T13:39:25Z</time>
      </trkpt>
      <trkpt lat="46.08591" lon="4.47272">
        <ele>408</ele>
        <time>2022-05-08T13:39:29Z</time>
      </trkpt>
      <trkpt lat="46.08568" lon="4.47328">
        <ele>404.6</ele>
        <time>2022-05-08T13:39:33Z</time>
      </trkpt>
      <trkpt lat="46.08538" lon="4.47382">
        <ele>401.2</ele>
        <time>2022-05-08T13:39:37Z</time>
      </trkpt>
      <trkpt lat="46.08513" lon="4.47434">
        <ele>396.8</ele>
        <time>2022-05-08T13:39:41Z</time>
      </trkpt>
      <trkpt lat="46.08503" lon="4.47494">
        <ele>393.8</ele>
        <time>2022-05-08T13:39:45Z</time>
      </trkpt>
      <trkpt lat="46.08507" lon="4.47556">
        <ele>391.6</ele>
        <time>2022-05-08T13:39:49Z</time>
      </trkpt>
      <trkpt lat="46.08514" lon="4.47619">
        <ele>388.4</ele>
        <time>2022-05-08T13:39:53Z</time>
      </trkpt>
      <trkpt lat="46.08522" lon="4.47684">
        <ele>386</ele>
        <time>2022-05-08T13:39:57Z</time>
      </trkpt>
      <trkpt lat="46.08527" lon="4.47751">
        <ele>383.6</ele>
        <time>2022-05-08T13:40:01Z</time>
      </trkpt>
      <trkpt lat="46.0852" lon="4.47821">
        <ele>380.8</ele>
        <time>2022-05-08T13:40:05Z</time>
      </trkpt>
      <trkpt lat="46.08514" lon="4.4789">
        <ele>372.4</ele>
        <time>2022-05-08T13:40:09Z</time>
      </trkpt>
      <trkpt lat="46.08517" lon="4.4796">
        <ele>371</ele>
        <time>2022-05-08T13:40:13Z</time>
      </trkpt>
      <trkpt lat="46.08514" lon="4.48029">
        <ele>369</ele>
        <time>2022-05-08T13:40:17Z</time>
      </trkpt>
      <trkpt lat="46.08507" lon="4.48098">
        <ele>365.6</ele>
        <time>2022-05-08T13:40:21Z</time>
      </trkpt>
      <trkpt lat="46.08488" lon="4.4816">
        <ele>363</ele>
        <time>2022-05-08T13:40:25Z</time>
      </trkpt>
      <trkpt lat="46.08447" lon="4.48194">
        <ele>361.4</ele>
        <time>2022-05-08T13:40:29Z</time>
      </trkpt>
      <trkpt lat="46.08399" lon="4.48207">
        <ele>355</ele>
        <time>2022-05-08T13:40:33Z</time>
      </trkpt>
      <trkpt lat="46.08354" lon="4.48219">
        <ele>356.6</ele>
        <time>2022-05-08T13:40:37Z</time>
      </trkpt>
      <trkpt lat="46.08321" lon="4.4824">
        <ele>358</ele>
        <time>2022-05-08T13:40:41Z</time>
      </trkpt>
      <trkpt lat="46.08307" lon="4.48253">
        <ele>359.4</ele>
        <time>2022-05-08T13:40:45Z</time>
      </trkpt>
      <trkpt lat="46.0829" lon="4.48266">
        <ele>358.4</ele>
        <time>2022-05-08T13:41:18Z</time>
      </trkpt>
      <trkpt lat="46.08272" lon="4.48272">
        <ele>358.4</ele>
        <time>2022-05-08T13:41:22Z</time>
      </trkpt>
      <trkpt lat="46.0825" lon="4.48278">
        <ele>357.4</ele>
        <time>2022-05-08T13:41:26Z</time>
      </trkpt>
      <trkpt lat="46.08226" lon="4.48282">
        <ele>357.8</ele>
        <time>2022-05-08T13:41:30Z</time>
      </trkpt>
      <trkpt lat="46.08199" lon="4.48283">
        <ele>357.2</ele>
        <time>2022-05-08T13:41:34Z</time>
      </trkpt>
      <trkpt lat="46.08171" lon="4.48284">
        <ele>354.2</ele>
        <time>2022-05-08T13:41:38Z</time>
      </trkpt>
      <trkpt lat="46.08146" lon="4.48285">
        <ele>353.8</ele>
        <time>2022-05-08T13:41:42Z</time>
      </trkpt>
      <trkpt lat="46.08121" lon="4.48289">
        <ele>354.2</ele>
        <time>2022-05-08T13:41:46Z</time>
      </trkpt>
      <trkpt lat="46.08097" lon="4.48295">
        <ele>354.2</ele>
        <time>2022-05-08T13:41:50Z</time>
      </trkpt>
      <trkpt lat="46.08073" lon="4.48305">
        <ele>353.6</ele>
        <time>2022-05-08T13:41:54Z</time>
      </trkpt>
      <trkpt lat="46.08049" lon="4.48317">
        <ele>353.4</ele>
        <time>2022-05-08T13:41:58Z</time>
      </trkpt>
      <trkpt lat="46.08028" lon="4.48335">
        <ele>353.8</ele>
        <time>2022-05-08T13:42:02Z</time>
      </trkpt>
      <trkpt lat="46.08006" lon="4.48355">
        <ele>353</ele>
        <time>2022-05-08T13:42:06Z</time>
      </trkpt>
      <trkpt lat="46.07987" lon="4.48376">
        <ele>352.6</ele>
        <time>2022-05-08T13:42:10Z</time>
      </trkpt>
      <trkpt lat="46.07971" lon="4.48401">
        <ele>352.4</ele>
        <time>2022-05-08T13:42:14Z</time>
      </trkpt>
      <trkpt lat="46.07958" lon="4.48424">
        <ele>352.6</ele>
        <time>2022-05-08T13:42:18Z</time>
      </trkpt>
      <trkpt lat="46.07944" lon="4.4845">
        <ele>353.4</ele>
        <time>2022-05-08T13:42:22Z</time>
      </trkpt>
      <trkpt lat="46.07933" lon="4.48478">
        <ele>354.2</ele>
        <time>2022-05-08T13:42:26Z</time>
      </trkpt>
      <trkpt lat="46.07921" lon="4.48505">
        <ele>353.8</ele>
        <time>2022-05-08T13:42:30Z</time>
      </trkpt>
      <trkpt lat="46.0791" lon="4.48535">
        <ele>353.2</ele>
        <time>2022-05-08T13:42:34Z</time>
      </trkpt>
      <trkpt lat="46.07899" lon="4.4856">
        <ele>354.4</ele>
        <time>2022-05-08T13:42:38Z</time>
      </trkpt>
      <trkpt lat="46.07884" lon="4.48583">
        <ele>353.4</ele>
        <time>2022-05-08T13:42:42Z</time>
      </trkpt>
      <trkpt lat="46.07868" lon="4.48604">
        <ele>353</ele>
        <time>2022-05-08T13:42:46Z</time>
      </trkpt>
      <trkpt lat="46.07848" lon="4.48624">
        <ele>353</ele>
        <time>2022-05-08T13:42:50Z</time>
      </trkpt>
      <trkpt lat="46.07828" lon="4.48645">
        <ele>351.6</ele>
        <time>2022-05-08T13:42:54Z</time>
      </trkpt>
      <trkpt lat="46.07807" lon="4.48665">
        <ele>350.8</ele>
        <time>2022-05-08T13:42:58Z</time>
      </trkpt>
      <trkpt lat="46.07784" lon="4.48687">
        <ele>350.6</ele>
        <time>2022-05-08T13:43:02Z</time>
      </trkpt>
      <trkpt lat="46.07762" lon="4.48708">
        <ele>349.8</ele>
        <time>2022-05-08T13:43:06Z</time>
      </trkpt>
      <trkpt lat="46.07739" lon="4.48731">
        <ele>349</ele>
        <time>2022-05-08T13:43:10Z</time>
      </trkpt>
      <trkpt lat="46.07718" lon="4.48753">
        <ele>348.4</ele>
        <time>2022-05-08T13:43:14Z</time>
      </trkpt>
      <trkpt lat="46.07697" lon="4.48775">
        <ele>348.2</ele>
        <time>2022-05-08T13:43:18Z</time>
      </trkpt>
      <trkpt lat="46.07676" lon="4.48798">
        <ele>346.8</ele>
        <time>2022-05-08T13:43:22Z</time>
      </trkpt>
      <trkpt lat="46.07655" lon="4.48822">
        <ele>346</ele>
        <time>2022-05-08T13:43:26Z</time>
      </trkpt>
      <trkpt lat="46.07633" lon="4.48847">
        <ele>344.8</ele>
        <time>2022-05-08T13:43:30Z</time>
      </trkpt>
      <trkpt lat="46.07611" lon="4.48872">
        <ele>344.8</ele>
        <time>2022-05-08T13:43:34Z</time>
      </trkpt>
      <trkpt lat="46.07588" lon="4.48897">
        <ele>344.2</ele>
        <time>2022-05-08T13:43:38Z</time>
      </trkpt>
      <trkpt lat="46.07566" lon="4.48923">
        <ele>344</ele>
        <time>2022-05-08T13:43:42Z</time>
      </trkpt>
      <trkpt lat="46.07543" lon="4.48949">
        <ele>343.6</ele>
        <time>2022-05-08T13:43:46Z</time>
      </trkpt>
      <trkpt lat="46.07522" lon="4.48974">
        <ele>343.2</ele>
        <time>2022-05-08T13:43:50Z</time>
      </trkpt>
      <trkpt lat="46.07501" lon="4.48997">
        <ele>343.8</ele>
        <time>2022-05-08T13:43:54Z</time>
      </trkpt>
      <trkpt lat="46.07479" lon="4.49016">
        <ele>343.6</ele>
        <time>2022-05-08T13:43:58Z</time>
      </trkpt>
      <trkpt lat="46.07463" lon="4.49024">
        <ele>343.6</ele>
        <time>2022-05-08T13:44:02Z</time>
      </trkpt>
      <trkpt lat="46.07454" lon="4.49029">
        <ele>343.4</ele>
        <time>2022-05-08T13:44:06Z</time>
      </trkpt>
      <trkpt lat="46.07457" lon="4.49044">
        <ele>342.6</ele>
        <time>2022-05-08T13:44:10Z</time>
      </trkpt>
      <trkpt lat="46.07461" lon="4.49065">
        <ele>341.6</ele>
        <time>2022-05-08T13:44:14Z</time>
      </trkpt>
      <trkpt lat="46.07464" lon="4.4909">
        <ele>341.8</ele>
        <time>2022-05-08T13:44:18Z</time>
      </trkpt>
      <trkpt lat="46.07462" lon="4.49118">
        <ele>341.4</ele>
        <time>2022-05-08T13:44:22Z</time>
      </trkpt>
      <trkpt lat="46.07446" lon="4.49137">
        <ele>341</ele>
        <time>2022-05-08T13:44:26Z</time>
      </trkpt>
      <trkpt lat="46.07428" lon="4.49148">
        <ele>341.6</ele>
        <time>2022-05-08T13:44:30Z</time>
      </trkpt>
      <trkpt lat="46.0741" lon="4.49158">
        <ele>341.8</ele>
        <time>2022-05-08T13:44:34Z</time>
      </trkpt>
      <trkpt lat="46.07394" lon="4.49168">
        <ele>341.4</ele>
        <time>2022-05-08T13:44:38Z</time>
      </trkpt>
      <trkpt lat="46.07378" lon="4.49179">
        <ele>341.2</ele>
        <time>2022-05-08T13:44:42Z</time>
      </trkpt>
      <trkpt lat="46.07363" lon="4.49192">
        <ele>342</ele>
        <time>2022-05-08T13:44:46Z</time>
      </trkpt>
      <trkpt lat="46.07349" lon="4.49206">
        <ele>341.8</ele>
        <time>2022-05-08T13:44:50Z</time>
      </trkpt>
      <trkpt lat="46.07337" lon="4.49222">
        <ele>342.2</ele>
        <time>2022-05-08T13:44:54Z</time>
      </trkpt>
      <trkpt lat="46.07329" lon="4.49242">
        <ele>342</ele>
        <time>2022-05-08T13:44:58Z</time>
      </trkpt>
      <trkpt lat="46.07326" lon="4.49264">
        <ele>343</ele>
        <time>2022-05-08T13:45:02Z</time>
      </trkpt>
      <trkpt lat="46.07332" lon="4.49286">
        <ele>342.4</ele>
        <time>2022-05-08T13:45:06Z</time>
      </trkpt>
      <trkpt lat="46.0734" lon="4.49302">
        <ele>341.8</ele>
        <time>2022-05-08T13:45:10Z</time>
      </trkpt>
      <trkpt lat="46.07347" lon="4.49318">
        <ele>344.8</ele>
        <time>2022-05-08T13:45:14Z</time>
      </trkpt>
      <trkpt lat="46.07344" lon="4.49329">
        <ele>345.2</ele>
        <time>2022-05-08T13:45:18Z</time>
      </trkpt>
      <trkpt lat="46.07339" lon="4.49338">
        <ele>344.2</ele>
        <time>2022-05-08T13:45:22Z</time>
      </trkpt>
      <trkpt lat="46.07329" lon="4.49365">
        <ele>339.8</ele>
        <time>2022-05-08T13:46:34Z</time>
      </trkpt>
      <trkpt lat="46.07319" lon="4.49388">
        <ele>340.2</ele>
        <time>2022-05-08T13:46:38Z</time>
      </trkpt>
      <trkpt lat="46.0731" lon="4.4941">
        <ele>339.8</ele>
        <time>2022-05-08T13:46:42Z</time>
      </trkpt>
      <trkpt lat="46.07302" lon="4.49432">
        <ele>339.6</ele>
        <time>2022-05-08T13:46:46Z</time>
      </trkpt>
      <trkpt lat="46.07293" lon="4.49447">
        <ele>340.2</ele>
        <time>2022-05-08T13:46:50Z</time>
      </trkpt>
      <trkpt lat="46.07281" lon="4.4946">
        <ele>340</ele>
        <time>2022-05-08T13:46:54Z</time>
      </trkpt>
      <trkpt lat="46.07268" lon="4.49465">
        <ele>340.2</ele>
        <time>2022-05-08T13:46:58Z</time>
      </trkpt>
      <trkpt lat="46.07256" lon="4.49465">
        <ele>340.2</ele>
        <time>2022-05-08T13:47:02Z</time>
      </trkpt>
      <trkpt lat="46.07256" lon="4.49465">
        <ele>340.8</ele>
        <time>2022-05-08T13:47:06Z</time>
      </trkpt>
      <trkpt lat="46.07262" lon="4.4947">
        <ele>339.2</ele>
        <time>2022-05-08T13:47:18Z</time>
      </trkpt>
      <trkpt lat="46.07277" lon="4.49467">
        <ele>338.6</ele>
        <time>2022-05-08T13:47:22Z</time>
      </trkpt>
      <trkpt lat="46.07291" lon="4.49453">
        <ele>338.2</ele>
        <time>2022-05-08T13:47:26Z</time>
      </trkpt>
      <trkpt lat="46.07297" lon="4.49438">
        <ele>338.6</ele>
        <time>2022-05-08T13:47:30Z</time>
      </trkpt>
      <trkpt lat="46.07304" lon="4.49423">
        <ele>339</ele>
        <time>2022-05-08T13:47:34Z</time>
      </trkpt>
      <trkpt lat="46.07311" lon="4.49407">
        <ele>339</ele>
        <time>2022-05-08T13:47:38Z</time>
      </trkpt>
      <trkpt lat="46.07318" lon="4.49391">
        <ele>339.4</ele>
        <time>2022-05-08T13:47:42Z</time>
      </trkpt>
      <trkpt lat="46.07326" lon="4.49375">
        <ele>339.6</ele>
        <time>2022-05-08T13:47:46Z</time>
      </trkpt>
      <trkpt lat="46.07333" lon="4.4936">
        <ele>341.4</ele>
        <time>2022-05-08T13:47:50Z</time>
      </trkpt>
      <trkpt lat="46.07337" lon="4.49349">
        <ele>342</ele>
        <time>2022-05-08T13:47:54Z</time>
      </trkpt>
      <trkpt lat="46.0734" lon="4.4934">
        <ele>342.8</ele>
        <time>2022-05-08T13:47:58Z</time>
      </trkpt>
      <trkpt lat="46.07343" lon="4.49332">
        <ele>343.8</ele>
        <time>2022-05-08T13:48:02Z</time>
      </trkpt>
      <trkpt lat="46.07344" lon="4.49322">
        <ele>343.8</ele>
        <time>2022-05-08T13:48:06Z</time>
      </trkpt>
      <trkpt lat="46.07342" lon="4.4931">
        <ele>343.8</ele>
        <time>2022-05-08T13:48:10Z</time>
      </trkpt>
      <trkpt lat="46.07336" lon="4.49297">
        <ele>343.2</ele>
        <time>2022-05-08T13:48:14Z</time>
      </trkpt>
      <trkpt lat="46.07331" lon="4.49279">
        <ele>342.6</ele>
        <time>2022-05-08T13:48:18Z</time>
      </trkpt>
      <trkpt lat="46.07333" lon="4.49257">
        <ele>342</ele>
        <time>2022-05-08T13:48:22Z</time>
      </trkpt>
      <trkpt lat="46.07341" lon="4.49235">
        <ele>340.4</ele>
        <time>2022-05-08T13:48:26Z</time>
      </trkpt>
      <trkpt lat="46.07352" lon="4.49217">
        <ele>340.2</ele>
        <time>2022-05-08T13:48:30Z</time>
      </trkpt>
      <trkpt lat="46.07366" lon="4.49202">
        <ele>341.2</ele>
        <time>2022-05-08T13:48:34Z</time>
      </trkpt>
      <trkpt lat="46.07381" lon="4.49189">
        <ele>340.6</ele>
        <time>2022-05-08T13:48:38Z</time>
      </trkpt>
      <trkpt lat="46.07396" lon="4.49178">
        <ele>340.6</ele>
        <time>2022-05-08T13:48:42Z</time>
      </trkpt>
      <trkpt lat="46.07411" lon="4.49169">
        <ele>340.8</ele>
        <time>2022-05-08T13:48:46Z</time>
      </trkpt>
      <trkpt lat="46.07426" lon="4.4916">
        <ele>340.6</ele>
        <time>2022-05-08T13:48:50Z</time>
      </trkpt>
      <trkpt lat="46.07441" lon="4.49151">
        <ele>341.4</ele>
        <time>2022-05-08T13:48:54Z</time>
      </trkpt>
      <trkpt lat="46.07456" lon="4.4914">
        <ele>342</ele>
        <time>2022-05-08T13:48:58Z</time>
      </trkpt>
      <trkpt lat="46.07466" lon="4.49121">
        <ele>342.4</ele>
        <time>2022-05-08T13:49:02Z</time>
      </trkpt>
      <trkpt lat="46.07467" lon="4.49098">
        <ele>342.6</ele>
        <time>2022-05-08T13:49:06Z</time>
      </trkpt>
      <trkpt lat="46.07465" lon="4.49077">
        <ele>343.2</ele>
        <time>2022-05-08T13:49:10Z</time>
      </trkpt>
      <trkpt lat="46.07463" lon="4.49057">
        <ele>343.8</ele>
        <time>2022-05-08T13:49:14Z</time>
      </trkpt>
      <trkpt lat="46.07463" lon="4.49041">
        <ele>343.8</ele>
        <time>2022-05-08T13:49:18Z</time>
      </trkpt>
      <trkpt lat="46.07457" lon="4.49031">
        <ele>344</ele>
        <time>2022-05-08T13:49:22Z</time>
      </trkpt>
      <trkpt lat="46.0744" lon="4.49028">
        <ele>343</ele>
        <time>2022-05-08T13:49:26Z</time>
      </trkpt>
      <trkpt lat="46.0742" lon="4.49026">
        <ele>343.4</ele>
        <time>2022-05-08T13:49:30Z</time>
      </trkpt>
      <trkpt lat="46.07401" lon="4.49023">
        <ele>343.6</ele>
        <time>2022-05-08T13:49:34Z</time>
      </trkpt>
      <trkpt lat="46.07379" lon="4.4902">
        <ele>343.2</ele>
        <time>2022-05-08T13:49:38Z</time>
      </trkpt>
      <trkpt lat="46.07357" lon="4.49016">
        <ele>343.4</ele>
        <time>2022-05-08T13:49:42Z</time>
      </trkpt>
      <trkpt lat="46.07335" lon="4.49012">
        <ele>342.6</ele>
        <time>2022-05-08T13:49:46Z</time>
      </trkpt>
      <trkpt lat="46.07313" lon="4.49009">
        <ele>343.2</ele>
        <time>2022-05-08T13:49:50Z</time>
      </trkpt>
      <trkpt lat="46.07291" lon="4.49007">
        <ele>343</ele>
        <time>2022-05-08T13:49:54Z</time>
      </trkpt>
      <trkpt lat="46.07269" lon="4.49006">
        <ele>343.2</ele>
        <time>2022-05-08T13:49:58Z</time>
      </trkpt>
      <trkpt lat="46.07247" lon="4.49005">
        <ele>343.8</ele>
        <time>2022-05-08T13:50:02Z</time>
      </trkpt>
      <trkpt lat="46.07226" lon="4.49003">
        <ele>344.2</ele>
        <time>2022-05-08T13:50:06Z</time>
      </trkpt>
      <trkpt lat="46.07205" lon="4.49004">
        <ele>343.6</ele>
        <time>2022-05-08T13:50:10Z</time>
      </trkpt>
      <trkpt lat="46.07184" lon="4.49007">
        <ele>343.4</ele>
        <time>2022-05-08T13:50:14Z</time>
      </trkpt>
      <trkpt lat="46.07162" lon="4.49014">
        <ele>343.8</ele>
        <time>2022-05-08T13:50:18Z</time>
      </trkpt>
      <trkpt lat="46.07141" lon="4.49021">
        <ele>343</ele>
        <time>2022-05-08T13:50:22Z</time>
      </trkpt>
      <trkpt lat="46.07121" lon="4.49027">
        <ele>343.8</ele>
        <time>2022-05-08T13:50:26Z</time>
      </trkpt>
      <trkpt lat="46.07102" lon="4.49034">
        <ele>344</ele>
        <time>2022-05-08T13:50:30Z</time>
      </trkpt>
      <trkpt lat="46.07081" lon="4.49042">
        <ele>343.8</ele>
        <time>2022-05-08T13:50:34Z</time>
      </trkpt>
      <trkpt lat="46.07061" lon="4.49053">
        <ele>344</ele>
        <time>2022-05-08T13:50:38Z</time>
      </trkpt>
      <trkpt lat="46.07043" lon="4.49061">
        <ele>344</ele>
        <time>2022-05-08T13:50:42Z</time>
      </trkpt>
      <trkpt lat="46.07024" lon="4.49068">
        <ele>344.2</ele>
        <time>2022-05-08T13:50:46Z</time>
      </trkpt>
      <trkpt lat="46.07007" lon="4.49073">
        <ele>345</ele>
        <time>2022-05-08T13:50:50Z</time>
      </trkpt>
      <trkpt lat="46.06989" lon="4.4908">
        <ele>345.4</ele>
        <time>2022-05-08T13:50:54Z</time>
      </trkpt>
      <trkpt lat="46.06973" lon="4.49088">
        <ele>345</ele>
        <time>2022-05-08T13:50:58Z</time>
      </trkpt>
      <trkpt lat="46.06954" lon="4.49097">
        <ele>345.2</ele>
        <time>2022-05-08T13:51:02Z</time>
      </trkpt>
      <trkpt lat="46.06934" lon="4.49107">
        <ele>345.4</ele>
        <time>2022-05-08T13:51:06Z</time>
      </trkpt>
      <trkpt lat="46.06914" lon="4.49116">
        <ele>345.2</ele>
        <time>2022-05-08T13:51:10Z</time>
      </trkpt>
      <trkpt lat="46.06894" lon="4.49126">
        <ele>345</ele>
        <time>2022-05-08T13:51:14Z</time>
      </trkpt>
      <trkpt lat="46.06873" lon="4.49137">
        <ele>344.6</ele>
        <time>2022-05-08T13:51:18Z</time>
      </trkpt>
      <trkpt lat="46.06854" lon="4.49146">
        <ele>344.6</ele>
        <time>2022-05-08T13:51:22Z</time>
      </trkpt>
      <trkpt lat="46.06834" lon="4.49154">
        <ele>343.8</ele>
        <time>2022-05-08T13:51:26Z</time>
      </trkpt>
      <trkpt lat="46.06812" lon="4.49162">
        <ele>343.6</ele>
        <time>2022-05-08T13:51:30Z</time>
      </trkpt>
      <trkpt lat="46.06791" lon="4.49167">
        <ele>343.6</ele>
        <time>2022-05-08T13:51:34Z</time>
      </trkpt>
      <trkpt lat="46.06769" lon="4.49175">
        <ele>343.2</ele>
        <time>2022-05-08T13:51:38Z</time>
      </trkpt>
      <trkpt lat="46.06745" lon="4.49183">
        <ele>341.6</ele>
        <time>2022-05-08T13:51:42Z</time>
      </trkpt>
      <trkpt lat="46.06721" lon="4.49193">
        <ele>341.6</ele>
        <time>2022-05-08T13:51:46Z</time>
      </trkpt>
      <trkpt lat="46.06695" lon="4.49201">
        <ele>340.6</ele>
        <time>2022-05-08T13:51:50Z</time>
      </trkpt>
      <trkpt lat="46.06666" lon="4.4921">
        <ele>339.2</ele>
        <time>2022-05-08T13:51:54Z</time>
      </trkpt>
      <trkpt lat="46.06637" lon="4.49218">
        <ele>338.4</ele>
        <time>2022-05-08T13:51:58Z</time>
      </trkpt>
      <trkpt lat="46.06606" lon="4.4922">
        <ele>338</ele>
        <time>2022-05-08T13:52:02Z</time>
      </trkpt>
      <trkpt lat="46.06572" lon="4.49219">
        <ele>335.8</ele>
        <time>2022-05-08T13:52:06Z</time>
      </trkpt>
      <trkpt lat="46.06537" lon="4.4922">
        <ele>335</ele>
        <time>2022-05-08T13:52:10Z</time>
      </trkpt>
      <trkpt lat="46.06503" lon="4.4922">
        <ele>334.2</ele>
        <time>2022-05-08T13:52:14Z</time>
      </trkpt>
      <trkpt lat="46.06471" lon="4.49227">
        <ele>332.4</ele>
        <time>2022-05-08T13:52:18Z</time>
      </trkpt>
      <trkpt lat="46.06443" lon="4.49238">
        <ele>330.4</ele>
        <time>2022-05-08T13:52:22Z</time>
      </trkpt>
      <trkpt lat="46.06414" lon="4.49242">
        <ele>330.8</ele>
        <time>2022-05-08T13:52:26Z</time>
      </trkpt>
      <trkpt lat="46.06389" lon="4.49228">
        <ele>331.4</ele>
        <time>2022-05-08T13:52:30Z</time>
      </trkpt>
      <trkpt lat="46.06366" lon="4.49204">
        <ele>331.4</ele>
        <time>2022-05-08T13:52:34Z</time>
      </trkpt>
      <trkpt lat="46.06347" lon="4.49191">
        <ele>330.8</ele>
        <time>2022-05-08T13:52:38Z</time>
      </trkpt>
      <trkpt lat="46.06331" lon="4.49213">
        <ele>330</ele>
        <time>2022-05-08T13:52:42Z</time>
      </trkpt>
      <trkpt lat="46.06321" lon="4.49233">
        <ele>331.8</ele>
        <time>2022-05-08T13:52:46Z</time>
      </trkpt>
      <trkpt lat="46.06316" lon="4.4925">
        <ele>332</ele>
        <time>2022-05-08T13:52:50Z</time>
      </trkpt>
      <trkpt lat="46.06314" lon="4.49268">
        <ele>332.2</ele>
        <time>2022-05-08T13:52:54Z</time>
      </trkpt>
      <trkpt lat="46.0632" lon="4.49277">
        <ele>331.2</ele>
        <time>2022-05-08T13:52:58Z</time>
      </trkpt>
      <trkpt lat="46.06332" lon="4.49281">
        <ele>331.8</ele>
        <time>2022-05-08T13:53:16Z</time>
      </trkpt>
      <trkpt lat="46.0634" lon="4.49282">
        <ele>331</ele>
        <time>2022-05-08T13:53:20Z</time>
      </trkpt>
      <trkpt lat="46.06352" lon="4.49284">
        <ele>331.4</ele>
        <time>2022-05-08T13:53:24Z</time>
      </trkpt>
      <trkpt lat="46.06346" lon="4.49285">
        <ele>332.6</ele>
        <time>2022-05-08T14:05:52Z</time>
      </trkpt>
      <trkpt lat="46.06338" lon="4.49279">
        <ele>332.8</ele>
        <time>2022-05-08T14:05:56Z</time>
      </trkpt>
      <trkpt lat="46.06332" lon="4.4927">
        <ele>332.6</ele>
        <time>2022-05-08T14:06:00Z</time>
      </trkpt>
      <trkpt lat="46.06326" lon="4.49263">
        <ele>333.2</ele>
        <time>2022-05-08T14:06:04Z</time>
      </trkpt>
      <trkpt lat="46.06319" lon="4.49259">
        <ele>333.4</ele>
        <time>2022-05-08T14:06:08Z</time>
      </trkpt>
      <trkpt lat="46.06313" lon="4.49264">
        <ele>333.2</ele>
        <time>2022-05-08T14:06:12Z</time>
      </trkpt>
      <trkpt lat="46.06315" lon="4.49278">
        <ele>334</ele>
        <time>2022-05-08T14:06:16Z</time>
      </trkpt>
      <trkpt lat="46.06318" lon="4.49292">
        <ele>333</ele>
        <time>2022-05-08T14:06:20Z</time>
      </trkpt>
      <trkpt lat="46.06324" lon="4.49302">
        <ele>335.2</ele>
        <time>2022-05-08T14:06:24Z</time>
      </trkpt>
      <trkpt lat="46.06329" lon="4.49311">
        <ele>333.6</ele>
        <time>2022-05-08T14:06:28Z</time>
      </trkpt>
      <trkpt lat="46.06335" lon="4.49318">
        <ele>334.4</ele>
        <time>2022-05-08T14:06:32Z</time>
      </trkpt>
      <trkpt lat="46.06341" lon="4.49325">
        <ele>335.8</ele>
        <time>2022-05-08T14:06:36Z</time>
      </trkpt>
      <trkpt lat="46.06348" lon="4.49331">
        <ele>335.8</ele>
        <time>2022-05-08T14:06:40Z</time>
      </trkpt>
      <trkpt lat="46.06355" lon="4.49335">
        <ele>336</ele>
        <time>2022-05-08T14:06:44Z</time>
      </trkpt>
      <trkpt lat="46.06363" lon="4.4934">
        <ele>336.2</ele>
        <time>2022-05-08T14:06:48Z</time>
      </trkpt>
      <trkpt lat="46.06372" lon="4.49344">
        <ele>336</ele>
        <time>2022-05-08T14:06:52Z</time>
      </trkpt>
      <trkpt lat="46.06381" lon="4.49349">
        <ele>336.4</ele>
        <time>2022-05-08T14:06:56Z</time>
      </trkpt>
      <trkpt lat="46.06391" lon="4.49354">
        <ele>338.4</ele>
        <time>2022-05-08T14:07:00Z</time>
      </trkpt>
      <trkpt lat="46.064" lon="4.49359">
        <ele>337.6</ele>
        <time>2022-05-08T14:07:04Z</time>
      </trkpt>
      <trkpt lat="46.06411" lon="4.49365">
        <ele>338</ele>
        <time>2022-05-08T14:07:08Z</time>
      </trkpt>
      <trkpt lat="46.06421" lon="4.4937">
        <ele>338</ele>
        <time>2022-05-08T14:07:12Z</time>
      </trkpt>
      <trkpt lat="46.06431" lon="4.49375">
        <ele>339.4</ele>
        <time>2022-05-08T14:07:16Z</time>
      </trkpt>
      <trkpt lat="46.0644" lon="4.49379">
        <ele>340</ele>
        <time>2022-05-08T14:07:20Z</time>
      </trkpt>
      <trkpt lat="46.06449" lon="4.49384">
        <ele>340</ele>
        <time>2022-05-08T14:07:24Z</time>
      </trkpt>
      <trkpt lat="46.06457" lon="4.49386">
        <ele>340.4</ele>
        <time>2022-05-08T14:07:28Z</time>
      </trkpt>
      <trkpt lat="46.06466" lon="4.49387">
        <ele>341.4</ele>
        <time>2022-05-08T14:07:32Z</time>
      </trkpt>
      <trkpt lat="46.06475" lon="4.49387">
        <ele>341.4</ele>
        <time>2022-05-08T14:07:36Z</time>
      </trkpt>
      <trkpt lat="46.06483" lon="4.49387">
        <ele>342.6</ele>
        <time>2022-05-08T14:07:40Z</time>
      </trkpt>
      <trkpt lat="46.06491" lon="4.49387">
        <ele>343</ele>
        <time>2022-05-08T14:07:44Z</time>
      </trkpt>
      <trkpt lat="46.065" lon="4.49389">
        <ele>343.8</ele>
        <time>2022-05-08T14:07:48Z</time>
      </trkpt>
      <trkpt lat="46.06506" lon="4.49395">
        <ele>344.4</ele>
        <time>2022-05-08T14:07:52Z</time>
      </trkpt>
      <trkpt lat="46.0651" lon="4.49405">
        <ele>345</ele>
        <time>2022-05-08T14:07:56Z</time>
      </trkpt>
      <trkpt lat="46.06511" lon="4.49415">
        <ele>345.6</ele>
        <time>2022-05-08T14:08:00Z</time>
      </trkpt>
      <trkpt lat="46.06508" lon="4.49426">
        <ele>345.6</ele>
        <time>2022-05-08T14:08:04Z</time>
      </trkpt>
      <trkpt lat="46.06504" lon="4.49436">
        <ele>345.6</ele>
        <time>2022-05-08T14:08:08Z</time>
      </trkpt>
      <trkpt lat="46.06495" lon="4.49444">
        <ele>346</ele>
        <time>2022-05-08T14:08:12Z</time>
      </trkpt>
      <trkpt lat="46.06485" lon="4.49444">
        <ele>346.2</ele>
        <time>2022-05-08T14:08:16Z</time>
      </trkpt>
      <trkpt lat="46.06475" lon="4.49442">
        <ele>346.8</ele>
        <time>2022-05-08T14:08:20Z</time>
      </trkpt>
      <trkpt lat="46.06465" lon="4.4944">
        <ele>347</ele>
        <time>2022-05-08T14:08:24Z</time>
      </trkpt>
      <trkpt lat="46.06455" lon="4.49439">
        <ele>347.6</ele>
        <time>2022-05-08T14:08:28Z</time>
      </trkpt>
      <trkpt lat="46.06446" lon="4.49438">
        <ele>348.2</ele>
        <time>2022-05-08T14:08:32Z</time>
      </trkpt>
      <trkpt lat="46.06437" lon="4.49436">
        <ele>348.6</ele>
        <time>2022-05-08T14:08:36Z</time>
      </trkpt>
      <trkpt lat="46.06428" lon="4.49433">
        <ele>349.4</ele>
        <time>2022-05-08T14:08:40Z</time>
      </trkpt>
      <trkpt lat="46.06419" lon="4.49429">
        <ele>349.8</ele>
        <time>2022-05-08T14:08:44Z</time>
      </trkpt>
      <trkpt lat="46.06411" lon="4.49425">
        <ele>350.2</ele>
        <time>2022-05-08T14:08:48Z</time>
      </trkpt>
      <trkpt lat="46.06403" lon="4.4942">
        <ele>350.6</ele>
        <time>2022-05-08T14:08:52Z</time>
      </trkpt>
      <trkpt lat="46.06395" lon="4.49416">
        <ele>351</ele>
        <time>2022-05-08T14:08:56Z</time>
      </trkpt>
      <trkpt lat="46.06387" lon="4.49409">
        <ele>351.8</ele>
        <time>2022-05-08T14:09:00Z</time>
      </trkpt>
      <trkpt lat="46.06379" lon="4.49404">
        <ele>352.2</ele>
        <time>2022-05-08T14:09:04Z</time>
      </trkpt>
      <trkpt lat="46.0637" lon="4.49403">
        <ele>353</ele>
        <time>2022-05-08T14:09:08Z</time>
      </trkpt>
      <trkpt lat="46.0636" lon="4.49399">
        <ele>353.8</ele>
        <time>2022-05-08T14:09:12Z</time>
      </trkpt>
      <trkpt lat="46.06351" lon="4.49399">
        <ele>353.8</ele>
        <time>2022-05-08T14:09:16Z</time>
      </trkpt>
      <trkpt lat="46.06343" lon="4.49401">
        <ele>354.8</ele>
        <time>2022-05-08T14:09:20Z</time>
      </trkpt>
      <trkpt lat="46.06335" lon="4.49404">
        <ele>354.6</ele>
        <time>2022-05-08T14:09:24Z</time>
      </trkpt>
      <trkpt lat="46.06328" lon="4.49408">
        <ele>355.6</ele>
        <time>2022-05-08T14:09:28Z</time>
      </trkpt>
      <trkpt lat="46.06321" lon="4.49413">
        <ele>356.8</ele>
        <time>2022-05-08T14:09:32Z</time>
      </trkpt>
      <trkpt lat="46.06315" lon="4.49419">
        <ele>357</ele>
        <time>2022-05-08T14:09:36Z</time>
      </trkpt>
      <trkpt lat="46.06309" lon="4.49428">
        <ele>357.8</ele>
        <time>2022-05-08T14:09:40Z</time>
      </trkpt>
      <trkpt lat="46.06305" lon="4.49437">
        <ele>357.8</ele>
        <time>2022-05-08T14:09:44Z</time>
      </trkpt>
      <trkpt lat="46.063" lon="4.49447">
        <ele>358.4</ele>
        <time>2022-05-08T14:09:48Z</time>
      </trkpt>
      <trkpt lat="46.06296" lon="4.49456">
        <ele>359</ele>
        <time>2022-05-08T14:09:52Z</time>
      </trkpt>
      <trkpt lat="46.06291" lon="4.49466">
        <ele>359.4</ele>
        <time>2022-05-08T14:09:56Z</time>
      </trkpt>
      <trkpt lat="46.06288" lon="4.49476">
        <ele>359.4</ele>
        <time>2022-05-08T14:10:00Z</time>
      </trkpt>
      <trkpt lat="46.06284" lon="4.49486">
        <ele>359.6</ele>
        <time>2022-05-08T14:10:04Z</time>
      </trkpt>
      <trkpt lat="46.06281" lon="4.49495">
        <ele>360.8</ele>
        <time>2022-05-08T14:10:08Z</time>
      </trkpt>
      <trkpt lat="46.06279" lon="4.49505">
        <ele>361.4</ele>
        <time>2022-05-08T14:10:12Z</time>
      </trkpt>
      <trkpt lat="46.06275" lon="4.49515">
        <ele>361.4</ele>
        <time>2022-05-08T14:10:16Z</time>
      </trkpt>
      <trkpt lat="46.06273" lon="4.49526">
        <ele>362</ele>
        <time>2022-05-08T14:10:20Z</time>
      </trkpt>
      <trkpt lat="46.06271" lon="4.49537">
        <ele>362.6</ele>
        <time>2022-05-08T14:10:24Z</time>
      </trkpt>
      <trkpt lat="46.06269" lon="4.49548">
        <ele>362.8</ele>
        <time>2022-05-08T14:10:28Z</time>
      </trkpt>
      <trkpt lat="46.06267" lon="4.49559">
        <ele>363</ele>
        <time>2022-05-08T14:10:32Z</time>
      </trkpt>
      <trkpt lat="46.06265" lon="4.4957">
        <ele>364.2</ele>
        <time>2022-05-08T14:10:36Z</time>
      </trkpt>
      <trkpt lat="46.06263" lon="4.49581">
        <ele>364.6</ele>
        <time>2022-05-08T14:10:40Z</time>
      </trkpt>
      <trkpt lat="46.06262" lon="4.49591">
        <ele>364.6</ele>
        <time>2022-05-08T14:10:44Z</time>
      </trkpt>
      <trkpt lat="46.0626" lon="4.49602">
        <ele>365.2</ele>
        <time>2022-05-08T14:10:48Z</time>
      </trkpt>
      <trkpt lat="46.06258" lon="4.49612">
        <ele>365.6</ele>
        <time>2022-05-08T14:10:52Z</time>
      </trkpt>
      <trkpt lat="46.06258" lon="4.49623">
        <ele>366</ele>
        <time>2022-05-08T14:10:56Z</time>
      </trkpt>
      <trkpt lat="46.06257" lon="4.49633">
        <ele>366.4</ele>
        <time>2022-05-08T14:11:00Z</time>
      </trkpt>
      <trkpt lat="46.06256" lon="4.49644">
        <ele>367.2</ele>
        <time>2022-05-08T14:11:04Z</time>
      </trkpt>
      <trkpt lat="46.06256" lon="4.49654">
        <ele>367.8</ele>
        <time>2022-05-08T14:11:08Z</time>
      </trkpt>
      <trkpt lat="46.06255" lon="4.49665">
        <ele>367.6</ele>
        <time>2022-05-08T14:11:12Z</time>
      </trkpt>
      <trkpt lat="46.06254" lon="4.49675">
        <ele>368.2</ele>
        <time>2022-05-08T14:11:16Z</time>
      </trkpt>
      <trkpt lat="46.06253" lon="4.49685">
        <ele>369.2</ele>
        <time>2022-05-08T14:11:20Z</time>
      </trkpt>
      <trkpt lat="46.06252" lon="4.49696">
        <ele>369.4</ele>
        <time>2022-05-08T14:11:24Z</time>
      </trkpt>
      <trkpt lat="46.06252" lon="4.49706">
        <ele>370.4</ele>
        <time>2022-05-08T14:11:28Z</time>
      </trkpt>
      <trkpt lat="46.06251" lon="4.49717">
        <ele>371</ele>
        <time>2022-05-08T14:11:32Z</time>
      </trkpt>
      <trkpt lat="46.06251" lon="4.49727">
        <ele>370.8</ele>
        <time>2022-05-08T14:11:36Z</time>
      </trkpt>
      <trkpt lat="46.06251" lon="4.49738">
        <ele>371.6</ele>
        <time>2022-05-08T14:11:40Z</time>
      </trkpt>
      <trkpt lat="46.06252" lon="4.49748">
        <ele>371.6</ele>
        <time>2022-05-08T14:11:44Z</time>
      </trkpt>
      <trkpt lat="46.06252" lon="4.49759">
        <ele>372.2</ele>
        <time>2022-05-08T14:11:48Z</time>
      </trkpt>
      <trkpt lat="46.06253" lon="4.49769">
        <ele>373.6</ele>
        <time>2022-05-08T14:11:52Z</time>
      </trkpt>
      <trkpt lat="46.06253" lon="4.4978">
        <ele>374</ele>
        <time>2022-05-08T14:11:56Z</time>
      </trkpt>
      <trkpt lat="46.06254" lon="4.4979">
        <ele>374.4</ele>
        <time>2022-05-08T14:12:00Z</time>
      </trkpt>
      <trkpt lat="46.06255" lon="4.49801">
        <ele>374.6</ele>
        <time>2022-05-08T14:12:04Z</time>
      </trkpt>
      <trkpt lat="46.06256" lon="4.49812">
        <ele>376.2</ele>
        <time>2022-05-08T14:12:08Z</time>
      </trkpt>
      <trkpt lat="46.06257" lon="4.49823">
        <ele>374.8</ele>
        <time>2022-05-08T14:12:12Z</time>
      </trkpt>
      <trkpt lat="46.06258" lon="4.49833">
        <ele>376.8</ele>
        <time>2022-05-08T14:12:16Z</time>
      </trkpt>
      <trkpt lat="46.06259" lon="4.49843">
        <ele>377.6</ele>
        <time>2022-05-08T14:12:20Z</time>
      </trkpt>
      <trkpt lat="46.06262" lon="4.49852">
        <ele>376.6</ele>
        <time>2022-05-08T14:12:24Z</time>
      </trkpt>
      <trkpt lat="46.06267" lon="4.49861">
        <ele>378</ele>
        <time>2022-05-08T14:12:28Z</time>
      </trkpt>
      <trkpt lat="46.06271" lon="4.49869">
        <ele>378.2</ele>
        <time>2022-05-08T14:12:32Z</time>
      </trkpt>
      <trkpt lat="46.06276" lon="4.49878">
        <ele>379</ele>
        <time>2022-05-08T14:12:36Z</time>
      </trkpt>
      <trkpt lat="46.0628" lon="4.49887">
        <ele>379.8</ele>
        <time>2022-05-08T14:12:40Z</time>
      </trkpt>
      <trkpt lat="46.06283" lon="4.49897">
        <ele>380.2</ele>
        <time>2022-05-08T14:12:44Z</time>
      </trkpt>
      <trkpt lat="46.06285" lon="4.49908">
        <ele>380.6</ele>
        <time>2022-05-08T14:12:48Z</time>
      </trkpt>
      <trkpt lat="46.06285" lon="4.49918">
        <ele>380.8</ele>
        <time>2022-05-08T14:12:52Z</time>
      </trkpt>
      <trkpt lat="46.06283" lon="4.49929">
        <ele>382.2</ele>
        <time>2022-05-08T14:12:56Z</time>
      </trkpt>
      <trkpt lat="46.06281" lon="4.49938">
        <ele>382.8</ele>
        <time>2022-05-08T14:13:00Z</time>
      </trkpt>
      <trkpt lat="46.06279" lon="4.49947">
        <ele>383.2</ele>
        <time>2022-05-08T14:13:04Z</time>
      </trkpt>
      <trkpt lat="46.06277" lon="4.49956">
        <ele>384.2</ele>
        <time>2022-05-08T14:13:08Z</time>
      </trkpt>
      <trkpt lat="46.06274" lon="4.49965">
        <ele>384.2</ele>
        <time>2022-05-08T14:13:12Z</time>
      </trkpt>
      <trkpt lat="46.06273" lon="4.49975">
        <ele>384.2</ele>
        <time>2022-05-08T14:13:16Z</time>
      </trkpt>
      <trkpt lat="46.06273" lon="4.49985">
        <ele>385</ele>
        <time>2022-05-08T14:13:20Z</time>
      </trkpt>
      <trkpt lat="46.06272" lon="4.49995">
        <ele>385.4</ele>
        <time>2022-05-08T14:13:24Z</time>
      </trkpt>
      <trkpt lat="46.06273" lon="4.50005">
        <ele>386.4</ele>
        <time>2022-05-08T14:13:28Z</time>
      </trkpt>
      <trkpt lat="46.06276" lon="4.50015">
        <ele>386.8</ele>
        <time>2022-05-08T14:13:32Z</time>
      </trkpt>
      <trkpt lat="46.06279" lon="4.50024">
        <ele>387</ele>
        <time>2022-05-08T14:13:36Z</time>
      </trkpt>
      <trkpt lat="46.06284" lon="4.50033">
        <ele>388</ele>
        <time>2022-05-08T14:13:40Z</time>
      </trkpt>
      <trkpt lat="46.0629" lon="4.50039">
        <ele>388.2</ele>
        <time>2022-05-08T14:13:44Z</time>
      </trkpt>
      <trkpt lat="46.06296" lon="4.50044">
        <ele>388.8</ele>
        <time>2022-05-08T14:13:48Z</time>
      </trkpt>
      <trkpt lat="46.06302" lon="4.5005">
        <ele>389.6</ele>
        <time>2022-05-08T14:13:52Z</time>
      </trkpt>
      <trkpt lat="46.06308" lon="4.50055">
        <ele>390.2</ele>
        <time>2022-05-08T14:13:56Z</time>
      </trkpt>
      <trkpt lat="46.06313" lon="4.50061">
        <ele>390.6</ele>
        <time>2022-05-08T14:14:00Z</time>
      </trkpt>
      <trkpt lat="46.06319" lon="4.50068">
        <ele>390.6</ele>
        <time>2022-05-08T14:14:04Z</time>
      </trkpt>
      <trkpt lat="46.06323" lon="4.50074">
        <ele>391</ele>
        <time>2022-05-08T14:14:08Z</time>
      </trkpt>
      <trkpt lat="46.06328" lon="4.50082">
        <ele>391.6</ele>
        <time>2022-05-08T14:14:12Z</time>
      </trkpt>
      <trkpt lat="46.06333" lon="4.5009">
        <ele>391.6</ele>
        <time>2022-05-08T14:14:16Z</time>
      </trkpt>
      <trkpt lat="46.06338" lon="4.50097">
        <ele>392.2</ele>
        <time>2022-05-08T14:14:20Z</time>
      </trkpt>
      <trkpt lat="46.06342" lon="4.50106">
        <ele>392.6</ele>
        <time>2022-05-08T14:14:24Z</time>
      </trkpt>
      <trkpt lat="46.06346" lon="4.50113">
        <ele>393.2</ele>
        <time>2022-05-08T14:14:28Z</time>
      </trkpt>
      <trkpt lat="46.06351" lon="4.5012">
        <ele>394</ele>
        <time>2022-05-08T14:14:32Z</time>
      </trkpt>
      <trkpt lat="46.06356" lon="4.50126">
        <ele>394.8</ele>
        <time>2022-05-08T14:14:36Z</time>
      </trkpt>
      <trkpt lat="46.06361" lon="4.50133">
        <ele>395.4</ele>
        <time>2022-05-08T14:14:40Z</time>
      </trkpt>
      <trkpt lat="46.06367" lon="4.50139">
        <ele>395.2</ele>
        <time>2022-05-08T14:14:44Z</time>
      </trkpt>
      <trkpt lat="46.06372" lon="4.50144">
        <ele>395.8</ele>
        <time>2022-05-08T14:14:48Z</time>
      </trkpt>
      <trkpt lat="46.06377" lon="4.50152">
        <ele>396.2</ele>
        <time>2022-05-08T14:14:52Z</time>
      </trkpt>
      <trkpt lat="46.06383" lon="4.50157">
        <ele>397.2</ele>
        <time>2022-05-08T14:14:56Z</time>
      </trkpt>
      <trkpt lat="46.06387" lon="4.50164">
        <ele>397.6</ele>
        <time>2022-05-08T14:15:00Z</time>
      </trkpt>
      <trkpt lat="46.06391" lon="4.50171">
        <ele>398.2</ele>
        <time>2022-05-08T14:15:04Z</time>
      </trkpt>
      <trkpt lat="46.06395" lon="4.5018">
        <ele>397.2</ele>
        <time>2022-05-08T14:15:08Z</time>
      </trkpt>
      <trkpt lat="46.06398" lon="4.50189">
        <ele>398.2</ele>
        <time>2022-05-08T14:15:12Z</time>
      </trkpt>
      <trkpt lat="46.06399" lon="4.502">
        <ele>399.6</ele>
        <time>2022-05-08T14:15:16Z</time>
      </trkpt>
      <trkpt lat="46.06398" lon="4.5021">
        <ele>400</ele>
        <time>2022-05-08T14:15:20Z</time>
      </trkpt>
      <trkpt lat="46.06392" lon="4.50218">
        <ele>400</ele>
        <time>2022-05-08T14:15:24Z</time>
      </trkpt>
      <trkpt lat="46.06385" lon="4.50222">
        <ele>400.8</ele>
        <time>2022-05-08T14:15:28Z</time>
      </trkpt>
      <trkpt lat="46.06377" lon="4.50221">
        <ele>401.8</ele>
        <time>2022-05-08T14:15:32Z</time>
      </trkpt>
      <trkpt lat="46.0637" lon="4.50221">
        <ele>402</ele>
        <time>2022-05-08T14:15:36Z</time>
      </trkpt>
      <trkpt lat="46.06364" lon="4.50221">
        <ele>402.4</ele>
        <time>2022-05-08T14:15:40Z</time>
      </trkpt>
      <trkpt lat="46.06357" lon="4.5022">
        <ele>402.4</ele>
        <time>2022-05-08T14:15:44Z</time>
      </trkpt>
      <trkpt lat="46.0635" lon="4.50218">
        <ele>403</ele>
        <time>2022-05-08T14:15:48Z</time>
      </trkpt>
      <trkpt lat="46.06343" lon="4.50216">
        <ele>403.4</ele>
        <time>2022-05-08T14:15:52Z</time>
      </trkpt>
      <trkpt lat="46.06336" lon="4.50213">
        <ele>404.4</ele>
        <time>2022-05-08T14:15:56Z</time>
      </trkpt>
      <trkpt lat="46.06331" lon="4.50209">
        <ele>404.8</ele>
        <time>2022-05-08T14:16:00Z</time>
      </trkpt>
      <trkpt lat="46.06326" lon="4.50205">
        <ele>405.4</ele>
        <time>2022-05-08T14:16:04Z</time>
      </trkpt>
      <trkpt lat="46.0632" lon="4.50201">
        <ele>405.8</ele>
        <time>2022-05-08T14:16:08Z</time>
      </trkpt>
      <trkpt lat="46.06313" lon="4.50198">
        <ele>405.8</ele>
        <time>2022-05-08T14:16:12Z</time>
      </trkpt>
      <trkpt lat="46.06306" lon="4.50196">
        <ele>406.8</ele>
        <time>2022-05-08T14:16:16Z</time>
      </trkpt>
      <trkpt lat="46.06299" lon="4.50194">
        <ele>407.2</ele>
        <time>2022-05-08T14:16:20Z</time>
      </trkpt>
      <trkpt lat="46.06292" lon="4.50195">
        <ele>407.4</ele>
        <time>2022-05-08T14:16:24Z</time>
      </trkpt>
      <trkpt lat="46.06284" lon="4.50199">
        <ele>407.4</ele>
        <time>2022-05-08T14:16:28Z</time>
      </trkpt>
      <trkpt lat="46.06278" lon="4.50205">
        <ele>409.2</ele>
        <time>2022-05-08T14:16:32Z</time>
      </trkpt>
      <trkpt lat="46.06272" lon="4.50211">
        <ele>409.2</ele>
        <time>2022-05-08T14:16:36Z</time>
      </trkpt>
      <trkpt lat="46.06266" lon="4.50218">
        <ele>409.2</ele>
        <time>2022-05-08T14:16:40Z</time>
      </trkpt>
      <trkpt lat="46.06261" lon="4.50226">
        <ele>410</ele>
        <time>2022-05-08T14:16:44Z</time>
      </trkpt>
      <trkpt lat="46.06257" lon="4.50234">
        <ele>410.4</ele>
        <time>2022-05-08T14:16:48Z</time>
      </trkpt>
      <trkpt lat="46.06253" lon="4.50242">
        <ele>411.2</ele>
        <time>2022-05-08T14:16:52Z</time>
      </trkpt>
      <trkpt lat="46.0625" lon="4.50252">
        <ele>411.4</ele>
        <time>2022-05-08T14:16:56Z</time>
      </trkpt>
      <trkpt lat="46.06247" lon="4.50261">
        <ele>412.2</ele>
        <time>2022-05-08T14:17:00Z</time>
      </trkpt>
      <trkpt lat="46.06244" lon="4.5027">
        <ele>412.4</ele>
        <time>2022-05-08T14:17:04Z</time>
      </trkpt>
      <trkpt lat="46.0624" lon="4.50279">
        <ele>413.2</ele>
        <time>2022-05-08T14:17:08Z</time>
      </trkpt>
      <trkpt lat="46.06238" lon="4.50288">
        <ele>413.4</ele>
        <time>2022-05-08T14:17:12Z</time>
      </trkpt>
      <trkpt lat="46.06236" lon="4.50298">
        <ele>414</ele>
        <time>2022-05-08T14:17:16Z</time>
      </trkpt>
      <trkpt lat="46.06233" lon="4.50307">
        <ele>414</ele>
        <time>2022-05-08T14:17:20Z</time>
      </trkpt>
      <trkpt lat="46.06231" lon="4.50317">
        <ele>415</ele>
        <time>2022-05-08T14:17:24Z</time>
      </trkpt>
      <trkpt lat="46.06229" lon="4.50326">
        <ele>415.6</ele>
        <time>2022-05-08T14:17:28Z</time>
      </trkpt>
      <trkpt lat="46.06226" lon="4.50336">
        <ele>415.6</ele>
        <time>2022-05-08T14:17:32Z</time>
      </trkpt>
      <trkpt lat="46.06223" lon="4.50345">
        <ele>416.4</ele>
        <time>2022-05-08T14:17:36Z</time>
      </trkpt>
      <trkpt lat="46.0622" lon="4.50355">
        <ele>416.8</ele>
        <time>2022-05-08T14:17:40Z</time>
      </trkpt>
      <trkpt lat="46.06218" lon="4.50364">
        <ele>417.8</ele>
        <time>2022-05-08T14:17:44Z</time>
      </trkpt>
      <trkpt lat="46.06216" lon="4.50373">
        <ele>418.2</ele>
        <time>2022-05-08T14:17:48Z</time>
      </trkpt>
      <trkpt lat="46.06215" lon="4.50382">
        <ele>418.6</ele>
        <time>2022-05-08T14:17:52Z</time>
      </trkpt>
      <trkpt lat="46.06213" lon="4.50391">
        <ele>418.8</ele>
        <time>2022-05-08T14:17:56Z</time>
      </trkpt>
      <trkpt lat="46.06211" lon="4.504">
        <ele>419.4</ele>
        <time>2022-05-08T14:18:00Z</time>
      </trkpt>
      <trkpt lat="46.0621" lon="4.50409">
        <ele>419.6</ele>
        <time>2022-05-08T14:18:04Z</time>
      </trkpt>
      <trkpt lat="46.06209" lon="4.50419">
        <ele>420</ele>
        <time>2022-05-08T14:18:08Z</time>
      </trkpt>
      <trkpt lat="46.06207" lon="4.50428">
        <ele>420.6</ele>
        <time>2022-05-08T14:18:12Z</time>
      </trkpt>
      <trkpt lat="46.06207" lon="4.50438">
        <ele>421.4</ele>
        <time>2022-05-08T14:18:16Z</time>
      </trkpt>
      <trkpt lat="46.06206" lon="4.50448">
        <ele>421.2</ele>
        <time>2022-05-08T14:18:20Z</time>
      </trkpt>
      <trkpt lat="46.06204" lon="4.50458">
        <ele>422</ele>
        <time>2022-05-08T14:18:24Z</time>
      </trkpt>
      <trkpt lat="46.06203" lon="4.50469">
        <ele>422.6</ele>
        <time>2022-05-08T14:18:28Z</time>
      </trkpt>
      <trkpt lat="46.06202" lon="4.50479">
        <ele>423.2</ele>
        <time>2022-05-08T14:18:32Z</time>
      </trkpt>
      <trkpt lat="46.06201" lon="4.5049">
        <ele>423.2</ele>
        <time>2022-05-08T14:18:36Z</time>
      </trkpt>
      <trkpt lat="46.062" lon="4.505">
        <ele>423.4</ele>
        <time>2022-05-08T14:18:40Z</time>
      </trkpt>
      <trkpt lat="46.062" lon="4.50511">
        <ele>423.8</ele>
        <time>2022-05-08T14:18:44Z</time>
      </trkpt>
      <trkpt lat="46.062" lon="4.50522">
        <ele>425.2</ele>
        <time>2022-05-08T14:18:48Z</time>
      </trkpt>
      <trkpt lat="46.062" lon="4.50533">
        <ele>425.2</ele>
        <time>2022-05-08T14:18:52Z</time>
      </trkpt>
      <trkpt lat="46.062" lon="4.50545">
        <ele>426.2</ele>
        <time>2022-05-08T14:18:56Z</time>
      </trkpt>
      <trkpt lat="46.062" lon="4.50555">
        <ele>427</ele>
        <time>2022-05-08T14:19:00Z</time>
      </trkpt>
      <trkpt lat="46.06199" lon="4.50563">
        <ele>427.4</ele>
        <time>2022-05-08T14:19:04Z</time>
      </trkpt>
      <trkpt lat="46.06195" lon="4.50572">
        <ele>428</ele>
        <time>2022-05-08T14:19:08Z</time>
      </trkpt>
      <trkpt lat="46.06194" lon="4.50584">
        <ele>428.4</ele>
        <time>2022-05-08T14:19:12Z</time>
      </trkpt>
      <trkpt lat="46.06193" lon="4.50596">
        <ele>429</ele>
        <time>2022-05-08T14:19:16Z</time>
      </trkpt>
      <trkpt lat="46.06193" lon="4.50607">
        <ele>429.8</ele>
        <time>2022-05-08T14:19:20Z</time>
      </trkpt>
      <trkpt lat="46.06194" lon="4.50617">
        <ele>431.2</ele>
        <time>2022-05-08T14:19:24Z</time>
      </trkpt>
      <trkpt lat="46.06194" lon="4.50628">
        <ele>431.6</ele>
        <time>2022-05-08T14:19:28Z</time>
      </trkpt>
      <trkpt lat="46.06193" lon="4.5064">
        <ele>431.8</ele>
        <time>2022-05-08T14:19:32Z</time>
      </trkpt>
      <trkpt lat="46.06192" lon="4.50651">
        <ele>432.2</ele>
        <time>2022-05-08T14:19:36Z</time>
      </trkpt>
      <trkpt lat="46.06191" lon="4.50662">
        <ele>432.6</ele>
        <time>2022-05-08T14:19:40Z</time>
      </trkpt>
      <trkpt lat="46.0619" lon="4.50673">
        <ele>433</ele>
        <time>2022-05-08T14:19:44Z</time>
      </trkpt>
      <trkpt lat="46.06189" lon="4.50684">
        <ele>433.4</ele>
        <time>2022-05-08T14:19:48Z</time>
      </trkpt>
      <trkpt lat="46.06189" lon="4.50694">
        <ele>433.8</ele>
        <time>2022-05-08T14:19:52Z</time>
      </trkpt>
      <trkpt lat="46.0619" lon="4.50704">
        <ele>434.2</ele>
        <time>2022-05-08T14:19:56Z</time>
      </trkpt>
      <trkpt lat="46.06192" lon="4.50714">
        <ele>434.8</ele>
        <time>2022-05-08T14:20:00Z</time>
      </trkpt>
      <trkpt lat="46.06192" lon="4.50726">
        <ele>435</ele>
        <time>2022-05-08T14:20:04Z</time>
      </trkpt>
      <trkpt lat="46.06192" lon="4.50738">
        <ele>435.2</ele>
        <time>2022-05-08T14:20:08Z</time>
      </trkpt>
      <trkpt lat="46.06191" lon="4.5075">
        <ele>436</ele>
        <time>2022-05-08T14:20:12Z</time>
      </trkpt>
      <trkpt lat="46.0619" lon="4.5076">
        <ele>436.2</ele>
        <time>2022-05-08T14:20:16Z</time>
      </trkpt>
      <trkpt lat="46.06189" lon="4.50771">
        <ele>436.8</ele>
        <time>2022-05-08T14:20:20Z</time>
      </trkpt>
      <trkpt lat="46.06187" lon="4.50781">
        <ele>437.4</ele>
        <time>2022-05-08T14:20:24Z</time>
      </trkpt>
      <trkpt lat="46.06185" lon="4.50791">
        <ele>437.8</ele>
        <time>2022-05-08T14:20:28Z</time>
      </trkpt>
      <trkpt lat="46.06183" lon="4.50801">
        <ele>438.2</ele>
        <time>2022-05-08T14:20:32Z</time>
      </trkpt>
      <trkpt lat="46.06181" lon="4.50811">
        <ele>438.8</ele>
        <time>2022-05-08T14:20:36Z</time>
      </trkpt>
      <trkpt lat="46.06178" lon="4.5082">
        <ele>439.4</ele>
        <time>2022-05-08T14:20:40Z</time>
      </trkpt>
      <trkpt lat="46.06176" lon="4.5083">
        <ele>440</ele>
        <time>2022-05-08T14:20:44Z</time>
      </trkpt>
      <trkpt lat="46.06173" lon="4.50839">
        <ele>440.6</ele>
        <time>2022-05-08T14:20:48Z</time>
      </trkpt>
      <trkpt lat="46.06172" lon="4.50849">
        <ele>441.6</ele>
        <time>2022-05-08T14:20:52Z</time>
      </trkpt>
      <trkpt lat="46.0617" lon="4.50859">
        <ele>441.8</ele>
        <time>2022-05-08T14:20:56Z</time>
      </trkpt>
      <trkpt lat="46.06168" lon="4.50869">
        <ele>442</ele>
        <time>2022-05-08T14:21:00Z</time>
      </trkpt>
      <trkpt lat="46.06166" lon="4.50878">
        <ele>443.4</ele>
        <time>2022-05-08T14:21:04Z</time>
      </trkpt>
      <trkpt lat="46.06165" lon="4.50889">
        <ele>443.8</ele>
        <time>2022-05-08T14:21:08Z</time>
      </trkpt>
      <trkpt lat="46.06164" lon="4.50899">
        <ele>444.2</ele>
        <time>2022-05-08T14:21:12Z</time>
      </trkpt>
      <trkpt lat="46.06162" lon="4.50908">
        <ele>445.2</ele>
        <time>2022-05-08T14:21:16Z</time>
      </trkpt>
      <trkpt lat="46.06162" lon="4.50917">
        <ele>446</ele>
        <time>2022-05-08T14:21:20Z</time>
      </trkpt>
      <trkpt lat="46.06162" lon="4.50927">
        <ele>446.2</ele>
        <time>2022-05-08T14:21:24Z</time>
      </trkpt>
      <trkpt lat="46.06161" lon="4.50936">
        <ele>446</ele>
        <time>2022-05-08T14:21:28Z</time>
      </trkpt>
      <trkpt lat="46.0616" lon="4.50947">
        <ele>446.6</ele>
        <time>2022-05-08T14:21:32Z</time>
      </trkpt>
      <trkpt lat="46.06159" lon="4.50956">
        <ele>446.8</ele>
        <time>2022-05-08T14:21:36Z</time>
      </trkpt>
      <trkpt lat="46.06159" lon="4.50966">
        <ele>447.6</ele>
        <time>2022-05-08T14:21:40Z</time>
      </trkpt>
      <trkpt lat="46.06159" lon="4.50976">
        <ele>448.2</ele>
        <time>2022-05-08T14:21:44Z</time>
      </trkpt>
      <trkpt lat="46.06158" lon="4.50986">
        <ele>448.8</ele>
        <time>2022-05-08T14:21:48Z</time>
      </trkpt>
      <trkpt lat="46.06159" lon="4.50994">
        <ele>448.2</ele>
        <time>2022-05-08T14:21:52Z</time>
      </trkpt>
      <trkpt lat="46.06159" lon="4.51003">
        <ele>449</ele>
        <time>2022-05-08T14:21:56Z</time>
      </trkpt>
      <trkpt lat="46.06159" lon="4.51012">
        <ele>449.4</ele>
        <time>2022-05-08T14:22:00Z</time>
      </trkpt>
      <trkpt lat="46.06159" lon="4.51021">
        <ele>449.8</ele>
        <time>2022-05-08T14:22:04Z</time>
      </trkpt>
      <trkpt lat="46.06159" lon="4.51029">
        <ele>450.2</ele>
        <time>2022-05-08T14:22:08Z</time>
      </trkpt>
      <trkpt lat="46.06159" lon="4.51038">
        <ele>450.2</ele>
        <time>2022-05-08T14:22:12Z</time>
      </trkpt>
      <trkpt lat="46.06157" lon="4.51049">
        <ele>451.6</ele>
        <time>2022-05-08T14:22:16Z</time>
      </trkpt>
      <trkpt lat="46.06156" lon="4.51059">
        <ele>451.8</ele>
        <time>2022-05-08T14:22:20Z</time>
      </trkpt>
      <trkpt lat="46.06155" lon="4.5107">
        <ele>452</ele>
        <time>2022-05-08T14:22:24Z</time>
      </trkpt>
      <trkpt lat="46.06154" lon="4.5108">
        <ele>452.2</ele>
        <time>2022-05-08T14:22:28Z</time>
      </trkpt>
      <trkpt lat="46.06154" lon="4.51092">
        <ele>452.6</ele>
        <time>2022-05-08T14:22:32Z</time>
      </trkpt>
      <trkpt lat="46.06153" lon="4.51103">
        <ele>453.2</ele>
        <time>2022-05-08T14:22:36Z</time>
      </trkpt>
      <trkpt lat="46.06153" lon="4.51112">
        <ele>454</ele>
        <time>2022-05-08T14:22:40Z</time>
      </trkpt>
      <trkpt lat="46.06152" lon="4.51121">
        <ele>455.2</ele>
        <time>2022-05-08T14:22:44Z</time>
      </trkpt>
      <trkpt lat="46.06152" lon="4.51131">
        <ele>455</ele>
        <time>2022-05-08T14:22:48Z</time>
      </trkpt>
      <trkpt lat="46.06154" lon="4.51142">
        <ele>455.2</ele>
        <time>2022-05-08T14:22:52Z</time>
      </trkpt>
      <trkpt lat="46.06155" lon="4.51152">
        <ele>455.6</ele>
        <time>2022-05-08T14:22:56Z</time>
      </trkpt>
      <trkpt lat="46.06158" lon="4.51162">
        <ele>456.4</ele>
        <time>2022-05-08T14:23:00Z</time>
      </trkpt>
      <trkpt lat="46.0616" lon="4.51172">
        <ele>456.8</ele>
        <time>2022-05-08T14:23:04Z</time>
      </trkpt>
      <trkpt lat="46.06164" lon="4.51181">
        <ele>457.2</ele>
        <time>2022-05-08T14:23:08Z</time>
      </trkpt>
      <trkpt lat="46.06168" lon="4.5119">
        <ele>457.4</ele>
        <time>2022-05-08T14:23:12Z</time>
      </trkpt>
      <trkpt lat="46.06174" lon="4.51199">
        <ele>458.2</ele>
        <time>2022-05-08T14:23:16Z</time>
      </trkpt>
      <trkpt lat="46.06179" lon="4.51206">
        <ele>458.4</ele>
        <time>2022-05-08T14:23:20Z</time>
      </trkpt>
      <trkpt lat="46.06184" lon="4.51212">
        <ele>459.4</ele>
        <time>2022-05-08T14:23:24Z</time>
      </trkpt>
      <trkpt lat="46.0619" lon="4.51217">
        <ele>460.4</ele>
        <time>2022-05-08T14:23:28Z</time>
      </trkpt>
      <trkpt lat="46.06196" lon="4.51222">
        <ele>460.4</ele>
        <time>2022-05-08T14:23:32Z</time>
      </trkpt>
      <trkpt lat="46.06201" lon="4.51228">
        <ele>461.4</ele>
        <time>2022-05-08T14:23:36Z</time>
      </trkpt>
      <trkpt lat="46.06206" lon="4.51233">
        <ele>461.4</ele>
        <time>2022-05-08T14:23:40Z</time>
      </trkpt>
      <trkpt lat="46.06212" lon="4.51239">
        <ele>461.6</ele>
        <time>2022-05-08T14:23:44Z</time>
      </trkpt>
      <trkpt lat="46.06216" lon="4.51244">
        <ele>462.6</ele>
        <time>2022-05-08T14:23:48Z</time>
      </trkpt>
      <trkpt lat="46.06222" lon="4.5125">
        <ele>463</ele>
        <time>2022-05-08T14:23:52Z</time>
      </trkpt>
      <trkpt lat="46.06227" lon="4.51255">
        <ele>463</ele>
        <time>2022-05-08T14:23:56Z</time>
      </trkpt>
      <trkpt lat="46.06233" lon="4.5126">
        <ele>464.2</ele>
        <time>2022-05-08T14:24:00Z</time>
      </trkpt>
      <trkpt lat="46.06238" lon="4.51266">
        <ele>464.2</ele>
        <time>2022-05-08T14:24:04Z</time>
      </trkpt>
      <trkpt lat="46.06244" lon="4.51272">
        <ele>465.2</ele>
        <time>2022-05-08T14:24:08Z</time>
      </trkpt>
      <trkpt lat="46.0625" lon="4.51276">
        <ele>465.4</ele>
        <time>2022-05-08T14:24:12Z</time>
      </trkpt>
      <trkpt lat="46.06254" lon="4.51281">
        <ele>466</ele>
        <time>2022-05-08T14:24:16Z</time>
      </trkpt>
      <trkpt lat="46.0626" lon="4.51287">
        <ele>467</ele>
        <time>2022-05-08T14:24:20Z</time>
      </trkpt>
      <trkpt lat="46.06265" lon="4.51292">
        <ele>467.2</ele>
        <time>2022-05-08T14:24:24Z</time>
      </trkpt>
      <trkpt lat="46.06271" lon="4.51301">
        <ele>468</ele>
        <time>2022-05-08T14:24:28Z</time>
      </trkpt>
      <trkpt lat="46.06277" lon="4.51308">
        <ele>468.4</ele>
        <time>2022-05-08T14:24:32Z</time>
      </trkpt>
      <trkpt lat="46.06283" lon="4.51316">
        <ele>468.2</ele>
        <time>2022-05-08T14:24:36Z</time>
      </trkpt>
      <trkpt lat="46.06288" lon="4.51324">
        <ele>469.2</ele>
        <time>2022-05-08T14:24:40Z</time>
      </trkpt>
      <trkpt lat="46.06293" lon="4.51333">
        <ele>469.6</ele>
        <time>2022-05-08T14:24:44Z</time>
      </trkpt>
      <trkpt lat="46.06297" lon="4.51343">
        <ele>469.4</ele>
        <time>2022-05-08T14:24:48Z</time>
      </trkpt>
      <trkpt lat="46.063" lon="4.51351">
        <ele>470.4</ele>
        <time>2022-05-08T14:24:52Z</time>
      </trkpt>
      <trkpt lat="46.06301" lon="4.51361">
        <ele>470.2</ele>
        <time>2022-05-08T14:24:56Z</time>
      </trkpt>
      <trkpt lat="46.06299" lon="4.51369">
        <ele>469.4</ele>
        <time>2022-05-08T14:25:00Z</time>
      </trkpt>
      <trkpt lat="46.06296" lon="4.51376">
        <ele>470.4</ele>
        <time>2022-05-08T14:25:04Z</time>
      </trkpt>
      <trkpt lat="46.06291" lon="4.5138">
        <ele>472</ele>
        <time>2022-05-08T14:25:08Z</time>
      </trkpt>
      <trkpt lat="46.06285" lon="4.51382">
        <ele>472.2</ele>
        <time>2022-05-08T14:25:12Z</time>
      </trkpt>
      <trkpt lat="46.06279" lon="4.51382">
        <ele>472.4</ele>
        <time>2022-05-08T14:25:16Z</time>
      </trkpt>
      <trkpt lat="46.06273" lon="4.51381">
        <ele>473.8</ele>
        <time>2022-05-08T14:25:20Z</time>
      </trkpt>
      <trkpt lat="46.06267" lon="4.5138">
        <ele>473</ele>
        <time>2022-05-08T14:25:24Z</time>
      </trkpt>
      <trkpt lat="46.0626" lon="4.5138">
        <ele>474.4</ele>
        <time>2022-05-08T14:25:28Z</time>
      </trkpt>
      <trkpt lat="46.06254" lon="4.51379">
        <ele>474.2</ele>
        <time>2022-05-08T14:25:32Z</time>
      </trkpt>
      <trkpt lat="46.06247" lon="4.51379">
        <ele>475.6</ele>
        <time>2022-05-08T14:25:36Z</time>
      </trkpt>
      <trkpt lat="46.0624" lon="4.51379">
        <ele>475.6</ele>
        <time>2022-05-08T14:25:40Z</time>
      </trkpt>
      <trkpt lat="46.06233" lon="4.5138">
        <ele>475.8</ele>
        <time>2022-05-08T14:25:44Z</time>
      </trkpt>
      <trkpt lat="46.06227" lon="4.51381">
        <ele>476.6</ele>
        <time>2022-05-08T14:25:48Z</time>
      </trkpt>
      <trkpt lat="46.0622" lon="4.51383">
        <ele>477.2</ele>
        <time>2022-05-08T14:25:52Z</time>
      </trkpt>
      <trkpt lat="46.06214" lon="4.51385">
        <ele>477.2</ele>
        <time>2022-05-08T14:25:56Z</time>
      </trkpt>
      <trkpt lat="46.06207" lon="4.51388">
        <ele>478.6</ele>
        <time>2022-05-08T14:26:00Z</time>
      </trkpt>
      <trkpt lat="46.06201" lon="4.51393">
        <ele>478.8</ele>
        <time>2022-05-08T14:26:04Z</time>
      </trkpt>
      <trkpt lat="46.06194" lon="4.51397">
        <ele>479.8</ele>
        <time>2022-05-08T14:26:08Z</time>
      </trkpt>
      <trkpt lat="46.06189" lon="4.51402">
        <ele>480</ele>
        <time>2022-05-08T14:26:12Z</time>
      </trkpt>
      <trkpt lat="46.06184" lon="4.51408">
        <ele>480.6</ele>
        <time>2022-05-08T14:26:16Z</time>
      </trkpt>
      <trkpt lat="46.0618" lon="4.51415">
        <ele>481</ele>
        <time>2022-05-08T14:26:20Z</time>
      </trkpt>
      <trkpt lat="46.06175" lon="4.51423">
        <ele>482</ele>
        <time>2022-05-08T14:26:24Z</time>
      </trkpt>
      <trkpt lat="46.0617" lon="4.51431">
        <ele>481.8</ele>
        <time>2022-05-08T14:26:28Z</time>
      </trkpt>
      <trkpt lat="46.06165" lon="4.51438">
        <ele>482.2</ele>
        <time>2022-05-08T14:26:32Z</time>
      </trkpt>
      <trkpt lat="46.06162" lon="4.51445">
        <ele>482.8</ele>
        <time>2022-05-08T14:26:36Z</time>
      </trkpt>
      <trkpt lat="46.06157" lon="4.51453">
        <ele>483.2</ele>
        <time>2022-05-08T14:26:40Z</time>
      </trkpt>
      <trkpt lat="46.06153" lon="4.51461">
        <ele>484.2</ele>
        <time>2022-05-08T14:26:44Z</time>
      </trkpt>
      <trkpt lat="46.06148" lon="4.51469">
        <ele>484.6</ele>
        <time>2022-05-08T14:26:48Z</time>
      </trkpt>
      <trkpt lat="46.06144" lon="4.51479">
        <ele>485.2</ele>
        <time>2022-05-08T14:26:52Z</time>
      </trkpt>
      <trkpt lat="46.0614" lon="4.51487">
        <ele>485.6</ele>
        <time>2022-05-08T14:26:56Z</time>
      </trkpt>
      <trkpt lat="46.06136" lon="4.51496">
        <ele>486.2</ele>
        <time>2022-05-08T14:27:00Z</time>
      </trkpt>
      <trkpt lat="46.06132" lon="4.51503">
        <ele>486.4</ele>
        <time>2022-05-08T14:27:04Z</time>
      </trkpt>
      <trkpt lat="46.06128" lon="4.51511">
        <ele>486.6</ele>
        <time>2022-05-08T14:27:08Z</time>
      </trkpt>
      <trkpt lat="46.06124" lon="4.51519">
        <ele>487.4</ele>
        <time>2022-05-08T14:27:12Z</time>
      </trkpt>
      <trkpt lat="46.0612" lon="4.51526">
        <ele>488</ele>
        <time>2022-05-08T14:27:16Z</time>
      </trkpt>
      <trkpt lat="46.06116" lon="4.51533">
        <ele>488.6</ele>
        <time>2022-05-08T14:27:20Z</time>
      </trkpt>
      <trkpt lat="46.06112" lon="4.51542">
        <ele>488.8</ele>
        <time>2022-05-08T14:27:24Z</time>
      </trkpt>
      <trkpt lat="46.06108" lon="4.5155">
        <ele>489.8</ele>
        <time>2022-05-08T14:27:28Z</time>
      </trkpt>
      <trkpt lat="46.06105" lon="4.51559">
        <ele>490</ele>
        <time>2022-05-08T14:27:32Z</time>
      </trkpt>
      <trkpt lat="46.06102" lon="4.51568">
        <ele>490.8</ele>
        <time>2022-05-08T14:27:36Z</time>
      </trkpt>
      <trkpt lat="46.061" lon="4.51577">
        <ele>491</ele>
        <time>2022-05-08T14:27:40Z</time>
      </trkpt>
      <trkpt lat="46.06097" lon="4.51586">
        <ele>491.8</ele>
        <time>2022-05-08T14:27:44Z</time>
      </trkpt>
      <trkpt lat="46.06094" lon="4.51595">
        <ele>491.8</ele>
        <time>2022-05-08T14:27:48Z</time>
      </trkpt>
      <trkpt lat="46.06092" lon="4.51604">
        <ele>492</ele>
        <time>2022-05-08T14:27:52Z</time>
      </trkpt>
      <trkpt lat="46.0609" lon="4.51613">
        <ele>493</ele>
        <time>2022-05-08T14:27:56Z</time>
      </trkpt>
      <trkpt lat="46.06087" lon="4.51623">
        <ele>493.2</ele>
        <time>2022-05-08T14:28:00Z</time>
      </trkpt>
      <trkpt lat="46.06085" lon="4.51633">
        <ele>493.4</ele>
        <time>2022-05-08T14:28:04Z</time>
      </trkpt>
      <trkpt lat="46.06084" lon="4.51643">
        <ele>494.2</ele>
        <time>2022-05-08T14:28:08Z</time>
      </trkpt>
      <trkpt lat="46.06083" lon="4.51653">
        <ele>494</ele>
        <time>2022-05-08T14:28:12Z</time>
      </trkpt>
      <trkpt lat="46.06082" lon="4.51662">
        <ele>495</ele>
        <time>2022-05-08T14:28:16Z</time>
      </trkpt>
      <trkpt lat="46.0608" lon="4.51688">
        <ele>496.4</ele>
        <time>2022-05-08T14:29:31Z</time>
      </trkpt>
      <trkpt lat="46.0608" lon="4.51698">
        <ele>496.6</ele>
        <time>2022-05-08T14:29:35Z</time>
      </trkpt>
      <trkpt lat="46.06081" lon="4.51708">
        <ele>497.4</ele>
        <time>2022-05-08T14:29:39Z</time>
      </trkpt>
      <trkpt lat="46.06082" lon="4.51718">
        <ele>497.4</ele>
        <time>2022-05-08T14:29:43Z</time>
      </trkpt>
      <trkpt lat="46.06084" lon="4.51727">
        <ele>498.2</ele>
        <time>2022-05-08T14:29:47Z</time>
      </trkpt>
      <trkpt lat="46.06086" lon="4.51737">
        <ele>498.8</ele>
        <time>2022-05-08T14:29:51Z</time>
      </trkpt>
      <trkpt lat="46.06089" lon="4.51746">
        <ele>499.2</ele>
        <time>2022-05-08T14:29:55Z</time>
      </trkpt>
      <trkpt lat="46.06091" lon="4.51756">
        <ele>499.6</ele>
        <time>2022-05-08T14:29:59Z</time>
      </trkpt>
      <trkpt lat="46.06093" lon="4.51765">
        <ele>499.8</ele>
        <time>2022-05-08T14:30:03Z</time>
      </trkpt>
      <trkpt lat="46.06095" lon="4.51775">
        <ele>500.2</ele>
        <time>2022-05-08T14:30:07Z</time>
      </trkpt>
      <trkpt lat="46.06097" lon="4.51784">
        <ele>500.8</ele>
        <time>2022-05-08T14:30:11Z</time>
      </trkpt>
      <trkpt lat="46.061" lon="4.51794">
        <ele>500.8</ele>
        <time>2022-05-08T14:30:15Z</time>
      </trkpt>
      <trkpt lat="46.06103" lon="4.51803">
        <ele>501.4</ele>
        <time>2022-05-08T14:30:19Z</time>
      </trkpt>
      <trkpt lat="46.06105" lon="4.51812">
        <ele>501.6</ele>
        <time>2022-05-08T14:30:23Z</time>
      </trkpt>
      <trkpt lat="46.06108" lon="4.51821">
        <ele>502.6</ele>
        <time>2022-05-08T14:30:27Z</time>
      </trkpt>
      <trkpt lat="46.06111" lon="4.5183">
        <ele>503</ele>
        <time>2022-05-08T14:30:31Z</time>
      </trkpt>
      <trkpt lat="46.06115" lon="4.5184">
        <ele>503.8</ele>
        <time>2022-05-08T14:30:35Z</time>
      </trkpt>
      <trkpt lat="46.06118" lon="4.51849">
        <ele>504</ele>
        <time>2022-05-08T14:30:39Z</time>
      </trkpt>
      <trkpt lat="46.06122" lon="4.51857">
        <ele>504.8</ele>
        <time>2022-05-08T14:30:43Z</time>
      </trkpt>
      <trkpt lat="46.06126" lon="4.51866">
        <ele>505.2</ele>
        <time>2022-05-08T14:30:47Z</time>
      </trkpt>
      <trkpt lat="46.0613" lon="4.51874">
        <ele>505.4</ele>
        <time>2022-05-08T14:30:51Z</time>
      </trkpt>
      <trkpt lat="46.06135" lon="4.51882">
        <ele>506.2</ele>
        <time>2022-05-08T14:30:55Z</time>
      </trkpt>
      <trkpt lat="46.06139" lon="4.5189">
        <ele>507</ele>
        <time>2022-05-08T14:30:59Z</time>
      </trkpt>
      <trkpt lat="46.06143" lon="4.51899">
        <ele>507</ele>
        <time>2022-05-08T14:31:03Z</time>
      </trkpt>
      <trkpt lat="46.06146" lon="4.51908">
        <ele>508.2</ele>
        <time>2022-05-08T14:31:07Z</time>
      </trkpt>
      <trkpt lat="46.06148" lon="4.51918">
        <ele>508.6</ele>
        <time>2022-05-08T14:31:11Z</time>
      </trkpt>
      <trkpt lat="46.0615" lon="4.51927">
        <ele>509.8</ele>
        <time>2022-05-08T14:31:15Z</time>
      </trkpt>
      <trkpt lat="46.06151" lon="4.51937">
        <ele>510.2</ele>
        <time>2022-05-08T14:31:19Z</time>
      </trkpt>
      <trkpt lat="46.06152" lon="4.51946">
        <ele>511</ele>
        <time>2022-05-08T14:31:23Z</time>
      </trkpt>
      <trkpt lat="46.06153" lon="4.51955">
        <ele>511.8</ele>
        <time>2022-05-08T14:31:27Z</time>
      </trkpt>
      <trkpt lat="46.06155" lon="4.51965">
        <ele>512.2</ele>
        <time>2022-05-08T14:31:31Z</time>
      </trkpt>
      <trkpt lat="46.06157" lon="4.51974">
        <ele>512.6</ele>
        <time>2022-05-08T14:31:35Z</time>
      </trkpt>
      <trkpt lat="46.06161" lon="4.51983">
        <ele>513.2</ele>
        <time>2022-05-08T14:31:39Z</time>
      </trkpt>
      <trkpt lat="46.06165" lon="4.51992">
        <ele>513.2</ele>
        <time>2022-05-08T14:31:43Z</time>
      </trkpt>
      <trkpt lat="46.06169" lon="4.52">
        <ele>514</ele>
        <time>2022-05-08T14:31:47Z</time>
      </trkpt>
      <trkpt lat="46.06173" lon="4.52007">
        <ele>514.4</ele>
        <time>2022-05-08T14:31:51Z</time>
      </trkpt>
      <trkpt lat="46.06178" lon="4.52014">
        <ele>514.8</ele>
        <time>2022-05-08T14:31:55Z</time>
      </trkpt>
      <trkpt lat="46.06183" lon="4.52021">
        <ele>514.2</ele>
        <time>2022-05-08T14:31:59Z</time>
      </trkpt>
      <trkpt lat="46.06188" lon="4.5203">
        <ele>514.8</ele>
        <time>2022-05-08T14:32:03Z</time>
      </trkpt>
      <trkpt lat="46.0619" lon="4.5204">
        <ele>515.6</ele>
        <time>2022-05-08T14:32:07Z</time>
      </trkpt>
      <trkpt lat="46.06189" lon="4.52049">
        <ele>516.2</ele>
        <time>2022-05-08T14:32:11Z</time>
      </trkpt>
      <trkpt lat="46.06187" lon="4.52058">
        <ele>516.4</ele>
        <time>2022-05-08T14:32:15Z</time>
      </trkpt>
      <trkpt lat="46.06184" lon="4.52067">
        <ele>516.6</ele>
        <time>2022-05-08T14:32:19Z</time>
      </trkpt>
      <trkpt lat="46.06181" lon="4.52076">
        <ele>517.2</ele>
        <time>2022-05-08T14:32:23Z</time>
      </trkpt>
      <trkpt lat="46.06178" lon="4.52085">
        <ele>518</ele>
        <time>2022-05-08T14:32:27Z</time>
      </trkpt>
      <trkpt lat="46.06175" lon="4.52093">
        <ele>518.6</ele>
        <time>2022-05-08T14:32:31Z</time>
      </trkpt>
      <trkpt lat="46.06172" lon="4.52103">
        <ele>519</ele>
        <time>2022-05-08T14:32:35Z</time>
      </trkpt>
      <trkpt lat="46.0617" lon="4.52112">
        <ele>519.2</ele>
        <time>2022-05-08T14:32:39Z</time>
      </trkpt>
      <trkpt lat="46.06167" lon="4.52121">
        <ele>519.8</ele>
        <time>2022-05-08T14:32:43Z</time>
      </trkpt>
      <trkpt lat="46.06166" lon="4.52131">
        <ele>520</ele>
        <time>2022-05-08T14:32:47Z</time>
      </trkpt>
      <trkpt lat="46.06165" lon="4.52141">
        <ele>520.8</ele>
        <time>2022-05-08T14:32:51Z</time>
      </trkpt>
      <trkpt lat="46.06165" lon="4.52151">
        <ele>521</ele>
        <time>2022-05-08T14:32:55Z</time>
      </trkpt>
      <trkpt lat="46.06166" lon="4.52162">
        <ele>521.4</ele>
        <time>2022-05-08T14:32:59Z</time>
      </trkpt>
      <trkpt lat="46.06168" lon="4.52171">
        <ele>522.2</ele>
        <time>2022-05-08T14:33:03Z</time>
      </trkpt>
      <trkpt lat="46.06173" lon="4.52179">
        <ele>523</ele>
        <time>2022-05-08T14:33:07Z</time>
      </trkpt>
      <trkpt lat="46.06178" lon="4.52186">
        <ele>523.8</ele>
        <time>2022-05-08T14:33:11Z</time>
      </trkpt>
      <trkpt lat="46.06185" lon="4.5219">
        <ele>524.2</ele>
        <time>2022-05-08T14:33:15Z</time>
      </trkpt>
      <trkpt lat="46.06191" lon="4.52194">
        <ele>524.8</ele>
        <time>2022-05-08T14:33:19Z</time>
      </trkpt>
      <trkpt lat="46.06198" lon="4.52196">
        <ele>524.8</ele>
        <time>2022-05-08T14:33:23Z</time>
      </trkpt>
      <trkpt lat="46.06205" lon="4.52197">
        <ele>525.4</ele>
        <time>2022-05-08T14:33:27Z</time>
      </trkpt>
      <trkpt lat="46.06211" lon="4.52199">
        <ele>526.2</ele>
        <time>2022-05-08T14:33:31Z</time>
      </trkpt>
      <trkpt lat="46.06218" lon="4.522">
        <ele>526.4</ele>
        <time>2022-05-08T14:33:35Z</time>
      </trkpt>
      <trkpt lat="46.06225" lon="4.52203">
        <ele>526.8</ele>
        <time>2022-05-08T14:33:39Z</time>
      </trkpt>
      <trkpt lat="46.06231" lon="4.52208">
        <ele>527.8</ele>
        <time>2022-05-08T14:33:43Z</time>
      </trkpt>
      <trkpt lat="46.06236" lon="4.52215">
        <ele>528</ele>
        <time>2022-05-08T14:33:47Z</time>
      </trkpt>
      <trkpt lat="46.06239" lon="4.52225">
        <ele>527.8</ele>
        <time>2022-05-08T14:33:51Z</time>
      </trkpt>
      <trkpt lat="46.06239" lon="4.52235">
        <ele>528.2</ele>
        <time>2022-05-08T14:33:55Z</time>
      </trkpt>
      <trkpt lat="46.06237" lon="4.52244">
        <ele>528.6</ele>
        <time>2022-05-08T14:33:59Z</time>
      </trkpt>
      <trkpt lat="46.06235" lon="4.52253">
        <ele>529.2</ele>
        <time>2022-05-08T14:34:03Z</time>
      </trkpt>
      <trkpt lat="46.06232" lon="4.52262">
        <ele>530.4</ele>
        <time>2022-05-08T14:34:07Z</time>
      </trkpt>
      <trkpt lat="46.0623" lon="4.52271">
        <ele>530.2</ele>
        <time>2022-05-08T14:34:11Z</time>
      </trkpt>
      <trkpt lat="46.06227" lon="4.52279">
        <ele>531</ele>
        <time>2022-05-08T14:34:15Z</time>
      </trkpt>
      <trkpt lat="46.06224" lon="4.52288">
        <ele>531.2</ele>
        <time>2022-05-08T14:34:19Z</time>
      </trkpt>
      <trkpt lat="46.06222" lon="4.52297">
        <ele>532.2</ele>
        <time>2022-05-08T14:34:23Z</time>
      </trkpt>
      <trkpt lat="46.06219" lon="4.52307">
        <ele>532.4</ele>
        <time>2022-05-08T14:34:27Z</time>
      </trkpt>
      <trkpt lat="46.06216" lon="4.52316">
        <ele>532.8</ele>
        <time>2022-05-08T14:34:31Z</time>
      </trkpt>
      <trkpt lat="46.06213" lon="4.52326">
        <ele>533.4</ele>
        <time>2022-05-08T14:34:35Z</time>
      </trkpt>
      <trkpt lat="46.06211" lon="4.52335">
        <ele>533.8</ele>
        <time>2022-05-08T14:34:39Z</time>
      </trkpt>
      <trkpt lat="46.06208" lon="4.52345">
        <ele>534</ele>
        <time>2022-05-08T14:34:43Z</time>
      </trkpt>
      <trkpt lat="46.06206" lon="4.52355">
        <ele>535</ele>
        <time>2022-05-08T14:34:47Z</time>
      </trkpt>
      <trkpt lat="46.06204" lon="4.52365">
        <ele>535</ele>
        <time>2022-05-08T14:34:51Z</time>
      </trkpt>
      <trkpt lat="46.06203" lon="4.52374">
        <ele>535.4</ele>
        <time>2022-05-08T14:34:55Z</time>
      </trkpt>
      <trkpt lat="46.06202" lon="4.52384">
        <ele>535.6</ele>
        <time>2022-05-08T14:34:59Z</time>
      </trkpt>
      <trkpt lat="46.06202" lon="4.52393">
        <ele>536.6</ele>
        <time>2022-05-08T14:35:03Z</time>
      </trkpt>
      <trkpt lat="46.06201" lon="4.52403">
        <ele>537.4</ele>
        <time>2022-05-08T14:35:07Z</time>
      </trkpt>
      <trkpt lat="46.06201" lon="4.52413">
        <ele>537.8</ele>
        <time>2022-05-08T14:35:11Z</time>
      </trkpt>
      <trkpt lat="46.06202" lon="4.52423">
        <ele>538.2</ele>
        <time>2022-05-08T14:35:15Z</time>
      </trkpt>
      <trkpt lat="46.06201" lon="4.52433">
        <ele>538.4</ele>
        <time>2022-05-08T14:35:19Z</time>
      </trkpt>
      <trkpt lat="46.06199" lon="4.52443">
        <ele>538.6</ele>
        <time>2022-05-08T14:35:23Z</time>
      </trkpt>
      <trkpt lat="46.06197" lon="4.52453">
        <ele>539.4</ele>
        <time>2022-05-08T14:35:27Z</time>
      </trkpt>
      <trkpt lat="46.06193" lon="4.52462">
        <ele>540</ele>
        <time>2022-05-08T14:35:31Z</time>
      </trkpt>
      <trkpt lat="46.06189" lon="4.52471">
        <ele>540.6</ele>
        <time>2022-05-08T14:35:35Z</time>
      </trkpt>
      <trkpt lat="46.06186" lon="4.52479">
        <ele>540.8</ele>
        <time>2022-05-08T14:35:39Z</time>
      </trkpt>
      <trkpt lat="46.06182" lon="4.52488">
        <ele>540.6</ele>
        <time>2022-05-08T14:35:43Z</time>
      </trkpt>
      <trkpt lat="46.06179" lon="4.52497">
        <ele>541.2</ele>
        <time>2022-05-08T14:35:47Z</time>
      </trkpt>
      <trkpt lat="46.06174" lon="4.52507">
        <ele>542.6</ele>
        <time>2022-05-08T14:35:51Z</time>
      </trkpt>
      <trkpt lat="46.06171" lon="4.52517">
        <ele>543.2</ele>
        <time>2022-05-08T14:35:55Z</time>
      </trkpt>
      <trkpt lat="46.06168" lon="4.52526">
        <ele>543.8</ele>
        <time>2022-05-08T14:35:59Z</time>
      </trkpt>
      <trkpt lat="46.06167" lon="4.52535">
        <ele>543.6</ele>
        <time>2022-05-08T14:36:03Z</time>
      </trkpt>
      <trkpt lat="46.06165" lon="4.52545">
        <ele>544</ele>
        <time>2022-05-08T14:36:07Z</time>
      </trkpt>
      <trkpt lat="46.06164" lon="4.52554">
        <ele>545</ele>
        <time>2022-05-08T14:36:11Z</time>
      </trkpt>
      <trkpt lat="46.06163" lon="4.52564">
        <ele>545.6</ele>
        <time>2022-05-08T14:36:15Z</time>
      </trkpt>
      <trkpt lat="46.06162" lon="4.52574">
        <ele>546.2</ele>
        <time>2022-05-08T14:36:19Z</time>
      </trkpt>
      <trkpt lat="46.06161" lon="4.52584">
        <ele>546.4</ele>
        <time>2022-05-08T14:36:23Z</time>
      </trkpt>
      <trkpt lat="46.06161" lon="4.52594">
        <ele>547</ele>
        <time>2022-05-08T14:36:27Z</time>
      </trkpt>
      <trkpt lat="46.06161" lon="4.52603">
        <ele>547.8</ele>
        <time>2022-05-08T14:36:31Z</time>
      </trkpt>
      <trkpt lat="46.0616" lon="4.52613">
        <ele>548.2</ele>
        <time>2022-05-08T14:36:35Z</time>
      </trkpt>
      <trkpt lat="46.0616" lon="4.52622">
        <ele>549.2</ele>
        <time>2022-05-08T14:36:39Z</time>
      </trkpt>
      <trkpt lat="46.0616" lon="4.52631">
        <ele>549.2</ele>
        <time>2022-05-08T14:36:43Z</time>
      </trkpt>
      <trkpt lat="46.0616" lon="4.5264">
        <ele>549.4</ele>
        <time>2022-05-08T14:36:47Z</time>
      </trkpt>
      <trkpt lat="46.0616" lon="4.5265">
        <ele>550.2</ele>
        <time>2022-05-08T14:36:51Z</time>
      </trkpt>
      <trkpt lat="46.0616" lon="4.52659">
        <ele>550.6</ele>
        <time>2022-05-08T14:36:55Z</time>
      </trkpt>
      <trkpt lat="46.06159" lon="4.52668">
        <ele>551</ele>
        <time>2022-05-08T14:36:59Z</time>
      </trkpt>
      <trkpt lat="46.06159" lon="4.52676">
        <ele>551.2</ele>
        <time>2022-05-08T14:37:03Z</time>
      </trkpt>
      <trkpt lat="46.0616" lon="4.52685">
        <ele>551.8</ele>
        <time>2022-05-08T14:37:07Z</time>
      </trkpt>
      <trkpt lat="46.0616" lon="4.52695">
        <ele>552.8</ele>
        <time>2022-05-08T14:37:11Z</time>
      </trkpt>
      <trkpt lat="46.06161" lon="4.52705">
        <ele>553.4</ele>
        <time>2022-05-08T14:37:15Z</time>
      </trkpt>
      <trkpt lat="46.06162" lon="4.52715">
        <ele>553.8</ele>
        <time>2022-05-08T14:37:19Z</time>
      </trkpt>
      <trkpt lat="46.06164" lon="4.52725">
        <ele>553.8</ele>
        <time>2022-05-08T14:37:23Z</time>
      </trkpt>
      <trkpt lat="46.06167" lon="4.52735">
        <ele>554.6</ele>
        <time>2022-05-08T14:37:27Z</time>
      </trkpt>
      <trkpt lat="46.06171" lon="4.52745">
        <ele>555.6</ele>
        <time>2022-05-08T14:37:31Z</time>
      </trkpt>
      <trkpt lat="46.06175" lon="4.52753">
        <ele>556</ele>
        <time>2022-05-08T14:37:35Z</time>
      </trkpt>
      <trkpt lat="46.06179" lon="4.5276">
        <ele>556.8</ele>
        <time>2022-05-08T14:37:39Z</time>
      </trkpt>
      <trkpt lat="46.06184" lon="4.52769">
        <ele>557</ele>
        <time>2022-05-08T14:37:43Z</time>
      </trkpt>
      <trkpt lat="46.06187" lon="4.52779">
        <ele>557.2</ele>
        <time>2022-05-08T14:37:47Z</time>
      </trkpt>
      <trkpt lat="46.06187" lon="4.5279">
        <ele>558</ele>
        <time>2022-05-08T14:37:51Z</time>
      </trkpt>
      <trkpt lat="46.06185" lon="4.52799">
        <ele>558.6</ele>
        <time>2022-05-08T14:37:55Z</time>
      </trkpt>
      <trkpt lat="46.06182" lon="4.52807">
        <ele>559.4</ele>
        <time>2022-05-08T14:37:59Z</time>
      </trkpt>
      <trkpt lat="46.0618" lon="4.52817">
        <ele>559.6</ele>
        <time>2022-05-08T14:38:03Z</time>
      </trkpt>
      <trkpt lat="46.06178" lon="4.52825">
        <ele>560.2</ele>
        <time>2022-05-08T14:38:07Z</time>
      </trkpt>
      <trkpt lat="46.06176" lon="4.52834">
        <ele>560.6</ele>
        <time>2022-05-08T14:38:11Z</time>
      </trkpt>
      <trkpt lat="46.06175" lon="4.52843">
        <ele>561</ele>
        <time>2022-05-08T14:38:15Z</time>
      </trkpt>
      <trkpt lat="46.06174" lon="4.52853">
        <ele>561</ele>
        <time>2022-05-08T14:38:19Z</time>
      </trkpt>
      <trkpt lat="46.06174" lon="4.52863">
        <ele>561.8</ele>
        <time>2022-05-08T14:38:23Z</time>
      </trkpt>
      <trkpt lat="46.06175" lon="4.52873">
        <ele>562</ele>
        <time>2022-05-08T14:38:27Z</time>
      </trkpt>
      <trkpt lat="46.06178" lon="4.52883">
        <ele>562.6</ele>
        <time>2022-05-08T14:38:31Z</time>
      </trkpt>
      <trkpt lat="46.06181" lon="4.52893">
        <ele>563.8</ele>
        <time>2022-05-08T14:38:35Z</time>
      </trkpt>
      <trkpt lat="46.06185" lon="4.52902">
        <ele>564</ele>
        <time>2022-05-08T14:38:39Z</time>
      </trkpt>
      <trkpt lat="46.06188" lon="4.5291">
        <ele>564</ele>
        <time>2022-05-08T14:38:43Z</time>
      </trkpt>
      <trkpt lat="46.06192" lon="4.52919">
        <ele>564.4</ele>
        <time>2022-05-08T14:38:47Z</time>
      </trkpt>
      <trkpt lat="46.06196" lon="4.52928">
        <ele>564.8</ele>
        <time>2022-05-08T14:38:51Z</time>
      </trkpt>
      <trkpt lat="46.062" lon="4.52937">
        <ele>565.4</ele>
        <time>2022-05-08T14:38:55Z</time>
      </trkpt>
      <trkpt lat="46.06203" lon="4.52946">
        <ele>564.8</ele>
        <time>2022-05-08T14:38:59Z</time>
      </trkpt>
      <trkpt lat="46.06206" lon="4.52955">
        <ele>565.8</ele>
        <time>2022-05-08T14:39:03Z</time>
      </trkpt>
      <trkpt lat="46.06209" lon="4.52965">
        <ele>566</ele>
        <time>2022-05-08T14:39:07Z</time>
      </trkpt>
      <trkpt lat="46.06212" lon="4.52974">
        <ele>566.8</ele>
        <time>2022-05-08T14:39:11Z</time>
      </trkpt>
      <trkpt lat="46.06215" lon="4.52983">
        <ele>567.4</ele>
        <time>2022-05-08T14:39:15Z</time>
      </trkpt>
      <trkpt lat="46.06217" lon="4.52992">
        <ele>567.4</ele>
        <time>2022-05-08T14:39:19Z</time>
      </trkpt>
      <trkpt lat="46.0622" lon="4.53001">
        <ele>568</ele>
        <time>2022-05-08T14:39:23Z</time>
      </trkpt>
      <trkpt lat="46.06223" lon="4.53009">
        <ele>568</ele>
        <time>2022-05-08T14:39:27Z</time>
      </trkpt>
      <trkpt lat="46.06225" lon="4.53018">
        <ele>568.4</ele>
        <time>2022-05-08T14:39:31Z</time>
      </trkpt>
      <trkpt lat="46.06225" lon="4.53028">
        <ele>569.4</ele>
        <time>2022-05-08T14:39:35Z</time>
      </trkpt>
      <trkpt lat="46.06223" lon="4.53038">
        <ele>570</ele>
        <time>2022-05-08T14:39:39Z</time>
      </trkpt>
      <trkpt lat="46.06217" lon="4.53045">
        <ele>570</ele>
        <time>2022-05-08T14:39:43Z</time>
      </trkpt>
      <trkpt lat="46.0621" lon="4.53048">
        <ele>570.4</ele>
        <time>2022-05-08T14:39:47Z</time>
      </trkpt>
      <trkpt lat="46.06206" lon="4.5305">
        <ele>571.2</ele>
        <time>2022-05-08T14:39:51Z</time>
      </trkpt>
      <trkpt lat="46.06201" lon="4.53046">
        <ele>571.8</ele>
        <time>2022-05-08T14:39:55Z</time>
      </trkpt>
      <trkpt lat="46.06196" lon="4.53042">
        <ele>572.2</ele>
        <time>2022-05-08T14:39:59Z</time>
      </trkpt>
      <trkpt lat="46.0619" lon="4.53037">
        <ele>573</ele>
        <time>2022-05-08T14:40:03Z</time>
      </trkpt>
      <trkpt lat="46.06184" lon="4.53034">
        <ele>572.4</ele>
        <time>2022-05-08T14:40:07Z</time>
      </trkpt>
      <trkpt lat="46.06177" lon="4.53029">
        <ele>573.2</ele>
        <time>2022-05-08T14:40:11Z</time>
      </trkpt>
      <trkpt lat="46.06171" lon="4.53027">
        <ele>573.8</ele>
        <time>2022-05-08T14:40:15Z</time>
      </trkpt>
      <trkpt lat="46.06164" lon="4.53025">
        <ele>574.4</ele>
        <time>2022-05-08T14:40:19Z</time>
      </trkpt>
      <trkpt lat="46.06157" lon="4.53024">
        <ele>574.6</ele>
        <time>2022-05-08T14:40:23Z</time>
      </trkpt>
      <trkpt lat="46.06148" lon="4.53021">
        <ele>574.8</ele>
        <time>2022-05-08T14:40:27Z</time>
      </trkpt>
      <trkpt lat="46.06141" lon="4.53021">
        <ele>575.4</ele>
        <time>2022-05-08T14:40:31Z</time>
      </trkpt>
      <trkpt lat="46.06132" lon="4.53022">
        <ele>575.6</ele>
        <time>2022-05-08T14:40:35Z</time>
      </trkpt>
      <trkpt lat="46.06125" lon="4.53024">
        <ele>576.2</ele>
        <time>2022-05-08T14:40:39Z</time>
      </trkpt>
      <trkpt lat="46.06118" lon="4.53026">
        <ele>576.6</ele>
        <time>2022-05-08T14:40:43Z</time>
      </trkpt>
      <trkpt lat="46.06113" lon="4.53031">
        <ele>577.2</ele>
        <time>2022-05-08T14:40:47Z</time>
      </trkpt>
      <trkpt lat="46.06108" lon="4.53035">
        <ele>577</ele>
        <time>2022-05-08T14:40:51Z</time>
      </trkpt>
      <trkpt lat="46.06088" lon="4.53046">
        <ele>578</ele>
        <time>2022-05-08T14:41:23Z</time>
      </trkpt>
      <trkpt lat="46.06081" lon="4.53051">
        <ele>578.4</ele>
        <time>2022-05-08T14:41:27Z</time>
      </trkpt>
      <trkpt lat="46.06075" lon="4.53056">
        <ele>578.6</ele>
        <time>2022-05-08T14:41:31Z</time>
      </trkpt>
      <trkpt lat="46.06069" lon="4.53061">
        <ele>579</ele>
        <time>2022-05-08T14:41:35Z</time>
      </trkpt>
      <trkpt lat="46.0606" lon="4.53067">
        <ele>579.4</ele>
        <time>2022-05-08T14:41:39Z</time>
      </trkpt>
      <trkpt lat="46.06054" lon="4.53074">
        <ele>580.8</ele>
        <time>2022-05-08T14:41:43Z</time>
      </trkpt>
      <trkpt lat="46.06047" lon="4.53079">
        <ele>581.4</ele>
        <time>2022-05-08T14:41:47Z</time>
      </trkpt>
      <trkpt lat="46.0604" lon="4.53084">
        <ele>581.8</ele>
        <time>2022-05-08T14:41:51Z</time>
      </trkpt>
      <trkpt lat="46.06035" lon="4.5309">
        <ele>582.6</ele>
        <time>2022-05-08T14:41:55Z</time>
      </trkpt>
      <trkpt lat="46.06029" lon="4.53095">
        <ele>583</ele>
        <time>2022-05-08T14:41:59Z</time>
      </trkpt>
      <trkpt lat="46.06023" lon="4.531">
        <ele>583.2</ele>
        <time>2022-05-08T14:42:03Z</time>
      </trkpt>
      <trkpt lat="46.06017" lon="4.53105">
        <ele>584</ele>
        <time>2022-05-08T14:42:07Z</time>
      </trkpt>
      <trkpt lat="46.06011" lon="4.53111">
        <ele>584.4</ele>
        <time>2022-05-08T14:42:11Z</time>
      </trkpt>
      <trkpt lat="46.06005" lon="4.53117">
        <ele>584.6</ele>
        <time>2022-05-08T14:42:15Z</time>
      </trkpt>
      <trkpt lat="46.06" lon="4.53123">
        <ele>585.2</ele>
        <time>2022-05-08T14:42:19Z</time>
      </trkpt>
      <trkpt lat="46.05996" lon="4.53129">
        <ele>585.6</ele>
        <time>2022-05-08T14:42:23Z</time>
      </trkpt>
      <trkpt lat="46.05992" lon="4.53136">
        <ele>585.6</ele>
        <time>2022-05-08T14:42:27Z</time>
      </trkpt>
      <trkpt lat="46.05987" lon="4.53143">
        <ele>586.2</ele>
        <time>2022-05-08T14:42:31Z</time>
      </trkpt>
      <trkpt lat="46.05984" lon="4.53151">
        <ele>586.6</ele>
        <time>2022-05-08T14:42:35Z</time>
      </trkpt>
      <trkpt lat="46.05979" lon="4.53159">
        <ele>587</ele>
        <time>2022-05-08T14:42:39Z</time>
      </trkpt>
      <trkpt lat="46.05975" lon="4.53166">
        <ele>587.8</ele>
        <time>2022-05-08T14:42:43Z</time>
      </trkpt>
      <trkpt lat="46.05972" lon="4.53173">
        <ele>588</ele>
        <time>2022-05-08T14:42:47Z</time>
      </trkpt>
      <trkpt lat="46.05968" lon="4.53181">
        <ele>588.8</ele>
        <time>2022-05-08T14:42:51Z</time>
      </trkpt>
      <trkpt lat="46.05966" lon="4.53189">
        <ele>589</ele>
        <time>2022-05-08T14:42:55Z</time>
      </trkpt>
      <trkpt lat="46.05963" lon="4.53198">
        <ele>589.6</ele>
        <time>2022-05-08T14:42:59Z</time>
      </trkpt>
      <trkpt lat="46.05959" lon="4.53206">
        <ele>590.4</ele>
        <time>2022-05-08T14:43:03Z</time>
      </trkpt>
      <trkpt lat="46.05956" lon="4.53214">
        <ele>590.2</ele>
        <time>2022-05-08T14:43:07Z</time>
      </trkpt>
      <trkpt lat="46.05953" lon="4.53222">
        <ele>590.8</ele>
        <time>2022-05-08T14:43:11Z</time>
      </trkpt>
      <trkpt lat="46.05949" lon="4.53231">
        <ele>591.6</ele>
        <time>2022-05-08T14:43:15Z</time>
      </trkpt>
      <trkpt lat="46.05944" lon="4.53238">
        <ele>591.6</ele>
        <time>2022-05-08T14:43:19Z</time>
      </trkpt>
      <trkpt lat="46.05938" lon="4.53241">
        <ele>592.4</ele>
        <time>2022-05-08T14:43:23Z</time>
      </trkpt>
      <trkpt lat="46.05931" lon="4.53245">
        <ele>592.4</ele>
        <time>2022-05-08T14:43:27Z</time>
      </trkpt>
      <trkpt lat="46.05924" lon="4.53247">
        <ele>593</ele>
        <time>2022-05-08T14:43:31Z</time>
      </trkpt>
      <trkpt lat="46.05917" lon="4.53251">
        <ele>593.8</ele>
        <time>2022-05-08T14:43:35Z</time>
      </trkpt>
      <trkpt lat="46.05912" lon="4.53257">
        <ele>593.8</ele>
        <time>2022-05-08T14:43:39Z</time>
      </trkpt>
      <trkpt lat="46.05908" lon="4.53264">
        <ele>594.2</ele>
        <time>2022-05-08T14:43:43Z</time>
      </trkpt>
      <trkpt lat="46.05905" lon="4.53272">
        <ele>595.8</ele>
        <time>2022-05-08T14:43:47Z</time>
      </trkpt>
      <trkpt lat="46.05904" lon="4.53283">
        <ele>596</ele>
        <time>2022-05-08T14:43:51Z</time>
      </trkpt>
      <trkpt lat="46.05907" lon="4.53293">
        <ele>597.2</ele>
        <time>2022-05-08T14:43:55Z</time>
      </trkpt>
      <trkpt lat="46.05913" lon="4.533">
        <ele>597.2</ele>
        <time>2022-05-08T14:43:59Z</time>
      </trkpt>
      <trkpt lat="46.05921" lon="4.53302">
        <ele>597.4</ele>
        <time>2022-05-08T14:44:03Z</time>
      </trkpt>
      <trkpt lat="46.05928" lon="4.533">
        <ele>598</ele>
        <time>2022-05-08T14:44:07Z</time>
      </trkpt>
      <trkpt lat="46.05934" lon="4.53296">
        <ele>598.8</ele>
        <time>2022-05-08T14:44:11Z</time>
      </trkpt>
      <trkpt lat="46.0594" lon="4.5329">
        <ele>599</ele>
        <time>2022-05-08T14:44:15Z</time>
      </trkpt>
      <trkpt lat="46.05944" lon="4.53283">
        <ele>599.2</ele>
        <time>2022-05-08T14:44:19Z</time>
      </trkpt>
      <trkpt lat="46.05949" lon="4.53277">
        <ele>599.6</ele>
        <time>2022-05-08T14:44:23Z</time>
      </trkpt>
      <trkpt lat="46.05954" lon="4.5327">
        <ele>599</ele>
        <time>2022-05-08T14:44:27Z</time>
      </trkpt>
      <trkpt lat="46.05959" lon="4.53264">
        <ele>600</ele>
        <time>2022-05-08T14:44:31Z</time>
      </trkpt>
      <trkpt lat="46.05964" lon="4.53258">
        <ele>600.8</ele>
        <time>2022-05-08T14:44:35Z</time>
      </trkpt>
      <trkpt lat="46.05969" lon="4.53251">
        <ele>600.8</ele>
        <time>2022-05-08T14:44:39Z</time>
      </trkpt>
      <trkpt lat="46.05974" lon="4.53244">
        <ele>600.4</ele>
        <time>2022-05-08T14:44:43Z</time>
      </trkpt>
      <trkpt lat="46.05978" lon="4.53237">
        <ele>601.8</ele>
        <time>2022-05-08T14:44:47Z</time>
      </trkpt>
      <trkpt lat="46.05983" lon="4.5323">
        <ele>602.4</ele>
        <time>2022-05-08T14:44:51Z</time>
      </trkpt>
      <trkpt lat="46.05988" lon="4.53224">
        <ele>602.4</ele>
        <time>2022-05-08T14:44:55Z</time>
      </trkpt>
      <trkpt lat="46.05992" lon="4.53218">
        <ele>603.4</ele>
        <time>2022-05-08T14:44:59Z</time>
      </trkpt>
      <trkpt lat="46.05997" lon="4.53212">
        <ele>603.4</ele>
        <time>2022-05-08T14:45:03Z</time>
      </trkpt>
      <trkpt lat="46.06002" lon="4.53206">
        <ele>604.2</ele>
        <time>2022-05-08T14:45:07Z</time>
      </trkpt>
      <trkpt lat="46.06007" lon="4.532">
        <ele>604.2</ele>
        <time>2022-05-08T14:45:11Z</time>
      </trkpt>
      <trkpt lat="46.06012" lon="4.53195">
        <ele>604.8</ele>
        <time>2022-05-08T14:45:15Z</time>
      </trkpt>
      <trkpt lat="46.06018" lon="4.5319">
        <ele>605.2</ele>
        <time>2022-05-08T14:45:19Z</time>
      </trkpt>
      <trkpt lat="46.06023" lon="4.53185">
        <ele>605.6</ele>
        <time>2022-05-08T14:45:23Z</time>
      </trkpt>
      <trkpt lat="46.0603" lon="4.53181">
        <ele>606</ele>
        <time>2022-05-08T14:45:27Z</time>
      </trkpt>
      <trkpt lat="46.06036" lon="4.53176">
        <ele>606.6</ele>
        <time>2022-05-08T14:45:31Z</time>
      </trkpt>
      <trkpt lat="46.06042" lon="4.53172">
        <ele>607</ele>
        <time>2022-05-08T14:45:35Z</time>
      </trkpt>
      <trkpt lat="46.06049" lon="4.53169">
        <ele>607.4</ele>
        <time>2022-05-08T14:45:39Z</time>
      </trkpt>
      <trkpt lat="46.06055" lon="4.53166">
        <ele>608.2</ele>
        <time>2022-05-08T14:45:43Z</time>
      </trkpt>
      <trkpt lat="46.06062" lon="4.53163">
        <ele>609</ele>
        <time>2022-05-08T14:45:47Z</time>
      </trkpt>
      <trkpt lat="46.06068" lon="4.5316">
        <ele>609.6</ele>
        <time>2022-05-08T14:45:51Z</time>
      </trkpt>
      <trkpt lat="46.06075" lon="4.53158">
        <ele>610</ele>
        <time>2022-05-08T14:45:55Z</time>
      </trkpt>
      <trkpt lat="46.06082" lon="4.53156">
        <ele>610.6</ele>
        <time>2022-05-08T14:45:59Z</time>
      </trkpt>
      <trkpt lat="46.06088" lon="4.53153">
        <ele>611</ele>
        <time>2022-05-08T14:46:03Z</time>
      </trkpt>
      <trkpt lat="46.06095" lon="4.53152">
        <ele>611.4</ele>
        <time>2022-05-08T14:46:07Z</time>
      </trkpt>
      <trkpt lat="46.06102" lon="4.5315">
        <ele>612.2</ele>
        <time>2022-05-08T14:46:11Z</time>
      </trkpt>
      <trkpt lat="46.06109" lon="4.53149">
        <ele>612.8</ele>
        <time>2022-05-08T14:46:15Z</time>
      </trkpt>
      <trkpt lat="46.06116" lon="4.53148">
        <ele>612.8</ele>
        <time>2022-05-08T14:46:19Z</time>
      </trkpt>
      <trkpt lat="46.06123" lon="4.53147">
        <ele>614</ele>
        <time>2022-05-08T14:46:23Z</time>
      </trkpt>
      <trkpt lat="46.06129" lon="4.53147">
        <ele>613.6</ele>
        <time>2022-05-08T14:46:27Z</time>
      </trkpt>
      <trkpt lat="46.06136" lon="4.53148">
        <ele>614.4</ele>
        <time>2022-05-08T14:46:31Z</time>
      </trkpt>
      <trkpt lat="46.06141" lon="4.5315">
        <ele>614.4</ele>
        <time>2022-05-08T14:46:35Z</time>
      </trkpt>
      <trkpt lat="46.06145" lon="4.53151">
        <ele>615.2</ele>
        <time>2022-05-08T14:46:39Z</time>
      </trkpt>
      <trkpt lat="46.0615" lon="4.53152">
        <ele>615.8</ele>
        <time>2022-05-08T14:46:43Z</time>
      </trkpt>
      <trkpt lat="46.06154" lon="4.53155">
        <ele>616.4</ele>
        <time>2022-05-08T14:46:47Z</time>
      </trkpt>
      <trkpt lat="46.06158" lon="4.53159">
        <ele>616.2</ele>
        <time>2022-05-08T14:46:51Z</time>
      </trkpt>
      <trkpt lat="46.06162" lon="4.53161">
        <ele>616.6</ele>
        <time>2022-05-08T14:46:55Z</time>
      </trkpt>
      <trkpt lat="46.06166" lon="4.53167">
        <ele>617.6</ele>
        <time>2022-05-08T14:46:59Z</time>
      </trkpt>
      <trkpt lat="46.0617" lon="4.5317">
        <ele>618</ele>
        <time>2022-05-08T14:47:03Z</time>
      </trkpt>
      <trkpt lat="46.06176" lon="4.53175">
        <ele>618.8</ele>
        <time>2022-05-08T14:47:07Z</time>
      </trkpt>
      <trkpt lat="46.0618" lon="4.53182">
        <ele>619</ele>
        <time>2022-05-08T14:47:11Z</time>
      </trkpt>
      <trkpt lat="46.06232" lon="4.53225">
        <ele>622</ele>
        <time>2022-05-08T14:47:46Z</time>
      </trkpt>
      <trkpt lat="46.06238" lon="4.53228">
        <ele>621.8</ele>
        <time>2022-05-08T14:47:50Z</time>
      </trkpt>
      <trkpt lat="46.06245" lon="4.53231">
        <ele>623</ele>
        <time>2022-05-08T14:47:54Z</time>
      </trkpt>
      <trkpt lat="46.06253" lon="4.53234">
        <ele>623.8</ele>
        <time>2022-05-08T14:47:58Z</time>
      </trkpt>
      <trkpt lat="46.06261" lon="4.53238">
        <ele>624.8</ele>
        <time>2022-05-08T14:48:02Z</time>
      </trkpt>
      <trkpt lat="46.06269" lon="4.53243">
        <ele>625.2</ele>
        <time>2022-05-08T14:48:06Z</time>
      </trkpt>
      <trkpt lat="46.06275" lon="4.53247">
        <ele>625.6</ele>
        <time>2022-05-08T14:48:10Z</time>
      </trkpt>
      <trkpt lat="46.06282" lon="4.5325">
        <ele>626.2</ele>
        <time>2022-05-08T14:48:14Z</time>
      </trkpt>
      <trkpt lat="46.06291" lon="4.53253">
        <ele>626.8</ele>
        <time>2022-05-08T14:48:18Z</time>
      </trkpt>
      <trkpt lat="46.06299" lon="4.53257">
        <ele>626.8</ele>
        <time>2022-05-08T14:48:22Z</time>
      </trkpt>
      <trkpt lat="46.06306" lon="4.53261">
        <ele>627</ele>
        <time>2022-05-08T14:48:26Z</time>
      </trkpt>
      <trkpt lat="46.06313" lon="4.53264">
        <ele>627.8</ele>
        <time>2022-05-08T14:48:30Z</time>
      </trkpt>
      <trkpt lat="46.06321" lon="4.53267">
        <ele>628.4</ele>
        <time>2022-05-08T14:48:34Z</time>
      </trkpt>
      <trkpt lat="46.06328" lon="4.5327">
        <ele>628</ele>
        <time>2022-05-08T14:48:38Z</time>
      </trkpt>
      <trkpt lat="46.06335" lon="4.53272">
        <ele>629.2</ele>
        <time>2022-05-08T14:48:42Z</time>
      </trkpt>
      <trkpt lat="46.06343" lon="4.53275">
        <ele>630</ele>
        <time>2022-05-08T14:48:46Z</time>
      </trkpt>
      <trkpt lat="46.0635" lon="4.53276">
        <ele>630.8</ele>
        <time>2022-05-08T14:48:50Z</time>
      </trkpt>
      <trkpt lat="46.06358" lon="4.53277">
        <ele>631</ele>
        <time>2022-05-08T14:48:54Z</time>
      </trkpt>
      <trkpt lat="46.06365" lon="4.53277">
        <ele>631.2</ele>
        <time>2022-05-08T14:48:58Z</time>
      </trkpt>
      <trkpt lat="46.06371" lon="4.53278">
        <ele>632</ele>
        <time>2022-05-08T14:49:02Z</time>
      </trkpt>
      <trkpt lat="46.06377" lon="4.53279">
        <ele>632.6</ele>
        <time>2022-05-08T14:49:06Z</time>
      </trkpt>
      <trkpt lat="46.06383" lon="4.53282">
        <ele>632.6</ele>
        <time>2022-05-08T14:49:10Z</time>
      </trkpt>
      <trkpt lat="46.06387" lon="4.5329">
        <ele>633</ele>
        <time>2022-05-08T14:49:14Z</time>
      </trkpt>
      <trkpt lat="46.06386" lon="4.53299">
        <ele>633.8</ele>
        <time>2022-05-08T14:49:18Z</time>
      </trkpt>
      <trkpt lat="46.06382" lon="4.53306">
        <ele>634.6</ele>
        <time>2022-05-08T14:49:22Z</time>
      </trkpt>
      <trkpt lat="46.06376" lon="4.5331">
        <ele>635.4</ele>
        <time>2022-05-08T14:49:26Z</time>
      </trkpt>
      <trkpt lat="46.0637" lon="4.5331">
        <ele>635</ele>
        <time>2022-05-08T14:49:30Z</time>
      </trkpt>
      <trkpt lat="46.06363" lon="4.53308">
        <ele>635.6</ele>
        <time>2022-05-08T14:49:34Z</time>
      </trkpt>
      <trkpt lat="46.06357" lon="4.53306">
        <ele>636.2</ele>
        <time>2022-05-08T14:49:38Z</time>
      </trkpt>
      <trkpt lat="46.0635" lon="4.53305">
        <ele>636.2</ele>
        <time>2022-05-08T14:49:42Z</time>
      </trkpt>
      <trkpt lat="46.06343" lon="4.53303">
        <ele>636.8</ele>
        <time>2022-05-08T14:49:46Z</time>
      </trkpt>
      <trkpt lat="46.06337" lon="4.53301">
        <ele>636.4</ele>
        <time>2022-05-08T14:49:50Z</time>
      </trkpt>
      <trkpt lat="46.0633" lon="4.533">
        <ele>637.4</ele>
        <time>2022-05-08T14:49:54Z</time>
      </trkpt>
      <trkpt lat="46.06324" lon="4.533">
        <ele>637.2</ele>
        <time>2022-05-08T14:49:58Z</time>
      </trkpt>
      <trkpt lat="46.06317" lon="4.533">
        <ele>638</ele>
        <time>2022-05-08T14:50:02Z</time>
      </trkpt>
      <trkpt lat="46.0631" lon="4.533">
        <ele>638.8</ele>
        <time>2022-05-08T14:50:06Z</time>
      </trkpt>
      <trkpt lat="46.06304" lon="4.53299">
        <ele>639.4</ele>
        <time>2022-05-08T14:50:10Z</time>
      </trkpt>
      <trkpt lat="46.06297" lon="4.53298">
        <ele>639</ele>
        <time>2022-05-08T14:50:14Z</time>
      </trkpt>
      <trkpt lat="46.0629" lon="4.53297">
        <ele>639.4</ele>
        <time>2022-05-08T14:50:18Z</time>
      </trkpt>
      <trkpt lat="46.06283" lon="4.53296">
        <ele>640.4</ele>
        <time>2022-05-08T14:50:22Z</time>
      </trkpt>
      <trkpt lat="46.06276" lon="4.53296">
        <ele>640.2</ele>
        <time>2022-05-08T14:50:26Z</time>
      </trkpt>
      <trkpt lat="46.06269" lon="4.53295">
        <ele>640.6</ele>
        <time>2022-05-08T14:50:30Z</time>
      </trkpt>
      <trkpt lat="46.06262" lon="4.53295">
        <ele>641.4</ele>
        <time>2022-05-08T14:50:34Z</time>
      </trkpt>
      <trkpt lat="46.06255" lon="4.53295">
        <ele>642.4</ele>
        <time>2022-05-08T14:50:38Z</time>
      </trkpt>
      <trkpt lat="46.06248" lon="4.53294">
        <ele>642.4</ele>
        <time>2022-05-08T14:50:42Z</time>
      </trkpt>
      <trkpt lat="46.06241" lon="4.53293">
        <ele>643</ele>
        <time>2022-05-08T14:50:46Z</time>
      </trkpt>
      <trkpt lat="46.06234" lon="4.53292">
        <ele>643.2</ele>
        <time>2022-05-08T14:50:50Z</time>
      </trkpt>
      <trkpt lat="46.06228" lon="4.53292">
        <ele>643.6</ele>
        <time>2022-05-08T14:50:54Z</time>
      </trkpt>
      <trkpt lat="46.06221" lon="4.53292">
        <ele>644.2</ele>
        <time>2022-05-08T14:50:58Z</time>
      </trkpt>
      <trkpt lat="46.06215" lon="4.53291">
        <ele>644.6</ele>
        <time>2022-05-08T14:51:02Z</time>
      </trkpt>
      <trkpt lat="46.06208" lon="4.5329">
        <ele>645</ele>
        <time>2022-05-08T14:51:06Z</time>
      </trkpt>
      <trkpt lat="46.06202" lon="4.53289">
        <ele>645.6</ele>
        <time>2022-05-08T14:51:10Z</time>
      </trkpt>
      <trkpt lat="46.06195" lon="4.53289">
        <ele>646</ele>
        <time>2022-05-08T14:51:14Z</time>
      </trkpt>
      <trkpt lat="46.06189" lon="4.5329">
        <ele>646.6</ele>
        <time>2022-05-08T14:51:18Z</time>
      </trkpt>
      <trkpt lat="46.06182" lon="4.53289">
        <ele>646.8</ele>
        <time>2022-05-08T14:51:22Z</time>
      </trkpt>
      <trkpt lat="46.06174" lon="4.53288">
        <ele>647.2</ele>
        <time>2022-05-08T14:51:26Z</time>
      </trkpt>
      <trkpt lat="46.06167" lon="4.53289">
        <ele>648.2</ele>
        <time>2022-05-08T14:51:30Z</time>
      </trkpt>
      <trkpt lat="46.06161" lon="4.53289">
        <ele>648.8</ele>
        <time>2022-05-08T14:51:34Z</time>
      </trkpt>
      <trkpt lat="46.06154" lon="4.53291">
        <ele>649.2</ele>
        <time>2022-05-08T14:51:38Z</time>
      </trkpt>
      <trkpt lat="46.06146" lon="4.53294">
        <ele>649.2</ele>
        <time>2022-05-08T14:51:42Z</time>
      </trkpt>
      <trkpt lat="46.0614" lon="4.53297">
        <ele>649.8</ele>
        <time>2022-05-08T14:51:46Z</time>
      </trkpt>
      <trkpt lat="46.06133" lon="4.533">
        <ele>650.4</ele>
        <time>2022-05-08T14:51:50Z</time>
      </trkpt>
      <trkpt lat="46.06126" lon="4.53305">
        <ele>651</ele>
        <time>2022-05-08T14:51:54Z</time>
      </trkpt>
      <trkpt lat="46.06121" lon="4.53312">
        <ele>651.2</ele>
        <time>2022-05-08T14:51:58Z</time>
      </trkpt>
      <trkpt lat="46.06115" lon="4.53319">
        <ele>651.8</ele>
        <time>2022-05-08T14:52:02Z</time>
      </trkpt>
      <trkpt lat="46.0611" lon="4.53325">
        <ele>652.2</ele>
        <time>2022-05-08T14:52:06Z</time>
      </trkpt>
      <trkpt lat="46.06105" lon="4.53332">
        <ele>652.6</ele>
        <time>2022-05-08T14:52:10Z</time>
      </trkpt>
      <trkpt lat="46.06101" lon="4.53339">
        <ele>653.4</ele>
        <time>2022-05-08T14:52:14Z</time>
      </trkpt>
      <trkpt lat="46.06097" lon="4.53347">
        <ele>653.8</ele>
        <time>2022-05-08T14:52:18Z</time>
      </trkpt>
      <trkpt lat="46.06093" lon="4.53355">
        <ele>654.8</ele>
        <time>2022-05-08T14:52:22Z</time>
      </trkpt>
      <trkpt lat="46.06089" lon="4.53362">
        <ele>655.4</ele>
        <time>2022-05-08T14:52:26Z</time>
      </trkpt>
      <trkpt lat="46.06085" lon="4.5337">
        <ele>656</ele>
        <time>2022-05-08T14:52:30Z</time>
      </trkpt>
      <trkpt lat="46.06081" lon="4.53378">
        <ele>655.8</ele>
        <time>2022-05-08T14:52:34Z</time>
      </trkpt>
      <trkpt lat="46.06077" lon="4.53387">
        <ele>656.8</ele>
        <time>2022-05-08T14:52:38Z</time>
      </trkpt>
      <trkpt lat="46.06073" lon="4.53397">
        <ele>657.4</ele>
        <time>2022-05-08T14:52:42Z</time>
      </trkpt>
      <trkpt lat="46.06069" lon="4.53405">
        <ele>657.8</ele>
        <time>2022-05-08T14:52:46Z</time>
      </trkpt>
      <trkpt lat="46.06066" lon="4.53414">
        <ele>658</ele>
        <time>2022-05-08T14:52:50Z</time>
      </trkpt>
      <trkpt lat="46.06062" lon="4.53422">
        <ele>658.4</ele>
        <time>2022-05-08T14:52:54Z</time>
      </trkpt>
      <trkpt lat="46.06058" lon="4.5343">
        <ele>658.8</ele>
        <time>2022-05-08T14:52:58Z</time>
      </trkpt>
      <trkpt lat="46.06055" lon="4.53438">
        <ele>659</ele>
        <time>2022-05-08T14:53:02Z</time>
      </trkpt>
      <trkpt lat="46.06052" lon="4.53448">
        <ele>659.6</ele>
        <time>2022-05-08T14:53:06Z</time>
      </trkpt>
      <trkpt lat="46.06048" lon="4.53456">
        <ele>660.6</ele>
        <time>2022-05-08T14:53:10Z</time>
      </trkpt>
      <trkpt lat="46.06046" lon="4.53465">
        <ele>660.2</ele>
        <time>2022-05-08T14:53:14Z</time>
      </trkpt>
      <trkpt lat="46.06043" lon="4.53473">
        <ele>661.8</ele>
        <time>2022-05-08T14:53:18Z</time>
      </trkpt>
      <trkpt lat="46.06039" lon="4.53481">
        <ele>661.8</ele>
        <time>2022-05-08T14:53:22Z</time>
      </trkpt>
      <trkpt lat="46.06037" lon="4.5349">
        <ele>661.8</ele>
        <time>2022-05-08T14:53:26Z</time>
      </trkpt>
      <trkpt lat="46.06035" lon="4.535">
        <ele>662.2</ele>
        <time>2022-05-08T14:53:30Z</time>
      </trkpt>
      <trkpt lat="46.06032" lon="4.53511">
        <ele>662.6</ele>
        <time>2022-05-08T14:53:34Z</time>
      </trkpt>
      <trkpt lat="46.06031" lon="4.53521">
        <ele>663</ele>
        <time>2022-05-08T14:53:38Z</time>
      </trkpt>
      <trkpt lat="46.06029" lon="4.53531">
        <ele>663.4</ele>
        <time>2022-05-08T14:53:42Z</time>
      </trkpt>
      <trkpt lat="46.06028" lon="4.53542">
        <ele>664</ele>
        <time>2022-05-08T14:53:46Z</time>
      </trkpt>
      <trkpt lat="46.06026" lon="4.53552">
        <ele>664.2</ele>
        <time>2022-05-08T14:53:50Z</time>
      </trkpt>
      <trkpt lat="46.06026" lon="4.53562">
        <ele>664.8</ele>
        <time>2022-05-08T14:53:54Z</time>
      </trkpt>
      <trkpt lat="46.06024" lon="4.53571">
        <ele>665.6</ele>
        <time>2022-05-08T14:53:58Z</time>
      </trkpt>
      <trkpt lat="46.06022" lon="4.53581">
        <ele>666.2</ele>
        <time>2022-05-08T14:54:02Z</time>
      </trkpt>
      <trkpt lat="46.06019" lon="4.5359">
        <ele>666</ele>
        <time>2022-05-08T14:54:06Z</time>
      </trkpt>
      <trkpt lat="46.06015" lon="4.53599">
        <ele>666.6</ele>
        <time>2022-05-08T14:54:10Z</time>
      </trkpt>
      <trkpt lat="46.06011" lon="4.53607">
        <ele>667.6</ele>
        <time>2022-05-08T14:54:14Z</time>
      </trkpt>
      <trkpt lat="46.06007" lon="4.53616">
        <ele>667.6</ele>
        <time>2022-05-08T14:54:18Z</time>
      </trkpt>
      <trkpt lat="46.06001" lon="4.53623">
        <ele>668.8</ele>
        <time>2022-05-08T14:54:22Z</time>
      </trkpt>
      <trkpt lat="46.05995" lon="4.53629">
        <ele>668.8</ele>
        <time>2022-05-08T14:54:26Z</time>
      </trkpt>
      <trkpt lat="46.0599" lon="4.53635">
        <ele>669.2</ele>
        <time>2022-05-08T14:54:30Z</time>
      </trkpt>
      <trkpt lat="46.05985" lon="4.5364">
        <ele>670</ele>
        <time>2022-05-08T14:54:34Z</time>
      </trkpt>
      <trkpt lat="46.05979" lon="4.53647">
        <ele>669.8</ele>
        <time>2022-05-08T14:54:38Z</time>
      </trkpt>
      <trkpt lat="46.05974" lon="4.53653">
        <ele>670.8</ele>
        <time>2022-05-08T14:54:42Z</time>
      </trkpt>
      <trkpt lat="46.05969" lon="4.53658">
        <ele>671.4</ele>
        <time>2022-05-08T14:54:46Z</time>
      </trkpt>
      <trkpt lat="46.05964" lon="4.53664">
        <ele>671.8</ele>
        <time>2022-05-08T14:54:50Z</time>
      </trkpt>
      <trkpt lat="46.05957" lon="4.53668">
        <ele>672</ele>
        <time>2022-05-08T14:54:54Z</time>
      </trkpt>
      <trkpt lat="46.05952" lon="4.53674">
        <ele>672.8</ele>
        <time>2022-05-08T14:54:58Z</time>
      </trkpt>
      <trkpt lat="46.05946" lon="4.53679">
        <ele>673.4</ele>
        <time>2022-05-08T14:55:02Z</time>
      </trkpt>
      <trkpt lat="46.0594" lon="4.53683">
        <ele>673.8</ele>
        <time>2022-05-08T14:55:06Z</time>
      </trkpt>
      <trkpt lat="46.05934" lon="4.53689">
        <ele>674</ele>
        <time>2022-05-08T14:55:10Z</time>
      </trkpt>
      <trkpt lat="46.05929" lon="4.53696">
        <ele>675.4</ele>
        <time>2022-05-08T14:55:14Z</time>
      </trkpt>
      <trkpt lat="46.05923" lon="4.53703">
        <ele>675.8</ele>
        <time>2022-05-08T14:55:18Z</time>
      </trkpt>
      <trkpt lat="46.0592" lon="4.53711">
        <ele>676</ele>
        <time>2022-05-08T14:55:22Z</time>
      </trkpt>
      <trkpt lat="46.05918" lon="4.5372">
        <ele>676.4</ele>
        <time>2022-05-08T14:55:26Z</time>
      </trkpt>
      <trkpt lat="46.05919" lon="4.53725">
        <ele>676.4</ele>
        <time>2022-05-08T14:55:30Z</time>
      </trkpt>
      <trkpt lat="46.05917" lon="4.53734">
        <ele>676.4</ele>
        <time>2022-05-08T14:55:34Z</time>
      </trkpt>
      <trkpt lat="46.05917" lon="4.53744">
        <ele>677.2</ele>
        <time>2022-05-08T14:55:38Z</time>
      </trkpt>
      <trkpt lat="46.05916" lon="4.53752">
        <ele>677</ele>
        <time>2022-05-08T14:55:42Z</time>
      </trkpt>
      <trkpt lat="46.05911" lon="4.53774">
        <ele>675.8</ele>
        <time>2022-05-08T14:57:12Z</time>
      </trkpt>
      <trkpt lat="46.05899" lon="4.53787">
        <ele>673.6</ele>
        <time>2022-05-08T14:57:16Z</time>
      </trkpt>
      <trkpt lat="46.05884" lon="4.53798">
        <ele>670.6</ele>
        <time>2022-05-08T14:57:20Z</time>
      </trkpt>
      <trkpt lat="46.05859" lon="4.53811">
        <ele>666.4</ele>
        <time>2022-05-08T14:57:24Z</time>
      </trkpt>
      <trkpt lat="46.05833" lon="4.5383">
        <ele>663.2</ele>
        <time>2022-05-08T14:57:28Z</time>
      </trkpt>
      <trkpt lat="46.05802" lon="4.53843">
        <ele>659.4</ele>
        <time>2022-05-08T14:57:32Z</time>
      </trkpt>
      <trkpt lat="46.05769" lon="4.53853">
        <ele>656.2</ele>
        <time>2022-05-08T14:57:36Z</time>
      </trkpt>
      <trkpt lat="46.0573" lon="4.53864">
        <ele>652.8</ele>
        <time>2022-05-08T14:57:40Z</time>
      </trkpt>
      <trkpt lat="46.05687" lon="4.53864">
        <ele>649.4</ele>
        <time>2022-05-08T14:57:44Z</time>
      </trkpt>
      <trkpt lat="46.05657" lon="4.5387">
        <ele>645.4</ele>
        <time>2022-05-08T14:57:48Z</time>
      </trkpt>
      <trkpt lat="46.05626" lon="4.53911">
        <ele>641.8</ele>
        <time>2022-05-08T14:57:52Z</time>
      </trkpt>
      <trkpt lat="46.05608" lon="4.53973">
        <ele>640</ele>
        <time>2022-05-08T14:57:56Z</time>
      </trkpt>
      <trkpt lat="46.05591" lon="4.54031">
        <ele>636</ele>
        <time>2022-05-08T14:58:00Z</time>
      </trkpt>
      <trkpt lat="46.05569" lon="4.54086">
        <ele>634.2</ele>
        <time>2022-05-08T14:58:04Z</time>
      </trkpt>
      <trkpt lat="46.05542" lon="4.54137">
        <ele>628.2</ele>
        <time>2022-05-08T14:58:08Z</time>
      </trkpt>
      <trkpt lat="46.05524" lon="4.54188">
        <ele>629.2</ele>
        <time>2022-05-08T14:58:12Z</time>
      </trkpt>
      <trkpt lat="46.0551" lon="4.54238">
        <ele>630</ele>
        <time>2022-05-08T14:58:16Z</time>
      </trkpt>
      <trkpt lat="46.05501" lon="4.54288">
        <ele>628.4</ele>
        <time>2022-05-08T14:58:20Z</time>
      </trkpt>
      <trkpt lat="46.05486" lon="4.54319">
        <ele>624</ele>
        <time>2022-05-08T14:58:24Z</time>
      </trkpt>
      <trkpt lat="46.05453" lon="4.54303">
        <ele>621.2</ele>
        <time>2022-05-08T14:58:28Z</time>
      </trkpt>
      <trkpt lat="46.0542" lon="4.5428">
        <ele>619.2</ele>
        <time>2022-05-08T14:58:32Z</time>
      </trkpt>
      <trkpt lat="46.05384" lon="4.54258">
        <ele>615.2</ele>
        <time>2022-05-08T14:58:36Z</time>
      </trkpt>
      <trkpt lat="46.05345" lon="4.54234">
        <ele>612.4</ele>
        <time>2022-05-08T14:58:40Z</time>
      </trkpt>
      <trkpt lat="46.05316" lon="4.54192">
        <ele>607.8</ele>
        <time>2022-05-08T14:58:44Z</time>
      </trkpt>
      <trkpt lat="46.05292" lon="4.54144">
        <ele>606.2</ele>
        <time>2022-05-08T14:58:48Z</time>
      </trkpt>
      <trkpt lat="46.0527" lon="4.54095">
        <ele>606</ele>
        <time>2022-05-08T14:58:52Z</time>
      </trkpt>
      <trkpt lat="46.05244" lon="4.54059">
        <ele>605</ele>
        <time>2022-05-08T14:58:56Z</time>
      </trkpt>
      <trkpt lat="46.05212" lon="4.54064">
        <ele>605.2</ele>
        <time>2022-05-08T14:59:00Z</time>
      </trkpt>
      <trkpt lat="46.05185" lon="4.5408">
        <ele>602.6</ele>
        <time>2022-05-08T14:59:04Z</time>
      </trkpt>
      <trkpt lat="46.0516" lon="4.54099">
        <ele>600</ele>
        <time>2022-05-08T14:59:08Z</time>
      </trkpt>
      <trkpt lat="46.05134" lon="4.54117">
        <ele>599.2</ele>
        <time>2022-05-08T14:59:12Z</time>
      </trkpt>
      <trkpt lat="46.05104" lon="4.54121">
        <ele>600.4</ele>
        <time>2022-05-08T14:59:16Z</time>
      </trkpt>
      <trkpt lat="46.05076" lon="4.54097">
        <ele>597.6</ele>
        <time>2022-05-08T14:59:20Z</time>
      </trkpt>
      <trkpt lat="46.05055" lon="4.54054">
        <ele>595.4</ele>
        <time>2022-05-08T14:59:24Z</time>
      </trkpt>
      <trkpt lat="46.0504" lon="4.54009">
        <ele>592.4</ele>
        <time>2022-05-08T14:59:28Z</time>
      </trkpt>
      <trkpt lat="46.05007" lon="4.53999">
        <ele>592.6</ele>
        <time>2022-05-08T14:59:32Z</time>
      </trkpt>
      <trkpt lat="46.04981" lon="4.54026">
        <ele>588.2</ele>
        <time>2022-05-08T14:59:36Z</time>
      </trkpt>
      <trkpt lat="46.04958" lon="4.54064">
        <ele>587</ele>
        <time>2022-05-08T14:59:40Z</time>
      </trkpt>
      <trkpt lat="46.04932" lon="4.54098">
        <ele>584.8</ele>
        <time>2022-05-08T14:59:44Z</time>
      </trkpt>
      <trkpt lat="46.0491" lon="4.54137">
        <ele>582.2</ele>
        <time>2022-05-08T14:59:48Z</time>
      </trkpt>
      <trkpt lat="46.04895" lon="4.5419">
        <ele>578</ele>
        <time>2022-05-08T14:59:52Z</time>
      </trkpt>
      <trkpt lat="46.04892" lon="4.54247">
        <ele>576.6</ele>
        <time>2022-05-08T14:59:56Z</time>
      </trkpt>
      <trkpt lat="46.04895" lon="4.54303">
        <ele>575.2</ele>
        <time>2022-05-08T15:00:00Z</time>
      </trkpt>
      <trkpt lat="46.04904" lon="4.5436">
        <ele>573.4</ele>
        <time>2022-05-08T15:00:04Z</time>
      </trkpt>
      <trkpt lat="46.04916" lon="4.54411">
        <ele>568.6</ele>
        <time>2022-05-08T15:00:08Z</time>
      </trkpt>
      <trkpt lat="46.04944" lon="4.54467">
        <ele>564</ele>
        <time>2022-05-08T15:00:12Z</time>
      </trkpt>
      <trkpt lat="46.04962" lon="4.5452">
        <ele>563.8</ele>
        <time>2022-05-08T15:00:16Z</time>
      </trkpt>
      <trkpt lat="46.04981" lon="4.54575">
        <ele>558.8</ele>
        <time>2022-05-08T15:00:20Z</time>
      </trkpt>
      <trkpt lat="46.04992" lon="4.5463">
        <ele>554.2</ele>
        <time>2022-05-08T15:00:24Z</time>
      </trkpt>
      <trkpt lat="46.04998" lon="4.54684">
        <ele>556</ele>
        <time>2022-05-08T15:00:28Z</time>
      </trkpt>
      <trkpt lat="46.04993" lon="4.54739">
        <ele>556</ele>
        <time>2022-05-08T15:00:32Z</time>
      </trkpt>
      <trkpt lat="46.04972" lon="4.5479">
        <ele>554.4</ele>
        <time>2022-05-08T15:00:36Z</time>
      </trkpt>
      <trkpt lat="46.04951" lon="4.54836">
        <ele>550.6</ele>
        <time>2022-05-08T15:00:40Z</time>
      </trkpt>
      <trkpt lat="46.04934" lon="4.54887">
        <ele>546.8</ele>
        <time>2022-05-08T15:00:44Z</time>
      </trkpt>
      <trkpt lat="46.04922" lon="4.54942">
        <ele>545</ele>
        <time>2022-05-08T15:00:48Z</time>
      </trkpt>
      <trkpt lat="46.04913" lon="4.55003">
        <ele>543.4</ele>
        <time>2022-05-08T15:00:52Z</time>
      </trkpt>
      <trkpt lat="46.04901" lon="4.55049">
        <ele>540.2</ele>
        <time>2022-05-08T15:00:56Z</time>
      </trkpt>
      <trkpt lat="46.0487" lon="4.5506">
        <ele>538.4</ele>
        <time>2022-05-08T15:01:00Z</time>
      </trkpt>
      <trkpt lat="46.04848" lon="4.55023">
        <ele>535.8</ele>
        <time>2022-05-08T15:01:04Z</time>
      </trkpt>
      <trkpt lat="46.04827" lon="4.54983">
        <ele>535.2</ele>
        <time>2022-05-08T15:01:08Z</time>
      </trkpt>
      <trkpt lat="46.04795" lon="4.54957">
        <ele>531.8</ele>
        <time>2022-05-08T15:01:12Z</time>
      </trkpt>
      <trkpt lat="46.04761" lon="4.54931">
        <ele>529.2</ele>
        <time>2022-05-08T15:01:16Z</time>
      </trkpt>
      <trkpt lat="46.04731" lon="4.54895">
        <ele>526.8</ele>
        <time>2022-05-08T15:01:20Z</time>
      </trkpt>
      <trkpt lat="46.04708" lon="4.5485">
        <ele>525.4</ele>
        <time>2022-05-08T15:01:24Z</time>
      </trkpt>
      <trkpt lat="46.04682" lon="4.54815">
        <ele>522.8</ele>
        <time>2022-05-08T15:01:28Z</time>
      </trkpt>
      <trkpt lat="46.0465" lon="4.54805">
        <ele>521.8</ele>
        <time>2022-05-08T15:01:32Z</time>
      </trkpt>
      <trkpt lat="46.04622" lon="4.54771">
        <ele>519.2</ele>
        <time>2022-05-08T15:01:36Z</time>
      </trkpt>
      <trkpt lat="46.04597" lon="4.5473">
        <ele>515</ele>
        <time>2022-05-08T15:01:40Z</time>
      </trkpt>
      <trkpt lat="46.04575" lon="4.54694">
        <ele>517</ele>
        <time>2022-05-08T15:01:44Z</time>
      </trkpt>
      <trkpt lat="46.04556" lon="4.54673">
        <ele>517.8</ele>
        <time>2022-05-08T15:01:48Z</time>
      </trkpt>
      <trkpt lat="46.04551" lon="4.54688">
        <ele>515.8</ele>
        <time>2022-05-08T15:01:52Z</time>
      </trkpt>
      <trkpt lat="46.04567" lon="4.54709">
        <ele>513.4</ele>
        <time>2022-05-08T15:01:56Z</time>
      </trkpt>
      <trkpt lat="46.04583" lon="4.54747">
        <ele>509</ele>
        <time>2022-05-08T15:02:00Z</time>
      </trkpt>
      <trkpt lat="46.04599" lon="4.54793">
        <ele>503</ele>
        <time>2022-05-08T15:02:04Z</time>
      </trkpt>
      <trkpt lat="46.04617" lon="4.54836">
        <ele>502.2</ele>
        <time>2022-05-08T15:02:08Z</time>
      </trkpt>
      <trkpt lat="46.04644" lon="4.54868">
        <ele>500.8</ele>
        <time>2022-05-08T15:02:12Z</time>
      </trkpt>
      <trkpt lat="46.04659" lon="4.54918">
        <ele>497.4</ele>
        <time>2022-05-08T15:02:16Z</time>
      </trkpt>
      <trkpt lat="46.04676" lon="4.54969">
        <ele>493.4</ele>
        <time>2022-05-08T15:02:20Z</time>
      </trkpt>
      <trkpt lat="46.04701" lon="4.55011">
        <ele>494</ele>
        <time>2022-05-08T15:02:24Z</time>
      </trkpt>
      <trkpt lat="46.04728" lon="4.5505">
        <ele>492.4</ele>
        <time>2022-05-08T15:02:28Z</time>
      </trkpt>
      <trkpt lat="46.04741" lon="4.55103">
        <ele>487.4</ele>
        <time>2022-05-08T15:02:32Z</time>
      </trkpt>
      <trkpt lat="46.04747" lon="4.55155">
        <ele>485.8</ele>
        <time>2022-05-08T15:02:36Z</time>
      </trkpt>
      <trkpt lat="46.04761" lon="4.55203">
        <ele>484</ele>
        <time>2022-05-08T15:02:40Z</time>
      </trkpt>
      <trkpt lat="46.04784" lon="4.55246">
        <ele>479.6</ele>
        <time>2022-05-08T15:02:44Z</time>
      </trkpt>
      <trkpt lat="46.04809" lon="4.55285">
        <ele>479.4</ele>
        <time>2022-05-08T15:02:48Z</time>
      </trkpt>
      <trkpt lat="46.04829" lon="4.55331">
        <ele>478</ele>
        <time>2022-05-08T15:02:52Z</time>
      </trkpt>
      <trkpt lat="46.04842" lon="4.55383">
        <ele>477.8</ele>
        <time>2022-05-08T15:02:56Z</time>
      </trkpt>
      <trkpt lat="46.04853" lon="4.55435">
        <ele>473.2</ele>
        <time>2022-05-08T15:03:00Z</time>
      </trkpt>
      <trkpt lat="46.04862" lon="4.5549">
        <ele>470.6</ele>
        <time>2022-05-08T15:03:04Z</time>
      </trkpt>
      <trkpt lat="46.04869" lon="4.55546">
        <ele>466.8</ele>
        <time>2022-05-08T15:03:08Z</time>
      </trkpt>
      <trkpt lat="46.04876" lon="4.556">
        <ele>466</ele>
        <time>2022-05-08T15:03:12Z</time>
      </trkpt>
      <trkpt lat="46.04887" lon="4.55652">
        <ele>465.8</ele>
        <time>2022-05-08T15:03:16Z</time>
      </trkpt>
      <trkpt lat="46.04903" lon="4.55703">
        <ele>463.8</ele>
        <time>2022-05-08T15:03:20Z</time>
      </trkpt>
      <trkpt lat="46.04927" lon="4.55749">
        <ele>460.6</ele>
        <time>2022-05-08T15:03:24Z</time>
      </trkpt>
      <trkpt lat="46.04934" lon="4.55804">
        <ele>458.6</ele>
        <time>2022-05-08T15:03:28Z</time>
      </trkpt>
      <trkpt lat="46.04922" lon="4.55856">
        <ele>457.2</ele>
        <time>2022-05-08T15:03:32Z</time>
      </trkpt>
      <trkpt lat="46.0491" lon="4.55905">
        <ele>455</ele>
        <time>2022-05-08T15:03:36Z</time>
      </trkpt>
      <trkpt lat="46.04908" lon="4.55954">
        <ele>452.4</ele>
        <time>2022-05-08T15:03:40Z</time>
      </trkpt>
      <trkpt lat="46.04913" lon="4.56003">
        <ele>449</ele>
        <time>2022-05-08T15:03:44Z</time>
      </trkpt>
      <trkpt lat="46.04915" lon="4.56053">
        <ele>450.2</ele>
        <time>2022-05-08T15:03:48Z</time>
      </trkpt>
      <trkpt lat="46.04908" lon="4.56103">
        <ele>448.2</ele>
        <time>2022-05-08T15:03:52Z</time>
      </trkpt>
      <trkpt lat="46.04896" lon="4.56153">
        <ele>445</ele>
        <time>2022-05-08T15:03:56Z</time>
      </trkpt>
      <trkpt lat="46.04882" lon="4.56204">
        <ele>442.2</ele>
        <time>2022-05-08T15:04:00Z</time>
      </trkpt>
      <trkpt lat="46.04876" lon="4.56256">
        <ele>439.4</ele>
        <time>2022-05-08T15:04:04Z</time>
      </trkpt>
      <trkpt lat="46.04883" lon="4.56304">
        <ele>438.8</ele>
        <time>2022-05-08T15:04:08Z</time>
      </trkpt>
      <trkpt lat="46.04907" lon="4.56336">
        <ele>436.6</ele>
        <time>2022-05-08T15:04:12Z</time>
      </trkpt>
      <trkpt lat="46.04939" lon="4.56356">
        <ele>435.2</ele>
        <time>2022-05-08T15:04:16Z</time>
      </trkpt>
      <trkpt lat="46.04969" lon="4.56379">
        <ele>430.4</ele>
        <time>2022-05-08T15:04:20Z</time>
      </trkpt>
      <trkpt lat="46.04999" lon="4.56404">
        <ele>428.4</ele>
        <time>2022-05-08T15:04:24Z</time>
      </trkpt>
      <trkpt lat="46.05028" lon="4.56432">
        <ele>428.6</ele>
        <time>2022-05-08T15:04:28Z</time>
      </trkpt>
      <trkpt lat="46.05051" lon="4.56472">
        <ele>423.6</ele>
        <time>2022-05-08T15:04:32Z</time>
      </trkpt>
      <trkpt lat="46.05074" lon="4.56511">
        <ele>422.2</ele>
        <time>2022-05-08T15:04:36Z</time>
      </trkpt>
      <trkpt lat="46.05101" lon="4.56545">
        <ele>418.6</ele>
        <time>2022-05-08T15:04:40Z</time>
      </trkpt>
      <trkpt lat="46.05126" lon="4.56583">
        <ele>417</ele>
        <time>2022-05-08T15:04:44Z</time>
      </trkpt>
      <trkpt lat="46.05149" lon="4.56626">
        <ele>413.6</ele>
        <time>2022-05-08T15:04:48Z</time>
      </trkpt>
      <trkpt lat="46.05168" lon="4.56666">
        <ele>413.2</ele>
        <time>2022-05-08T15:04:52Z</time>
      </trkpt>
      <trkpt lat="46.05181" lon="4.56705">
        <ele>416.2</ele>
        <time>2022-05-08T15:04:56Z</time>
      </trkpt>
      <trkpt lat="46.05193" lon="4.56745">
        <ele>415.2</ele>
        <time>2022-05-08T15:05:00Z</time>
      </trkpt>
      <trkpt lat="46.05205" lon="4.56786">
        <ele>410.6</ele>
        <time>2022-05-08T15:05:04Z</time>
      </trkpt>
      <trkpt lat="46.05215" lon="4.56824">
        <ele>413.4</ele>
        <time>2022-05-08T15:05:08Z</time>
      </trkpt>
      <trkpt lat="46.05221" lon="4.56859">
        <ele>413.6</ele>
        <time>2022-05-08T15:05:12Z</time>
      </trkpt>
      <trkpt lat="46.05225" lon="4.56888">
        <ele>414</ele>
        <time>2022-05-08T15:05:16Z</time>
      </trkpt>
      <trkpt lat="46.05227" lon="4.56915">
        <ele>415.6</ele>
        <time>2022-05-08T15:05:20Z</time>
      </trkpt>
      <trkpt lat="46.05228" lon="4.56938">
        <ele>416.4</ele>
        <time>2022-05-08T15:05:24Z</time>
      </trkpt>
      <trkpt lat="46.05229" lon="4.56962">
        <ele>416.6</ele>
        <time>2022-05-08T15:05:28Z</time>
      </trkpt>
      <trkpt lat="46.0523" lon="4.56987">
        <ele>416.2</ele>
        <time>2022-05-08T15:05:32Z</time>
      </trkpt>
      <trkpt lat="46.05231" lon="4.57011">
        <ele>415</ele>
        <time>2022-05-08T15:05:36Z</time>
      </trkpt>
      <trkpt lat="46.05232" lon="4.57035">
        <ele>415.6</ele>
        <time>2022-05-08T15:05:40Z</time>
      </trkpt>
      <trkpt lat="46.05233" lon="4.57059">
        <ele>415</ele>
        <time>2022-05-08T15:05:44Z</time>
      </trkpt>
      <trkpt lat="46.05233" lon="4.57082">
        <ele>415</ele>
        <time>2022-05-08T15:05:48Z</time>
      </trkpt>
      <trkpt lat="46.05233" lon="4.57105">
        <ele>414</ele>
        <time>2022-05-08T15:05:52Z</time>
      </trkpt>
      <trkpt lat="46.05231" lon="4.57128">
        <ele>414.8</ele>
        <time>2022-05-08T15:05:56Z</time>
      </trkpt>
      <trkpt lat="46.05225" lon="4.57151">
        <ele>414.4</ele>
        <time>2022-05-08T15:06:00Z</time>
      </trkpt>
      <trkpt lat="46.05219" lon="4.57173">
        <ele>414.4</ele>
        <time>2022-05-08T15:06:04Z</time>
      </trkpt>
      <trkpt lat="46.05213" lon="4.57198">
        <ele>413.8</ele>
        <time>2022-05-08T15:06:08Z</time>
      </trkpt>
      <trkpt lat="46.05206" lon="4.57223">
        <ele>413.8</ele>
        <time>2022-05-08T15:06:12Z</time>
      </trkpt>
      <trkpt lat="46.05198" lon="4.57248">
        <ele>412.6</ele>
        <time>2022-05-08T15:06:16Z</time>
      </trkpt>
      <trkpt lat="46.05191" lon="4.57277">
        <ele>411.2</ele>
        <time>2022-05-08T15:06:20Z</time>
      </trkpt>
      <trkpt lat="46.05185" lon="4.5731">
        <ele>410.4</ele>
        <time>2022-05-08T15:06:24Z</time>
      </trkpt>
      <trkpt lat="46.05181" lon="4.57346">
        <ele>408.6</ele>
        <time>2022-05-08T15:06:28Z</time>
      </trkpt>
      <trkpt lat="46.05181" lon="4.57385">
        <ele>406.6</ele>
        <time>2022-05-08T15:06:32Z</time>
      </trkpt>
      <trkpt lat="46.05186" lon="4.57425">
        <ele>404.2</ele>
        <time>2022-05-08T15:06:36Z</time>
      </trkpt>
      <trkpt lat="46.05196" lon="4.57465">
        <ele>401.6</ele>
        <time>2022-05-08T15:06:40Z</time>
      </trkpt>
      <trkpt lat="46.0521" lon="4.57501">
        <ele>402</ele>
        <time>2022-05-08T15:06:44Z</time>
      </trkpt>
      <trkpt lat="46.05229" lon="4.57533">
        <ele>399</ele>
        <time>2022-05-08T15:06:48Z</time>
      </trkpt>
      <trkpt lat="46.05248" lon="4.57567">
        <ele>398.6</ele>
        <time>2022-05-08T15:06:52Z</time>
      </trkpt>
      <trkpt lat="46.05256" lon="4.5761">
        <ele>398</ele>
        <time>2022-05-08T15:06:56Z</time>
      </trkpt>
      <trkpt lat="46.05254" lon="4.57655">
        <ele>393</ele>
        <time>2022-05-08T15:07:00Z</time>
      </trkpt>
      <trkpt lat="46.05264" lon="4.57695">
        <ele>391</ele>
        <time>2022-05-08T15:07:04Z</time>
      </trkpt>
      <trkpt lat="46.05279" lon="4.57727">
        <ele>390.6</ele>
        <time>2022-05-08T15:07:08Z</time>
      </trkpt>
      <trkpt lat="46.05298" lon="4.57753">
        <ele>391.6</ele>
        <time>2022-05-08T15:07:12Z</time>
      </trkpt>
      <trkpt lat="46.05318" lon="4.57778">
        <ele>390</ele>
        <time>2022-05-08T15:07:16Z</time>
      </trkpt>
      <trkpt lat="46.05323" lon="4.57819">
        <ele>390</ele>
        <time>2022-05-08T15:07:20Z</time>
      </trkpt>
      <trkpt lat="46.05321" lon="4.57864">
        <ele>387</ele>
        <time>2022-05-08T15:07:24Z</time>
      </trkpt>
      <trkpt lat="46.05319" lon="4.57911">
        <ele>384.4</ele>
        <time>2022-05-08T15:07:28Z</time>
      </trkpt>
      <trkpt lat="46.05323" lon="4.57956">
        <ele>382.4</ele>
        <time>2022-05-08T15:07:32Z</time>
      </trkpt>
      <trkpt lat="46.05337" lon="4.57996">
        <ele>380.8</ele>
        <time>2022-05-08T15:07:36Z</time>
      </trkpt>
      <trkpt lat="46.05357" lon="4.58025">
        <ele>380</ele>
        <time>2022-05-08T15:07:40Z</time>
      </trkpt>
      <trkpt lat="46.05381" lon="4.58048">
        <ele>378.2</ele>
        <time>2022-05-08T15:07:44Z</time>
      </trkpt>
      <trkpt lat="46.05406" lon="4.5807">
        <ele>377.2</ele>
        <time>2022-05-08T15:07:48Z</time>
      </trkpt>
      <trkpt lat="46.05432" lon="4.58093">
        <ele>376</ele>
        <time>2022-05-08T15:07:52Z</time>
      </trkpt>
      <trkpt lat="46.05458" lon="4.58114">
        <ele>373.8</ele>
        <time>2022-05-08T15:07:56Z</time>
      </trkpt>
      <trkpt lat="46.05483" lon="4.58137">
        <ele>372</ele>
        <time>2022-05-08T15:08:00Z</time>
      </trkpt>
      <trkpt lat="46.05489" lon="4.58183">
        <ele>370.2</ele>
        <time>2022-05-08T15:08:04Z</time>
      </trkpt>
      <trkpt lat="46.05481" lon="4.58227">
        <ele>369.4</ele>
        <time>2022-05-08T15:08:08Z</time>
      </trkpt>
      <trkpt lat="46.05471" lon="4.58269">
        <ele>369.6</ele>
        <time>2022-05-08T15:08:12Z</time>
      </trkpt>
      <trkpt lat="46.05465" lon="4.58314">
        <ele>366.4</ele>
        <time>2022-05-08T15:08:16Z</time>
      </trkpt>
      <trkpt lat="46.05472" lon="4.58358">
        <ele>365.6</ele>
        <time>2022-05-08T15:08:20Z</time>
      </trkpt>
      <trkpt lat="46.05489" lon="4.58394">
        <ele>363.8</ele>
        <time>2022-05-08T15:08:24Z</time>
      </trkpt>
      <trkpt lat="46.05507" lon="4.58428">
        <ele>363</ele>
        <time>2022-05-08T15:08:28Z</time>
      </trkpt>
      <trkpt lat="46.05525" lon="4.58462">
        <ele>362.2</ele>
        <time>2022-05-08T15:08:32Z</time>
      </trkpt>
      <trkpt lat="46.05543" lon="4.58496">
        <ele>359.6</ele>
        <time>2022-05-08T15:08:36Z</time>
      </trkpt>
      <trkpt lat="46.0556" lon="4.58529">
        <ele>358.4</ele>
        <time>2022-05-08T15:08:40Z</time>
      </trkpt>
      <trkpt lat="46.05578" lon="4.58563">
        <ele>358.2</ele>
        <time>2022-05-08T15:08:44Z</time>
      </trkpt>
      <trkpt lat="46.05592" lon="4.58601">
        <ele>355</ele>
        <time>2022-05-08T15:08:48Z</time>
      </trkpt>
      <trkpt lat="46.05603" lon="4.58643">
        <ele>354.6</ele>
        <time>2022-05-08T15:08:52Z</time>
      </trkpt>
      <trkpt lat="46.05614" lon="4.58684">
        <ele>354.4</ele>
        <time>2022-05-08T15:08:56Z</time>
      </trkpt>
      <trkpt lat="46.05625" lon="4.58727">
        <ele>350.4</ele>
        <time>2022-05-08T15:09:00Z</time>
      </trkpt>
      <trkpt lat="46.0563" lon="4.58771">
        <ele>350</ele>
        <time>2022-05-08T15:09:04Z</time>
      </trkpt>
      <trkpt lat="46.05634" lon="4.58813">
        <ele>347.4</ele>
        <time>2022-05-08T15:09:08Z</time>
      </trkpt>
      <trkpt lat="46.05649" lon="4.58847">
        <ele>345.8</ele>
        <time>2022-05-08T15:09:12Z</time>
      </trkpt>
      <trkpt lat="46.05668" lon="4.58875">
        <ele>345</ele>
        <time>2022-05-08T15:09:16Z</time>
      </trkpt>
      <trkpt lat="46.05686" lon="4.58903">
        <ele>342</ele>
        <time>2022-05-08T15:09:20Z</time>
      </trkpt>
      <trkpt lat="46.05699" lon="4.58927">
        <ele>345.2</ele>
        <time>2022-05-08T15:09:24Z</time>
      </trkpt>
      <trkpt lat="46.05696" lon="4.58953">
        <ele>344.6</ele>
        <time>2022-05-08T15:09:47Z</time>
      </trkpt>
      <trkpt lat="46.05684" lon="4.58973">
        <ele>341.6</ele>
        <time>2022-05-08T15:09:51Z</time>
      </trkpt>
      <trkpt lat="46.05672" lon="4.58996">
        <ele>339.2</ele>
        <time>2022-05-08T15:09:55Z</time>
      </trkpt>
      <trkpt lat="46.05667" lon="4.59024">
        <ele>338</ele>
        <time>2022-05-08T15:09:59Z</time>
      </trkpt>
      <trkpt lat="46.05664" lon="4.59045">
        <ele>333.6</ele>
        <time>2022-05-08T15:10:03Z</time>
      </trkpt>
      <trkpt lat="46.05665" lon="4.5907">
        <ele>331.2</ele>
        <time>2022-05-08T15:10:07Z</time>
      </trkpt>
      <trkpt lat="46.05663" lon="4.59075">
        <ele>332.2</ele>
        <time>2022-05-08T15:10:11Z</time>
      </trkpt>
      <trkpt lat="46.05663" lon="4.59075">
        <ele>332.4</ele>
        <time>2022-05-08T15:10:15Z</time>
      </trkpt>
      <trkpt lat="46.05661" lon="4.59079">
        <ele>328.6</ele>
        <time>2022-05-08T15:10:19Z</time>
      </trkpt>
      <trkpt lat="46.0566" lon="4.59098">
        <ele>327.4</ele>
        <time>2022-05-08T15:10:23Z</time>
      </trkpt>
      <trkpt lat="46.05659" lon="4.59116">
        <ele>324.4</ele>
        <time>2022-05-08T15:10:27Z</time>
      </trkpt>
      <trkpt lat="46.05659" lon="4.59135">
        <ele>323.2</ele>
        <time>2022-05-08T15:10:31Z</time>
      </trkpt>
      <trkpt lat="46.05659" lon="4.59146">
        <ele>320.8</ele>
        <time>2022-05-08T15:10:35Z</time>
      </trkpt>
      <trkpt lat="46.05656" lon="4.59159">
        <ele>318.6</ele>
        <time>2022-05-08T15:10:39Z</time>
      </trkpt>
      <trkpt lat="46.05654" lon="4.59177">
        <ele>317.6</ele>
        <time>2022-05-08T15:10:43Z</time>
      </trkpt>
      <trkpt lat="46.05654" lon="4.59195">
        <ele>316.6</ele>
        <time>2022-05-08T15:10:47Z</time>
      </trkpt>
      <trkpt lat="46.05649" lon="4.5921">
        <ele>315.6</ele>
        <time>2022-05-08T15:10:51Z</time>
      </trkpt>
      <trkpt lat="46.05643" lon="4.59211">
        <ele>314.8</ele>
        <time>2022-05-08T15:10:55Z</time>
      </trkpt>
      <trkpt lat="46.05636" lon="4.59192">
        <ele>313.8</ele>
        <time>2022-05-08T15:10:59Z</time>
      </trkpt>
      <trkpt lat="46.05627" lon="4.59172">
        <ele>311.6</ele>
        <time>2022-05-08T15:11:03Z</time>
      </trkpt>
      <trkpt lat="46.05615" lon="4.59176">
        <ele>310.6</ele>
        <time>2022-05-08T15:11:07Z</time>
      </trkpt>
      <trkpt lat="46.05612" lon="4.5919">
        <ele>310</ele>
        <time>2022-05-08T15:11:11Z</time>
      </trkpt>
      <trkpt lat="46.05615" lon="4.59206">
        <ele>308.6</ele>
        <time>2022-05-08T15:11:15Z</time>
      </trkpt>
      <trkpt lat="46.0562" lon="4.59225">
        <ele>309.6</ele>
        <time>2022-05-08T15:11:19Z</time>
      </trkpt>
      <trkpt lat="46.05623" lon="4.59238">
        <ele>308.6</ele>
        <time>2022-05-08T15:11:23Z</time>
      </trkpt>
      <trkpt lat="46.05626" lon="4.59251">
        <ele>306.8</ele>
        <time>2022-05-08T15:11:27Z</time>
      </trkpt>
      <trkpt lat="46.05631" lon="4.5927">
        <ele>305.6</ele>
        <time>2022-05-08T15:11:31Z</time>
      </trkpt>
      <trkpt lat="46.05634" lon="4.59294">
        <ele>302.6</ele>
        <time>2022-05-08T15:11:35Z</time>
      </trkpt>
      <trkpt lat="46.05636" lon="4.59327">
        <ele>301.2</ele>
        <time>2022-05-08T15:11:39Z</time>
      </trkpt>
      <trkpt lat="46.05639" lon="4.59358">
        <ele>299</ele>
        <time>2022-05-08T15:11:43Z</time>
      </trkpt>
      <trkpt lat="46.05643" lon="4.5939">
        <ele>300</ele>
        <time>2022-05-08T15:11:47Z</time>
      </trkpt>
      <trkpt lat="46.05637" lon="4.59413">
        <ele>297.8</ele>
        <time>2022-05-08T15:11:51Z</time>
      </trkpt>
      <trkpt lat="46.05617" lon="4.59398">
        <ele>296.4</ele>
        <time>2022-05-08T15:11:55Z</time>
      </trkpt>
      <trkpt lat="46.05604" lon="4.59364">
        <ele>295.2</ele>
        <time>2022-05-08T15:11:59Z</time>
      </trkpt>
      <trkpt lat="46.05591" lon="4.59333">
        <ele>294.6</ele>
        <time>2022-05-08T15:12:03Z</time>
      </trkpt>
      <trkpt lat="46.05575" lon="4.59306">
        <ele>294</ele>
        <time>2022-05-08T15:12:07Z</time>
      </trkpt>
      <trkpt lat="46.05562" lon="4.59283">
        <ele>293.4</ele>
        <time>2022-05-08T15:12:11Z</time>
      </trkpt>
    </trkseg>
  </trk>
</gpx>